<?xml version='1.0' encoding='UTF-8'?><gpx version="1.1" creator="JPX - https://github.com/jenetics/jpx" xmlns="http://www.topografix.com/GPX/1/1"><trk><trkseg><trkpt lat="42.93557315628954" lon="10.775510851975062"><ele>25.000000000000004</ele><time>2026-04-06T09:46:56Z</time></trkpt><trkpt lat="42.935613791434285" lon="10.775584422505014"><ele>25.0</ele><time>2026-04-06T09:47:06Z</time></trkpt><trkpt lat="42.93570044731709" lon="10.775730587122062"><ele>25.0</ele><time>2026-04-06T09:47:08Z</time></trkpt><trkpt lat="42.93573387098437" lon="10.775833532001279"><ele>25.0</ele><time>2026-04-06T09:47:09Z</time></trkpt><trkpt lat="42.9357714444536" lon="10.775925691579747"><ele>25.000000000000004</ele><time>2026-04-06T09:47:10Z</time></trkpt><trkpt lat="42.9358079256447" lon="10.77600848510796"><ele>25.0</ele><time>2026-04-06T09:47:11Z</time></trkpt><trkpt lat="42.93583790782755" lon="10.77609129651228"><ele>25.166666666666668</ele><time>2026-04-06T09:47:12Z</time></trkpt><trkpt lat="42.935859373861696" lon="10.776186958369676"><ele>25.333333333333336</ele><time>2026-04-06T09:47:13Z</time></trkpt><trkpt lat="42.93585460058577" lon="10.776299596718767"><ele>25.5</ele><time>2026-04-06T09:47:14Z</time></trkpt><trkpt lat="42.935831438077784" lon="10.776419793178311"><ele>25.666666666666664</ele><time>2026-04-06T09:47:15Z</time></trkpt><trkpt lat="42.935801406966114" lon="10.77655033521362"><ele>25.833333333333332</ele><time>2026-04-06T09:47:16Z</time></trkpt><trkpt lat="42.93579445907693" lon="10.776675185942151"><ele>26.0</ele><time>2026-04-06T09:47:17Z</time></trkpt><trkpt lat="42.93581563178079" lon="10.776803936464393"><ele>26.0</ele><time>2026-04-06T09:47:18Z</time></trkpt><trkpt lat="42.93586396709835" lon="10.776918400190485"><ele>26.0</ele><time>2026-04-06T09:47:19Z</time></trkpt><trkpt lat="42.93593706503984" lon="10.777003556770445"><ele>26.0</ele><time>2026-04-06T09:47:20Z</time></trkpt><trkpt lat="42.93602416879282" lon="10.777052573165447"><ele>26.0</ele><time>2026-04-06T09:47:21Z</time></trkpt><trkpt lat="42.93611212334421" lon="10.777064756745078"><ele>26.0</ele><time>2026-04-06T09:47:22Z</time></trkpt><trkpt lat="42.9361947402326" lon="10.777047765803383"><ele>26.0</ele><time>2026-04-06T09:47:23Z</time></trkpt><trkpt lat="42.93627686945723" lon="10.777040336685893"><ele>26.0</ele><time>2026-04-06T09:47:24Z</time></trkpt><trkpt lat="42.93636760756173" lon="10.777054992305787"><ele>26.0</ele><time>2026-04-06T09:47:25Z</time></trkpt><trkpt lat="42.93646043096094" lon="10.777093406400297"><ele>26.0</ele><time>2026-04-06T09:47:26Z</time></trkpt><trkpt lat="42.93652828322493" lon="10.777245951372903"><ele>26.0</ele><time>2026-04-06T09:47:27Z</time></trkpt><trkpt lat="42.936617287212705" lon="10.77735547623654"><ele>26.0</ele><time>2026-04-06T09:47:28Z</time></trkpt><trkpt lat="42.936700677049785" lon="10.777469659734145"><ele>26.0</ele><time>2026-04-06T09:47:29Z</time></trkpt><trkpt lat="42.93679103060354" lon="10.777585003858965"><ele>26.0</ele><time>2026-04-06T09:47:30Z</time></trkpt><trkpt lat="42.936874529368396" lon="10.777700228103013"><ele>26.0</ele><time>2026-04-06T09:47:31Z</time></trkpt><trkpt lat="42.93695134721388" lon="10.777806750594635"><ele>26.0</ele><time>2026-04-06T09:47:32Z</time></trkpt><trkpt lat="42.93703822582473" lon="10.777926196397413"><ele>26.0</ele><time>2026-04-06T09:47:33Z</time></trkpt><trkpt lat="42.93712854929264" lon="10.778049804073545"><ele>26.0</ele><time>2026-04-06T09:47:34Z</time></trkpt><trkpt lat="42.937227680729144" lon="10.778182840934456"><ele>26.0</ele><time>2026-04-06T09:47:35Z</time></trkpt><trkpt lat="42.93733133808407" lon="10.77832382157862"><ele>26.0</ele><time>2026-04-06T09:47:36Z</time></trkpt><trkpt lat="42.93743771016381" lon="10.778468645836636"><ele>26.0</ele><time>2026-04-06T09:47:37Z</time></trkpt><trkpt lat="42.937549661366546" lon="10.778618423723245"><ele>26.0</ele><time>2026-04-06T09:47:38Z</time></trkpt><trkpt lat="42.93765997194804" lon="10.778759193591503"><ele>26.25</ele><time>2026-04-06T09:47:39Z</time></trkpt><trkpt lat="42.937775667226354" lon="10.778890038578332"><ele>26.5</ele><time>2026-04-06T09:47:40Z</time></trkpt><trkpt lat="42.93789464595518" lon="10.779007656213134"><ele>26.75</ele><time>2026-04-06T09:47:41Z</time></trkpt><trkpt lat="42.93800944336347" lon="10.779125143570967"><ele>27.0</ele><time>2026-04-06T09:47:42Z</time></trkpt><trkpt lat="42.938133831418845" lon="10.779228195865524"><ele>27.0</ele><time>2026-04-06T09:47:43Z</time></trkpt><trkpt lat="42.93827349882331" lon="10.77932238671455"><ele>27.0</ele><time>2026-04-06T09:47:44Z</time></trkpt><trkpt lat="42.938402383455006" lon="10.779415699572091"><ele>27.0</ele><time>2026-04-06T09:47:45Z</time></trkpt><trkpt lat="42.93853318010534" lon="10.779502467159647"><ele>27.0</ele><time>2026-04-06T09:47:46Z</time></trkpt><trkpt lat="42.93866403663154" lon="10.779582561754824"><ele>27.666666666666664</ele><time>2026-04-06T09:47:47Z</time></trkpt><trkpt lat="42.93880362098605" lon="10.779653812845067"><ele>28.333333333333332</ele><time>2026-04-06T09:47:48Z</time></trkpt><trkpt lat="42.93895105432169" lon="10.779725086434278"><ele>29.0</ele><time>2026-04-06T09:47:49Z</time></trkpt><trkpt lat="42.93910510945225" lon="10.779786894521001"><ele>29.333333333333332</ele><time>2026-04-06T09:47:50Z</time></trkpt><trkpt lat="42.93926558091816" lon="10.779843823171836"><ele>29.666666666666664</ele><time>2026-04-06T09:47:51Z</time></trkpt><trkpt lat="42.93943262923291" lon="10.779891515218347"><ele>30.0</ele><time>2026-04-06T09:47:52Z</time></trkpt><trkpt lat="42.93960784242143" lon="10.779929721178155"><ele>30.0</ele><time>2026-04-06T09:47:53Z</time></trkpt><trkpt lat="42.93978559681399" lon="10.779955164860997"><ele>30.0</ele><time>2026-04-06T09:47:54Z</time></trkpt><trkpt lat="42.93996727931521" lon="10.779969869206958"><ele>30.0</ele><time>2026-04-06T09:47:55Z</time></trkpt><trkpt lat="42.940151005400985" lon="10.77997499706127"><ele>30.0</ele><time>2026-04-06T09:47:56Z</time></trkpt><trkpt lat="42.94033369579322" lon="10.779971817630209"><ele>30.0</ele><time>2026-04-06T09:47:57Z</time></trkpt><trkpt lat="42.94051176366496" lon="10.779968753702573"><ele>30.0</ele><time>2026-04-06T09:47:58Z</time></trkpt><trkpt lat="42.94068799598757" lon="10.779961474772156"><ele>30.0</ele><time>2026-04-06T09:47:59Z</time></trkpt><trkpt lat="42.94086977935821" lon="10.779947353275432"><ele>30.0</ele><time>2026-04-06T09:48:00Z</time></trkpt><trkpt lat="42.941049536020955" lon="10.779936988074592"><ele>30.0</ele><time>2026-04-06T09:48:01Z</time></trkpt><trkpt lat="42.94122611353066" lon="10.779925395695267"><ele>30.0</ele><time>2026-04-06T09:48:02Z</time></trkpt><trkpt lat="42.941407557664355" lon="10.779910711656544"><ele>30.0</ele><time>2026-04-06T09:48:03Z</time></trkpt><trkpt lat="42.941589603371355" lon="10.779897574894402"><ele>30.0</ele><time>2026-04-06T09:48:04Z</time></trkpt><trkpt lat="42.94177196675075" lon="10.779886685384728"><ele>30.0</ele><time>2026-04-06T09:48:05Z</time></trkpt><trkpt lat="42.94195367722357" lon="10.779878573485096"><ele>30.0</ele><time>2026-04-06T09:48:06Z</time></trkpt><trkpt lat="42.94213422752913" lon="10.779865026600168"><ele>30.0</ele><time>2026-04-06T09:48:07Z</time></trkpt><trkpt lat="42.94231180403063" lon="10.779852856623515"><ele>30.0</ele><time>2026-04-06T09:48:08Z</time></trkpt><trkpt lat="42.94248514177948" lon="10.779842368636535"><ele>30.0</ele><time>2026-04-06T09:48:09.001Z</time></trkpt><trkpt lat="42.94265859847363" lon="10.779835107808735"><ele>30.0</ele><time>2026-04-06T09:48:10.001Z</time></trkpt><trkpt lat="42.942837803419884" lon="10.77982219022678"><ele>29.666666666666664</ele><time>2026-04-06T09:48:11.001Z</time></trkpt><trkpt lat="42.943021169118495" lon="10.779811463322089"><ele>29.333333333333332</ele><time>2026-04-06T09:48:12.001Z</time></trkpt><trkpt lat="42.94321331356634" lon="10.779817294029655"><ele>29.0</ele><time>2026-04-06T09:48:13.001Z</time></trkpt><trkpt lat="42.94340947682262" lon="10.779834573368595"><ele>29.0</ele><time>2026-04-06T09:48:14.001Z</time></trkpt><trkpt lat="42.94361581273209" lon="10.77986500577942"><ele>29.0</ele><time>2026-04-06T09:48:15.001Z</time></trkpt><trkpt lat="42.943836979802626" lon="10.779910071361291"><ele>29.0</ele><time>2026-04-06T09:48:16.001Z</time></trkpt><trkpt lat="42.94407447521817" lon="10.779960129122323"><ele>29.5</ele><time>2026-04-06T09:48:17.001Z</time></trkpt><trkpt lat="42.94433649928418" lon="10.780007309068791"><ele>30.0</ele><time>2026-04-06T09:48:18.001Z</time></trkpt><trkpt lat="42.94463230524153" lon="10.780061814253294"><ele>30.0</ele><time>2026-04-06T09:48:19.001Z</time></trkpt><trkpt lat="42.944961842489576" lon="10.78013570792771"><ele>30.0</ele><time>2026-04-06T09:48:20.001Z</time></trkpt><trkpt lat="42.945315101232715" lon="10.780220515765347"><ele>30.0</ele><time>2026-04-06T09:48:21.001Z</time></trkpt><trkpt lat="42.945676606230265" lon="10.780313022708114"><ele>30.0</ele><time>2026-04-06T09:48:22.001Z</time></trkpt><trkpt lat="42.946047188177936" lon="10.780423085407717"><ele>30.5</ele><time>2026-04-06T09:48:23.001Z</time></trkpt><trkpt lat="42.94640653076449" lon="10.780515564912694"><ele>31.0</ele><time>2026-04-06T09:48:24.001Z</time></trkpt><trkpt lat="42.94670379447308" lon="10.780576180264754"><ele>30.5</ele><time>2026-04-06T09:48:25.001Z</time></trkpt><trkpt lat="42.94693951424964" lon="10.780619450031443"><ele>30.0</ele><time>2026-04-06T09:48:26.001Z</time></trkpt><trkpt lat="42.94715027685409" lon="10.780660572273236"><ele>30.0</ele><time>2026-04-06T09:48:27.001Z</time></trkpt><trkpt lat="42.947346931614085" lon="10.780702868242276"><ele>30.0</ele><time>2026-04-06T09:48:28.001Z</time></trkpt><trkpt lat="42.94752760499743" lon="10.780740756633795"><ele>30.0</ele><time>2026-04-06T09:48:29.001Z</time></trkpt><trkpt lat="42.94769556142848" lon="10.780778307204507"><ele>30.333333333333336</ele><time>2026-04-06T09:48:30.001Z</time></trkpt><trkpt lat="42.94786361954065" lon="10.780820816486807"><ele>30.666666666666668</ele><time>2026-04-06T09:48:31.001Z</time></trkpt><trkpt lat="42.94803358666667" lon="10.780872780167778"><ele>31.0</ele><time>2026-04-06T09:48:32.001Z</time></trkpt><trkpt lat="42.94820580194068" lon="10.780937661071452"><ele>31.0</ele><time>2026-04-06T09:48:33.001Z</time></trkpt><trkpt lat="42.948372415309215" lon="10.781013009490227"><ele>31.0</ele><time>2026-04-06T09:48:34.001Z</time></trkpt><trkpt lat="42.94853081471456" lon="10.781108361250158"><ele>31.0</ele><time>2026-04-06T09:48:35Z</time></trkpt><trkpt lat="42.94868126816892" lon="10.781217268927646"><ele>31.666666666666668</ele><time>2026-04-06T09:48:36Z</time></trkpt><trkpt lat="42.948824080249445" lon="10.781345780229497"><ele>32.333333333333336</ele><time>2026-04-06T09:48:37Z</time></trkpt><trkpt lat="42.94895851827588" lon="10.78148067813694"><ele>33.0</ele><time>2026-04-06T09:48:38Z</time></trkpt><trkpt lat="42.94908325863635" lon="10.781628432228741"><ele>33.0</ele><time>2026-04-06T09:48:39Z</time></trkpt><trkpt lat="42.949198687743106" lon="10.781788658385986"><ele>33.0</ele><time>2026-04-06T09:48:40Z</time></trkpt><trkpt lat="42.94931047019762" lon="10.78196017417639"><ele>33.0</ele><time>2026-04-06T09:48:41Z</time></trkpt><trkpt lat="42.94940971960106" lon="10.782144761505592"><ele>32.333333333333336</ele><time>2026-04-06T09:48:42Z</time></trkpt><trkpt lat="42.94949423986452" lon="10.782325795596927"><ele>31.666666666666668</ele><time>2026-04-06T09:48:43Z</time></trkpt><trkpt lat="42.94957277661944" lon="10.782513210229503"><ele>31.0</ele><time>2026-04-06T09:48:44Z</time></trkpt><trkpt lat="42.94964083748157" lon="10.782714613762595"><ele>30.0</ele><time>2026-04-06T09:48:45Z</time></trkpt><trkpt lat="42.94970383551269" lon="10.782927852952053"><ele>29.0</ele><time>2026-04-06T09:48:46Z</time></trkpt><trkpt lat="42.949760488119104" lon="10.783133318302628"><ele>28.0</ele><time>2026-04-06T09:48:47Z</time></trkpt><trkpt lat="42.949813192731554" lon="10.78333949055327"><ele>28.333333333333336</ele><time>2026-04-06T09:48:48Z</time></trkpt><trkpt lat="42.94987005540378" lon="10.78354983844378"><ele>28.666666666666664</ele><time>2026-04-06T09:48:49Z</time></trkpt><trkpt lat="42.94992114291968" lon="10.783764127928984"><ele>29.0</ele><time>2026-04-06T09:48:50Z</time></trkpt><trkpt lat="42.94997359381107" lon="10.783982845128792"><ele>29.0</ele><time>2026-04-06T09:48:51Z</time></trkpt><trkpt lat="42.95003026811589" lon="10.784202415047274"><ele>29.0</ele><time>2026-04-06T09:48:52Z</time></trkpt><trkpt lat="42.9500845045418" lon="10.78442167137082"><ele>29.0</ele><time>2026-04-06T09:48:53Z</time></trkpt><trkpt lat="42.95014311070894" lon="10.784632897375966"><ele>28.0</ele><time>2026-04-06T09:48:54Z</time></trkpt><trkpt lat="42.95019324787164" lon="10.784846807692567"><ele>27.0</ele><time>2026-04-06T09:48:55Z</time></trkpt><trkpt lat="42.95024652558699" lon="10.785058765225092"><ele>26.0</ele><time>2026-04-06T09:48:56Z</time></trkpt><trkpt lat="42.950303660230475" lon="10.785279725829124"><ele>26.0</ele><time>2026-04-06T09:48:57Z</time></trkpt><trkpt lat="42.95035769470333" lon="10.78550080066002"><ele>26.0</ele><time>2026-04-06T09:48:58Z</time></trkpt><trkpt lat="42.95041432812165" lon="10.785727463333574"><ele>26.0</ele><time>2026-04-06T09:48:59Z</time></trkpt><trkpt lat="42.95047403022725" lon="10.785959820851316"><ele>25.666666666666664</ele><time>2026-04-06T09:49:00Z</time></trkpt><trkpt lat="42.95053596689458" lon="10.786197231391057"><ele>25.333333333333336</ele><time>2026-04-06T09:49:01Z</time></trkpt><trkpt lat="42.95061056531467" lon="10.786457576099112"><ele>25.0</ele><time>2026-04-06T09:49:02Z</time></trkpt><trkpt lat="42.95070563906308" lon="10.786757518281988"><ele>25.0</ele><time>2026-04-06T09:49:03Z</time></trkpt><trkpt lat="42.950786221470935" lon="10.787103732330081"><ele>25.0</ele><time>2026-04-06T09:49:04Z</time></trkpt><trkpt lat="42.95086907049505" lon="10.78746003908745"><ele>24.0</ele><time>2026-04-06T09:49:05Z</time></trkpt><trkpt lat="42.950979211974854" lon="10.787806824625434"><ele>23.0</ele><time>2026-04-06T09:49:06Z</time></trkpt><trkpt lat="42.95111406940753" lon="10.788135718911528"><ele>23.0</ele><time>2026-04-06T09:49:07Z</time></trkpt><trkpt lat="42.95126180309376" lon="10.788450136427123"><ele>23.0</ele><time>2026-04-06T09:49:08Z</time></trkpt><trkpt lat="42.95142763370443" lon="10.788747755468435"><ele>24.0</ele><time>2026-04-06T09:49:09Z</time></trkpt><trkpt lat="42.95161021771433" lon="10.789029305161115"><ele>25.0</ele><time>2026-04-06T09:49:10Z</time></trkpt><trkpt lat="42.9518123595059" lon="10.789287160179772"><ele>26.0</ele><time>2026-04-06T09:49:11Z</time></trkpt><trkpt lat="42.952030409504104" lon="10.789530593940945"><ele>27.0</ele><time>2026-04-06T09:49:12Z</time></trkpt><trkpt lat="42.95225809211901" lon="10.789758577027"><ele>27.0</ele><time>2026-04-06T09:49:13Z</time></trkpt><trkpt lat="42.952494194103984" lon="10.789969868327066"><ele>27.0</ele><time>2026-04-06T09:49:14Z</time></trkpt><trkpt lat="42.95273058319507" lon="10.79017654550565"><ele>27.0</ele><time>2026-04-06T09:49:15Z</time></trkpt><trkpt lat="42.95296419936739" lon="10.79038514204617"><ele>27.0</ele><time>2026-04-06T09:49:16Z</time></trkpt><trkpt lat="42.95319300602558" lon="10.79059675894445"><ele>26.5</ele><time>2026-04-06T09:49:17Z</time></trkpt><trkpt lat="42.95342041340621" lon="10.790812624248101"><ele>26.0</ele><time>2026-04-06T09:49:18Z</time></trkpt><trkpt lat="42.953643908381245" lon="10.791017687575826"><ele>25.5</ele><time>2026-04-06T09:49:19Z</time></trkpt><trkpt lat="42.953857686199115" lon="10.791212949800212"><ele>25.0</ele><time>2026-04-06T09:49:20Z</time></trkpt><trkpt lat="42.95406291403264" lon="10.79140271001673"><ele>27.0</ele><time>2026-04-06T09:49:21Z</time></trkpt><trkpt lat="42.95426229759692" lon="10.791582412647486"><ele>29.0</ele><time>2026-04-06T09:49:22Z</time></trkpt><trkpt lat="42.95445545864654" lon="10.791760033095398"><ele>29.0</ele><time>2026-04-06T09:49:23Z</time></trkpt><trkpt lat="42.95464426828857" lon="10.791933138808307"><ele>29.0</ele><time>2026-04-06T09:49:24Z</time></trkpt><trkpt lat="42.95481609085028" lon="10.792088531607128"><ele>29.0</ele><time>2026-04-06T09:49:25Z</time></trkpt><trkpt lat="42.954970088828105" lon="10.792225082391404"><ele>30.0</ele><time>2026-04-06T09:49:26Z</time></trkpt><trkpt lat="42.95510845735916" lon="10.7923502954788"><ele>31.0</ele><time>2026-04-06T09:49:27Z</time></trkpt><trkpt lat="42.95523568994668" lon="10.792462614239609"><ele>32.0</ele><time>2026-04-06T09:49:28Z</time></trkpt><trkpt lat="42.955355339041745" lon="10.792568036714583"><ele>32.0</ele><time>2026-04-06T09:49:29Z</time></trkpt><trkpt lat="42.9554854140435" lon="10.792682709789863"><ele>32.0</ele><time>2026-04-06T09:49:30Z</time></trkpt><trkpt lat="42.955621811331994" lon="10.792810052631701"><ele>32.0</ele><time>2026-04-06T09:49:31Z</time></trkpt><trkpt lat="42.955764229413425" lon="10.792941564270192"><ele>32.33333333333333</ele><time>2026-04-06T09:49:32Z</time></trkpt><trkpt lat="42.95590954470352" lon="10.79307421971462"><ele>32.666666666666664</ele><time>2026-04-06T09:49:33Z</time></trkpt><trkpt lat="42.95605141452131" lon="10.793206202731696"><ele>33.0</ele><time>2026-04-06T09:49:34Z</time></trkpt><trkpt lat="42.95619138231616" lon="10.793338774572643"><ele>33.0</ele><time>2026-04-06T09:49:35Z</time></trkpt><trkpt lat="42.9563315323244" lon="10.793469401098925"><ele>33.0</ele><time>2026-04-06T09:49:36Z</time></trkpt><trkpt lat="42.956469030508494" lon="10.79360068065174"><ele>33.0</ele><time>2026-04-06T09:49:37Z</time></trkpt><trkpt lat="42.95661122225077" lon="10.793739444439415"><ele>32.666666666666664</ele><time>2026-04-06T09:49:38Z</time></trkpt><trkpt lat="42.95675761577645" lon="10.79386140634615"><ele>32.33333333333333</ele><time>2026-04-06T09:49:39Z</time></trkpt><trkpt lat="42.956887854676495" lon="10.793982874185442"><ele>32.0</ele><time>2026-04-06T09:49:40Z</time></trkpt><trkpt lat="42.95701945652363" lon="10.794112286462187"><ele>32.0</ele><time>2026-04-06T09:49:41Z</time></trkpt><trkpt lat="42.95715152102588" lon="10.7942388081103"><ele>32.0</ele><time>2026-04-06T09:49:42Z</time></trkpt><trkpt lat="42.95727845099076" lon="10.794358466326758"><ele>32.0</ele><time>2026-04-06T09:49:43Z</time></trkpt><trkpt lat="42.95740023700318" lon="10.794474465039569"><ele>32.0</ele><time>2026-04-06T09:49:44Z</time></trkpt><trkpt lat="42.95751904025459" lon="10.794587592197933"><ele>32.0</ele><time>2026-04-06T09:49:45Z</time></trkpt><trkpt lat="42.95763651341429" lon="10.79470279590173"><ele>32.0</ele><time>2026-04-06T09:49:46Z</time></trkpt><trkpt lat="42.95775092671642" lon="10.794815660496248"><ele>32.0</ele><time>2026-04-06T09:49:47Z</time></trkpt><trkpt lat="42.95786718336467" lon="10.794926228127114"><ele>32.0</ele><time>2026-04-06T09:49:48Z</time></trkpt><trkpt lat="42.95799011037258" lon="10.795053982398118"><ele>32.0</ele><time>2026-04-06T09:49:49Z</time></trkpt><trkpt lat="42.95812097328128" lon="10.795176307733396"><ele>32.0</ele><time>2026-04-06T09:49:50Z</time></trkpt><trkpt lat="42.95825414198769" lon="10.79529837014905"><ele>31.666666666666664</ele><time>2026-04-06T09:49:51Z</time></trkpt><trkpt lat="42.95838816198442" lon="10.795416959685603"><ele>31.333333333333336</ele><time>2026-04-06T09:49:52Z</time></trkpt><trkpt lat="42.9585208278645" lon="10.795535311210672"><ele>31.0</ele><time>2026-04-06T09:49:53Z</time></trkpt><trkpt lat="42.95865317591974" lon="10.795653507021543"><ele>31.0</ele><time>2026-04-06T09:49:54Z</time></trkpt><trkpt lat="42.95878450362464" lon="10.795777349528585"><ele>31.0</ele><time>2026-04-06T09:49:55Z</time></trkpt><trkpt lat="42.95892025305397" lon="10.795909045258535"><ele>31.0</ele><time>2026-04-06T09:49:56Z</time></trkpt><trkpt lat="42.959059891433924" lon="10.796030296733461"><ele>30.333333333333336</ele><time>2026-04-06T09:49:57Z</time></trkpt><trkpt lat="42.959192942338206" lon="10.79614946357271"><ele>29.666666666666664</ele><time>2026-04-06T09:49:58Z</time></trkpt><trkpt lat="42.95931750151277" lon="10.796263877013073"><ele>29.0</ele><time>2026-04-06T09:49:59Z</time></trkpt><trkpt lat="42.959442234438605" lon="10.79638209980716"><ele>28.666666666666664</ele><time>2026-04-06T09:50:00Z</time></trkpt><trkpt lat="42.9595669495797" lon="10.79649844158599"><ele>28.333333333333336</ele><time>2026-04-06T09:50:01Z</time></trkpt><trkpt lat="42.959698049389324" lon="10.79661513525753"><ele>28.0</ele><time>2026-04-06T09:50:02Z</time></trkpt><trkpt lat="42.959833873592416" lon="10.79674060783627"><ele>27.333333333333336</ele><time>2026-04-06T09:50:03Z</time></trkpt><trkpt lat="42.95997344518604" lon="10.796871428330723"><ele>26.666666666666664</ele><time>2026-04-06T09:50:04Z</time></trkpt><trkpt lat="42.96011652717299" lon="10.797003998021703"><ele>26.0</ele><time>2026-04-06T09:50:05Z</time></trkpt><trkpt lat="42.96026077230533" lon="10.797137576424158"><ele>25.333333333333332</ele><time>2026-04-06T09:50:06Z</time></trkpt><trkpt lat="42.960403734631164" lon="10.797271428034431"><ele>24.666666666666664</ele><time>2026-04-06T09:50:07Z</time></trkpt><trkpt lat="42.960550539715484" lon="10.797403513931469"><ele>24.0</ele><time>2026-04-06T09:50:08Z</time></trkpt><trkpt lat="42.960696585235056" lon="10.797537543233624"><ele>23.333333333333332</ele><time>2026-04-06T09:50:09Z</time></trkpt><trkpt lat="42.960847354222004" lon="10.797674048160191"><ele>22.666666666666664</ele><time>2026-04-06T09:50:10Z</time></trkpt><trkpt lat="42.961003756663395" lon="10.797819238652568"><ele>22.0</ele><time>2026-04-06T09:50:11Z</time></trkpt><trkpt lat="42.96116630322854" lon="10.79796327967317"><ele>22.0</ele><time>2026-04-06T09:50:12.001Z</time></trkpt><trkpt lat="42.961325062846775" lon="10.798107964458145"><ele>22.0</ele><time>2026-04-06T09:50:13.001Z</time></trkpt><trkpt lat="42.96148336408036" lon="10.798253798270732"><ele>22.0</ele><time>2026-04-06T09:50:14.001Z</time></trkpt><trkpt lat="42.96163808988777" lon="10.798393520998482"><ele>21.333333333333332</ele><time>2026-04-06T09:50:15.001Z</time></trkpt><trkpt lat="42.96178509631958" lon="10.798524234523523"><ele>20.666666666666668</ele><time>2026-04-06T09:50:16.001Z</time></trkpt><trkpt lat="42.961931507140335" lon="10.79865463648905"><ele>20.0</ele><time>2026-04-06T09:50:17.001Z</time></trkpt><trkpt lat="42.9620818407484" lon="10.798792787801453"><ele>20.0</ele><time>2026-04-06T09:50:18.001Z</time></trkpt><trkpt lat="42.96223518905991" lon="10.798933072939558"><ele>20.0</ele><time>2026-04-06T09:50:19.001Z</time></trkpt><trkpt lat="42.962391246487066" lon="10.799070987804836"><ele>20.0</ele><time>2026-04-06T09:50:20.001Z</time></trkpt><trkpt lat="42.962548024150216" lon="10.79920707153756"><ele>20.333333333333336</ele><time>2026-04-06T09:50:21.001Z</time></trkpt><trkpt lat="42.96271009325839" lon="10.79935635289547"><ele>20.666666666666668</ele><time>2026-04-06T09:50:22.001Z</time></trkpt><trkpt lat="42.96289984472614" lon="10.799524106896207"><ele>21.0</ele><time>2026-04-06T09:50:23.001Z</time></trkpt><trkpt lat="42.96311971734621" lon="10.799705631906782"><ele>21.0</ele><time>2026-04-06T09:50:24.001Z</time></trkpt><trkpt lat="42.9633377203062" lon="10.799908024702871"><ele>21.0</ele><time>2026-04-06T09:50:25.001Z</time></trkpt><trkpt lat="42.9635331287228" lon="10.80009356364612"><ele>21.0</ele><time>2026-04-06T09:50:26.001Z</time></trkpt><trkpt lat="42.96370995507314" lon="10.80025424853069"><ele>21.0</ele><time>2026-04-06T09:50:27.001Z</time></trkpt><trkpt lat="42.96387174471216" lon="10.800406295510497"><ele>21.0</ele><time>2026-04-06T09:50:28.001Z</time></trkpt><trkpt lat="42.96402159230223" lon="10.800547882191676"><ele>21.0</ele><time>2026-04-06T09:50:29.001Z</time></trkpt><trkpt lat="42.96417049934388" lon="10.800683936156261"><ele>21.0</ele><time>2026-04-06T09:50:30.001Z</time></trkpt><trkpt lat="42.96433228535668" lon="10.800824454192975"><ele>21.0</ele><time>2026-04-06T09:50:31.001Z</time></trkpt><trkpt lat="42.96451088441714" lon="10.800984404606098"><ele>20.5</ele><time>2026-04-06T09:50:32.001Z</time></trkpt><trkpt lat="42.964717476894435" lon="10.801157102210377"><ele>20.0</ele><time>2026-04-06T09:50:33.001Z</time></trkpt><trkpt lat="42.9649366844432" lon="10.801371114231708"><ele>20.5</ele><time>2026-04-06T09:50:34.001Z</time></trkpt><trkpt lat="42.96518258191073" lon="10.801594858694887"><ele>21.0</ele><time>2026-04-06T09:50:35.001Z</time></trkpt><trkpt lat="42.965434949345116" lon="10.801847594828006"><ele>21.0</ele><time>2026-04-06T09:50:36.001Z</time></trkpt><trkpt lat="42.9657092323104" lon="10.802095798005771"><ele>21.0</ele><time>2026-04-06T09:50:37.001Z</time></trkpt><trkpt lat="42.965973314454615" lon="10.80233837872546"><ele>21.0</ele><time>2026-04-06T09:50:38.001Z</time></trkpt><trkpt lat="42.96620711303348" lon="10.802555817323475"><ele>21.0</ele><time>2026-04-06T09:50:39.001Z</time></trkpt><trkpt lat="42.966440959690146" lon="10.802765657020336"><ele>21.0</ele><time>2026-04-06T09:50:40.001Z</time></trkpt><trkpt lat="42.96667453386043" lon="10.802976206446377"><ele>21.0</ele><time>2026-04-06T09:50:41Z</time></trkpt><trkpt lat="42.966901934080184" lon="10.803183710134924"><ele>21.5</ele><time>2026-04-06T09:50:42Z</time></trkpt><trkpt lat="42.96710849774567" lon="10.803367606062706"><ele>22.0</ele><time>2026-04-06T09:50:43Z</time></trkpt><trkpt lat="42.967304098439676" lon="10.803533238064148"><ele>22.0</ele><time>2026-04-06T09:50:44Z</time></trkpt><trkpt lat="42.96749221449704" lon="10.803674008135264"><ele>22.0</ele><time>2026-04-06T09:50:45Z</time></trkpt><trkpt lat="42.9676716266957" lon="10.80379045101836"><ele>22.0</ele><time>2026-04-06T09:50:46Z</time></trkpt><trkpt lat="42.96784133221407" lon="10.803885909309969"><ele>22.0</ele><time>2026-04-06T09:50:47Z</time></trkpt><trkpt lat="42.967997991764" lon="10.803962377136921"><ele>22.0</ele><time>2026-04-06T09:50:48Z</time></trkpt><trkpt lat="42.96814471041788" lon="10.804024127464556"><ele>22.0</ele><time>2026-04-06T09:50:49Z</time></trkpt><trkpt lat="42.96829064285967" lon="10.804084323752216"><ele>22.5</ele><time>2026-04-06T09:50:50Z</time></trkpt><trkpt lat="42.968422058867944" lon="10.804131144071402"><ele>23.0</ele><time>2026-04-06T09:50:51Z</time></trkpt><trkpt lat="42.96853774520351" lon="10.804172295684316"><ele>23.5</ele><time>2026-04-06T09:50:52Z</time></trkpt><trkpt lat="42.96864606707223" lon="10.8042196932827"><ele>24.0</ele><time>2026-04-06T09:50:53Z</time></trkpt><trkpt lat="42.96873670678128" lon="10.804274659538635"><ele>24.2</ele><time>2026-04-06T09:50:54Z</time></trkpt><trkpt lat="42.968824068784265" lon="10.804354740286728"><ele>24.4</ele><time>2026-04-06T09:50:55Z</time></trkpt><trkpt lat="42.96890078794626" lon="10.804461703488224"><ele>24.6</ele><time>2026-04-06T09:50:56Z</time></trkpt><trkpt lat="42.96898990130357" lon="10.804534530676614"><ele>24.8</ele><time>2026-04-06T09:50:57Z</time></trkpt><trkpt lat="42.9690904912291" lon="10.804570514943133"><ele>25.0</ele><time>2026-04-06T09:50:58Z</time></trkpt><trkpt lat="42.969178252722635" lon="10.80460771553596"><ele>25.0</ele><time>2026-04-06T09:50:59Z</time></trkpt><trkpt lat="42.96925869486302" lon="10.804697660575252"><ele>25.0</ele><time>2026-04-06T09:51:00Z</time></trkpt><trkpt lat="42.9693245331048" lon="10.804833772912911"><ele>25.0</ele><time>2026-04-06T09:51:01Z</time></trkpt><trkpt lat="42.96937530923275" lon="10.805001108785682"><ele>25.0</ele><time>2026-04-06T09:51:02Z</time></trkpt><trkpt lat="42.96940727636358" lon="10.805187944854929"><ele>25.0</ele><time>2026-04-06T09:51:03Z</time></trkpt><trkpt lat="42.9694202285347" lon="10.805377501197135"><ele>25.0</ele><time>2026-04-06T09:51:04Z</time></trkpt><trkpt lat="42.96941616027479" lon="10.805564819431051"><ele>25.0</ele><time>2026-04-06T09:51:05Z</time></trkpt><trkpt lat="42.96939805910986" lon="10.805747758985364"><ele>25.0</ele><time>2026-04-06T09:51:06Z</time></trkpt><trkpt lat="42.969368764010184" lon="10.805937076748595"><ele>25.0</ele><time>2026-04-06T09:51:07Z</time></trkpt><trkpt lat="42.96933479612417" lon="10.806140597986216"><ele>25.0</ele><time>2026-04-06T09:51:08Z</time></trkpt><trkpt lat="42.96930534475188" lon="10.806359036942833"><ele>25.0</ele><time>2026-04-06T09:51:09Z</time></trkpt><trkpt lat="42.96927127488504" lon="10.806593434836232"><ele>25.0</ele><time>2026-04-06T09:51:10Z</time></trkpt><trkpt lat="42.9692367625768" lon="10.806837494703212"><ele>25.0</ele><time>2026-04-06T09:51:11Z</time></trkpt><trkpt lat="42.96920506379263" lon="10.807071939226924"><ele>25.0</ele><time>2026-04-06T09:51:12Z</time></trkpt><trkpt lat="42.969177803048765" lon="10.807280241354695"><ele>25.0</ele><time>2026-04-06T09:51:13Z</time></trkpt><trkpt lat="42.96915185042642" lon="10.807512931360884"><ele>25.0</ele><time>2026-04-06T09:51:14Z</time></trkpt><trkpt lat="42.96914377475676" lon="10.807758200353955"><ele>25.0</ele><time>2026-04-06T09:51:15Z</time></trkpt><trkpt lat="42.969157256509014" lon="10.807996388387602"><ele>25.333333333333336</ele><time>2026-04-06T09:51:16Z</time></trkpt><trkpt lat="42.96920028461713" lon="10.808229023380651"><ele>25.666666666666664</ele><time>2026-04-06T09:51:17Z</time></trkpt><trkpt lat="42.96926819025319" lon="10.808454771023964"><ele>26.0</ele><time>2026-04-06T09:51:18Z</time></trkpt><trkpt lat="42.9693599587169" lon="10.808663766187204"><ele>26.0</ele><time>2026-04-06T09:51:19Z</time></trkpt><trkpt lat="42.96947503683199" lon="10.80885056794951"><ele>26.0</ele><time>2026-04-06T09:51:20Z</time></trkpt><trkpt lat="42.96961399944579" lon="10.809028616625337"><ele>26.0</ele><time>2026-04-06T09:51:21Z</time></trkpt><trkpt lat="42.96976554573205" lon="10.809201153366121"><ele>26.333333333333332</ele><time>2026-04-06T09:51:22Z</time></trkpt><trkpt lat="42.9699128277861" lon="10.809378601655492"><ele>26.666666666666664</ele><time>2026-04-06T09:51:23Z</time></trkpt><trkpt lat="42.97005798553736" lon="10.8095435209844"><ele>27.0</ele><time>2026-04-06T09:51:24Z</time></trkpt><trkpt lat="42.97019653199126" lon="10.80970340851898"><ele>27.0</ele><time>2026-04-06T09:51:25Z</time></trkpt><trkpt lat="42.97033839416799" lon="10.809869100707221"><ele>27.0</ele><time>2026-04-06T09:51:26Z</time></trkpt><trkpt lat="42.97048245875431" lon="10.810036189112004"><ele>27.0</ele><time>2026-04-06T09:51:27Z</time></trkpt><trkpt lat="42.970615528248146" lon="10.81019023713002"><ele>27.0</ele><time>2026-04-06T09:51:28Z</time></trkpt><trkpt lat="42.970747043385316" lon="10.810342090147198"><ele>27.0</ele><time>2026-04-06T09:51:29Z</time></trkpt><trkpt lat="42.97088166718205" lon="10.810498293231113"><ele>27.0</ele><time>2026-04-06T09:51:30Z</time></trkpt><trkpt lat="42.971016467454405" lon="10.810653178159289"><ele>27.0</ele><time>2026-04-06T09:51:31Z</time></trkpt><trkpt lat="42.97115225062045" lon="10.81081039426088"><ele>27.0</ele><time>2026-04-06T09:51:32Z</time></trkpt><trkpt lat="42.971291685138745" lon="10.810969811378792"><ele>27.0</ele><time>2026-04-06T09:51:33Z</time></trkpt><trkpt lat="42.97143269799339" lon="10.81113357834623"><ele>27.666666666666664</ele><time>2026-04-06T09:51:34Z</time></trkpt><trkpt lat="42.97157698850656" lon="10.81130073395288"><ele>28.333333333333332</ele><time>2026-04-06T09:51:35Z</time></trkpt><trkpt lat="42.97170633271431" lon="10.811452076673206"><ele>29.0</ele><time>2026-04-06T09:51:36Z</time></trkpt><trkpt lat="42.9718383380364" lon="10.811603112669221"><ele>29.0</ele><time>2026-04-06T09:51:37Z</time></trkpt><trkpt lat="42.971970412198736" lon="10.81175724527257"><ele>29.0</ele><time>2026-04-06T09:51:38Z</time></trkpt><trkpt lat="42.972102795451725" lon="10.811908060588424"><ele>29.0</ele><time>2026-04-06T09:51:39Z</time></trkpt><trkpt lat="42.97223139029035" lon="10.812059703529382"><ele>29.0</ele><time>2026-04-06T09:51:40Z</time></trkpt><trkpt lat="42.97235993382182" lon="10.8122109294207"><ele>29.0</ele><time>2026-04-06T09:51:41Z</time></trkpt><trkpt lat="42.97248857804502" lon="10.812360490455786"><ele>29.0</ele><time>2026-04-06T09:51:42Z</time></trkpt><trkpt lat="42.97261715411973" lon="10.812509520031664"><ele>29.333333333333332</ele><time>2026-04-06T09:51:43Z</time></trkpt><trkpt lat="42.972744774396325" lon="10.812663504993225"><ele>29.666666666666664</ele><time>2026-04-06T09:51:44Z</time></trkpt><trkpt lat="42.97287430343911" lon="10.812814995419702"><ele>30.0</ele><time>2026-04-06T09:51:45Z</time></trkpt><trkpt lat="42.9730064572952" lon="10.81296558986073"><ele>30.0</ele><time>2026-04-06T09:51:46Z</time></trkpt><trkpt lat="42.973138700484206" lon="10.813115935462163"><ele>30.0</ele><time>2026-04-06T09:51:47Z</time></trkpt><trkpt lat="42.97327146420452" lon="10.813265024183925"><ele>30.0</ele><time>2026-04-06T09:51:48Z</time></trkpt><trkpt lat="42.97340407842815" lon="10.813417042809675"><ele>31.666666666666664</ele><time>2026-04-06T09:51:49Z</time></trkpt><trkpt lat="42.97353639264682" lon="10.813569759914444"><ele>33.33333333333333</ele><time>2026-04-06T09:51:50Z</time></trkpt><trkpt lat="42.97366655817891" lon="10.81371933108609"><ele>35.0</ele><time>2026-04-06T09:51:51Z</time></trkpt><trkpt lat="42.973789639990436" lon="10.813862008290739"><ele>35.0</ele><time>2026-04-06T09:51:52Z</time></trkpt><trkpt lat="42.9739092623286" lon="10.81399880913423"><ele>35.0</ele><time>2026-04-06T09:51:53Z</time></trkpt><trkpt lat="42.97402677235078" lon="10.81413081720997"><ele>35.0</ele><time>2026-04-06T09:51:54Z</time></trkpt><trkpt lat="42.97413455901044" lon="10.814253720525693"><ele>35.0</ele><time>2026-04-06T09:51:55Z</time></trkpt><trkpt lat="42.97422960072745" lon="10.814367294098531"><ele>35.8</ele><time>2026-04-06T09:51:56Z</time></trkpt><trkpt lat="42.9743124673132" lon="10.814466121900557"><ele>36.6</ele><time>2026-04-06T09:51:57Z</time></trkpt><trkpt lat="42.97439352456311" lon="10.814559961605582"><ele>37.4</ele><time>2026-04-06T09:51:58Z</time></trkpt><trkpt lat="42.97446892907624" lon="10.814649985050249"><ele>38.2</ele><time>2026-04-06T09:51:59Z</time></trkpt><trkpt lat="42.97452934815888" lon="10.814723256327337"><ele>39.0</ele><time>2026-04-06T09:52:00Z</time></trkpt><trkpt lat="42.97460568024863" lon="10.814826606222201"><ele>39.0</ele><time>2026-04-06T09:52:02.001Z</time></trkpt><trkpt lat="42.97465462730415" lon="10.814926893252922"><ele>39.0</ele><time>2026-04-06T09:52:04.001Z</time></trkpt><trkpt lat="42.97469516538357" lon="10.815099280545347"><ele>39.0</ele><time>2026-04-06T09:52:09.001Z</time></trkpt><trkpt lat="42.97473964955395" lon="10.815199088606573"><ele>39.0</ele><time>2026-04-06T09:52:10.001Z</time></trkpt><trkpt lat="42.97482989927992" lon="10.815288203345615"><ele>39.0</ele><time>2026-04-06T09:52:11.001Z</time></trkpt><trkpt lat="42.97493138777548" lon="10.815356159236641"><ele>39.333333333333336</ele><time>2026-04-06T09:52:12.001Z</time></trkpt><trkpt lat="42.975050663960126" lon="10.815457160175363"><ele>39.66666666666667</ele><time>2026-04-06T09:52:13.001Z</time></trkpt><trkpt lat="42.9751705787978" lon="10.815605040795626"><ele>40.0</ele><time>2026-04-06T09:52:14.001Z</time></trkpt><trkpt lat="42.97530287506284" lon="10.815769697396483"><ele>40.0</ele><time>2026-04-06T09:52:15.001Z</time></trkpt><trkpt lat="42.97543072644383" lon="10.815912413771908"><ele>40.0</ele><time>2026-04-06T09:52:16.001Z</time></trkpt><trkpt lat="42.97553375348032" lon="10.816040859445925"><ele>40.0</ele><time>2026-04-06T09:52:17.001Z</time></trkpt><trkpt lat="42.97563299059538" lon="10.81616277428269"><ele>40.0</ele><time>2026-04-06T09:52:18.001Z</time></trkpt><trkpt lat="42.97573547181395" lon="10.816291439392925"><ele>40.5</ele><time>2026-04-06T09:52:19.001Z</time></trkpt><trkpt lat="42.975836262243845" lon="10.816417784736428"><ele>41.0</ele><time>2026-04-06T09:52:20.001Z</time></trkpt><trkpt lat="42.97594137293839" lon="10.816543978006212"><ele>41.5</ele><time>2026-04-06T09:52:21.001Z</time></trkpt><trkpt lat="42.976047035922036" lon="10.816667618960036"><ele>42.0</ele><time>2026-04-06T09:52:22.001Z</time></trkpt><trkpt lat="42.97615144043515" lon="10.816788589948985"><ele>42.5</ele><time>2026-04-06T09:52:23.001Z</time></trkpt><trkpt lat="42.976252049601364" lon="10.816912686018197"><ele>43.0</ele><time>2026-04-06T09:52:24.001Z</time></trkpt><trkpt lat="42.976353899054914" lon="10.817039770228162"><ele>43.5</ele><time>2026-04-06T09:52:25.001Z</time></trkpt><trkpt lat="42.976457986466734" lon="10.817167312021661"><ele>44.0</ele><time>2026-04-06T09:52:26.001Z</time></trkpt><trkpt lat="42.97656344977907" lon="10.81729264572644"><ele>44.0</ele><time>2026-04-06T09:52:27.001Z</time></trkpt><trkpt lat="42.97667173308827" lon="10.817417943492456"><ele>44.0</ele><time>2026-04-06T09:52:28.001Z</time></trkpt><trkpt lat="42.97677923275695" lon="10.817545196825913"><ele>44.0</ele><time>2026-04-06T09:52:29.001Z</time></trkpt><trkpt lat="42.976894198784514" lon="10.81768104819153"><ele>44.0</ele><time>2026-04-06T09:52:30.001Z</time></trkpt><trkpt lat="42.977014575652646" lon="10.817824861448885"><ele>43.666666666666664</ele><time>2026-04-06T09:52:31.001Z</time></trkpt><trkpt lat="42.97714159027554" lon="10.817978790033871"><ele>43.333333333333336</ele><time>2026-04-06T09:52:32.001Z</time></trkpt><trkpt lat="42.97726633540689" lon="10.818127133552894"><ele>43.0</ele><time>2026-04-06T09:52:33.001Z</time></trkpt><trkpt lat="42.97739865468903" lon="10.818281922451703"><ele>42.333333333333336</ele><time>2026-04-06T09:52:34.001Z</time></trkpt><trkpt lat="42.977531492261214" lon="10.818446174420409"><ele>41.666666666666664</ele><time>2026-04-06T09:52:35.001Z</time></trkpt><trkpt lat="42.97766177440727" lon="10.818604688095157"><ele>41.0</ele><time>2026-04-06T09:52:36.001Z</time></trkpt><trkpt lat="42.9777984663827" lon="10.818755888795764"><ele>42.666666666666664</ele><time>2026-04-06T09:52:37.001Z</time></trkpt><trkpt lat="42.9779368936225" lon="10.818932695986819"><ele>44.333333333333336</ele><time>2026-04-06T09:52:38.001Z</time></trkpt><trkpt lat="42.978086039347964" lon="10.819115309358988"><ele>46.0</ele><time>2026-04-06T09:52:39.001Z</time></trkpt><trkpt lat="42.97824491780299" lon="10.819294335975455"><ele>46.333333333333336</ele><time>2026-04-06T09:52:40.001Z</time></trkpt><trkpt lat="42.97839316843249" lon="10.819493581534893"><ele>46.666666666666664</ele><time>2026-04-06T09:52:41.001Z</time></trkpt><trkpt lat="42.97854465223251" lon="10.819689614796026"><ele>47.0</ele><time>2026-04-06T09:52:42.001Z</time></trkpt><trkpt lat="42.97869472573841" lon="10.819869638004985"><ele>47.0</ele><time>2026-04-06T09:52:43.001Z</time></trkpt><trkpt lat="42.97883889776655" lon="10.820041849173059"><ele>47.0</ele><time>2026-04-06T09:52:44.001Z</time></trkpt><trkpt lat="42.9789767483044" lon="10.820209184356568"><ele>47.0</ele><time>2026-04-06T09:52:45.001Z</time></trkpt><trkpt lat="42.97911392433403" lon="10.820376498245674"><ele>48.0</ele><time>2026-04-06T09:52:46.001Z</time></trkpt><trkpt lat="42.979251388255406" lon="10.820546726773525"><ele>49.0</ele><time>2026-04-06T09:52:47Z</time></trkpt><trkpt lat="42.97939176704527" lon="10.82071788255835"><ele>50.0</ele><time>2026-04-06T09:52:48Z</time></trkpt><trkpt lat="42.97952793189933" lon="10.820883802616459"><ele>50.0</ele><time>2026-04-06T09:52:49Z</time></trkpt><trkpt lat="42.979661454852724" lon="10.821048133537298"><ele>50.0</ele><time>2026-04-06T09:52:50Z</time></trkpt><trkpt lat="42.97979488529403" lon="10.821213461353944"><ele>50.0</ele><time>2026-04-06T09:52:51Z</time></trkpt><trkpt lat="42.979928429393766" lon="10.82137884291898"><ele>50.0</ele><time>2026-04-06T09:52:52Z</time></trkpt><trkpt lat="42.98006475544572" lon="10.821545460119042"><ele>50.0</ele><time>2026-04-06T09:52:53Z</time></trkpt><trkpt lat="42.98019952189125" lon="10.821712088483798"><ele>50.0</ele><time>2026-04-06T09:52:54Z</time></trkpt><trkpt lat="42.980330971880136" lon="10.821874716582652"><ele>50.333333333333336</ele><time>2026-04-06T09:52:55Z</time></trkpt><trkpt lat="42.98045527280588" lon="10.822027229409567"><ele>50.66666666666667</ele><time>2026-04-06T09:52:56Z</time></trkpt><trkpt lat="42.980576984410256" lon="10.822178022329657"><ele>51.0</ele><time>2026-04-06T09:52:57Z</time></trkpt><trkpt lat="42.980698646078494" lon="10.82233255001355"><ele>51.0</ele><time>2026-04-06T09:52:58Z</time></trkpt><trkpt lat="42.9808274672094" lon="10.822490763400074"><ele>51.0</ele><time>2026-04-06T09:52:59Z</time></trkpt><trkpt lat="42.98095909637453" lon="10.822649671519804"><ele>51.0</ele><time>2026-04-06T09:53:00Z</time></trkpt><trkpt lat="42.981086051221496" lon="10.822808215441565"><ele>51.33333333333333</ele><time>2026-04-06T09:53:01Z</time></trkpt><trkpt lat="42.98121852609975" lon="10.822969370966833"><ele>51.666666666666664</ele><time>2026-04-06T09:53:02Z</time></trkpt><trkpt lat="42.98138541548974" lon="10.823153653479599"><ele>52.0</ele><time>2026-04-06T09:53:03Z</time></trkpt><trkpt lat="42.98156160389188" lon="10.823385287436048"><ele>53.0</ele><time>2026-04-06T09:53:04Z</time></trkpt><trkpt lat="42.981749694089125" lon="10.823597843929575"><ele>54.0</ele><time>2026-04-06T09:53:05Z</time></trkpt><trkpt lat="42.98190503737839" lon="10.823800581439244"><ele>54.0</ele><time>2026-04-06T09:53:06Z</time></trkpt><trkpt lat="42.98205213500952" lon="10.823978516367484"><ele>54.0</ele><time>2026-04-06T09:53:07Z</time></trkpt><trkpt lat="42.98219325834471" lon="10.824152841350639"><ele>54.0</ele><time>2026-04-06T09:53:08Z</time></trkpt><trkpt lat="42.98233376000664" lon="10.82432235554044"><ele>54.33333333333333</ele><time>2026-04-06T09:53:09Z</time></trkpt><trkpt lat="42.982471558508806" lon="10.824489702321497"><ele>54.666666666666664</ele><time>2026-04-06T09:53:10Z</time></trkpt><trkpt lat="42.98260853797872" lon="10.824660532434581"><ele>55.0</ele><time>2026-04-06T09:53:11Z</time></trkpt><trkpt lat="42.982744328465884" lon="10.824828053175294"><ele>55.33333333333333</ele><time>2026-04-06T09:53:12Z</time></trkpt><trkpt lat="42.9828741665085" lon="10.82498417542829"><ele>55.66666666666667</ele><time>2026-04-06T09:53:13Z</time></trkpt><trkpt lat="42.983002579379395" lon="10.825143219008762"><ele>56.0</ele><time>2026-04-06T09:53:14Z</time></trkpt><trkpt lat="42.983140051013685" lon="10.825307250265551"><ele>56.333333333333336</ele><time>2026-04-06T09:53:15Z</time></trkpt><trkpt lat="42.98327554394772" lon="10.825470101177109"><ele>56.66666666666667</ele><time>2026-04-06T09:53:16Z</time></trkpt><trkpt lat="42.98341037405982" lon="10.82563788358863"><ele>57.0</ele><time>2026-04-06T09:53:17Z</time></trkpt><trkpt lat="42.983562964775004" lon="10.825811158270069"><ele>58.5</ele><time>2026-04-06T09:53:18Z</time></trkpt><trkpt lat="42.983736707389355" lon="10.8260048649944"><ele>60.0</ele><time>2026-04-06T09:53:19Z</time></trkpt><trkpt lat="42.983925916892154" lon="10.826240702652841"><ele>60.0</ele><time>2026-04-06T09:53:20Z</time></trkpt><trkpt lat="42.984145798213504" lon="10.82651111536958"><ele>60.0</ele><time>2026-04-06T09:53:21Z</time></trkpt><trkpt lat="42.984381207323516" lon="10.826799455600968"><ele>60.0</ele><time>2026-04-06T09:53:22Z</time></trkpt><trkpt lat="42.98459400815101" lon="10.827071381056282"><ele>60.0</ele><time>2026-04-06T09:53:23Z</time></trkpt><trkpt lat="42.98478023441394" lon="10.827317998557172"><ele>60.0</ele><time>2026-04-06T09:53:24Z</time></trkpt><trkpt lat="42.984958126996325" lon="10.827540197842126"><ele>60.0</ele><time>2026-04-06T09:53:25Z</time></trkpt><trkpt lat="42.98512490795174" lon="10.82774030534908"><ele>60.0</ele><time>2026-04-06T09:53:26Z</time></trkpt><trkpt lat="42.98528410761292" lon="10.82793167919906"><ele>60.0</ele><time>2026-04-06T09:53:27Z</time></trkpt><trkpt lat="42.985440274680165" lon="10.828119611784082"><ele>60.0</ele><time>2026-04-06T09:53:28Z</time></trkpt><trkpt lat="42.98558761285263" lon="10.828293883458763"><ele>60.0</ele><time>2026-04-06T09:53:29Z</time></trkpt><trkpt lat="42.98572249539399" lon="10.828455541284235"><ele>60.0</ele><time>2026-04-06T09:53:30Z</time></trkpt><trkpt lat="42.98584836822544" lon="10.82860992487851"><ele>60.0</ele><time>2026-04-06T09:53:31Z</time></trkpt><trkpt lat="42.985963540258325" lon="10.828749785445366"><ele>61.0</ele><time>2026-04-06T09:53:32Z</time></trkpt><trkpt lat="42.98607956267472" lon="10.828888004144439"><ele>62.0</ele><time>2026-04-06T09:53:33Z</time></trkpt><trkpt lat="42.98619393112728" lon="10.829028840712498"><ele>63.0</ele><time>2026-04-06T09:53:34Z</time></trkpt><trkpt lat="42.986308009570735" lon="10.829165901506387"><ele>63.0</ele><time>2026-04-06T09:53:35Z</time></trkpt><trkpt lat="42.98642202331925" lon="10.829303884002496"><ele>63.0</ele><time>2026-04-06T09:53:36Z</time></trkpt><trkpt lat="42.986542132481176" lon="10.829447054412979"><ele>63.0</ele><time>2026-04-06T09:53:37Z</time></trkpt><trkpt lat="42.9866658228903" lon="10.829592761654087"><ele>63.33333333333333</ele><time>2026-04-06T09:53:38Z</time></trkpt><trkpt lat="42.98679044949372" lon="10.829744566811243"><ele>63.666666666666664</ele><time>2026-04-06T09:53:39Z</time></trkpt><trkpt lat="42.98690971866395" lon="10.829889260967752"><ele>64.0</ele><time>2026-04-06T09:53:40Z</time></trkpt><trkpt lat="42.987028281314096" lon="10.830033345488388"><ele>64.66666666666666</ele><time>2026-04-06T09:53:41Z</time></trkpt><trkpt lat="42.98715045139614" lon="10.830176796030264"><ele>65.33333333333333</ele><time>2026-04-06T09:53:42Z</time></trkpt><trkpt lat="42.98727566883218" lon="10.83032551222298"><ele>66.0</ele><time>2026-04-06T09:53:43Z</time></trkpt><trkpt lat="42.98740260227155" lon="10.830476667663055"><ele>66.33333333333333</ele><time>2026-04-06T09:53:44Z</time></trkpt><trkpt lat="42.987536179699724" lon="10.830636164087117"><ele>66.66666666666666</ele><time>2026-04-06T09:53:45Z</time></trkpt><trkpt lat="42.98766790172338" lon="10.830794120169957"><ele>67.0</ele><time>2026-04-06T09:53:46Z</time></trkpt><trkpt lat="42.98780060453204" lon="10.830951518086094"><ele>67.0</ele><time>2026-04-06T09:53:47Z</time></trkpt><trkpt lat="42.987929199010196" lon="10.831100344053628"><ele>67.0</ele><time>2026-04-06T09:53:48Z</time></trkpt><trkpt lat="42.98805286489213" lon="10.831250535378144"><ele>67.0</ele><time>2026-04-06T09:53:49Z</time></trkpt><trkpt lat="42.988172701405084" lon="10.831400893682115"><ele>67.0</ele><time>2026-04-06T09:53:50Z</time></trkpt><trkpt lat="42.98829890893145" lon="10.831551426667854"><ele>67.0</ele><time>2026-04-06T09:53:51Z</time></trkpt><trkpt lat="42.988423684442196" lon="10.831706034363354"><ele>67.0</ele><time>2026-04-06T09:53:52Z</time></trkpt><trkpt lat="42.9885441555709" lon="10.831848400351781"><ele>68.5</ele><time>2026-04-06T09:53:53Z</time></trkpt><trkpt lat="42.988651213173625" lon="10.831974720524045"><ele>70.0</ele><time>2026-04-06T09:53:54Z</time></trkpt><trkpt lat="42.98875783905312" lon="10.832103462151562"><ele>71.5</ele><time>2026-04-06T09:53:55.001Z</time></trkpt><trkpt lat="42.98886690509221" lon="10.832238388285502"><ele>73.0</ele><time>2026-04-06T09:53:56.001Z</time></trkpt><trkpt lat="42.98897737905127" lon="10.832368434783497"><ele>73.0</ele><time>2026-04-06T09:53:57.001Z</time></trkpt><trkpt lat="42.98908604368403" lon="10.832501729523731"><ele>73.0</ele><time>2026-04-06T09:53:58.001Z</time></trkpt><trkpt lat="42.98919733341272" lon="10.832635923920954"><ele>73.0</ele><time>2026-04-06T09:53:59.001Z</time></trkpt><trkpt lat="42.989307654968314" lon="10.832765850575905"><ele>73.0</ele><time>2026-04-06T09:54:00.001Z</time></trkpt><trkpt lat="42.98941240331367" lon="10.832888518054473"><ele>72.5</ele><time>2026-04-06T09:54:01.001Z</time></trkpt><trkpt lat="42.98951443501829" lon="10.833013119312533"><ele>72.0</ele><time>2026-04-06T09:54:02.001Z</time></trkpt><trkpt lat="42.98961510629708" lon="10.833137567630144"><ele>71.5</ele><time>2026-04-06T09:54:03.001Z</time></trkpt><trkpt lat="42.989724277169756" lon="10.833269744198029"><ele>71.0</ele><time>2026-04-06T09:54:04.001Z</time></trkpt><trkpt lat="42.98984278385786" lon="10.833402850150636"><ele>71.33333333333334</ele><time>2026-04-06T09:54:05.001Z</time></trkpt><trkpt lat="42.98996813122339" lon="10.833540094499952"><ele>71.66666666666667</ele><time>2026-04-06T09:54:06.001Z</time></trkpt><trkpt lat="42.990094523522515" lon="10.833679321471918"><ele>72.0</ele><time>2026-04-06T09:54:07.001Z</time></trkpt><trkpt lat="42.99022076861183" lon="10.833821319785189"><ele>72.66666666666667</ele><time>2026-04-06T09:54:08.001Z</time></trkpt><trkpt lat="42.9903410978892" lon="10.833965816912224"><ele>73.33333333333334</ele><time>2026-04-06T09:54:09.001Z</time></trkpt><trkpt lat="42.99046334181817" lon="10.83410911196754"><ele>74.0</ele><time>2026-04-06T09:54:10.001Z</time></trkpt><trkpt lat="42.99058493241187" lon="10.834255434518587"><ele>74.33333333333334</ele><time>2026-04-06T09:54:11.001Z</time></trkpt><trkpt lat="42.990702871111075" lon="10.834403913403191"><ele>74.66666666666667</ele><time>2026-04-06T09:54:12.001Z</time></trkpt><trkpt lat="42.99081280414516" lon="10.834561787660425"><ele>75.0</ele><time>2026-04-06T09:54:13.001Z</time></trkpt><trkpt lat="42.99091775628629" lon="10.83472958936861"><ele>75.0</ele><time>2026-04-06T09:54:14.001Z</time></trkpt><trkpt lat="42.99102316122731" lon="10.83489807948535"><ele>75.0</ele><time>2026-04-06T09:54:15.001Z</time></trkpt><trkpt lat="42.99111730820022" lon="10.835065717092872"><ele>75.0</ele><time>2026-04-06T09:54:16.001Z</time></trkpt><trkpt lat="42.99121291064758" lon="10.835226422926912"><ele>75.33333333333333</ele><time>2026-04-06T09:54:17.001Z</time></trkpt><trkpt lat="42.99130986503099" lon="10.835398940718223"><ele>75.66666666666666</ele><time>2026-04-06T09:54:18.001Z</time></trkpt><trkpt lat="42.99140712871118" lon="10.835577782453433"><ele>76.0</ele><time>2026-04-06T09:54:19.001Z</time></trkpt><trkpt lat="42.99150548101501" lon="10.835766711496087"><ele>76.0</ele><time>2026-04-06T09:54:20.001Z</time></trkpt><trkpt lat="42.991607927331295" lon="10.835963996877332"><ele>76.0</ele><time>2026-04-06T09:54:21.001Z</time></trkpt><trkpt lat="42.991707552668814" lon="10.836171561470714"><ele>76.0</ele><time>2026-04-06T09:54:22.001Z</time></trkpt><trkpt lat="42.99180632668388" lon="10.836388436873834"><ele>77.0</ele><time>2026-04-06T09:54:23.001Z</time></trkpt><trkpt lat="42.99190838791336" lon="10.836607965134007"><ele>78.0</ele><time>2026-04-06T09:54:24.001Z</time></trkpt><trkpt lat="42.99201433980629" lon="10.836824330788883"><ele>79.0</ele><time>2026-04-06T09:54:25.001Z</time></trkpt><trkpt lat="42.99212333527541" lon="10.83703936868722"><ele>80.0</ele><time>2026-04-06T09:54:26.001Z</time></trkpt><trkpt lat="42.99223223292894" lon="10.837250820749574"><ele>81.0</ele><time>2026-04-06T09:54:27.001Z</time></trkpt><trkpt lat="42.992339637674164" lon="10.837456091333987"><ele>82.0</ele><time>2026-04-06T09:54:28.001Z</time></trkpt><trkpt lat="42.99245008986869" lon="10.837658924893262"><ele>83.33333333333333</ele><time>2026-04-06T09:54:29.001Z</time></trkpt><trkpt lat="42.992562022398" lon="10.837860906553459"><ele>84.66666666666667</ele><time>2026-04-06T09:54:30.001Z</time></trkpt><trkpt lat="42.99267776055959" lon="10.838060379439137"><ele>86.0</ele><time>2026-04-06T09:54:31.001Z</time></trkpt><trkpt lat="42.99279836308307" lon="10.838252166309832"><ele>86.0</ele><time>2026-04-06T09:54:32.001Z</time></trkpt><trkpt lat="42.992927543652215" lon="10.838446766206749"><ele>86.0</ele><time>2026-04-06T09:54:33.001Z</time></trkpt><trkpt lat="42.9930618631317" lon="10.838628668273687"><ele>86.0</ele><time>2026-04-06T09:54:34.001Z</time></trkpt><trkpt lat="42.99320119906651" lon="10.838808485883538"><ele>86.0</ele><time>2026-04-06T09:54:35.001Z</time></trkpt><trkpt lat="42.99334069871318" lon="10.83897665686342"><ele>86.0</ele><time>2026-04-06T09:54:36.001Z</time></trkpt><trkpt lat="42.99348083883898" lon="10.839144189002477"><ele>86.0</ele><time>2026-04-06T09:54:37.001Z</time></trkpt><trkpt lat="42.99362052011103" lon="10.839300236193386"><ele>86.66666666666667</ele><time>2026-04-06T09:54:38.001Z</time></trkpt><trkpt lat="42.993769080833175" lon="10.839467991538351"><ele>87.33333333333333</ele><time>2026-04-06T09:54:39.001Z</time></trkpt><trkpt lat="42.99393056946234" lon="10.8396389285241"><ele>88.0</ele><time>2026-04-06T09:54:40.001Z</time></trkpt><trkpt lat="42.994110804621464" lon="10.839818175658685"><ele>89.0</ele><time>2026-04-06T09:54:41.001Z</time></trkpt><trkpt lat="42.99431268903256" lon="10.840028842185246"><ele>90.0</ele><time>2026-04-06T09:54:42.001Z</time></trkpt><trkpt lat="42.994528372742245" lon="10.84026456194465"><ele>90.5</ele><time>2026-04-06T09:54:43.001Z</time></trkpt><trkpt lat="42.994764517571944" lon="10.840527731555444"><ele>91.0</ele><time>2026-04-06T09:54:44.001Z</time></trkpt><trkpt lat="42.99501673451139" lon="10.840798942832583"><ele>93.0</ele><time>2026-04-06T09:54:45.001Z</time></trkpt><trkpt lat="42.99523302402713" lon="10.841034138470103"><ele>95.0</ele><time>2026-04-06T09:54:46.001Z</time></trkpt><trkpt lat="42.995424235317934" lon="10.841254458874474"><ele>95.0</ele><time>2026-04-06T09:54:47.001Z</time></trkpt><trkpt lat="42.995604018773214" lon="10.841451196405156"><ele>95.0</ele><time>2026-04-06T09:54:48.001Z</time></trkpt><trkpt lat="42.99576000463513" lon="10.841627590766194"><ele>95.0</ele><time>2026-04-06T09:54:49.001Z</time></trkpt><trkpt lat="42.99590557523911" lon="10.841787224518567"><ele>96.0</ele><time>2026-04-06T09:54:50.001Z</time></trkpt><trkpt lat="42.9960376341972" lon="10.841940147323445"><ele>97.0</ele><time>2026-04-06T09:54:51.001Z</time></trkpt><trkpt lat="42.996171897312685" lon="10.84209528640972"><ele>98.0</ele><time>2026-04-06T09:54:52.001Z</time></trkpt><trkpt lat="42.996319898472834" lon="10.842256260058369"><ele>98.0</ele><time>2026-04-06T09:54:53Z</time></trkpt><trkpt lat="42.996475317853935" lon="10.842427956912102"><ele>98.0</ele><time>2026-04-06T09:54:54Z</time></trkpt><trkpt lat="42.99663398178016" lon="10.842598887690484"><ele>98.0</ele><time>2026-04-06T09:54:55Z</time></trkpt><trkpt lat="42.99679398151751" lon="10.842767009697505"><ele>99.33333333333333</ele><time>2026-04-06T09:54:56Z</time></trkpt><trkpt lat="42.996947464409445" lon="10.842930031909919"><ele>100.66666666666666</ele><time>2026-04-06T09:54:57Z</time></trkpt><trkpt lat="42.99709282537783" lon="10.843096408639726"><ele>102.0</ele><time>2026-04-06T09:54:58Z</time></trkpt><trkpt lat="42.99724310569578" lon="10.843262997295746"><ele>102.0</ele><time>2026-04-06T09:54:59Z</time></trkpt><trkpt lat="42.99739567119496" lon="10.843427686644146"><ele>102.0</ele><time>2026-04-06T09:55:00Z</time></trkpt><trkpt lat="42.99755055293786" lon="10.843593813436726"><ele>102.0</ele><time>2026-04-06T09:55:01Z</time></trkpt><trkpt lat="42.997703509393084" lon="10.843761752655627"><ele>102.66666666666666</ele><time>2026-04-06T09:55:02Z</time></trkpt><trkpt lat="42.997854486019556" lon="10.843925536217457"><ele>103.33333333333333</ele><time>2026-04-06T09:55:03Z</time></trkpt><trkpt lat="42.998002113476446" lon="10.844082322709223"><ele>104.0</ele><time>2026-04-06T09:55:04Z</time></trkpt><trkpt lat="42.99814192725926" lon="10.844235573189605"><ele>105.66666666666666</ele><time>2026-04-06T09:55:05Z</time></trkpt><trkpt lat="42.99828505217906" lon="10.844389959364907"><ele>107.33333333333334</ele><time>2026-04-06T09:55:06Z</time></trkpt><trkpt lat="42.99842962726382" lon="10.844543270487732"><ele>109.0</ele><time>2026-04-06T09:55:07Z</time></trkpt><trkpt lat="42.998574301422664" lon="10.844693197301567"><ele>109.33333333333334</ele><time>2026-04-06T09:55:08Z</time></trkpt><trkpt lat="42.998731230271936" lon="10.844835490791386"><ele>109.66666666666666</ele><time>2026-04-06T09:55:09Z</time></trkpt><trkpt lat="42.99889486870316" lon="10.844973732900515"><ele>110.0</ele><time>2026-04-06T09:55:10Z</time></trkpt><trkpt lat="42.999067004300414" lon="10.845105155972405"><ele>112.0</ele><time>2026-04-06T09:55:11Z</time></trkpt><trkpt lat="42.99924551830943" lon="10.845234745628705"><ele>114.0</ele><time>2026-04-06T09:55:12Z</time></trkpt><trkpt lat="42.999430010516065" lon="10.84535431834846"><ele>116.0</ele><time>2026-04-06T09:55:13Z</time></trkpt><trkpt lat="42.99962050834759" lon="10.845464197211234"><ele>116.0</ele><time>2026-04-06T09:55:14Z</time></trkpt><trkpt lat="42.999814969310904" lon="10.845553875995083"><ele>116.0</ele><time>2026-04-06T09:55:15Z</time></trkpt><trkpt lat="43.000032184359306" lon="10.845623627933337"><ele>116.0</ele><time>2026-04-06T09:55:16Z</time></trkpt><trkpt lat="43.00027649593991" lon="10.845712809973023"><ele>116.0</ele><time>2026-04-06T09:55:17Z</time></trkpt><trkpt lat="43.00055051256711" lon="10.845793599377147"><ele>116.0</ele><time>2026-04-06T09:55:18Z</time></trkpt><trkpt lat="43.00085011469483" lon="10.845867787299994"><ele>119.5</ele><time>2026-04-06T09:55:19Z</time></trkpt><trkpt lat="43.00116308574191" lon="10.845941138963191"><ele>123.0</ele><time>2026-04-06T09:55:20Z</time></trkpt><trkpt lat="43.00143565633376" lon="10.845998788130304"><ele>125.5</ele><time>2026-04-06T09:55:21Z</time></trkpt><trkpt lat="43.00166355198696" lon="10.846063350459382"><ele>128.0</ele><time>2026-04-06T09:55:22Z</time></trkpt><trkpt lat="43.001877318577655" lon="10.846121890029446"><ele>129.5</ele><time>2026-04-06T09:55:23Z</time></trkpt><trkpt lat="43.00211148035429" lon="10.846194488377103"><ele>131.0</ele><time>2026-04-06T09:55:24Z</time></trkpt><trkpt lat="43.00236840910144" lon="10.846298693696411"><ele>132.5</ele><time>2026-04-06T09:55:25Z</time></trkpt><trkpt lat="43.00263785485666" lon="10.846434191960677"><ele>134.0</ele><time>2026-04-06T09:55:26Z</time></trkpt><trkpt lat="43.00291779014178" lon="10.846625020172736"><ele>136.5</ele><time>2026-04-06T09:55:27Z</time></trkpt><trkpt lat="43.003219328725926" lon="10.84682413226214"><ele>139.0</ele><time>2026-04-06T09:55:28Z</time></trkpt><trkpt lat="43.00350742486692" lon="10.847082141327228"><ele>139.0</ele><time>2026-04-06T09:55:29Z</time></trkpt><trkpt lat="43.00380120647375" lon="10.84736356149764"><ele>139.0</ele><time>2026-04-06T09:55:30Z</time></trkpt><trkpt lat="43.00409707944777" lon="10.847656923803902"><ele>140.0</ele><time>2026-04-06T09:55:31Z</time></trkpt><trkpt lat="43.00438672554705" lon="10.84796037646758"><ele>141.0</ele><time>2026-04-06T09:55:32Z</time></trkpt><trkpt lat="43.00463223274229" lon="10.848217305736634"><ele>141.0</ele><time>2026-04-06T09:55:33Z</time></trkpt><trkpt lat="43.00486183191883" lon="10.848450966188405"><ele>141.0</ele><time>2026-04-06T09:55:34Z</time></trkpt><trkpt lat="43.00507300121395" lon="10.848667081716373"><ele>142.0</ele><time>2026-04-06T09:55:35Z</time></trkpt><trkpt lat="43.005279312628105" lon="10.848882775778264"><ele>143.0</ele><time>2026-04-06T09:55:36Z</time></trkpt><trkpt lat="43.00548575552608" lon="10.84908984827992"><ele>143.5</ele><time>2026-04-06T09:55:37Z</time></trkpt><trkpt lat="43.005683182168944" lon="10.849294295174996"><ele>144.0</ele><time>2026-04-06T09:55:38Z</time></trkpt><trkpt lat="43.005875600194464" lon="10.849494195106226"><ele>144.0</ele><time>2026-04-06T09:55:39Z</time></trkpt><trkpt lat="43.00606466317348" lon="10.849689337554885"><ele>144.0</ele><time>2026-04-06T09:55:40Z</time></trkpt><trkpt lat="43.00625076555252" lon="10.849880333852383"><ele>144.0</ele><time>2026-04-06T09:55:41Z</time></trkpt><trkpt lat="43.006434228372164" lon="10.850062381985895"><ele>144.0</ele><time>2026-04-06T09:55:42Z</time></trkpt><trkpt lat="43.00661591272637" lon="10.850241392356184"><ele>145.0</ele><time>2026-04-06T09:55:43Z</time></trkpt><trkpt lat="43.00679382217536" lon="10.85041758908958"><ele>146.0</ele><time>2026-04-06T09:55:44Z</time></trkpt><trkpt lat="43.006970214876866" lon="10.850597982823903"><ele>147.0</ele><time>2026-04-06T09:55:45Z</time></trkpt><trkpt lat="43.007144617990804" lon="10.850781190180525"><ele>147.0</ele><time>2026-04-06T09:55:46Z</time></trkpt><trkpt lat="43.00731507604126" lon="10.850954936095386"><ele>147.0</ele><time>2026-04-06T09:55:47Z</time></trkpt><trkpt lat="43.00748247346363" lon="10.85112645424243"><ele>147.0</ele><time>2026-04-06T09:55:48Z</time></trkpt><trkpt lat="43.007651250471056" lon="10.851302042437991"><ele>147.5</ele><time>2026-04-06T09:55:49Z</time></trkpt><trkpt lat="43.007826724928194" lon="10.851483866883582"><ele>148.0</ele><time>2026-04-06T09:55:50Z</time></trkpt><trkpt lat="43.008029330531315" lon="10.851678390509058"><ele>148.0</ele><time>2026-04-06T09:55:51Z</time></trkpt><trkpt lat="43.008242143094215" lon="10.851886421283668"><ele>148.0</ele><time>2026-04-06T09:55:52Z</time></trkpt><trkpt lat="43.00846108366536" lon="10.852124234424027"><ele>149.0</ele><time>2026-04-06T09:55:53Z</time></trkpt><trkpt lat="43.008694638777186" lon="10.852365217969576"><ele>150.0</ele><time>2026-04-06T09:55:54Z</time></trkpt><trkpt lat="43.008936810849114" lon="10.852613208548133"><ele>151.0</ele><time>2026-04-06T09:55:55Z</time></trkpt><trkpt lat="43.009175447230675" lon="10.852855969829243"><ele>152.0</ele><time>2026-04-06T09:55:56Z</time></trkpt><trkpt lat="43.00939181209406" lon="10.853068433325516"><ele>152.0</ele><time>2026-04-06T09:55:57Z</time></trkpt><trkpt lat="43.00959076447689" lon="10.853270028508186"><ele>152.0</ele><time>2026-04-06T09:55:58Z</time></trkpt><trkpt lat="43.009779724443014" lon="10.853462688733368"><ele>152.5</ele><time>2026-04-06T09:55:59Z</time></trkpt><trkpt lat="43.0099641447676" lon="10.853650735450007"><ele>153.0</ele><time>2026-04-06T09:56:00Z</time></trkpt><trkpt lat="43.010141306571384" lon="10.853828253266649"><ele>153.0</ele><time>2026-04-06T09:56:01.001Z</time></trkpt><trkpt lat="43.01030597390557" lon="10.853995165447078"><ele>153.0</ele><time>2026-04-06T09:56:02.001Z</time></trkpt><trkpt lat="43.0104668747829" lon="10.85415916336112"><ele>153.0</ele><time>2026-04-06T09:56:03.001Z</time></trkpt><trkpt lat="43.0106318382757" lon="10.854328043351012"><ele>153.0</ele><time>2026-04-06T09:56:04.001Z</time></trkpt><trkpt lat="43.010800076620534" lon="10.854497160738735"><ele>153.0</ele><time>2026-04-06T09:56:05.001Z</time></trkpt><trkpt lat="43.01096400239608" lon="10.854665716841192"><ele>153.0</ele><time>2026-04-06T09:56:06.001Z</time></trkpt><trkpt lat="43.0111168892216" lon="10.854821127472517"><ele>153.0</ele><time>2026-04-06T09:56:07.001Z</time></trkpt><trkpt lat="43.01126288425435" lon="10.854967479625255"><ele>153.0</ele><time>2026-04-06T09:56:08.001Z</time></trkpt><trkpt lat="43.01139876145935" lon="10.855109387649662"><ele>153.0</ele><time>2026-04-06T09:56:09.001Z</time></trkpt><trkpt lat="43.01153116958439" lon="10.85524683221854"><ele>153.66666666666666</ele><time>2026-04-06T09:56:10.001Z</time></trkpt><trkpt lat="43.011669639732176" lon="10.85538656739752"><ele>154.33333333333331</ele><time>2026-04-06T09:56:11.001Z</time></trkpt><trkpt lat="43.01181210396504" lon="10.855533852594498"><ele>155.0</ele><time>2026-04-06T09:56:12.001Z</time></trkpt><trkpt lat="43.01195588980671" lon="10.85568739706907"><ele>155.0</ele><time>2026-04-06T09:56:13.001Z</time></trkpt><trkpt lat="43.012105729204904" lon="10.855841806497615"><ele>155.0</ele><time>2026-04-06T09:56:14.001Z</time></trkpt><trkpt lat="43.01225888393296" lon="10.855987865516088"><ele>155.0</ele><time>2026-04-06T09:56:15.001Z</time></trkpt><trkpt lat="43.012408706228406" lon="10.856121646112813"><ele>155.33333333333331</ele><time>2026-04-06T09:56:16.001Z</time></trkpt><trkpt lat="43.01256285290435" lon="10.856247503923935"><ele>155.66666666666666</ele><time>2026-04-06T09:56:17.001Z</time></trkpt><trkpt lat="43.012723868552335" lon="10.856366765815833"><ele>156.0</ele><time>2026-04-06T09:56:18.001Z</time></trkpt><trkpt lat="43.01288346181482" lon="10.856470623628162"><ele>156.0</ele><time>2026-04-06T09:56:19.001Z</time></trkpt><trkpt lat="43.013046347290796" lon="10.856571200096948"><ele>156.0</ele><time>2026-04-06T09:56:20.001Z</time></trkpt><trkpt lat="43.01321698888509" lon="10.85667863911833"><ele>156.0</ele><time>2026-04-06T09:56:21.001Z</time></trkpt><trkpt lat="43.01340376812132" lon="10.856785034676546"><ele>155.33333333333334</ele><time>2026-04-06T09:56:22.001Z</time></trkpt><trkpt lat="43.01360383070153" lon="10.856899357554067"><ele>154.66666666666669</ele><time>2026-04-06T09:56:23.001Z</time></trkpt><trkpt lat="43.01380782051098" lon="10.857028701953377"><ele>154.0</ele><time>2026-04-06T09:56:24.001Z</time></trkpt><trkpt lat="43.01401866107512" lon="10.857169156321502"><ele>153.0</ele><time>2026-04-06T09:56:25.001Z</time></trkpt><trkpt lat="43.014236337361176" lon="10.857307267832724"><ele>152.0</ele><time>2026-04-06T09:56:26.001Z</time></trkpt><trkpt lat="43.01446002705455" lon="10.857444608675987"><ele>152.0</ele><time>2026-04-06T09:56:27.001Z</time></trkpt><trkpt lat="43.014690144021436" lon="10.857590931009394"><ele>152.0</ele><time>2026-04-06T09:56:28.001Z</time></trkpt><trkpt lat="43.01492554892803" lon="10.857740583448042"><ele>153.0</ele><time>2026-04-06T09:56:29.001Z</time></trkpt><trkpt lat="43.015168158962304" lon="10.857891020585534"><ele>154.0</ele><time>2026-04-06T09:56:30.001Z</time></trkpt><trkpt lat="43.01541839750404" lon="10.85804536550909"><ele>154.0</ele><time>2026-04-06T09:56:31.001Z</time></trkpt><trkpt lat="43.01566726087077" lon="10.858203240605793"><ele>154.0</ele><time>2026-04-06T09:56:32.001Z</time></trkpt><trkpt lat="43.01591433939542" lon="10.858366049964747"><ele>154.0</ele><time>2026-04-06T09:56:33.001Z</time></trkpt><trkpt lat="43.01615921407236" lon="10.858525774722459"><ele>154.0</ele><time>2026-04-06T09:56:34.001Z</time></trkpt><trkpt lat="43.01639637090389" lon="10.858685640297448"><ele>154.0</ele><time>2026-04-06T09:56:35.001Z</time></trkpt><trkpt lat="43.01662894981455" lon="10.858838666480407"><ele>154.0</ele><time>2026-04-06T09:56:36.001Z</time></trkpt><trkpt lat="43.01685555403994" lon="10.858987856470792"><ele>155.0</ele><time>2026-04-06T09:56:37.001Z</time></trkpt><trkpt lat="43.017081356304494" lon="10.859129710366012"><ele>156.0</ele><time>2026-04-06T09:56:38.001Z</time></trkpt><trkpt lat="43.0173050070987" lon="10.859263268568213"><ele>157.0</ele><time>2026-04-06T09:56:39.001Z</time></trkpt><trkpt lat="43.01752417736009" lon="10.859395619101248"><ele>158.0</ele><time>2026-04-06T09:56:40.001Z</time></trkpt><trkpt lat="43.017744356776255" lon="10.85953050852282"><ele>158.0</ele><time>2026-04-06T09:56:41.001Z</time></trkpt><trkpt lat="43.01796346650054" lon="10.85966865114234"><ele>158.0</ele><time>2026-04-06T09:56:42.001Z</time></trkpt><trkpt lat="43.01818978339655" lon="10.859804996980953"><ele>157.5</ele><time>2026-04-06T09:56:43.001Z</time></trkpt><trkpt lat="43.01842756561371" lon="10.859946555362878"><ele>157.0</ele><time>2026-04-06T09:56:44.001Z</time></trkpt><trkpt lat="43.01867602619128" lon="10.860100654481048"><ele>158.0</ele><time>2026-04-06T09:56:45.001Z</time></trkpt><trkpt lat="43.01893580006424" lon="10.860268164041559"><ele>159.0</ele><time>2026-04-06T09:56:46.001Z</time></trkpt><trkpt lat="43.01920790728197" lon="10.860440505197763"><ele>159.0</ele><time>2026-04-06T09:56:47.001Z</time></trkpt><trkpt lat="43.01947524161469" lon="10.860620099428587"><ele>159.0</ele><time>2026-04-06T09:56:48.001Z</time></trkpt><trkpt lat="43.019738736127664" lon="10.860785227296416"><ele>160.5</ele><time>2026-04-06T09:56:49.001Z</time></trkpt><trkpt lat="43.01999812462695" lon="10.860953761851995"><ele>162.0</ele><time>2026-04-06T09:56:50.001Z</time></trkpt><trkpt lat="43.02025812820427" lon="10.861114352334127"><ele>162.0</ele><time>2026-04-06T09:56:51.001Z</time></trkpt><trkpt lat="43.02051625478463" lon="10.861272156889912"><ele>162.0</ele><time>2026-04-06T09:56:52.001Z</time></trkpt><trkpt lat="43.02076750450237" lon="10.861438571563347"><ele>161.0</ele><time>2026-04-06T09:56:53.001Z</time></trkpt><trkpt lat="43.021005552296415" lon="10.861630553206679"><ele>160.0</ele><time>2026-04-06T09:56:54.001Z</time></trkpt><trkpt lat="43.02122695458771" lon="10.861849970420009"><ele>161.0</ele><time>2026-04-06T09:56:55.001Z</time></trkpt><trkpt lat="43.021443599626416" lon="10.862096785531676"><ele>162.0</ele><time>2026-04-06T09:56:56.001Z</time></trkpt><trkpt lat="43.02165302840475" lon="10.862364722740107"><ele>169.0</ele><time>2026-04-06T09:56:57.001Z</time></trkpt><trkpt lat="43.02185263959674" lon="10.862658902478088"><ele>176.0</ele><time>2026-04-06T09:56:58.001Z</time></trkpt><trkpt lat="43.022038681635294" lon="10.862979051593252"><ele>176.0</ele><time>2026-04-06T09:56:59Z</time></trkpt><trkpt lat="43.02220947939675" lon="10.863327875009938"><ele>176.0</ele><time>2026-04-06T09:57:00Z</time></trkpt><trkpt lat="43.0223703493544" lon="10.863691487122159"><ele>172.0</ele><time>2026-04-06T09:57:01Z</time></trkpt><trkpt lat="43.022512740326704" lon="10.864072697516601"><ele>168.0</ele><time>2026-04-06T09:57:02Z</time></trkpt><trkpt lat="43.02263320118331" lon="10.864466776091712"><ele>168.0</ele><time>2026-04-06T09:57:03Z</time></trkpt><trkpt lat="43.022743613667814" lon="10.864870813857932"><ele>168.0</ele><time>2026-04-06T09:57:04Z</time></trkpt><trkpt lat="43.02285378827414" lon="10.865291741658494"><ele>169.0</ele><time>2026-04-06T09:57:05Z</time></trkpt><trkpt lat="43.02296794974275" lon="10.86570516851619"><ele>170.0</ele><time>2026-04-06T09:57:06Z</time></trkpt><trkpt lat="43.02308074219758" lon="10.86610691537792"><ele>171.0</ele><time>2026-04-06T09:57:07Z</time></trkpt><trkpt lat="43.02319193968829" lon="10.86648265262428"><ele>172.0</ele><time>2026-04-06T09:57:08Z</time></trkpt><trkpt lat="43.023289984328855" lon="10.866814129083258"><ele>169.0</ele><time>2026-04-06T09:57:09Z</time></trkpt><trkpt lat="43.0233837115665" lon="10.867121486623565"><ele>166.0</ele><time>2026-04-06T09:57:10Z</time></trkpt><trkpt lat="43.02348166391948" lon="10.86743338412382"><ele>168.5</ele><time>2026-04-06T09:57:11Z</time></trkpt><trkpt lat="43.02357160393569" lon="10.867747173804503"><ele>171.0</ele><time>2026-04-06T09:57:12Z</time></trkpt><trkpt lat="43.023644529790054" lon="10.868029791196921"><ele>171.0</ele><time>2026-04-06T09:57:13Z</time></trkpt><trkpt lat="43.023712106358225" lon="10.868284774398617"><ele>171.0</ele><time>2026-04-06T09:57:14Z</time></trkpt><trkpt lat="43.02377554180615" lon="10.86850882567767"><ele>171.0</ele><time>2026-04-06T09:57:15Z</time></trkpt><trkpt lat="43.02383924286593" lon="10.868719264288137"><ele>169.33333333333334</ele><time>2026-04-06T09:57:16Z</time></trkpt><trkpt lat="43.023909096826515" lon="10.86891255922192"><ele>167.66666666666669</ele><time>2026-04-06T09:57:17Z</time></trkpt><trkpt lat="43.02402022088932" lon="10.869114664632725"><ele>166.0</ele><time>2026-04-06T09:57:18Z</time></trkpt><trkpt lat="43.024151893793615" lon="10.869358934527792"><ele>166.0</ele><time>2026-04-06T09:57:19Z</time></trkpt><trkpt lat="43.02431742067523" lon="10.869633197243354"><ele>166.0</ele><time>2026-04-06T09:57:20Z</time></trkpt><trkpt lat="43.02451348066529" lon="10.869944276042572"><ele>165.0</ele><time>2026-04-06T09:57:21Z</time></trkpt><trkpt lat="43.02474805463168" lon="10.870285094653006"><ele>164.0</ele><time>2026-04-06T09:57:22Z</time></trkpt><trkpt lat="43.02497875304743" lon="10.87069252758883"><ele>163.5</ele><time>2026-04-06T09:57:23Z</time></trkpt><trkpt lat="43.02524008336708" lon="10.871118161246097"><ele>163.0</ele><time>2026-04-06T09:57:24Z</time></trkpt><trkpt lat="43.025513047536755" lon="10.871559966287341"><ele>163.5</ele><time>2026-04-06T09:57:25Z</time></trkpt><trkpt lat="43.02579740442957" lon="10.872018401866546"><ele>164.0</ele><time>2026-04-06T09:57:26Z</time></trkpt><trkpt lat="43.02607485581585" lon="10.872476500602646"><ele>162.0</ele><time>2026-04-06T09:57:27Z</time></trkpt><trkpt lat="43.026340297232124" lon="10.872905575565204"><ele>160.0</ele><time>2026-04-06T09:57:28Z</time></trkpt><trkpt lat="43.02659943575277" lon="10.873317442596564"><ele>161.0</ele><time>2026-04-06T09:57:29Z</time></trkpt><trkpt lat="43.026846448105665" lon="10.8737119958608"><ele>162.0</ele><time>2026-04-06T09:57:30Z</time></trkpt><trkpt lat="43.02708716401575" lon="10.874093017009548"><ele>162.0</ele><time>2026-04-06T09:57:31Z</time></trkpt><trkpt lat="43.02732918300448" lon="10.874460610800128"><ele>162.0</ele><time>2026-04-06T09:57:32Z</time></trkpt><trkpt lat="43.027559376083076" lon="10.87482437479446"><ele>162.0</ele><time>2026-04-06T09:57:33Z</time></trkpt><trkpt lat="43.027782538470376" lon="10.875181846716682"><ele>162.0</ele><time>2026-04-06T09:57:34Z</time></trkpt><trkpt lat="43.0280135816485" lon="10.875543731395513"><ele>162.0</ele><time>2026-04-06T09:57:35Z</time></trkpt><trkpt lat="43.02824573541347" lon="10.875910159683777"><ele>162.0</ele><time>2026-04-06T09:57:36Z</time></trkpt><trkpt lat="43.02847854393156" lon="10.876282069882702"><ele>162.0</ele><time>2026-04-06T09:57:37Z</time></trkpt><trkpt lat="43.028709609816204" lon="10.876644257663637"><ele>162.0</ele><time>2026-04-06T09:57:38Z</time></trkpt><trkpt lat="43.0289278054959" lon="10.877001278320982"><ele>162.0</ele><time>2026-04-06T09:57:39Z</time></trkpt><trkpt lat="43.02914712777644" lon="10.877345180116208"><ele>162.0</ele><time>2026-04-06T09:57:40Z</time></trkpt><trkpt lat="43.029352984526675" lon="10.87768752390679"><ele>163.0</ele><time>2026-04-06T09:57:41Z</time></trkpt><trkpt lat="43.02955189565038" lon="10.878017303666924"><ele>164.0</ele><time>2026-04-06T09:57:42Z</time></trkpt><trkpt lat="43.02974926918443" lon="10.878337973867099"><ele>164.5</ele><time>2026-04-06T09:57:43Z</time></trkpt><trkpt lat="43.02994594444728" lon="10.878657668736334"><ele>165.0</ele><time>2026-04-06T09:57:44Z</time></trkpt><trkpt lat="43.03013835297102" lon="10.878969181978155"><ele>166.5</ele><time>2026-04-06T09:57:45Z</time></trkpt><trkpt lat="43.030328218107265" lon="10.879270878387386"><ele>168.0</ele><time>2026-04-06T09:57:46Z</time></trkpt><trkpt lat="43.03051082834553" lon="10.879569596331066"><ele>168.0</ele><time>2026-04-06T09:57:47Z</time></trkpt><trkpt lat="43.03068937403534" lon="10.879869683350805"><ele>168.0</ele><time>2026-04-06T09:57:48Z</time></trkpt><trkpt lat="43.030876099125436" lon="10.880170667930727"><ele>168.0</ele><time>2026-04-06T09:57:49Z</time></trkpt><trkpt lat="43.03106550545067" lon="10.880474001812003"><ele>168.0</ele><time>2026-04-06T09:57:50Z</time></trkpt><trkpt lat="43.03125401261803" lon="10.88077422633253"><ele>169.0</ele><time>2026-04-06T09:57:51Z</time></trkpt><trkpt lat="43.031433905690236" lon="10.881071316688308"><ele>170.0</ele><time>2026-04-06T09:57:52Z</time></trkpt><trkpt lat="43.03161219720795" lon="10.881362208194675"><ele>170.0</ele><time>2026-04-06T09:57:53Z</time></trkpt><trkpt lat="43.03178036567363" lon="10.881632746590405"><ele>170.0</ele><time>2026-04-06T09:57:54Z</time></trkpt><trkpt lat="43.03193657741579" lon="10.881876266816407"><ele>170.66666666666666</ele><time>2026-04-06T09:57:55Z</time></trkpt><trkpt lat="43.032078110042825" lon="10.882104859607102"><ele>171.33333333333334</ele><time>2026-04-06T09:57:56Z</time></trkpt><trkpt lat="43.03220925140772" lon="10.88231819243275"><ele>172.0</ele><time>2026-04-06T09:57:57Z</time></trkpt><trkpt lat="43.03233698893654" lon="10.88253279117101"><ele>172.66666666666669</ele><time>2026-04-06T09:57:58Z</time></trkpt><trkpt lat="43.03246531563699" lon="10.882740230343257"><ele>173.33333333333334</ele><time>2026-04-06T09:57:59Z</time></trkpt><trkpt lat="43.03259569637084" lon="10.88294336579005"><ele>174.0</ele><time>2026-04-06T09:58:00Z</time></trkpt><trkpt lat="43.03272193850286" lon="10.883144759096336"><ele>174.0</ele><time>2026-04-06T09:58:01Z</time></trkpt><trkpt lat="43.03283850011778" lon="10.883330423628529"><ele>174.0</ele><time>2026-04-06T09:58:02Z</time></trkpt><trkpt lat="43.03294853570456" lon="10.883496674681554"><ele>174.0</ele><time>2026-04-06T09:58:03Z</time></trkpt><trkpt lat="43.033054031160994" lon="10.883655693731075"><ele>174.75</ele><time>2026-04-06T09:58:04Z</time></trkpt><trkpt lat="43.033152016237295" lon="10.883811691662773"><ele>175.5</ele><time>2026-04-06T09:58:05Z</time></trkpt><trkpt lat="43.033239818604386" lon="10.883951450535838"><ele>176.25</ele><time>2026-04-06T09:58:06Z</time></trkpt><trkpt lat="43.033321282096104" lon="10.884077866792982"><ele>177.0</ele><time>2026-04-06T09:58:07Z</time></trkpt><trkpt lat="43.033402598854806" lon="10.884209129742988"><ele>177.25</ele><time>2026-04-06T09:58:08.001Z</time></trkpt><trkpt lat="43.0334857340181" lon="10.884346444976067"><ele>177.5</ele><time>2026-04-06T09:58:09.001Z</time></trkpt><trkpt lat="43.0335712417728" lon="10.884485220485187"><ele>177.75</ele><time>2026-04-06T09:58:10.001Z</time></trkpt><trkpt lat="43.033658000020786" lon="10.884616338934427"><ele>178.0</ele><time>2026-04-06T09:58:11.001Z</time></trkpt><trkpt lat="43.033743120699896" lon="10.884731654384668"><ele>178.0</ele><time>2026-04-06T09:58:12.001Z</time></trkpt><trkpt lat="43.033830750721954" lon="10.88484774954374"><ele>178.0</ele><time>2026-04-06T09:58:13.001Z</time></trkpt><trkpt lat="43.033916247106866" lon="10.88495333351062"><ele>178.0</ele><time>2026-04-06T09:58:14.001Z</time></trkpt><trkpt lat="43.03399022593344" lon="10.885049126465898"><ele>178.0</ele><time>2026-04-06T09:58:15.001Z</time></trkpt><trkpt lat="43.03405861120021" lon="10.885135746917452"><ele>178.0</ele><time>2026-04-06T09:58:16.001Z</time></trkpt><trkpt lat="43.03411784172438" lon="10.885213629489616"><ele>178.83333333333334</ele><time>2026-04-06T09:58:17.001Z</time></trkpt><trkpt lat="43.034170496701734" lon="10.885288698041762"><ele>179.66666666666669</ele><time>2026-04-06T09:58:18.001Z</time></trkpt><trkpt lat="43.034216800878426" lon="10.885351409880181"><ele>180.5</ele><time>2026-04-06T09:58:19.001Z</time></trkpt><trkpt lat="43.03429227610036" lon="10.885483439644558"><ele>181.33333333333334</ele><time>2026-04-06T09:58:21.001Z</time></trkpt><trkpt lat="43.034323238067664" lon="10.885564762605355"><ele>182.16666666666666</ele><time>2026-04-06T09:58:22.001Z</time></trkpt><trkpt lat="43.03436163696589" lon="10.885647791757723"><ele>183.0</ele><time>2026-04-06T09:58:23.001Z</time></trkpt><trkpt lat="43.034401000966525" lon="10.885739371249857"><ele>183.0</ele><time>2026-04-06T09:58:24.001Z</time></trkpt><trkpt lat="43.03444569325953" lon="10.885843346902714"><ele>183.0</ele><time>2026-04-06T09:58:25.001Z</time></trkpt><trkpt lat="43.0344861504487" lon="10.885944630473627"><ele>183.0</ele><time>2026-04-06T09:58:26.001Z</time></trkpt><trkpt lat="43.034543947283446" lon="10.885982130527111"><ele>183.0</ele><time>2026-04-06T09:58:27.001Z</time></trkpt><trkpt lat="43.034663459023214" lon="10.885928227539194"><ele>183.0</ele><time>2026-04-06T09:58:28.001Z</time></trkpt><trkpt lat="43.03476268149481" lon="10.885842141587279"><ele>183.0</ele><time>2026-04-06T09:58:29.001Z</time></trkpt><trkpt lat="43.034893778958214" lon="10.885816024629777"><ele>183.0</ele><time>2026-04-06T09:58:30.001Z</time></trkpt><trkpt lat="43.03508161850592" lon="10.885834155270786"><ele>183.0</ele><time>2026-04-06T09:58:31.001Z</time></trkpt><trkpt lat="43.035331240394534" lon="10.885878035817983"><ele>184.0</ele><time>2026-04-06T09:58:32.001Z</time></trkpt><trkpt lat="43.035625602366615" lon="10.885937872110354"><ele>185.0</ele><time>2026-04-06T09:58:33.001Z</time></trkpt><trkpt lat="43.03596383875709" lon="10.885983094440567"><ele>185.0</ele><time>2026-04-06T09:58:34.001Z</time></trkpt><trkpt lat="43.036303882573876" lon="10.885987506640916"><ele>185.0</ele><time>2026-04-06T09:58:35.001Z</time></trkpt><trkpt lat="43.03665489843081" lon="10.885958343610671"><ele>183.0</ele><time>2026-04-06T09:58:36.001Z</time></trkpt><trkpt lat="43.03700340209558" lon="10.88589358446052"><ele>181.0</ele><time>2026-04-06T09:58:37.001Z</time></trkpt><trkpt lat="43.037335864257855" lon="10.885791841831246"><ele>185.0</ele><time>2026-04-06T09:58:38.001Z</time></trkpt><trkpt lat="43.03765748820462" lon="10.885653317417086"><ele>189.0</ele><time>2026-04-06T09:58:39.001Z</time></trkpt><trkpt lat="43.03798480200825" lon="10.885483704923603"><ele>186.5</ele><time>2026-04-06T09:58:40.001Z</time></trkpt><trkpt lat="43.03831728203151" lon="10.885277035915195"><ele>184.0</ele><time>2026-04-06T09:58:41.001Z</time></trkpt><trkpt lat="43.03863981354044" lon="10.885034584060541"><ele>184.0</ele><time>2026-04-06T09:58:42.001Z</time></trkpt><trkpt lat="43.03894701719921" lon="10.88474816819951"><ele>184.0</ele><time>2026-04-06T09:58:43.001Z</time></trkpt><trkpt lat="43.03923838024012" lon="10.884421584272364"><ele>183.0</ele><time>2026-04-06T09:58:44.001Z</time></trkpt><trkpt lat="43.03951255296122" lon="10.88405362950781"><ele>182.0</ele><time>2026-04-06T09:58:45.001Z</time></trkpt><trkpt lat="43.03978106048279" lon="10.883653343969772"><ele>185.5</ele><time>2026-04-06T09:58:46.001Z</time></trkpt><trkpt lat="43.04003273954602" lon="10.883284221678602"><ele>189.0</ele><time>2026-04-06T09:58:47.001Z</time></trkpt><trkpt lat="43.04025398552408" lon="10.882956185753565"><ele>189.0</ele><time>2026-04-06T09:58:48.001Z</time></trkpt><trkpt lat="43.040467418799395" lon="10.882654437178203"><ele>189.0</ele><time>2026-04-06T09:58:49.001Z</time></trkpt><trkpt lat="43.040668684186095" lon="10.88237056775116"><ele>192.5</ele><time>2026-04-06T09:58:50.001Z</time></trkpt><trkpt lat="43.04086457898922" lon="10.882096236521495"><ele>196.0</ele><time>2026-04-06T09:58:51.001Z</time></trkpt><trkpt lat="43.04106115766733" lon="10.881821962364556"><ele>188.0</ele><time>2026-04-06T09:58:52.001Z</time></trkpt><trkpt lat="43.04124715545596" lon="10.881557104196453"><ele>180.0</ele><time>2026-04-06T09:58:53.001Z</time></trkpt><trkpt lat="43.04142788864757" lon="10.881296216349105"><ele>180.0</ele><time>2026-04-06T09:58:54.001Z</time></trkpt><trkpt lat="43.04160215320386" lon="10.881032708823401"><ele>180.0</ele><time>2026-04-06T09:58:55.001Z</time></trkpt><trkpt lat="43.04177492868945" lon="10.880770337013416"><ele>184.0</ele><time>2026-04-06T09:58:56.001Z</time></trkpt><trkpt lat="43.04195093442065" lon="10.880523352904671"><ele>188.0</ele><time>2026-04-06T09:58:57.001Z</time></trkpt><trkpt lat="43.04211694347648" lon="10.88027292691399"><ele>182.5</ele><time>2026-04-06T09:58:58.001Z</time></trkpt><trkpt lat="43.04228521715662" lon="10.880029899906493"><ele>177.0</ele><time>2026-04-06T09:58:59.001Z</time></trkpt><trkpt lat="43.04245498682421" lon="10.879783349629466"><ele>184.5</ele><time>2026-04-06T09:59:00.001Z</time></trkpt><trkpt lat="43.04261814684615" lon="10.879538248324032"><ele>192.0</ele><time>2026-04-06T09:59:01.001Z</time></trkpt><trkpt lat="43.042788666460986" lon="10.879300182390455"><ele>188.5</ele><time>2026-04-06T09:59:02.001Z</time></trkpt><trkpt lat="43.04297368356592" lon="10.87907135265725"><ele>185.0</ele><time>2026-04-06T09:59:03.001Z</time></trkpt><trkpt lat="43.04317081963197" lon="10.878856199842195"><ele>190.5</ele><time>2026-04-06T09:59:04.001Z</time></trkpt><trkpt lat="43.043378158600966" lon="10.878656512965277"><ele>196.0</ele><time>2026-04-06T09:59:05Z</time></trkpt><trkpt lat="43.04359499201592" lon="10.878459590561869"><ele>191.0</ele><time>2026-04-06T09:59:06Z</time></trkpt><trkpt lat="43.04382605968101" lon="10.87829856923153"><ele>186.0</ele><time>2026-04-06T09:59:07Z</time></trkpt><trkpt lat="43.044062858764335" lon="10.878147610487721"><ele>190.5</ele><time>2026-04-06T09:59:08Z</time></trkpt><trkpt lat="43.04430236452612" lon="10.878014684846976"><ele>195.0</ele><time>2026-04-06T09:59:09Z</time></trkpt><trkpt lat="43.0445455628806" lon="10.877903730665073"><ele>195.0</ele><time>2026-04-06T09:59:10Z</time></trkpt><trkpt lat="43.04478971043382" lon="10.877813605619451"><ele>195.0</ele><time>2026-04-06T09:59:11Z</time></trkpt><trkpt lat="43.04504282353552" lon="10.877742819167485"><ele>195.5</ele><time>2026-04-06T09:59:12Z</time></trkpt><trkpt lat="43.04528671716458" lon="10.877668039885176"><ele>196.0</ele><time>2026-04-06T09:59:13Z</time></trkpt><trkpt lat="43.04552817488985" lon="10.877587886269449"><ele>191.0</ele><time>2026-04-06T09:59:14Z</time></trkpt><trkpt lat="43.0457680161018" lon="10.877508319752105"><ele>186.0</ele><time>2026-04-06T09:59:15Z</time></trkpt><trkpt lat="43.046002486524976" lon="10.877423772746273"><ele>186.0</ele><time>2026-04-06T09:59:16Z</time></trkpt><trkpt lat="43.046244283080775" lon="10.877336283443965"><ele>186.0</ele><time>2026-04-06T09:59:17Z</time></trkpt><trkpt lat="43.046486035189545" lon="10.877252021712302"><ele>185.5</ele><time>2026-04-06T09:59:18Z</time></trkpt><trkpt lat="43.04672444837715" lon="10.877173447835219"><ele>185.0</ele><time>2026-04-06T09:59:19Z</time></trkpt><trkpt lat="43.04695794762281" lon="10.877105318963013"><ele>185.0</ele><time>2026-04-06T09:59:20Z</time></trkpt><trkpt lat="43.047192408676096" lon="10.877068372765727"><ele>185.0</ele><time>2026-04-06T09:59:21Z</time></trkpt><trkpt lat="43.04743082480083" lon="10.877037249357702"><ele>185.5</ele><time>2026-04-06T09:59:22Z</time></trkpt><trkpt lat="43.04766456570288" lon="10.87701148725059"><ele>186.0</ele><time>2026-04-06T09:59:23Z</time></trkpt><trkpt lat="43.0479051028502" lon="10.877000998573417"><ele>186.0</ele><time>2026-04-06T09:59:24Z</time></trkpt><trkpt lat="43.0481481268726" lon="10.877009302104353"><ele>186.0</ele><time>2026-04-06T09:59:25Z</time></trkpt><trkpt lat="43.048387819013165" lon="10.877042410048888"><ele>189.5</ele><time>2026-04-06T09:59:26Z</time></trkpt><trkpt lat="43.048625169605884" lon="10.877093689749813"><ele>193.0</ele><time>2026-04-06T09:59:27Z</time></trkpt><trkpt lat="43.04886369004788" lon="10.8771575518102"><ele>193.0</ele><time>2026-04-06T09:59:28Z</time></trkpt><trkpt lat="43.04910223054003" lon="10.877241318166757"><ele>193.0</ele><time>2026-04-06T09:59:29Z</time></trkpt><trkpt lat="43.04933888530882" lon="10.877342675705153"><ele>196.5</ele><time>2026-04-06T09:59:30Z</time></trkpt><trkpt lat="43.049575005223005" lon="10.877462926095326"><ele>200.0</ele><time>2026-04-06T09:59:31Z</time></trkpt><trkpt lat="43.049811928061544" lon="10.877596219493386"><ele>202.5</ele><time>2026-04-06T09:59:32Z</time></trkpt><trkpt lat="43.05003982117139" lon="10.877761464062287"><ele>205.0</ele><time>2026-04-06T09:59:33Z</time></trkpt><trkpt lat="43.05025926286126" lon="10.877946820559192"><ele>205.0</ele><time>2026-04-06T09:59:34Z</time></trkpt><trkpt lat="43.050463531383265" lon="10.878160700587346"><ele>205.0</ele><time>2026-04-06T09:59:35Z</time></trkpt><trkpt lat="43.050670550202554" lon="10.87836816028019"><ele>204.0</ele><time>2026-04-06T09:59:36Z</time></trkpt><trkpt lat="43.05086265143919" lon="10.878602502554816"><ele>203.0</ele><time>2026-04-06T09:59:37Z</time></trkpt><trkpt lat="43.05105479131948" lon="10.878829819881137"><ele>203.0</ele><time>2026-04-06T09:59:38Z</time></trkpt><trkpt lat="43.051243742932314" lon="10.87905590970372"><ele>203.0</ele><time>2026-04-06T09:59:39Z</time></trkpt><trkpt lat="43.0514365166355" lon="10.879272397819813"><ele>208.0</ele><time>2026-04-06T09:59:40Z</time></trkpt><trkpt lat="43.05162790178403" lon="10.879487793159182"><ele>213.0</ele><time>2026-04-06T09:59:41Z</time></trkpt><trkpt lat="43.051815606386114" lon="10.87969909329487"><ele>213.0</ele><time>2026-04-06T09:59:42Z</time></trkpt><trkpt lat="43.052004610753016" lon="10.879911039842995"><ele>213.0</ele><time>2026-04-06T09:59:43Z</time></trkpt><trkpt lat="43.05219223471724" lon="10.880124733918976"><ele>216.0</ele><time>2026-04-06T09:59:44Z</time></trkpt><trkpt lat="43.05237920807221" lon="10.880338041044494"><ele>219.0</ele><time>2026-04-06T09:59:45Z</time></trkpt><trkpt lat="43.05256793199621" lon="10.880543828879356"><ele>219.0</ele><time>2026-04-06T09:59:46Z</time></trkpt><trkpt lat="43.05276377197498" lon="10.880735404635795"><ele>219.0</ele><time>2026-04-06T09:59:47Z</time></trkpt><trkpt lat="43.052971128904936" lon="10.880907942366125"><ele>218.5</ele><time>2026-04-06T09:59:48Z</time></trkpt><trkpt lat="43.0531868171327" lon="10.881063308543947"><ele>218.0</ele><time>2026-04-06T09:59:49Z</time></trkpt><trkpt lat="43.05340287664779" lon="10.881210034293607"><ele>218.0</ele><time>2026-04-06T09:59:50Z</time></trkpt><trkpt lat="43.05362671822854" lon="10.881339731384461"><ele>218.0</ele><time>2026-04-06T09:59:51Z</time></trkpt><trkpt lat="43.053854990614106" lon="10.881459516242922"><ele>218.0</ele><time>2026-04-06T09:59:52Z</time></trkpt><trkpt lat="43.054093870100004" lon="10.881559387144666"><ele>218.0</ele><time>2026-04-06T09:59:53Z</time></trkpt><trkpt lat="43.05433653779255" lon="10.88165487100212"><ele>218.0</ele><time>2026-04-06T09:59:54Z</time></trkpt><trkpt lat="43.05457917663809" lon="10.881744874660335"><ele>218.0</ele><time>2026-04-06T09:59:55Z</time></trkpt><trkpt lat="43.05480632520223" lon="10.881832194739765"><ele>222.33333333333334</ele><time>2026-04-06T09:59:56Z</time></trkpt><trkpt lat="43.05501279801588" lon="10.881923202319717"><ele>226.66666666666669</ele><time>2026-04-06T09:59:57Z</time></trkpt><trkpt lat="43.05520296920037" lon="10.88201012033109"><ele>231.0</ele><time>2026-04-06T09:59:58Z</time></trkpt><trkpt lat="43.05538734669166" lon="10.882109873102417"><ele>231.0</ele><time>2026-04-06T09:59:59Z</time></trkpt><trkpt lat="43.055575865259165" lon="10.88222421379166"><ele>231.0</ele><time>2026-04-06T10:00:00Z</time></trkpt><trkpt lat="43.05576840265197" lon="10.882356727393965"><ele>231.0</ele><time>2026-04-06T10:00:01Z</time></trkpt><trkpt lat="43.055970286812084" lon="10.882492348020728"><ele>233.5</ele><time>2026-04-06T10:00:02Z</time></trkpt><trkpt lat="43.0561728545831" lon="10.88265354984303"><ele>236.0</ele><time>2026-04-06T10:00:03Z</time></trkpt><trkpt lat="43.05636959633573" lon="10.882835264877912"><ele>236.0</ele><time>2026-04-06T10:00:04Z</time></trkpt><trkpt lat="43.056565471228744" lon="10.88303911022198"><ele>236.0</ele><time>2026-04-06T10:00:05Z</time></trkpt><trkpt lat="43.05677924901228" lon="10.883224537836623"><ele>237.0</ele><time>2026-04-06T10:00:06Z</time></trkpt><trkpt lat="43.05695958145934" lon="10.883504876692795"><ele>238.0</ele><time>2026-04-06T10:00:07Z</time></trkpt><trkpt lat="43.05714749314446" lon="10.883768967938815"><ele>238.0</ele><time>2026-04-06T10:00:08Z</time></trkpt><trkpt lat="43.057324330559744" lon="10.884055503551366"><ele>238.0</ele><time>2026-04-06T10:00:09Z</time></trkpt><trkpt lat="43.057482702142465" lon="10.884359844260798"><ele>236.0</ele><time>2026-04-06T10:00:10Z</time></trkpt><trkpt lat="43.05763004012158" lon="10.884673364775336"><ele>234.0</ele><time>2026-04-06T10:00:11Z</time></trkpt><trkpt lat="43.05776435116538" lon="10.884993652119507"><ele>234.0</ele><time>2026-04-06T10:00:12Z</time></trkpt><trkpt lat="43.057880686371995" lon="10.885330590367236"><ele>234.0</ele><time>2026-04-06T10:00:13Z</time></trkpt><trkpt lat="43.05798626450842" lon="10.885678432315446"><ele>234.0</ele><time>2026-04-06T10:00:14Z</time></trkpt><trkpt lat="43.058073817129994" lon="10.886035451238682"><ele>234.0</ele><time>2026-04-06T10:00:15Z</time></trkpt><trkpt lat="43.058147339038726" lon="10.886408601515502"><ele>233.5</ele><time>2026-04-06T10:00:16Z</time></trkpt><trkpt lat="43.05822148554058" lon="10.886782142236218"><ele>233.0</ele><time>2026-04-06T10:00:17.001Z</time></trkpt><trkpt lat="43.05829527116044" lon="10.887153923990518"><ele>233.0</ele><time>2026-04-06T10:00:18.001Z</time></trkpt><trkpt lat="43.05836866396722" lon="10.887520239455242"><ele>233.0</ele><time>2026-04-06T10:00:19.001Z</time></trkpt><trkpt lat="43.058442168690796" lon="10.88788142634756"><ele>234.0</ele><time>2026-04-06T10:00:20.001Z</time></trkpt><trkpt lat="43.05851563371435" lon="10.888240745172608"><ele>235.0</ele><time>2026-04-06T10:00:21.001Z</time></trkpt><trkpt lat="43.05858913186986" lon="10.888594184618603"><ele>237.5</ele><time>2026-04-06T10:00:22.001Z</time></trkpt><trkpt lat="43.058664723673026" lon="10.888943978042088"><ele>240.0</ele><time>2026-04-06T10:00:23.001Z</time></trkpt><trkpt lat="43.05874139643637" lon="10.88930286081253"><ele>242.5</ele><time>2026-04-06T10:00:24.001Z</time></trkpt><trkpt lat="43.05881665732233" lon="10.889663326222868"><ele>245.0</ele><time>2026-04-06T10:00:25.001Z</time></trkpt><trkpt lat="43.058883858245615" lon="10.890023320612062"><ele>247.5</ele><time>2026-04-06T10:00:26.001Z</time></trkpt><trkpt lat="43.05895232225046" lon="10.890385978299618"><ele>250.0</ele><time>2026-04-06T10:00:27.001Z</time></trkpt><trkpt lat="43.059011998755544" lon="10.890753335203257"><ele>253.5</ele><time>2026-04-06T10:00:28.001Z</time></trkpt><trkpt lat="43.059047936119846" lon="10.891128894491503"><ele>257.0</ele><time>2026-04-06T10:00:29.001Z</time></trkpt><trkpt lat="43.05907406587106" lon="10.891508259386892"><ele>259.0</ele><time>2026-04-06T10:00:30.001Z</time></trkpt><trkpt lat="43.05907905306015" lon="10.89189334484524"><ele>261.0</ele><time>2026-04-06T10:00:31.001Z</time></trkpt><trkpt lat="43.05906404119954" lon="10.89228741805729"><ele>261.5</ele><time>2026-04-06T10:00:32.001Z</time></trkpt><trkpt lat="43.05903831614335" lon="10.892684443708353"><ele>262.0</ele><time>2026-04-06T10:00:33.001Z</time></trkpt><trkpt lat="43.05901225688251" lon="10.893087820650138"><ele>265.0</ele><time>2026-04-06T10:00:34.001Z</time></trkpt><trkpt lat="43.0590046292124" lon="10.893493832157858"><ele>268.0</ele><time>2026-04-06T10:00:35.001Z</time></trkpt><trkpt lat="43.059025155933924" lon="10.89390288203832"><ele>269.5</ele><time>2026-04-06T10:00:36.001Z</time></trkpt><trkpt lat="43.05907183838134" lon="10.894314691675136"><ele>271.0</ele><time>2026-04-06T10:00:37.001Z</time></trkpt><trkpt lat="43.05913612139384" lon="10.894725933851905"><ele>268.0</ele><time>2026-04-06T10:00:38.001Z</time></trkpt><trkpt lat="43.05921742212666" lon="10.89513297191514"><ele>265.0</ele><time>2026-04-06T10:00:39.001Z</time></trkpt><trkpt lat="43.059301893045465" lon="10.895537530757133"><ele>265.5</ele><time>2026-04-06T10:00:40.001Z</time></trkpt><trkpt lat="43.05939284704572" lon="10.895937028519816"><ele>266.0</ele><time>2026-04-06T10:00:41.001Z</time></trkpt><trkpt lat="43.05948271762659" lon="10.896337553480846"><ele>266.0</ele><time>2026-04-06T10:00:42.001Z</time></trkpt><trkpt lat="43.059567697216075" lon="10.896739688346669"><ele>266.0</ele><time>2026-04-06T10:00:43.001Z</time></trkpt><trkpt lat="43.059654159129984" lon="10.897144064721024"><ele>269.5</ele><time>2026-04-06T10:00:44.001Z</time></trkpt><trkpt lat="43.059738505285395" lon="10.897546211562545"><ele>273.0</ele><time>2026-04-06T10:00:45.001Z</time></trkpt><trkpt lat="43.059823777961995" lon="10.897947572430871"><ele>275.0</ele><time>2026-04-06T10:00:46.001Z</time></trkpt><trkpt lat="43.05990825861676" lon="10.898343012070432"><ele>277.0</ele><time>2026-04-06T10:00:47.001Z</time></trkpt><trkpt lat="43.05999246085005" lon="10.898735284579415"><ele>274.0</ele><time>2026-04-06T10:00:48.001Z</time></trkpt><trkpt lat="43.06007555708828" lon="10.899124280982758"><ele>271.0</ele><time>2026-04-06T10:00:49.001Z</time></trkpt><trkpt lat="43.060160109079995" lon="10.899513606534777"><ele>271.0</ele><time>2026-04-06T10:00:50.001Z</time></trkpt><trkpt lat="43.0602440480785" lon="10.899902911489896"><ele>271.0</ele><time>2026-04-06T10:00:51.001Z</time></trkpt><trkpt lat="43.06032627861214" lon="10.90029390589077"><ele>273.0</ele><time>2026-04-06T10:00:52.001Z</time></trkpt><trkpt lat="43.06041082650412" lon="10.90068543803883"><ele>275.0</ele><time>2026-04-06T10:00:53.001Z</time></trkpt><trkpt lat="43.06049576618407" lon="10.901078422363828"><ele>277.0</ele><time>2026-04-06T10:00:54.001Z</time></trkpt><trkpt lat="43.06057823040381" lon="10.901465938907018"><ele>279.0</ele><time>2026-04-06T10:00:55.001Z</time></trkpt><trkpt lat="43.0606604347469" lon="10.901851319463312"><ele>279.5</ele><time>2026-04-06T10:00:56.001Z</time></trkpt><trkpt lat="43.06074870207063" lon="10.902235457988878"><ele>280.0</ele><time>2026-04-06T10:00:57.001Z</time></trkpt><trkpt lat="43.06084594044595" lon="10.902616519823269"><ele>282.0</ele><time>2026-04-06T10:00:58.001Z</time></trkpt><trkpt lat="43.060952921547" lon="10.902992008780451"><ele>284.0</ele><time>2026-04-06T10:00:59.001Z</time></trkpt><trkpt lat="43.06108290529914" lon="10.903357208299441"><ele>286.0</ele><time>2026-04-06T10:01:00.001Z</time></trkpt><trkpt lat="43.061239073888494" lon="10.90370276855002"><ele>288.0</ele><time>2026-04-06T10:01:01.001Z</time></trkpt><trkpt lat="43.0614162529233" lon="10.904036442024555"><ele>289.5</ele><time>2026-04-06T10:01:02.001Z</time></trkpt><trkpt lat="43.06161698707467" lon="10.904354888365852"><ele>291.0</ele><time>2026-04-06T10:01:03.001Z</time></trkpt><trkpt lat="43.06183687632623" lon="10.904661884880147"><ele>291.0</ele><time>2026-04-06T10:01:04.001Z</time></trkpt><trkpt lat="43.06206547533678" lon="10.904962883778067"><ele>291.0</ele><time>2026-04-06T10:01:05.001Z</time></trkpt><trkpt lat="43.062300040953765" lon="10.905259281889618"><ele>291.0</ele><time>2026-04-06T10:01:06.001Z</time></trkpt><trkpt lat="43.06253509906492" lon="10.905557148178326"><ele>291.0</ele><time>2026-04-06T10:01:07.001Z</time></trkpt><trkpt lat="43.062767545897024" lon="10.905862428964692"><ele>290.5</ele><time>2026-04-06T10:01:08.001Z</time></trkpt><trkpt lat="43.06300940800407" lon="10.906170304872317"><ele>290.0</ele><time>2026-04-06T10:01:09.001Z</time></trkpt><trkpt lat="43.06324610111488" lon="10.906470947609645"><ele>289.5</ele><time>2026-04-06T10:01:10.001Z</time></trkpt><trkpt lat="43.06347249884355" lon="10.90676181291733"><ele>289.0</ele><time>2026-04-06T10:01:11Z</time></trkpt><trkpt lat="43.063694681453356" lon="10.90705317847197"><ele>289.0</ele><time>2026-04-06T10:01:12Z</time></trkpt><trkpt lat="43.0639047016942" lon="10.907358524181722"><ele>289.0</ele><time>2026-04-06T10:01:13Z</time></trkpt><trkpt lat="43.064099045909444" lon="10.907683272760341"><ele>290.5</ele><time>2026-04-06T10:01:14Z</time></trkpt><trkpt lat="43.06428741135543" lon="10.908029136444377"><ele>292.0</ele><time>2026-04-06T10:01:15Z</time></trkpt><trkpt lat="43.06446686298898" lon="10.908393559155247"><ele>294.0</ele><time>2026-04-06T10:01:16Z</time></trkpt><trkpt lat="43.06464954156078" lon="10.90876337340891"><ele>296.0</ele><time>2026-04-06T10:01:17Z</time></trkpt><trkpt lat="43.064833682237854" lon="10.909137943009519"><ele>299.5</ele><time>2026-04-06T10:01:18Z</time></trkpt><trkpt lat="43.065019989473775" lon="10.909507827671622"><ele>303.0</ele><time>2026-04-06T10:01:19Z</time></trkpt><trkpt lat="43.065217086222695" lon="10.909870793362566"><ele>303.0</ele><time>2026-04-06T10:01:20Z</time></trkpt><trkpt lat="43.065429472596094" lon="10.910209422914352"><ele>303.0</ele><time>2026-04-06T10:01:21Z</time></trkpt><trkpt lat="43.06566160210486" lon="10.910530085352093"><ele>304.5</ele><time>2026-04-06T10:01:22Z</time></trkpt><trkpt lat="43.0659187612896" lon="10.910819395159916"><ele>306.0</ele><time>2026-04-06T10:01:23Z</time></trkpt><trkpt lat="43.0661982214654" lon="10.911079421549548"><ele>306.0</ele><time>2026-04-06T10:01:24Z</time></trkpt><trkpt lat="43.06648949116669" lon="10.911328395289488"><ele>306.0</ele><time>2026-04-06T10:01:25Z</time></trkpt><trkpt lat="43.066779666729815" lon="10.911575199674973"><ele>308.0</ele><time>2026-04-06T10:01:26Z</time></trkpt><trkpt lat="43.06706950495424" lon="10.91181987039928"><ele>310.0</ele><time>2026-04-06T10:01:27Z</time></trkpt><trkpt lat="43.067360602520786" lon="10.912062910224112"><ele>311.5</ele><time>2026-04-06T10:01:28Z</time></trkpt><trkpt lat="43.067649973818746" lon="10.912302448388274"><ele>313.0</ele><time>2026-04-06T10:01:29Z</time></trkpt><trkpt lat="43.06793758190967" lon="10.9125416668882"><ele>313.5</ele><time>2026-04-06T10:01:30Z</time></trkpt><trkpt lat="43.068225977168304" lon="10.912772705444421"><ele>314.0</ele><time>2026-04-06T10:01:31Z</time></trkpt><trkpt lat="43.0685101925001" lon="10.913010769304167"><ele>314.5</ele><time>2026-04-06T10:01:32Z</time></trkpt><trkpt lat="43.06879616797879" lon="10.913235688724457"><ele>315.0</ele><time>2026-04-06T10:01:33Z</time></trkpt><trkpt lat="43.06907155859402" lon="10.913469682776643"><ele>317.0</ele><time>2026-04-06T10:01:34Z</time></trkpt><trkpt lat="43.06934327122172" lon="10.91371918606244"><ele>319.0</ele><time>2026-04-06T10:01:35Z</time></trkpt><trkpt lat="43.069609609529735" lon="10.913977784588212"><ele>319.0</ele><time>2026-04-06T10:01:36Z</time></trkpt><trkpt lat="43.06984072585322" lon="10.914220205708357"><ele>319.0</ele><time>2026-04-06T10:01:37Z</time></trkpt><trkpt lat="43.070035769673446" lon="10.914470085634575"><ele>321.0</ele><time>2026-04-06T10:01:38Z</time></trkpt><trkpt lat="43.07019944327568" lon="10.914746004338218"><ele>323.0</ele><time>2026-04-06T10:01:39Z</time></trkpt><trkpt lat="43.07033136067584" lon="10.915054381730075"><ele>323.5</ele><time>2026-04-06T10:01:40Z</time></trkpt><trkpt lat="43.07042926657287" lon="10.915393111067239"><ele>324.0</ele><time>2026-04-06T10:01:41Z</time></trkpt><trkpt lat="43.07048798137218" lon="10.915752608941077"><ele>326.0</ele><time>2026-04-06T10:01:42Z</time></trkpt><trkpt lat="43.07050739417298" lon="10.916129938140115"><ele>328.0</ele><time>2026-04-06T10:01:43Z</time></trkpt><trkpt lat="43.07048988532049" lon="10.916515713170668"><ele>330.5</ele><time>2026-04-06T10:01:44Z</time></trkpt><trkpt lat="43.07043871728119" lon="10.916920500156646"><ele>333.0</ele><time>2026-04-06T10:01:45Z</time></trkpt><trkpt lat="43.070375055234734" lon="10.917288428579134"><ele>336.5</ele><time>2026-04-06T10:01:46Z</time></trkpt><trkpt lat="43.0703165980987" lon="10.917617254968995"><ele>340.0</ele><time>2026-04-06T10:01:47Z</time></trkpt><trkpt lat="43.070288332363965" lon="10.91792097852787"><ele>340.0</ele><time>2026-04-06T10:01:48Z</time></trkpt><trkpt lat="43.07029981831231" lon="10.918225031958746"><ele>340.0</ele><time>2026-04-06T10:01:49Z</time></trkpt><trkpt lat="43.07035279318541" lon="10.918530233966509"><ele>344.0</ele><time>2026-04-06T10:01:50Z</time></trkpt><trkpt lat="43.07044527369032" lon="10.918836477782754"><ele>348.0</ele><time>2026-04-06T10:01:51Z</time></trkpt><trkpt lat="43.07057154831709" lon="10.919130809871122"><ele>351.5</ele><time>2026-04-06T10:01:52Z</time></trkpt><trkpt lat="43.07073048307855" lon="10.919383182461175"><ele>355.0</ele><time>2026-04-06T10:01:53Z</time></trkpt><trkpt lat="43.070929446959475" lon="10.919595434726132"><ele>355.0</ele><time>2026-04-06T10:01:54Z</time></trkpt><trkpt lat="43.07116201233116" lon="10.919773868527152"><ele>355.0</ele><time>2026-04-06T10:01:55Z</time></trkpt><trkpt lat="43.07141936009123" lon="10.91994069736665"><ele>354.5</ele><time>2026-04-06T10:01:56Z</time></trkpt><trkpt lat="43.07169876233317" lon="10.920113670189131"><ele>354.0</ele><time>2026-04-06T10:01:57Z</time></trkpt><trkpt lat="43.07196595334549" lon="10.920266462851618"><ele>354.0</ele><time>2026-04-06T10:01:58Z</time></trkpt><trkpt lat="43.072201802519494" lon="10.920396010748979"><ele>354.0</ele><time>2026-04-06T10:01:59Z</time></trkpt><trkpt lat="43.07242169699151" lon="10.92050819606595"><ele>354.0</ele><time>2026-04-06T10:02:00Z</time></trkpt><trkpt lat="43.07262569812843" lon="10.920611346330436"><ele>354.0</ele><time>2026-04-06T10:02:01Z</time></trkpt><trkpt lat="43.07281996357815" lon="10.9206969516843"><ele>354.0</ele><time>2026-04-06T10:02:02Z</time></trkpt><trkpt lat="43.07299740574306" lon="10.92077631622995"><ele>354.0</ele><time>2026-04-06T10:02:03Z</time></trkpt><trkpt lat="43.073159514398945" lon="10.920853361838029"><ele>354.0</ele><time>2026-04-06T10:02:04Z</time></trkpt><trkpt lat="43.07329779153871" lon="10.920921863631971"><ele>354.0</ele><time>2026-04-06T10:02:05Z</time></trkpt><trkpt lat="43.07341456825803" lon="10.920980729231383"><ele>354.0</ele><time>2026-04-06T10:02:06Z</time></trkpt><trkpt lat="43.07351007219029" lon="10.921032547163698"><ele>353.0</ele><time>2026-04-06T10:02:07Z</time></trkpt><trkpt lat="43.07357009713996" lon="10.921083294084086"><ele>352.0</ele><time>2026-04-06T10:02:08Z</time></trkpt><trkpt lat="43.073647109256804" lon="10.921179680357634"><ele>351.0</ele><time>2026-04-06T10:02:10Z</time></trkpt><trkpt lat="43.07369459174565" lon="10.921260122167343"><ele>350.0</ele><time>2026-04-06T10:02:11Z</time></trkpt><trkpt lat="43.07375490379028" lon="10.921386271707602"><ele>349.0</ele><time>2026-04-06T10:02:12Z</time></trkpt><trkpt lat="43.07379403726782" lon="10.921543988826851"><ele>348.66666666666663</ele><time>2026-04-06T10:02:13Z</time></trkpt><trkpt lat="43.073825147806275" lon="10.921762332746397"><ele>348.3333333333333</ele><time>2026-04-06T10:02:14Z</time></trkpt><trkpt lat="43.0738428478246" lon="10.922027045792964"><ele>348.0</ele><time>2026-04-06T10:02:15Z</time></trkpt><trkpt lat="43.07384352267953" lon="10.922320068953814"><ele>348.0</ele><time>2026-04-06T10:02:16Z</time></trkpt><trkpt lat="43.07382343031898" lon="10.922637250690725"><ele>348.0</ele><time>2026-04-06T10:02:17Z</time></trkpt><trkpt lat="43.07378128009368" lon="10.922967501145257"><ele>348.0</ele><time>2026-04-06T10:02:18Z</time></trkpt><trkpt lat="43.07372587224317" lon="10.923317275054124"><ele>348.0</ele><time>2026-04-06T10:02:19Z</time></trkpt><trkpt lat="43.073674986268195" lon="10.923645215010888"><ele>348.3333333333333</ele><time>2026-04-06T10:02:20Z</time></trkpt><trkpt lat="43.073632368533616" lon="10.923927452944287"><ele>348.66666666666663</ele><time>2026-04-06T10:02:21Z</time></trkpt><trkpt lat="43.07360028386933" lon="10.924160881208104"><ele>349.0</ele><time>2026-04-06T10:02:22Z</time></trkpt><trkpt lat="43.07357526209816" lon="10.924372262270875"><ele>349.66666666666663</ele><time>2026-04-06T10:02:23Z</time></trkpt><trkpt lat="43.0735380343537" lon="10.924559284359521"><ele>350.3333333333333</ele><time>2026-04-06T10:02:24Z</time></trkpt><trkpt lat="43.07346249659322" lon="10.924747822755828"><ele>351.0</ele><time>2026-04-06T10:02:25Z</time></trkpt><trkpt lat="43.07334743635773" lon="10.924930894099884"><ele>356.3333333333333</ele><time>2026-04-06T10:02:26.001Z</time></trkpt><trkpt lat="43.073206551741904" lon="10.925112855991031"><ele>361.66666666666663</ele><time>2026-04-06T10:02:27.001Z</time></trkpt><trkpt lat="43.073058153899225" lon="10.92526833789481"><ele>367.0</ele><time>2026-04-06T10:02:28.001Z</time></trkpt><trkpt lat="43.07292494836356" lon="10.925376940451601"><ele>367.0</ele><time>2026-04-06T10:02:29.001Z</time></trkpt><trkpt lat="43.0727855200655" lon="10.925435929716627"><ele>367.0</ele><time>2026-04-06T10:02:30.001Z</time></trkpt><trkpt lat="43.07263496987597" lon="10.925436925863396"><ele>367.0</ele><time>2026-04-06T10:02:31.001Z</time></trkpt><trkpt lat="43.07247921036673" lon="10.925377635974364"><ele>364.75</ele><time>2026-04-06T10:02:32.001Z</time></trkpt><trkpt lat="43.07234662356755" lon="10.925301747922989"><ele>362.5</ele><time>2026-04-06T10:02:33.001Z</time></trkpt><trkpt lat="43.07222862433603" lon="10.925273983879878"><ele>360.25</ele><time>2026-04-06T10:02:34.001Z</time></trkpt><trkpt lat="43.072116062045076" lon="10.92531941799874"><ele>358.0</ele><time>2026-04-06T10:02:35.001Z</time></trkpt><trkpt lat="43.0720132604701" lon="10.925431854928732"><ele>358.0</ele><time>2026-04-06T10:02:36.001Z</time></trkpt><trkpt lat="43.07192357333814" lon="10.92560636612444"><ele>358.0</ele><time>2026-04-06T10:02:37.001Z</time></trkpt><trkpt lat="43.07181272069674" lon="10.925822968769872"><ele>358.0</ele><time>2026-04-06T10:02:38.001Z</time></trkpt><trkpt lat="43.07168492461088" lon="10.92604336863258"><ele>361.66666666666663</ele><time>2026-04-06T10:02:39.001Z</time></trkpt><trkpt lat="43.07157895964615" lon="10.92624491227702"><ele>365.3333333333333</ele><time>2026-04-06T10:02:40.001Z</time></trkpt><trkpt lat="43.071516197624234" lon="10.926460983625132"><ele>369.0</ele><time>2026-04-06T10:02:41.001Z</time></trkpt><trkpt lat="43.071483838742104" lon="10.926702301409257"><ele>371.3333333333333</ele><time>2026-04-06T10:02:42.001Z</time></trkpt><trkpt lat="43.071446253122886" lon="10.926952177722102"><ele>373.66666666666663</ele><time>2026-04-06T10:02:43.001Z</time></trkpt><trkpt lat="43.07136816109111" lon="10.92718754071044"><ele>376.0</ele><time>2026-04-06T10:02:44.001Z</time></trkpt><trkpt lat="43.071313691526086" lon="10.927385004538012"><ele>377.25</ele><time>2026-04-06T10:02:45.001Z</time></trkpt><trkpt lat="43.07129129540694" lon="10.927571077059977"><ele>378.5</ele><time>2026-04-06T10:02:46.001Z</time></trkpt><trkpt lat="43.07130534464144" lon="10.927759557393353"><ele>379.75</ele><time>2026-04-06T10:02:47.001Z</time></trkpt><trkpt lat="43.071356532192254" lon="10.927957335860672"><ele>381.0</ele><time>2026-04-06T10:02:48.001Z</time></trkpt><trkpt lat="43.07144102486967" lon="10.928178930318781"><ele>382.33333333333337</ele><time>2026-04-06T10:02:49.001Z</time></trkpt><trkpt lat="43.07154850551183" lon="10.928404744187436"><ele>383.6666666666667</ele><time>2026-04-06T10:02:50.001Z</time></trkpt><trkpt lat="43.07164605843366" lon="10.928628479014776"><ele>385.0</ele><time>2026-04-06T10:02:51.001Z</time></trkpt><trkpt lat="43.07170694097443" lon="10.928851604854634"><ele>385.0</ele><time>2026-04-06T10:02:52.001Z</time></trkpt><trkpt lat="43.07174221264477" lon="10.929126350963"><ele>385.0</ele><time>2026-04-06T10:02:53.001Z</time></trkpt><trkpt lat="43.07176445808118" lon="10.929377248533903"><ele>385.0</ele><time>2026-04-06T10:02:54.001Z</time></trkpt><trkpt lat="43.071798877040486" lon="10.929575147853788"><ele>387.25</ele><time>2026-04-06T10:02:55.001Z</time></trkpt><trkpt lat="43.07184882924361" lon="10.929743084457533"><ele>389.5</ele><time>2026-04-06T10:02:56.001Z</time></trkpt><trkpt lat="43.07193612313807" lon="10.92986459690446"><ele>391.75</ele><time>2026-04-06T10:02:57.001Z</time></trkpt><trkpt lat="43.07206289754862" lon="10.929943778935677"><ele>394.0</ele><time>2026-04-06T10:02:58.001Z</time></trkpt><trkpt lat="43.07220246982575" lon="10.929968533443361"><ele>394.0</ele><time>2026-04-06T10:02:59.001Z</time></trkpt><trkpt lat="43.07234889854765" lon="10.92990731941241"><ele>394.0</ele><time>2026-04-06T10:03:00.001Z</time></trkpt><trkpt lat="43.072457657261516" lon="10.92977203830366"><ele>394.0</ele><time>2026-04-06T10:03:01.001Z</time></trkpt><trkpt lat="43.07255028816766" lon="10.929574270459021"><ele>394.6666666666667</ele><time>2026-04-06T10:03:02.001Z</time></trkpt><trkpt lat="43.07264626260628" lon="10.92935840946088"><ele>395.33333333333337</ele><time>2026-04-06T10:03:03.001Z</time></trkpt><trkpt lat="43.07278576296107" lon="10.929203224840776"><ele>396.0</ele><time>2026-04-06T10:03:04.001Z</time></trkpt><trkpt lat="43.07293931177158" lon="10.929052714370323"><ele>395.0</ele><time>2026-04-06T10:03:05.001Z</time></trkpt><trkpt lat="43.073083026886614" lon="10.928948025527006"><ele>394.0</ele><time>2026-04-06T10:03:06.001Z</time></trkpt><trkpt lat="43.07320940179307" lon="10.928900316597785"><ele>393.0</ele><time>2026-04-06T10:03:07.001Z</time></trkpt><trkpt lat="43.073315664329016" lon="10.928886858705228"><ele>392.0</ele><time>2026-04-06T10:03:08.001Z</time></trkpt><trkpt lat="43.073389432986865" lon="10.92894734069783"><ele>394.0</ele><time>2026-04-06T10:03:09.001Z</time></trkpt><trkpt lat="43.07346630714698" lon="10.929059849281355"><ele>396.0</ele><time>2026-04-06T10:03:10.001Z</time></trkpt><trkpt lat="43.0735173245651" lon="10.929216163351503"><ele>398.0</ele><time>2026-04-06T10:03:11.001Z</time></trkpt><trkpt lat="43.07352816658951" lon="10.92940478093383"><ele>400.0</ele><time>2026-04-06T10:03:12.001Z</time></trkpt><trkpt lat="43.07347715928291" lon="10.929631238590623"><ele>401.33333333333337</ele><time>2026-04-06T10:03:13.001Z</time></trkpt><trkpt lat="43.073424897990826" lon="10.929876364280112"><ele>402.66666666666663</ele><time>2026-04-06T10:03:14.001Z</time></trkpt><trkpt lat="43.07335969947939" lon="10.930083679120496"><ele>404.0</ele><time>2026-04-06T10:03:15.001Z</time></trkpt><trkpt lat="43.07333297133248" lon="10.930253805776717"><ele>404.25</ele><time>2026-04-06T10:03:16.001Z</time></trkpt><trkpt lat="43.073366508153576" lon="10.930412222201936"><ele>404.5</ele><time>2026-04-06T10:03:17Z</time></trkpt><trkpt lat="43.07345230612441" lon="10.930567509980635"><ele>404.75</ele><time>2026-04-06T10:03:18Z</time></trkpt><trkpt lat="43.07358261085559" lon="10.930679755422629"><ele>405.0</ele><time>2026-04-06T10:03:19Z</time></trkpt><trkpt lat="43.07375060784939" lon="10.930756339672138"><ele>405.0</ele><time>2026-04-06T10:03:20Z</time></trkpt><trkpt lat="43.07394422294371" lon="10.930841529650277"><ele>405.0</ele><time>2026-04-06T10:03:21Z</time></trkpt><trkpt lat="43.07413433721251" lon="10.930986850050603"><ele>405.0</ele><time>2026-04-06T10:03:22Z</time></trkpt><trkpt lat="43.0743004498226" lon="10.931124281927731"><ele>408.75</ele><time>2026-04-06T10:03:23Z</time></trkpt><trkpt lat="43.074435071223874" lon="10.931237846297952"><ele>412.5</ele><time>2026-04-06T10:03:24Z</time></trkpt><trkpt lat="43.074526299896846" lon="10.93133897093402"><ele>416.25</ele><time>2026-04-06T10:03:25Z</time></trkpt><trkpt lat="43.07459071443131" lon="10.931466433031005"><ele>420.0</ele><time>2026-04-06T10:03:26Z</time></trkpt><trkpt lat="43.074634581883906" lon="10.931596887156193"><ele>420.0</ele><time>2026-04-06T10:03:27Z</time></trkpt><trkpt lat="43.074629235537174" lon="10.93171341848456"><ele>420.0</ele><time>2026-04-06T10:03:28Z</time></trkpt><trkpt lat="43.07456127243367" lon="10.931813891396764"><ele>420.0</ele><time>2026-04-06T10:03:29Z</time></trkpt><trkpt lat="43.074442468158026" lon="10.931851906106804"><ele>420.0</ele><time>2026-04-06T10:03:30Z</time></trkpt><trkpt lat="43.0743006346623" lon="10.931837431957101"><ele>420.66666666666663</ele><time>2026-04-06T10:03:31Z</time></trkpt><trkpt lat="43.07412276642864" lon="10.931810475557592"><ele>421.3333333333333</ele><time>2026-04-06T10:03:32Z</time></trkpt><trkpt lat="43.07395625805357" lon="10.93179560704686"><ele>422.0</ele><time>2026-04-06T10:03:33Z</time></trkpt><trkpt lat="43.073800169075824" lon="10.931855255280395"><ele>422.0</ele><time>2026-04-06T10:03:34Z</time></trkpt><trkpt lat="43.073663539165416" lon="10.931985932465656"><ele>422.0</ele><time>2026-04-06T10:03:35Z</time></trkpt><trkpt lat="43.07355797829459" lon="10.93215717293092"><ele>422.0</ele><time>2026-04-06T10:03:36Z</time></trkpt><trkpt lat="43.0734830289876" lon="10.932383144759868"><ele>427.0</ele><time>2026-04-06T10:03:37Z</time></trkpt><trkpt lat="43.07342361678786" lon="10.932681086719198"><ele>432.0</ele><time>2026-04-06T10:03:38Z</time></trkpt><trkpt lat="43.07330372939912" lon="10.933009051356477"><ele>428.5</ele><time>2026-04-06T10:03:39Z</time></trkpt><trkpt lat="43.07316892272986" lon="10.933327421529127"><ele>425.0</ele><time>2026-04-06T10:03:40Z</time></trkpt><trkpt lat="43.07307273399216" lon="10.933590568669926"><ele>424.0</ele><time>2026-04-06T10:03:41Z</time></trkpt><trkpt lat="43.07299176366175" lon="10.933783282110053"><ele>423.0</ele><time>2026-04-06T10:03:42Z</time></trkpt><trkpt lat="43.07298058202397" lon="10.933965015811284"><ele>422.0</ele><time>2026-04-06T10:03:43Z</time></trkpt><trkpt lat="43.0729969993488" lon="10.93416720439629"><ele>421.0</ele><time>2026-04-06T10:03:44Z</time></trkpt><trkpt lat="43.07303910899776" lon="10.934417877992647"><ele>422.6666666666667</ele><time>2026-04-06T10:03:45Z</time></trkpt><trkpt lat="43.07310295840212" lon="10.934678281488607"><ele>424.33333333333337</ele><time>2026-04-06T10:03:46Z</time></trkpt><trkpt lat="43.07319377442576" lon="10.934938519615228"><ele>426.0</ele><time>2026-04-06T10:03:47Z</time></trkpt><trkpt lat="43.073326571274094" lon="10.935231747501087"><ele>426.0</ele><time>2026-04-06T10:03:48Z</time></trkpt><trkpt lat="43.07346078618018" lon="10.935538383261374"><ele>426.0</ele><time>2026-04-06T10:03:49Z</time></trkpt><trkpt lat="43.073574454913455" lon="10.93577936195248"><ele>423.5</ele><time>2026-04-06T10:03:50Z</time></trkpt><trkpt lat="43.07367823777681" lon="10.93594867928574"><ele>421.0</ele><time>2026-04-06T10:03:51Z</time></trkpt><trkpt lat="43.07377856694242" lon="10.936064296963485"><ele>418.5</ele><time>2026-04-06T10:03:52Z</time></trkpt><trkpt lat="43.073883359344165" lon="10.936142149890681"><ele>416.0</ele><time>2026-04-06T10:03:53Z</time></trkpt><trkpt lat="43.074025228998366" lon="10.936168317724494"><ele>421.0</ele><time>2026-04-06T10:03:54Z</time></trkpt><trkpt lat="43.07416045697262" lon="10.936157472683071"><ele>426.0</ele><time>2026-04-06T10:03:55Z</time></trkpt><trkpt lat="43.07430686140069" lon="10.936066432574444"><ele>431.0</ele><time>2026-04-06T10:03:56Z</time></trkpt><trkpt lat="43.074475967306675" lon="10.93594288013205"><ele>436.66666666666663</ele><time>2026-04-06T10:03:57Z</time></trkpt><trkpt lat="43.074656957064086" lon="10.935830913686798"><ele>442.33333333333337</ele><time>2026-04-06T10:03:58Z</time></trkpt><trkpt lat="43.074807748258664" lon="10.935752863818124"><ele>448.0</ele><time>2026-04-06T10:03:59Z</time></trkpt><trkpt lat="43.07497827405152" lon="10.935751565034295"><ele>448.6666666666667</ele><time>2026-04-06T10:04:00Z</time></trkpt><trkpt lat="43.07514605698812" lon="10.935815316025268"><ele>449.33333333333337</ele><time>2026-04-06T10:04:01Z</time></trkpt><trkpt lat="43.07528952241378" lon="10.935889478948702"><ele>450.0</ele><time>2026-04-06T10:04:02Z</time></trkpt><trkpt lat="43.075420685183" lon="10.936020888209203"><ele>447.0</ele><time>2026-04-06T10:04:03Z</time></trkpt><trkpt lat="43.07552927441231" lon="10.936211634068302"><ele>444.0</ele><time>2026-04-06T10:04:04Z</time></trkpt><trkpt lat="43.07561402400429" lon="10.93645119611822"><ele>441.0</ele><time>2026-04-06T10:04:05Z</time></trkpt><trkpt lat="43.07570232917832" lon="10.936726571040463"><ele>446.0</ele><time>2026-04-06T10:04:06Z</time></trkpt><trkpt lat="43.07581060855682" lon="10.937062163057192"><ele>451.0</ele><time>2026-04-06T10:04:07Z</time></trkpt><trkpt lat="43.07593658626929" lon="10.937456023432992"><ele>449.0</ele><time>2026-04-06T10:04:08Z</time></trkpt><trkpt lat="43.076075041688114" lon="10.937891622217741"><ele>447.0</ele><time>2026-04-06T10:04:09Z</time></trkpt><trkpt lat="43.076206433448455" lon="10.93831137066196"><ele>444.0</ele><time>2026-04-06T10:04:10Z</time></trkpt><trkpt lat="43.07632317217971" lon="10.938659066747313"><ele>441.0</ele><time>2026-04-06T10:04:11Z</time></trkpt><trkpt lat="43.07642243113545" lon="10.938957370366017"><ele>438.66666666666663</ele><time>2026-04-06T10:04:12Z</time></trkpt><trkpt lat="43.07652088472856" lon="10.939229851445791"><ele>436.3333333333333</ele><time>2026-04-06T10:04:13Z</time></trkpt><trkpt lat="43.07662557380096" lon="10.93946480694961"><ele>434.0</ele><time>2026-04-06T10:04:14Z</time></trkpt><trkpt lat="43.07675703617062" lon="10.939680802645777"><ele>440.5</ele><time>2026-04-06T10:04:15Z</time></trkpt><trkpt lat="43.07692874984268" lon="10.93989484147217"><ele>447.0</ele><time>2026-04-06T10:04:16Z</time></trkpt><trkpt lat="43.077117654572994" lon="10.940123721532117"><ele>447.0</ele><time>2026-04-06T10:04:17Z</time></trkpt><trkpt lat="43.077279593102205" lon="10.940393581230632"><ele>447.0</ele><time>2026-04-06T10:04:18Z</time></trkpt><trkpt lat="43.077417167911875" lon="10.940685176233863"><ele>452.0</ele><time>2026-04-06T10:04:19Z</time></trkpt><trkpt lat="43.07750761703387" lon="10.940915151167829"><ele>457.0</ele><time>2026-04-06T10:04:20Z</time></trkpt><trkpt lat="43.07756618602797" lon="10.941161146226266"><ele>462.0</ele><time>2026-04-06T10:04:21Z</time></trkpt><trkpt lat="43.077592808683036" lon="10.941457586017883"><ele>462.0</ele><time>2026-04-06T10:04:22Z</time></trkpt><trkpt lat="43.07760567689935" lon="10.941805129426282"><ele>462.0</ele><time>2026-04-06T10:04:23Z</time></trkpt><trkpt lat="43.07761260069511" lon="10.942191339941798"><ele>462.5</ele><time>2026-04-06T10:04:24Z</time></trkpt><trkpt lat="43.07763332762991" lon="10.942600152676015"><ele>463.0</ele><time>2026-04-06T10:04:25Z</time></trkpt><trkpt lat="43.07766152694149" lon="10.942990392371906"><ele>463.0</ele><time>2026-04-06T10:04:26Z</time></trkpt><trkpt lat="43.07768284009246" lon="10.943350997234662"><ele>463.0</ele><time>2026-04-06T10:04:27Z</time></trkpt><trkpt lat="43.077686859481425" lon="10.943727809241897"><ele>465.5</ele><time>2026-04-06T10:04:28Z</time></trkpt><trkpt lat="43.077657473496075" lon="10.94411681408763"><ele>468.0</ele><time>2026-04-06T10:04:29Z</time></trkpt><trkpt lat="43.077629092148534" lon="10.944481334134384"><ele>468.0</ele><time>2026-04-06T10:04:30Z</time></trkpt><trkpt lat="43.07761721357206" lon="10.944763771420819"><ele>468.0</ele><time>2026-04-06T10:04:31Z</time></trkpt><trkpt lat="43.07762360315087" lon="10.945016091760037"><ele>468.0</ele><time>2026-04-06T10:04:32Z</time></trkpt><trkpt lat="43.07765683844228" lon="10.945251547556287"><ele>467.66666666666663</ele><time>2026-04-06T10:04:33Z</time></trkpt><trkpt lat="43.077714013657186" lon="10.945505858680164"><ele>467.3333333333333</ele><time>2026-04-06T10:04:34.001Z</time></trkpt><trkpt lat="43.07777150792784" lon="10.945792205533866"><ele>467.0</ele><time>2026-04-06T10:04:35.001Z</time></trkpt><trkpt lat="43.07781495192424" lon="10.946101173476832"><ele>468.66666666666663</ele><time>2026-04-06T10:04:36.001Z</time></trkpt><trkpt lat="43.07784972819456" lon="10.946415970718963"><ele>470.33333333333337</ele><time>2026-04-06T10:04:37.001Z</time></trkpt><trkpt lat="43.077880242797946" lon="10.946675291914788"><ele>472.0</ele><time>2026-04-06T10:04:38.001Z</time></trkpt><trkpt lat="43.07790678282619" lon="10.946908591663973"><ele>473.5</ele><time>2026-04-06T10:04:39.001Z</time></trkpt><trkpt lat="43.07791981683214" lon="10.947112109917763"><ele>475.0</ele><time>2026-04-06T10:04:40.001Z</time></trkpt><trkpt lat="43.07790217330051" lon="10.94728915222771"><ele>476.5</ele><time>2026-04-06T10:04:41.001Z</time></trkpt><trkpt lat="43.077848960596285" lon="10.947434900018134"><ele>478.0</ele><time>2026-04-06T10:04:42.001Z</time></trkpt><trkpt lat="43.077738324480464" lon="10.947560137881238"><ele>478.5</ele><time>2026-04-06T10:04:43.001Z</time></trkpt><trkpt lat="43.077604266451125" lon="10.947665532754804"><ele>479.0</ele><time>2026-04-06T10:04:44.001Z</time></trkpt><trkpt lat="43.07749813739179" lon="10.947796213921082"><ele>479.5</ele><time>2026-04-06T10:04:45.001Z</time></trkpt><trkpt lat="43.07744129217626" lon="10.947974045174751"><ele>480.0</ele><time>2026-04-06T10:04:46.001Z</time></trkpt><trkpt lat="43.077435097076076" lon="10.948182729031473"><ele>479.25</ele><time>2026-04-06T10:04:47.001Z</time></trkpt><trkpt lat="43.07748000045341" lon="10.948376674824132"><ele>478.5</ele><time>2026-04-06T10:04:48.001Z</time></trkpt><trkpt lat="43.07757931855822" lon="10.948524903358381"><ele>477.75</ele><time>2026-04-06T10:04:49.001Z</time></trkpt><trkpt lat="43.07771537741549" lon="10.948612720138549"><ele>477.0</ele><time>2026-04-06T10:04:50.001Z</time></trkpt><trkpt lat="43.07789548495743" lon="10.948647547640523"><ele>477.0</ele><time>2026-04-06T10:04:51.001Z</time></trkpt><trkpt lat="43.07810480157979" lon="10.948670067257325"><ele>477.0</ele><time>2026-04-06T10:04:52.001Z</time></trkpt><trkpt lat="43.07827557074644" lon="10.948713789486892"><ele>477.0</ele><time>2026-04-06T10:04:53.001Z</time></trkpt><trkpt lat="43.078400953656654" lon="10.948796825579558"><ele>480.75</ele><time>2026-04-06T10:04:54.001Z</time></trkpt><trkpt lat="43.078478949587094" lon="10.948932799953132"><ele>484.5</ele><time>2026-04-06T10:04:55.001Z</time></trkpt><trkpt lat="43.07851405293511" lon="10.949109269690526"><ele>488.25</ele><time>2026-04-06T10:04:56.001Z</time></trkpt><trkpt lat="43.078509303964246" lon="10.949324056065187"><ele>492.0</ele><time>2026-04-06T10:04:57.001Z</time></trkpt><trkpt lat="43.07852840051279" lon="10.94955944178538"><ele>492.66666666666663</ele><time>2026-04-06T10:04:58.001Z</time></trkpt><trkpt lat="43.07859656177601" lon="10.949835197740528"><ele>493.3333333333333</ele><time>2026-04-06T10:04:59.001Z</time></trkpt><trkpt lat="43.078694034276296" lon="10.950075001520474"><ele>494.0</ele><time>2026-04-06T10:05:00.001Z</time></trkpt><trkpt lat="43.078774503565164" lon="10.95023271759383"><ele>496.6</ele><time>2026-04-06T10:05:01.001Z</time></trkpt><trkpt lat="43.078816451283956" lon="10.95034653101404"><ele>499.2</ele><time>2026-04-06T10:05:02.001Z</time></trkpt><trkpt lat="43.078809467852274" lon="10.950465694173083"><ele>501.80000000000007</ele><time>2026-04-06T10:05:03.001Z</time></trkpt><trkpt lat="43.07873947106132" lon="10.950580976919118"><ele>504.40000000000003</ele><time>2026-04-06T10:05:04.001Z</time></trkpt><trkpt lat="43.078609782733" lon="10.950649809237277"><ele>507.0</ele><time>2026-04-06T10:05:05.001Z</time></trkpt><trkpt lat="43.0784550599498" lon="10.950746576257153"><ele>503.66666666666663</ele><time>2026-04-06T10:05:06.001Z</time></trkpt><trkpt lat="43.07828730967925" lon="10.950890846168027"><ele>500.3333333333333</ele><time>2026-04-06T10:05:07.001Z</time></trkpt><trkpt lat="43.07811346008448" lon="10.95104708329509"><ele>497.0</ele><time>2026-04-06T10:05:08.001Z</time></trkpt><trkpt lat="43.07798519690535" lon="10.951176271638262"><ele>497.0</ele><time>2026-04-06T10:05:09.001Z</time></trkpt><trkpt lat="43.07792774249969" lon="10.951278631363058"><ele>497.0</ele><time>2026-04-06T10:05:10.001Z</time></trkpt><trkpt lat="43.07790663534669" lon="10.951444934544622"><ele>497.0</ele><time>2026-04-06T10:05:11.001Z</time></trkpt><trkpt lat="43.077948194853306" lon="10.951677837235328"><ele>497.0</ele><time>2026-04-06T10:05:12.001Z</time></trkpt><trkpt lat="43.07800252365177" lon="10.951959624693062"><ele>498.0</ele><time>2026-04-06T10:05:13.001Z</time></trkpt><trkpt lat="43.07806287994854" lon="10.952280202936965"><ele>499.0</ele><time>2026-04-06T10:05:14.001Z</time></trkpt><trkpt lat="43.07815262945665" lon="10.952622945426931"><ele>503.0</ele><time>2026-04-06T10:05:15.001Z</time></trkpt><trkpt lat="43.07825252021646" lon="10.95292540278737"><ele>507.0</ele><time>2026-04-06T10:05:16.001Z</time></trkpt><trkpt lat="43.07837320160823" lon="10.9531810835023"><ele>511.33333333333337</ele><time>2026-04-06T10:05:17.001Z</time></trkpt><trkpt lat="43.078425128671974" lon="10.953443427715436"><ele>515.6666666666667</ele><time>2026-04-06T10:05:18.001Z</time></trkpt><trkpt lat="43.07843629680863" lon="10.953675465986514"><ele>520.0</ele><time>2026-04-06T10:05:19.001Z</time></trkpt><trkpt lat="43.07847122964778" lon="10.953869042617448"><ele>520.0</ele><time>2026-04-06T10:05:20.001Z</time></trkpt><trkpt lat="43.07855061282072" lon="10.95402947548551"><ele>520.0</ele><time>2026-04-06T10:05:21.001Z</time></trkpt><trkpt lat="43.078683959163556" lon="10.95417605314636"><ele>520.0</ele><time>2026-04-06T10:05:22.001Z</time></trkpt><trkpt lat="43.078827364353366" lon="10.954302376643206"><ele>517.0</ele><time>2026-04-06T10:05:23Z</time></trkpt><trkpt lat="43.0789261764638" lon="10.95442487349528"><ele>514.0</ele><time>2026-04-06T10:05:24Z</time></trkpt><trkpt lat="43.07897635950699" lon="10.9546111230962"><ele>511.0</ele><time>2026-04-06T10:05:25Z</time></trkpt><trkpt lat="43.078969167885624" lon="10.95482995930333"><ele>508.0</ele><time>2026-04-06T10:05:26Z</time></trkpt><trkpt lat="43.07898519770211" lon="10.955004826520533"><ele>508.0</ele><time>2026-04-06T10:05:27Z</time></trkpt><trkpt lat="43.07906272042807" lon="10.955153485967854"><ele>508.0</ele><time>2026-04-06T10:05:28Z</time></trkpt><trkpt lat="43.07919254786825" lon="10.955246364232579"><ele>508.0</ele><time>2026-04-06T10:05:29Z</time></trkpt><trkpt lat="43.07933538948746" lon="10.955269679944893"><ele>508.0</ele><time>2026-04-06T10:05:30Z</time></trkpt><trkpt lat="43.07947002625811" lon="10.95522058587137"><ele>508.0</ele><time>2026-04-06T10:05:31Z</time></trkpt><trkpt lat="43.07961483971916" lon="10.955136671957368"><ele>508.0</ele><time>2026-04-06T10:05:32Z</time></trkpt><trkpt lat="43.079775909086656" lon="10.95508627047331"><ele>508.0</ele><time>2026-04-06T10:05:33Z</time></trkpt><trkpt lat="43.07996911583839" lon="10.955082847354952"><ele>510.79999999999995</ele><time>2026-04-06T10:05:34Z</time></trkpt><trkpt lat="43.08011984577269" lon="10.955101809396915"><ele>513.5999999999999</ele><time>2026-04-06T10:05:35Z</time></trkpt><trkpt lat="43.08023050055973" lon="10.95511646154666"><ele>516.4000000000001</ele><time>2026-04-06T10:05:36Z</time></trkpt><trkpt lat="43.08030039925621" lon="10.955173639223121"><ele>519.2</ele><time>2026-04-06T10:05:37Z</time></trkpt><trkpt lat="43.08032461801847" lon="10.955301047769119"><ele>522.0</ele><time>2026-04-06T10:05:38Z</time></trkpt><trkpt lat="43.08032488023214" lon="10.955475605839945"><ele>522.0</ele><time>2026-04-06T10:05:39Z</time></trkpt><trkpt lat="43.080226776367326" lon="10.955638119505597"><ele>522.0</ele><time>2026-04-06T10:05:40Z</time></trkpt><trkpt lat="43.08014440292236" lon="10.955791965111718"><ele>522.0</ele><time>2026-04-06T10:05:41Z</time></trkpt><trkpt lat="43.0801299673366" lon="10.955983674297062"><ele>522.0</ele><time>2026-04-06T10:05:42Z</time></trkpt><trkpt lat="43.08016524780574" lon="10.956221773285488"><ele>522.0</ele><time>2026-04-06T10:05:43Z</time></trkpt><trkpt lat="43.0801949991278" lon="10.956497644718366"><ele>522.0</ele><time>2026-04-06T10:05:44Z</time></trkpt><trkpt lat="43.08020839141087" lon="10.956802563428594"><ele>522.0</ele><time>2026-04-06T10:05:45Z</time></trkpt><trkpt lat="43.08022175311557" lon="10.95709028883561"><ele>523.6666666666666</ele><time>2026-04-06T10:05:46Z</time></trkpt><trkpt lat="43.080222251424516" lon="10.957331674209065"><ele>525.3333333333333</ele><time>2026-04-06T10:05:47Z</time></trkpt><trkpt lat="43.080169997357366" lon="10.957541444314844"><ele>527.0</ele><time>2026-04-06T10:05:48Z</time></trkpt><trkpt lat="43.08017177746852" lon="10.957730538260277"><ele>527.0</ele><time>2026-04-06T10:05:49Z</time></trkpt><trkpt lat="43.080237572125746" lon="10.957936800873474"><ele>527.0</ele><time>2026-04-06T10:05:50Z</time></trkpt><trkpt lat="43.08034084277304" lon="10.958153719407761"><ele>527.0</ele><time>2026-04-06T10:05:51Z</time></trkpt><trkpt lat="43.080475856692225" lon="10.958354904467791"><ele>526.5</ele><time>2026-04-06T10:05:52Z</time></trkpt><trkpt lat="43.080631716398955" lon="10.958557876823422"><ele>526.0</ele><time>2026-04-06T10:05:53Z</time></trkpt><trkpt lat="43.08082242601397" lon="10.958772760355282"><ele>526.0</ele><time>2026-04-06T10:05:54Z</time></trkpt><trkpt lat="43.08097546650081" lon="10.95894059254655"><ele>526.0</ele><time>2026-04-06T10:05:55Z</time></trkpt><trkpt lat="43.08111424380743" lon="10.959025877673481"><ele>526.0</ele><time>2026-04-06T10:05:56Z</time></trkpt><trkpt lat="43.08124785095603" lon="10.959076056546241"><ele>526.0</ele><time>2026-04-06T10:05:57Z</time></trkpt><trkpt lat="43.08140811930501" lon="10.959070199893036"><ele>526.0</ele><time>2026-04-06T10:05:58Z</time></trkpt><trkpt lat="43.081598975932344" lon="10.959019594655077"><ele>526.0</ele><time>2026-04-06T10:05:59Z</time></trkpt><trkpt lat="43.081761911088115" lon="10.95893064890691"><ele>530.0</ele><time>2026-04-06T10:06:00Z</time></trkpt><trkpt lat="43.081904452073296" lon="10.9588114971074"><ele>534.0</ele><time>2026-04-06T10:06:01Z</time></trkpt><trkpt lat="43.082039937980014" lon="10.95860925104917"><ele>538.0</ele><time>2026-04-06T10:06:02Z</time></trkpt><trkpt lat="43.08214000765545" lon="10.95841011438138"><ele>541.1999999999999</ele><time>2026-04-06T10:06:03Z</time></trkpt><trkpt lat="43.082191040706235" lon="10.958277464281691"><ele>544.4</ele><time>2026-04-06T10:06:04Z</time></trkpt><trkpt lat="43.08224409795276" lon="10.958199088993748"><ele>547.5999999999999</ele><time>2026-04-06T10:06:05Z</time></trkpt><trkpt lat="43.08231177881472" lon="10.958159519992838"><ele>550.8</ele><time>2026-04-06T10:06:06Z</time></trkpt><trkpt lat="43.08237968071389" lon="10.958194145246113"><ele>554.0</ele><time>2026-04-06T10:06:07Z</time></trkpt><trkpt lat="43.082456379231395" lon="10.95834277289702"><ele>550.6666666666666</ele><time>2026-04-06T10:06:08Z</time></trkpt><trkpt lat="43.0824975541651" lon="10.958596137148392"><ele>547.3333333333334</ele><time>2026-04-06T10:06:09Z</time></trkpt><trkpt lat="43.08254984347455" lon="10.958826220137007"><ele>544.0</ele><time>2026-04-06T10:06:10Z</time></trkpt><trkpt lat="43.08266230361052" lon="10.959029768111296"><ele>541.3333333333334</ele><time>2026-04-06T10:06:11Z</time></trkpt><trkpt lat="43.082793072657005" lon="10.959205480534346"><ele>538.6666666666666</ele><time>2026-04-06T10:06:12Z</time></trkpt><trkpt lat="43.08296836056376" lon="10.959337333018457"><ele>536.0</ele><time>2026-04-06T10:06:13Z</time></trkpt><trkpt lat="43.08312686964838" lon="10.959407913310317"><ele>536.0</ele><time>2026-04-06T10:06:14Z</time></trkpt><trkpt lat="43.08325244973959" lon="10.959438467131712"><ele>536.0</ele><time>2026-04-06T10:06:15Z</time></trkpt><trkpt lat="43.08333667694957" lon="10.95950626617041"><ele>536.0</ele><time>2026-04-06T10:06:16Z</time></trkpt><trkpt lat="43.0833781104425" lon="10.959602763527457"><ele>536.0</ele><time>2026-04-06T10:06:17Z</time></trkpt><trkpt lat="43.083367740787764" lon="10.959742743136909"><ele>536.0</ele><time>2026-04-06T10:06:18Z</time></trkpt><trkpt lat="43.083296639119794" lon="10.95988377802227"><ele>536.0</ele><time>2026-04-06T10:06:19Z</time></trkpt><trkpt lat="43.08324212531013" lon="10.960032830908272"><ele>536.0</ele><time>2026-04-06T10:06:20Z</time></trkpt><trkpt lat="43.0832631352858" lon="10.960181500979655"><ele>536.0</ele><time>2026-04-06T10:06:21Z</time></trkpt><trkpt lat="43.08332093159506" lon="10.960342788115353"><ele>536.0</ele><time>2026-04-06T10:06:22Z</time></trkpt><trkpt lat="43.08342294371409" lon="10.96051130719996"><ele>540.6666666666666</ele><time>2026-04-06T10:06:23Z</time></trkpt><trkpt lat="43.08352007357257" lon="10.960681842098555"><ele>545.3333333333334</ele><time>2026-04-06T10:06:24Z</time></trkpt><trkpt lat="43.08358300614512" lon="10.960886673829584"><ele>550.0</ele><time>2026-04-06T10:06:25Z</time></trkpt><trkpt lat="43.0836111623176" lon="10.961125642662596"><ele>550.0</ele><time>2026-04-06T10:06:26Z</time></trkpt><trkpt lat="43.083653720686314" lon="10.96141613931953"><ele>550.0</ele><time>2026-04-06T10:06:27Z</time></trkpt><trkpt lat="43.08369584705527" lon="10.96167264038168"><ele>550.0</ele><time>2026-04-06T10:06:28Z</time></trkpt><trkpt lat="43.08372770100362" lon="10.961859611606892"><ele>549.6666666666667</ele><time>2026-04-06T10:06:29Z</time></trkpt><trkpt lat="43.083791478580004" lon="10.962015191649868"><ele>549.3333333333334</ele><time>2026-04-06T10:06:30Z</time></trkpt><trkpt lat="43.083917902892765" lon="10.962159350218624"><ele>549.0</ele><time>2026-04-06T10:06:31Z</time></trkpt><trkpt lat="43.084101583751135" lon="10.962326393771518"><ele>554.6666666666666</ele><time>2026-04-06T10:06:32Z</time></trkpt><trkpt lat="43.08429809340801" lon="10.962457951923781"><ele>560.3333333333333</ele><time>2026-04-06T10:06:33Z</time></trkpt><trkpt lat="43.08443313135269" lon="10.962551482518952"><ele>566.0</ele><time>2026-04-06T10:06:34Z</time></trkpt><trkpt lat="43.08452175514035" lon="10.962673317251054"><ele>566.0</ele><time>2026-04-06T10:06:35Z</time></trkpt><trkpt lat="43.08457183942183" lon="10.962839637632031"><ele>566.0</ele><time>2026-04-06T10:06:36Z</time></trkpt><trkpt lat="43.084562411873556" lon="10.963072300525145"><ele>566.0</ele><time>2026-04-06T10:06:37Z</time></trkpt><trkpt lat="43.08459953951257" lon="10.963333711673824"><ele>564.3333333333333</ele><time>2026-04-06T10:06:38Z</time></trkpt><trkpt lat="43.08464375442762" lon="10.963610388425844"><ele>562.6666666666666</ele><time>2026-04-06T10:06:39Z</time></trkpt><trkpt lat="43.08466258053283" lon="10.963825695443154"><ele>561.0</ele><time>2026-04-06T10:06:40.001Z</time></trkpt><trkpt lat="43.084652780331105" lon="10.963975510091325"><ele>561.0</ele><time>2026-04-06T10:06:41.001Z</time></trkpt><trkpt lat="43.08466691344418" lon="10.964104345154697"><ele>561.0</ele><time>2026-04-06T10:06:42.001Z</time></trkpt><trkpt lat="43.08470600168813" lon="10.964218354208379"><ele>561.0</ele><time>2026-04-06T10:06:43.001Z</time></trkpt><trkpt lat="43.084754257361794" lon="10.964333711025729"><ele>561.0</ele><time>2026-04-06T10:06:44.001Z</time></trkpt><trkpt lat="43.08480474042723" lon="10.964451209546167"><ele>561.0</ele><time>2026-04-06T10:06:45.001Z</time></trkpt><trkpt lat="43.084850681049915" lon="10.964572451937734"><ele>563.0</ele><time>2026-04-06T10:06:46.001Z</time></trkpt><trkpt lat="43.08485859805545" lon="10.96472475449118"><ele>565.0</ele><time>2026-04-06T10:06:47.001Z</time></trkpt><trkpt lat="43.08482221172615" lon="10.964873415477415"><ele>567.0</ele><time>2026-04-06T10:06:48.001Z</time></trkpt><trkpt lat="43.084756339696106" lon="10.965008752845005"><ele>569.0</ele><time>2026-04-06T10:06:49.001Z</time></trkpt><trkpt lat="43.08467816683301" lon="10.965134640882575"><ele>569.0</ele><time>2026-04-06T10:06:50.001Z</time></trkpt><trkpt lat="43.084585892155616" lon="10.965233002121586"><ele>569.0</ele><time>2026-04-06T10:06:51.001Z</time></trkpt><trkpt lat="43.08449637976625" lon="10.965307753349823"><ele>569.0</ele><time>2026-04-06T10:06:52.001Z</time></trkpt><trkpt lat="43.08444172144435" lon="10.965378134813566"><ele>569.0</ele><time>2026-04-06T10:06:53.001Z</time></trkpt><trkpt lat="43.08441560556338" lon="10.96546029443876"><ele>569.0</ele><time>2026-04-06T10:06:55.001Z</time></trkpt><trkpt lat="43.08439352722086" lon="10.965581834906647"><ele>569.0</ele><time>2026-04-06T10:08:23Z</time></trkpt><trkpt lat="43.08438825881268" lon="10.965670809218771"><ele>569.0</ele><time>2026-04-06T10:08:24Z</time></trkpt><trkpt lat="43.08439816241688" lon="10.965814152275863"><ele>569.0</ele><time>2026-04-06T10:08:26Z</time></trkpt><trkpt lat="43.084421590579154" lon="10.965965805377975"><ele>569.0</ele><time>2026-04-06T10:08:28Z</time></trkpt><trkpt lat="43.08445029689384" lon="10.966083348673116"><ele>569.0</ele><time>2026-04-06T10:08:29Z</time></trkpt><trkpt lat="43.084485588330104" lon="10.966196529880085"><ele>568.8333333333333</ele><time>2026-04-06T10:08:30Z</time></trkpt><trkpt lat="43.08452939113725" lon="10.9662959976354"><ele>568.6666666666666</ele><time>2026-04-06T10:08:31Z</time></trkpt><trkpt lat="43.08458223777677" lon="10.966394038161546"><ele>568.5</ele><time>2026-04-06T10:08:32Z</time></trkpt><trkpt lat="43.08463519663163" lon="10.966488728371502"><ele>568.3333333333334</ele><time>2026-04-06T10:08:33Z</time></trkpt><trkpt lat="43.084683960590866" lon="10.966578493079735"><ele>568.1666666666667</ele><time>2026-04-06T10:08:34Z</time></trkpt><trkpt lat="43.08471933018227" lon="10.96668046943251"><ele>568.0</ele><time>2026-04-06T10:08:35Z</time></trkpt><trkpt lat="43.08473145303608" lon="10.966791465094671"><ele>568.8</ele><time>2026-04-06T10:08:36Z</time></trkpt><trkpt lat="43.08468698813239" lon="10.966905416315981"><ele>569.5999999999999</ele><time>2026-04-06T10:08:37Z</time></trkpt><trkpt lat="43.0846139676426" lon="10.966988728602436"><ele>570.4000000000001</ele><time>2026-04-06T10:08:38Z</time></trkpt><trkpt lat="43.084521114206446" lon="10.967048038017806"><ele>571.2</ele><time>2026-04-06T10:08:39Z</time></trkpt><trkpt lat="43.0844257789531" lon="10.967115784557334"><ele>572.0</ele><time>2026-04-06T10:08:40Z</time></trkpt><trkpt lat="43.08436539157476" lon="10.967213473939305"><ele>572.0</ele><time>2026-04-06T10:08:41Z</time></trkpt><trkpt lat="43.084355159283746" lon="10.967346953066041"><ele>572.0</ele><time>2026-04-06T10:08:42Z</time></trkpt><trkpt lat="43.084392888609315" lon="10.967483975678352"><ele>572.0</ele><time>2026-04-06T10:08:43.001Z</time></trkpt><trkpt lat="43.08447333370048" lon="10.967614640881571"><ele>572.0</ele><time>2026-04-06T10:08:44.001Z</time></trkpt><trkpt lat="43.08455291621679" lon="10.96774004213751"><ele>572.6</ele><time>2026-04-06T10:08:45.001Z</time></trkpt><trkpt lat="43.084625339384026" lon="10.967845211721812"><ele>573.2</ele><time>2026-04-06T10:08:46.001Z</time></trkpt><trkpt lat="43.08465307311629" lon="10.967970610922588"><ele>573.8</ele><time>2026-04-06T10:08:47.001Z</time></trkpt><trkpt lat="43.084648026138424" lon="10.968107538230234"><ele>574.4</ele><time>2026-04-06T10:08:48.001Z</time></trkpt><trkpt lat="43.08460520623027" lon="10.9682225283429"><ele>575.0</ele><time>2026-04-06T10:08:49.001Z</time></trkpt><trkpt lat="43.084510431693886" lon="10.968301390693828"><ele>575.0</ele><time>2026-04-06T10:08:50.001Z</time></trkpt><trkpt lat="43.08439011320819" lon="10.968322802995381"><ele>575.0</ele><time>2026-04-06T10:08:51.001Z</time></trkpt><trkpt lat="43.0842619768173" lon="10.968312189356414"><ele>575.0</ele><time>2026-04-06T10:08:52.001Z</time></trkpt><trkpt lat="43.08414885960443" lon="10.968306137359532"><ele>575.0</ele><time>2026-04-06T10:08:53.001Z</time></trkpt><trkpt lat="43.084067359147255" lon="10.968310048821005"><ele>575.0</ele><time>2026-04-06T10:08:54.001Z</time></trkpt><trkpt lat="43.083985025429484" lon="10.968332542634405"><ele>572.0</ele><time>2026-04-06T10:08:55.001Z</time></trkpt><trkpt lat="43.08391437033479" lon="10.968417811964514"><ele>569.0</ele><time>2026-04-06T10:08:56.001Z</time></trkpt><trkpt lat="43.08386146743608" lon="10.968556942288856"><ele>566.0</ele><time>2026-04-06T10:08:57.001Z</time></trkpt><trkpt lat="43.08385222216801" lon="10.968750204865994"><ele>563.0</ele><time>2026-04-06T10:08:58.001Z</time></trkpt><trkpt lat="43.08390516444801" lon="10.96895483618573"><ele>563.0</ele><time>2026-04-06T10:08:59.001Z</time></trkpt><trkpt lat="43.0839566757848" lon="10.969152941421978"><ele>563.0</ele><time>2026-04-06T10:09:00.001Z</time></trkpt><trkpt lat="43.08400309073244" lon="10.969305033568835"><ele>563.0</ele><time>2026-04-06T10:09:01.001Z</time></trkpt><trkpt lat="43.08404710884821" lon="10.969421939857298"><ele>563.0</ele><time>2026-04-06T10:09:02.001Z</time></trkpt><trkpt lat="43.084096979029184" lon="10.96952078276469"><ele>563.8333333333333</ele><time>2026-04-06T10:09:03.001Z</time></trkpt><trkpt lat="43.08414950306345" lon="10.969596882520468"><ele>564.6666666666666</ele><time>2026-04-06T10:09:04.001Z</time></trkpt><trkpt lat="43.08420106008493" lon="10.96968153476919"><ele>565.5</ele><time>2026-04-06T10:09:05.001Z</time></trkpt><trkpt lat="43.084232560775625" lon="10.969786066582868"><ele>566.3333333333334</ele><time>2026-04-06T10:09:06.001Z</time></trkpt><trkpt lat="43.08421215911092" lon="10.969901124180053"><ele>567.1666666666667</ele><time>2026-04-06T10:09:07.001Z</time></trkpt><trkpt lat="43.084141556926006" lon="10.970025761746083"><ele>568.0</ele><time>2026-04-06T10:09:08.001Z</time></trkpt><trkpt lat="43.08407139350706" lon="10.97016823786225"><ele>563.6</ele><time>2026-04-06T10:09:09.001Z</time></trkpt><trkpt lat="43.08401354255544" lon="10.97031343646864"><ele>559.1999999999999</ele><time>2026-04-06T10:09:10.001Z</time></trkpt><trkpt lat="43.08396722150891" lon="10.970444788640389"><ele>554.8</ele><time>2026-04-06T10:09:11.001Z</time></trkpt><trkpt lat="43.08393867459944" lon="10.970560821386929"><ele>550.4</ele><time>2026-04-06T10:09:12.001Z</time></trkpt><trkpt lat="43.0839309413228" lon="10.970680986718756"><ele>546.0</ele><time>2026-04-06T10:09:13.001Z</time></trkpt><trkpt lat="43.083956460073914" lon="10.970812608982017"><ele>545.5</ele><time>2026-04-06T10:09:14.001Z</time></trkpt><trkpt lat="43.08402561787021" lon="10.97093112322352"><ele>545.0</ele><time>2026-04-06T10:09:15.001Z</time></trkpt><trkpt lat="43.08413281232566" lon="10.971013514343998"><ele>544.5</ele><time>2026-04-06T10:09:16.001Z</time></trkpt><trkpt lat="43.08424711678658" lon="10.97107229942549"><ele>544.0</ele><time>2026-04-06T10:09:17.001Z</time></trkpt><trkpt lat="43.08437348827088" lon="10.971097732870495"><ele>544.0</ele><time>2026-04-06T10:09:18.001Z</time></trkpt><trkpt lat="43.08448727668832" lon="10.971095972071542"><ele>544.0</ele><time>2026-04-06T10:09:19.001Z</time></trkpt><trkpt lat="43.08458629321967" lon="10.971113893160242"><ele>544.0</ele><time>2026-04-06T10:09:20.001Z</time></trkpt><trkpt lat="43.08468617989033" lon="10.971137332423165"><ele>544.0</ele><time>2026-04-06T10:09:21.001Z</time></trkpt><trkpt lat="43.08480015193706" lon="10.97117040597877"><ele>544.0</ele><time>2026-04-06T10:09:22.001Z</time></trkpt><trkpt lat="43.08491003633859" lon="10.97125901642138"><ele>545.0</ele><time>2026-04-06T10:09:23.001Z</time></trkpt><trkpt lat="43.08500738922018" lon="10.9713760570896"><ele>546.0</ele><time>2026-04-06T10:09:24.001Z</time></trkpt><trkpt lat="43.085077722314445" lon="10.971527226962694"><ele>547.0</ele><time>2026-04-06T10:09:25.001Z</time></trkpt><trkpt lat="43.08516185932442" lon="10.971665756178806"><ele>548.0</ele><time>2026-04-06T10:09:26.001Z</time></trkpt><trkpt lat="43.08526410691923" lon="10.971803587750877"><ele>548.0</ele><time>2026-04-06T10:09:27.001Z</time></trkpt><trkpt lat="43.08536333601822" lon="10.971923308567641"><ele>548.0</ele><time>2026-04-06T10:09:28.001Z</time></trkpt><trkpt lat="43.08545593747934" lon="10.972034677922847"><ele>548.0</ele><time>2026-04-06T10:09:29.001Z</time></trkpt><trkpt lat="43.085552403269915" lon="10.972144759234133"><ele>548.0</ele><time>2026-04-06T10:09:30.001Z</time></trkpt><trkpt lat="43.08564019442982" lon="10.97224860393319"><ele>548.0</ele><time>2026-04-06T10:09:31.001Z</time></trkpt><trkpt lat="43.085736848748276" lon="10.972335120843455"><ele>548.0</ele><time>2026-04-06T10:09:32.001Z</time></trkpt><trkpt lat="43.08581497806193" lon="10.972415332524397"><ele>548.0</ele><time>2026-04-06T10:09:33.001Z</time></trkpt><trkpt lat="43.08587359339584" lon="10.972501401632586"><ele>548.0</ele><time>2026-04-06T10:09:34.001Z</time></trkpt><trkpt lat="43.08591218823399" lon="10.972593785374857"><ele>548.0</ele><time>2026-04-06T10:09:35Z</time></trkpt><trkpt lat="43.08592332987271" lon="10.972705816380483"><ele>551.0</ele><time>2026-04-06T10:09:36Z</time></trkpt><trkpt lat="43.085901194566624" lon="10.972829768048992"><ele>554.0</ele><time>2026-04-06T10:09:37Z</time></trkpt><trkpt lat="43.08584273058546" lon="10.972935243238865"><ele>557.0</ele><time>2026-04-06T10:09:38Z</time></trkpt><trkpt lat="43.08576066377034" lon="10.972992245576693"><ele>560.0</ele><time>2026-04-06T10:09:39Z</time></trkpt><trkpt lat="43.085666344967315" lon="10.973006247587929"><ele>563.0</ele><time>2026-04-06T10:09:40Z</time></trkpt><trkpt lat="43.08556788844984" lon="10.972980456560505"><ele>563.0</ele><time>2026-04-06T10:09:41Z</time></trkpt><trkpt lat="43.085464596759344" lon="10.97293612247431"><ele>563.0</ele><time>2026-04-06T10:09:42Z</time></trkpt><trkpt lat="43.08534843267206" lon="10.972900576230819"><ele>563.0</ele><time>2026-04-06T10:09:43Z</time></trkpt><trkpt lat="43.08522745266627" lon="10.97290028450673"><ele>563.0</ele><time>2026-04-06T10:09:44Z</time></trkpt><trkpt lat="43.08510791527988" lon="10.972932547929"><ele>563.0</ele><time>2026-04-06T10:09:45Z</time></trkpt><trkpt lat="43.084997608138266" lon="10.972984123887452"><ele>563.0</ele><time>2026-04-06T10:09:46Z</time></trkpt><trkpt lat="43.084891903429686" lon="10.973058606624434"><ele>563.0</ele><time>2026-04-06T10:09:47Z</time></trkpt><trkpt lat="43.084790028304916" lon="10.973142272502178"><ele>563.0</ele><time>2026-04-06T10:09:48Z</time></trkpt><trkpt lat="43.084695104800275" lon="10.973243000375893"><ele>567.0</ele><time>2026-04-06T10:09:49Z</time></trkpt><trkpt lat="43.08459903599074" lon="10.973357701752844"><ele>571.0</ele><time>2026-04-06T10:09:50Z</time></trkpt><trkpt lat="43.08449953184188" lon="10.973488055864184"><ele>575.0</ele><time>2026-04-06T10:09:51Z</time></trkpt><trkpt lat="43.08438902193279" lon="10.973623279919845"><ele>579.0</ele><time>2026-04-06T10:09:52Z</time></trkpt><trkpt lat="43.08428509184985" lon="10.97371709577406"><ele>579.0</ele><time>2026-04-06T10:09:53Z</time></trkpt><trkpt lat="43.084177322246845" lon="10.973753414122026"><ele>579.0</ele><time>2026-04-06T10:09:54Z</time></trkpt><trkpt lat="43.08405260841515" lon="10.973765899213515"><ele>579.0</ele><time>2026-04-06T10:09:55Z</time></trkpt><trkpt lat="43.083926214591244" lon="10.97373470162842"><ele>579.0</ele><time>2026-04-06T10:09:56Z</time></trkpt><trkpt lat="43.08380956711451" lon="10.973716303044254"><ele>576.0</ele><time>2026-04-06T10:09:57Z</time></trkpt><trkpt lat="43.0836970273629" lon="10.973737107953822"><ele>573.0</ele><time>2026-04-06T10:09:58Z</time></trkpt><trkpt lat="43.08357919332024" lon="10.9737991577634"><ele>570.0</ele><time>2026-04-06T10:09:59Z</time></trkpt><trkpt lat="43.08345979142459" lon="10.97387360260508"><ele>567.0</ele><time>2026-04-06T10:10:00Z</time></trkpt><trkpt lat="43.08333100254404" lon="10.973957070167552"><ele>563.5</ele><time>2026-04-06T10:10:01Z</time></trkpt><trkpt lat="43.08319948592053" lon="10.97403805544879"><ele>560.0</ele><time>2026-04-06T10:10:02Z</time></trkpt><trkpt lat="43.083063846769754" lon="10.97411833375944"><ele>556.5</ele><time>2026-04-06T10:10:03Z</time></trkpt><trkpt lat="43.08293498977585" lon="10.97421186202728"><ele>553.0</ele><time>2026-04-06T10:10:04Z</time></trkpt><trkpt lat="43.08281666147056" lon="10.974330032235848"><ele>553.0</ele><time>2026-04-06T10:10:05Z</time></trkpt><trkpt lat="43.08271012774582" lon="10.9744638264919"><ele>553.0</ele><time>2026-04-06T10:10:06Z</time></trkpt><trkpt lat="43.082633817169416" lon="10.974608195361158"><ele>553.0</ele><time>2026-04-06T10:10:07Z</time></trkpt><trkpt lat="43.08257680721223" lon="10.97477612725218"><ele>553.0</ele><time>2026-04-06T10:10:08Z</time></trkpt><trkpt lat="43.082543115925546" lon="10.974967528416846"><ele>551.0</ele><time>2026-04-06T10:10:09Z</time></trkpt><trkpt lat="43.08253286272166" lon="10.97516507692089"><ele>549.0</ele><time>2026-04-06T10:10:10Z</time></trkpt><trkpt lat="43.08253890219983" lon="10.9753724678474"><ele>547.0</ele><time>2026-04-06T10:10:11Z</time></trkpt><trkpt lat="43.08254971229417" lon="10.975586970033813"><ele>547.0</ele><time>2026-04-06T10:10:12Z</time></trkpt><trkpt lat="43.08256917044627" lon="10.975806202859511"><ele>547.0</ele><time>2026-04-06T10:10:13Z</time></trkpt><trkpt lat="43.08258866021629" lon="10.976055158191631"><ele>547.0</ele><time>2026-04-06T10:10:14Z</time></trkpt><trkpt lat="43.082602164987144" lon="10.97632823439494"><ele>544.3333333333334</ele><time>2026-04-06T10:10:15Z</time></trkpt><trkpt lat="43.08261790428879" lon="10.976616994172415"><ele>541.6666666666666</ele><time>2026-04-06T10:10:16Z</time></trkpt><trkpt lat="43.08263095670955" lon="10.976911496051338"><ele>539.0</ele><time>2026-04-06T10:10:17Z</time></trkpt><trkpt lat="43.08263651870704" lon="10.977210405388576"><ele>538.6666666666666</ele><time>2026-04-06T10:10:18Z</time></trkpt><trkpt lat="43.08263442019533" lon="10.977509897739852"><ele>538.3333333333334</ele><time>2026-04-06T10:10:19Z</time></trkpt><trkpt lat="43.08262214764017" lon="10.97781082635629"><ele>538.0</ele><time>2026-04-06T10:10:20Z</time></trkpt><trkpt lat="43.082602497409795" lon="10.978116744549686"><ele>533.5</ele><time>2026-04-06T10:10:21Z</time></trkpt><trkpt lat="43.08256717401811" lon="10.978419136064312"><ele>529.0</ele><time>2026-04-06T10:10:22Z</time></trkpt><trkpt lat="43.08252051802779" lon="10.97872740479725"><ele>529.0</ele><time>2026-04-06T10:10:23Z</time></trkpt><trkpt lat="43.082461728584946" lon="10.97904143914512"><ele>529.0</ele><time>2026-04-06T10:10:24Z</time></trkpt><trkpt lat="43.08239725734459" lon="10.97933853778358"><ele>509.5</ele><time>2026-04-06T10:10:25Z</time></trkpt><trkpt lat="43.08231388188367" lon="10.979636117005956"><ele>490.0</ele><time>2026-04-06T10:10:26Z</time></trkpt><trkpt lat="43.08221674315066" lon="10.979934856680611"><ele>483.5</ele><time>2026-04-06T10:10:27Z</time></trkpt><trkpt lat="43.08210930733047" lon="10.980224246673224"><ele>477.0</ele><time>2026-04-06T10:10:28Z</time></trkpt><trkpt lat="43.08199436950287" lon="10.980506125325695"><ele>477.0</ele><time>2026-04-06T10:10:29Z</time></trkpt><trkpt lat="43.08187437858338" lon="10.980782921638324"><ele>477.0</ele><time>2026-04-06T10:10:30Z</time></trkpt><trkpt lat="43.081753976039366" lon="10.981061607777596"><ele>481.0</ele><time>2026-04-06T10:10:31Z</time></trkpt><trkpt lat="43.08163185138768" lon="10.98134238930165"><ele>485.0</ele><time>2026-04-06T10:10:32Z</time></trkpt><trkpt lat="43.0815097542904" lon="10.981622071609522"><ele>502.0</ele><time>2026-04-06T10:10:33Z</time></trkpt><trkpt lat="43.081391367503606" lon="10.981903154649459"><ele>519.0</ele><time>2026-04-06T10:10:34Z</time></trkpt><trkpt lat="43.08127223601496" lon="10.982182100411663"><ele>519.0</ele><time>2026-04-06T10:10:35Z</time></trkpt><trkpt lat="43.08115875365911" lon="10.982463285016259"><ele>519.0</ele><time>2026-04-06T10:10:36Z</time></trkpt><trkpt lat="43.08104685980752" lon="10.982730533062643"><ele>523.3333333333334</ele><time>2026-04-06T10:10:37Z</time></trkpt><trkpt lat="43.0809350642577" lon="10.982988590591061"><ele>527.6666666666667</ele><time>2026-04-06T10:10:38Z</time></trkpt><trkpt lat="43.080820399690396" lon="10.98324723051079"><ele>532.0</ele><time>2026-04-06T10:10:39Z</time></trkpt><trkpt lat="43.080707764496616" lon="10.983509036488192"><ele>532.0</ele><time>2026-04-06T10:10:40Z</time></trkpt><trkpt lat="43.08059369610423" lon="10.98377239205841"><ele>532.0</ele><time>2026-04-06T10:10:41Z</time></trkpt><trkpt lat="43.08047588871287" lon="10.984031349962626"><ele>532.0</ele><time>2026-04-06T10:10:42Z</time></trkpt><trkpt lat="43.08035485540175" lon="10.984290612339565"><ele>535.3333333333334</ele><time>2026-04-06T10:10:43Z</time></trkpt><trkpt lat="43.080225927885955" lon="10.984545305332656"><ele>538.6666666666666</ele><time>2026-04-06T10:10:44Z</time></trkpt><trkpt lat="43.08009647922954" lon="10.984779068415465"><ele>542.0</ele><time>2026-04-06T10:10:45Z</time></trkpt><trkpt lat="43.07997529601811" lon="10.984993683752604"><ele>541.6666666666666</ele><time>2026-04-06T10:10:46Z</time></trkpt><trkpt lat="43.079861736985734" lon="10.985200958634893"><ele>541.3333333333334</ele><time>2026-04-06T10:10:47Z</time></trkpt><trkpt lat="43.07975057155486" lon="10.985391503971696"><ele>541.0</ele><time>2026-04-06T10:10:48Z</time></trkpt><trkpt lat="43.079642725038674" lon="10.985554768469909"><ele>541.0</ele><time>2026-04-06T10:10:49Z</time></trkpt><trkpt lat="43.079522539140406" lon="10.985700879624689"><ele>541.0</ele><time>2026-04-06T10:10:50Z</time></trkpt><trkpt lat="43.07938255039158" lon="10.985829750063077"><ele>541.0</ele><time>2026-04-06T10:10:51Z</time></trkpt><trkpt lat="43.07924728371375" lon="10.985930483947502"><ele>541.5</ele><time>2026-04-06T10:10:52Z</time></trkpt><trkpt lat="43.07913486132105" lon="10.986038986769833"><ele>542.0</ele><time>2026-04-06T10:10:53Z</time></trkpt><trkpt lat="43.07904986455995" lon="10.986184185447494"><ele>542.5</ele><time>2026-04-06T10:10:54Z</time></trkpt><trkpt lat="43.0789855437193" lon="10.986353792445676"><ele>543.0</ele><time>2026-04-06T10:10:55.001Z</time></trkpt><trkpt lat="43.078932990267006" lon="10.986517576054602"><ele>543.25</ele><time>2026-04-06T10:10:56.001Z</time></trkpt><trkpt lat="43.07890134998274" lon="10.98668755487414"><ele>543.5</ele><time>2026-04-06T10:10:57.001Z</time></trkpt><trkpt lat="43.078896590479985" lon="10.986872379661232"><ele>543.75</ele><time>2026-04-06T10:10:58.001Z</time></trkpt><trkpt lat="43.07892254928539" lon="10.98706384763541"><ele>544.0</ele><time>2026-04-06T10:10:59.001Z</time></trkpt><trkpt lat="43.07896439681506" lon="10.987250418732284"><ele>544.0</ele><time>2026-04-06T10:11:00.001Z</time></trkpt><trkpt lat="43.07900914241958" lon="10.987424206811083"><ele>544.0</ele><time>2026-04-06T10:11:01.001Z</time></trkpt><trkpt lat="43.079030242762364" lon="10.987589874553285"><ele>544.0</ele><time>2026-04-06T10:11:02.001Z</time></trkpt><trkpt lat="43.07902353353548" lon="10.987765617361712"><ele>544.0</ele><time>2026-04-06T10:11:03.001Z</time></trkpt><trkpt lat="43.07899592266018" lon="10.987921254571082"><ele>542.0</ele><time>2026-04-06T10:11:04.001Z</time></trkpt><trkpt lat="43.07894646069227" lon="10.988045196622124"><ele>540.0</ele><time>2026-04-06T10:11:05.001Z</time></trkpt><trkpt lat="43.078868737848374" lon="10.988149954939534"><ele>538.0</ele><time>2026-04-06T10:11:06.001Z</time></trkpt><trkpt lat="43.0787628247732" lon="10.988224820508384"><ele>536.0</ele><time>2026-04-06T10:11:07.001Z</time></trkpt><trkpt lat="43.078654988255195" lon="10.988240084463463"><ele>534.0</ele><time>2026-04-06T10:11:08.001Z</time></trkpt><trkpt lat="43.078541521119355" lon="10.98819797053621"><ele>534.0</ele><time>2026-04-06T10:11:09.001Z</time></trkpt><trkpt lat="43.078432430806664" lon="10.98813228128454"><ele>534.0</ele><time>2026-04-06T10:11:10.001Z</time></trkpt><trkpt lat="43.078315964114196" lon="10.98805905054929"><ele>534.0</ele><time>2026-04-06T10:11:11.001Z</time></trkpt><trkpt lat="43.07816978707969" lon="10.98795359422504"><ele>534.0</ele><time>2026-04-06T10:11:12.001Z</time></trkpt><trkpt lat="43.078041509995806" lon="10.987888283487708"><ele>533.25</ele><time>2026-04-06T10:11:13.001Z</time></trkpt><trkpt lat="43.07792087392348" lon="10.987861181380415"><ele>532.5</ele><time>2026-04-06T10:11:14.001Z</time></trkpt><trkpt lat="43.07778793512542" lon="10.987862131068367"><ele>531.75</ele><time>2026-04-06T10:11:15.001Z</time></trkpt><trkpt lat="43.07765528769623" lon="10.987907391126662"><ele>531.0</ele><time>2026-04-06T10:11:16.001Z</time></trkpt><trkpt lat="43.077546322973525" lon="10.98797413525166"><ele>531.0</ele><time>2026-04-06T10:11:17.001Z</time></trkpt><trkpt lat="43.07743941684261" lon="10.988032357884931"><ele>531.0</ele><time>2026-04-06T10:11:18.001Z</time></trkpt><trkpt lat="43.07732521603087" lon="10.988096768828397"><ele>531.0</ele><time>2026-04-06T10:11:19.001Z</time></trkpt><trkpt lat="43.077207586314145" lon="10.98816141632137"><ele>531.0</ele><time>2026-04-06T10:11:20.001Z</time></trkpt><trkpt lat="43.077101015016524" lon="10.988228459855556"><ele>534.5</ele><time>2026-04-06T10:11:21.001Z</time></trkpt><trkpt lat="43.07701360192032" lon="10.988319792320862"><ele>538.0</ele><time>2026-04-06T10:11:22.001Z</time></trkpt><trkpt lat="43.076946841717586" lon="10.988452471970126"><ele>541.5</ele><time>2026-04-06T10:11:23.001Z</time></trkpt><trkpt lat="43.076910978620624" lon="10.988616290655171"><ele>545.0</ele><time>2026-04-06T10:11:24.001Z</time></trkpt><trkpt lat="43.07689673055173" lon="10.988794255591822"><ele>545.0</ele><time>2026-04-06T10:11:25.001Z</time></trkpt><trkpt lat="43.076897528592916" lon="10.988988948424057"><ele>545.0</ele><time>2026-04-06T10:11:26.001Z</time></trkpt><trkpt lat="43.07690331498525" lon="10.989186207667121"><ele>545.0</ele><time>2026-04-06T10:11:27.001Z</time></trkpt><trkpt lat="43.07691522850218" lon="10.98938283326607"><ele>545.0</ele><time>2026-04-06T10:11:28.001Z</time></trkpt><trkpt lat="43.07692331200244" lon="10.989564752085718"><ele>541.75</ele><time>2026-04-06T10:11:29.001Z</time></trkpt><trkpt lat="43.07693253813594" lon="10.989734241282534"><ele>538.5</ele><time>2026-04-06T10:11:30.001Z</time></trkpt><trkpt lat="43.076921748652325" lon="10.989891876045375"><ele>535.25</ele><time>2026-04-06T10:11:31.001Z</time></trkpt><trkpt lat="43.07687812886567" lon="10.99003076383248"><ele>532.0</ele><time>2026-04-06T10:11:32.001Z</time></trkpt><trkpt lat="43.076809990128616" lon="10.990159844521838"><ele>532.25</ele><time>2026-04-06T10:11:33.001Z</time></trkpt><trkpt lat="43.076715196093026" lon="10.990274674080556"><ele>532.5</ele><time>2026-04-06T10:11:34.001Z</time></trkpt><trkpt lat="43.07659346044155" lon="10.990376245331595"><ele>532.75</ele><time>2026-04-06T10:11:35.001Z</time></trkpt><trkpt lat="43.07647132488938" lon="10.990479815787296"><ele>533.0</ele><time>2026-04-06T10:11:36.001Z</time></trkpt><trkpt lat="43.07635352128256" lon="10.990584718935771"><ele>533.0</ele><time>2026-04-06T10:11:37.001Z</time></trkpt><trkpt lat="43.07622994715731" lon="10.990683588466428"><ele>533.0</ele><time>2026-04-06T10:11:38.001Z</time></trkpt><trkpt lat="43.07611777296588" lon="10.990780573190301"><ele>533.0</ele><time>2026-04-06T10:11:39.001Z</time></trkpt><trkpt lat="43.07601737434134" lon="10.990873787407315"><ele>533.0</ele><time>2026-04-06T10:11:40.001Z</time></trkpt><trkpt lat="43.07593786081629" lon="10.990976522626106"><ele>530.5</ele><time>2026-04-06T10:11:41Z</time></trkpt><trkpt lat="43.075882008848744" lon="10.991096345654574"><ele>528.0</ele><time>2026-04-06T10:11:42Z</time></trkpt><trkpt lat="43.075847887171605" lon="10.99124813367422"><ele>525.5</ele><time>2026-04-06T10:11:43Z</time></trkpt><trkpt lat="43.07584929429877" lon="10.991427646808372"><ele>523.0</ele><time>2026-04-06T10:11:44Z</time></trkpt><trkpt lat="43.075864976114964" lon="10.991622637322935"><ele>523.25</ele><time>2026-04-06T10:11:45Z</time></trkpt><trkpt lat="43.07590045463125" lon="10.991809666922334"><ele>523.5</ele><time>2026-04-06T10:11:46Z</time></trkpt><trkpt lat="43.07594016347019" lon="10.991975357081438"><ele>523.75</ele><time>2026-04-06T10:11:47Z</time></trkpt><trkpt lat="43.0759805482587" lon="10.992156354264656"><ele>524.0</ele><time>2026-04-06T10:11:48Z</time></trkpt><trkpt lat="43.076026853238915" lon="10.99234449649231"><ele>524.3333333333333</ele><time>2026-04-06T10:11:49Z</time></trkpt><trkpt lat="43.07607308559494" lon="10.99253597559302"><ele>524.6666666666666</ele><time>2026-04-06T10:11:50Z</time></trkpt><trkpt lat="43.07612198869252" lon="10.992735198129568"><ele>525.0</ele><time>2026-04-06T10:11:51Z</time></trkpt><trkpt lat="43.076170650931964" lon="10.992939434329422"><ele>525.0</ele><time>2026-04-06T10:11:52Z</time></trkpt><trkpt lat="43.076211762770804" lon="10.993148514780462"><ele>525.0</ele><time>2026-04-06T10:11:53Z</time></trkpt><trkpt lat="43.07623981544762" lon="10.993358829475811"><ele>525.0</ele><time>2026-04-06T10:11:54Z</time></trkpt><trkpt lat="43.07625969223084" lon="10.993562880381"><ele>523.3333333333334</ele><time>2026-04-06T10:11:55Z</time></trkpt><trkpt lat="43.07627589890237" lon="10.993777621847254"><ele>521.6666666666667</ele><time>2026-04-06T10:11:56Z</time></trkpt><trkpt lat="43.0762810968882" lon="10.994001687554272"><ele>520.0</ele><time>2026-04-06T10:11:57Z</time></trkpt><trkpt lat="43.0762840393453" lon="10.994224118047544"><ele>517.3333333333334</ele><time>2026-04-06T10:11:58Z</time></trkpt><trkpt lat="43.07627923300381" lon="10.99443017296332"><ele>514.6666666666666</ele><time>2026-04-06T10:11:59Z</time></trkpt><trkpt lat="43.076273735153435" lon="10.994630827540925"><ele>512.0</ele><time>2026-04-06T10:12:00Z</time></trkpt><trkpt lat="43.07626038095327" lon="10.994841589590768"><ele>509.75</ele><time>2026-04-06T10:12:01Z</time></trkpt><trkpt lat="43.07624092804775" lon="10.995039797610438"><ele>507.5</ele><time>2026-04-06T10:12:02Z</time></trkpt><trkpt lat="43.07621113993045" lon="10.995206101924802"><ele>505.25</ele><time>2026-04-06T10:12:03Z</time></trkpt><trkpt lat="43.07616377853513" lon="10.995345071014794"><ele>503.0</ele><time>2026-04-06T10:12:04Z</time></trkpt><trkpt lat="43.07609040244126" lon="10.995459242775498"><ele>503.0</ele><time>2026-04-06T10:12:05Z</time></trkpt><trkpt lat="43.075988083879984" lon="10.995537287853054"><ele>502.99999999999994</ele><time>2026-04-06T10:12:06Z</time></trkpt><trkpt lat="43.07587784720739" lon="10.99555511871282"><ele>502.99999999999994</ele><time>2026-04-06T10:12:07Z</time></trkpt><trkpt lat="43.0757670172031" lon="10.995541110732212"><ele>503.0</ele><time>2026-04-06T10:12:08Z</time></trkpt><trkpt lat="43.07566686301277" lon="10.995513517564959"><ele>503.0</ele><time>2026-04-06T10:12:09Z</time></trkpt><trkpt lat="43.07557458340113" lon="10.995492628281102"><ele>507.0</ele><time>2026-04-06T10:12:10Z</time></trkpt><trkpt lat="43.07548968101711" lon="10.995537637540762"><ele>510.99999999999994</ele><time>2026-04-06T10:12:11Z</time></trkpt><trkpt lat="43.07541416443297" lon="10.995626377778438"><ele>515.0</ele><time>2026-04-06T10:12:12Z</time></trkpt><trkpt lat="43.075365128664515" lon="10.995757411723334"><ele>519.0</ele><time>2026-04-06T10:12:13Z</time></trkpt><trkpt lat="43.07535241504244" lon="10.995908472935914"><ele>523.0</ele><time>2026-04-06T10:12:14Z</time></trkpt><trkpt lat="43.07537956185747" lon="10.996060038698385"><ele>523.0</ele><time>2026-04-06T10:12:15Z</time></trkpt><trkpt lat="43.0754367846063" lon="10.9962029781473"><ele>523.0</ele><time>2026-04-06T10:12:16Z</time></trkpt><trkpt lat="43.075508886479724" lon="10.996347837277096"><ele>523.0</ele><time>2026-04-06T10:12:17Z</time></trkpt><trkpt lat="43.07557524932612" lon="10.996510314938353"><ele>523.0</ele><time>2026-04-06T10:12:18Z</time></trkpt><trkpt lat="43.075617138002066" lon="10.996681842735091"><ele>519.0</ele><time>2026-04-06T10:12:19Z</time></trkpt><trkpt lat="43.07564128376064" lon="10.996846016018061"><ele>515.0</ele><time>2026-04-06T10:12:20Z</time></trkpt><trkpt lat="43.07564758018696" lon="10.997027408262994"><ele>511.0</ele><time>2026-04-06T10:12:21Z</time></trkpt><trkpt lat="43.07563170924404" lon="10.997213107656457"><ele>507.0</ele><time>2026-04-06T10:12:22Z</time></trkpt><trkpt lat="43.075591562279" lon="10.997396437136775"><ele>504.5</ele><time>2026-04-06T10:12:23Z</time></trkpt><trkpt lat="43.07553618688465" lon="10.99755435511953"><ele>502.0</ele><time>2026-04-06T10:12:24Z</time></trkpt><trkpt lat="43.07546202957415" lon="10.997682031665937"><ele>499.5</ele><time>2026-04-06T10:12:25Z</time></trkpt><trkpt lat="43.07537051567212" lon="10.997797138463705"><ele>497.0</ele><time>2026-04-06T10:12:26Z</time></trkpt><trkpt lat="43.075261618883175" lon="10.997906564763012"><ele>497.0</ele><time>2026-04-06T10:12:27Z</time></trkpt><trkpt lat="43.07515483072532" lon="10.998017414991493"><ele>497.0</ele><time>2026-04-06T10:12:28Z</time></trkpt><trkpt lat="43.07505147747441" lon="10.998140899662618"><ele>497.0</ele><time>2026-04-06T10:12:29Z</time></trkpt><trkpt lat="43.07495907259951" lon="10.998275584113385"><ele>497.0</ele><time>2026-04-06T10:12:30Z</time></trkpt><trkpt lat="43.074881872391394" lon="10.998419139171197"><ele>499.25</ele><time>2026-04-06T10:12:31Z</time></trkpt><trkpt lat="43.07482798532571" lon="10.998562935022083"><ele>501.5</ele><time>2026-04-06T10:12:32Z</time></trkpt><trkpt lat="43.07479566254059" lon="10.998713190143384"><ele>503.75</ele><time>2026-04-06T10:12:33Z</time></trkpt><trkpt lat="43.074796285163686" lon="10.998876207044905"><ele>506.0</ele><time>2026-04-06T10:12:34Z</time></trkpt><trkpt lat="43.07481965203646" lon="10.999042760604645"><ele>505.0</ele><time>2026-04-06T10:12:35Z</time></trkpt><trkpt lat="43.0748682123722" lon="10.999214382682618"><ele>504.0</ele><time>2026-04-06T10:12:36Z</time></trkpt><trkpt lat="43.07492430267582" lon="10.999397515267757"><ele>503.0</ele><time>2026-04-06T10:12:37Z</time></trkpt><trkpt lat="43.07498956272959" lon="10.99958625718016"><ele>502.0</ele><time>2026-04-06T10:12:38Z</time></trkpt><trkpt lat="43.07506917872923" lon="10.999779126152958"><ele>500.0</ele><time>2026-04-06T10:12:39Z</time></trkpt><trkpt lat="43.07516365762792" lon="10.999980388602062"><ele>498.0</ele><time>2026-04-06T10:12:40Z</time></trkpt><trkpt lat="43.07526309875732" lon="11.000208018548312"><ele>496.0</ele><time>2026-04-06T10:12:41Z</time></trkpt><trkpt lat="43.075389371786564" lon="11.000468576636912"><ele>496.0</ele><time>2026-04-06T10:12:42Z</time></trkpt><trkpt lat="43.0755408035766" lon="11.000803416051257"><ele>496.0</ele><time>2026-04-06T10:12:43Z</time></trkpt><trkpt lat="43.075725178909344" lon="11.001178241746677"><ele>495.5</ele><time>2026-04-06T10:12:44Z</time></trkpt><trkpt lat="43.07590882392782" lon="11.00160354241485"><ele>495.0</ele><time>2026-04-06T10:12:45Z</time></trkpt><trkpt lat="43.076094875311824" lon="11.001999138024516"><ele>492.5</ele><time>2026-04-06T10:12:46Z</time></trkpt><trkpt lat="43.07626317959072" lon="11.002340357000364"><ele>490.0</ele><time>2026-04-06T10:12:47Z</time></trkpt><trkpt lat="43.07641262294433" lon="11.002659509548717"><ele>488.0</ele><time>2026-04-06T10:12:48Z</time></trkpt><trkpt lat="43.076529372922295" lon="11.0029949102725"><ele>486.0</ele><time>2026-04-06T10:12:49Z</time></trkpt><trkpt lat="43.076623702076105" lon="11.003386979347885"><ele>486.0</ele><time>2026-04-06T10:12:50Z</time></trkpt><trkpt lat="43.076692469973395" lon="11.003837506353138"><ele>486.0</ele><time>2026-04-06T10:12:51Z</time></trkpt><trkpt lat="43.07675244264453" lon="11.004325673843798"><ele>484.5</ele><time>2026-04-06T10:12:52Z</time></trkpt><trkpt lat="43.07681872030134" lon="11.004845624379797"><ele>483.0</ele><time>2026-04-06T10:12:53Z</time></trkpt><trkpt lat="43.07689389268608" lon="11.005392627589801"><ele>482.5</ele><time>2026-04-06T10:12:54Z</time></trkpt><trkpt lat="43.076975191304165" lon="11.005958406847716"><ele>482.0</ele><time>2026-04-06T10:12:55Z</time></trkpt><trkpt lat="43.07705831667711" lon="11.006548554016106"><ele>482.0</ele><time>2026-04-06T10:12:56Z</time></trkpt><trkpt lat="43.07713872378702" lon="11.007146640602944"><ele>482.0</ele><time>2026-04-06T10:12:57Z</time></trkpt><trkpt lat="43.07721731432233" lon="11.007762104717054"><ele>480.0</ele><time>2026-04-06T10:12:58Z</time></trkpt><trkpt lat="43.07729457314808" lon="11.00835044955866"><ele>478.0</ele><time>2026-04-06T10:12:59Z</time></trkpt><trkpt lat="43.077363883994835" lon="11.00887619895189"><ele>477.0</ele><time>2026-04-06T10:13:00Z</time></trkpt><trkpt lat="43.077431869885054" lon="11.009367834660463"><ele>476.0</ele><time>2026-04-06T10:13:01Z</time></trkpt><trkpt lat="43.07749079514285" lon="11.009825741554094"><ele>476.5</ele><time>2026-04-06T10:13:02Z</time></trkpt><trkpt lat="43.07755180828806" lon="11.010254292629174"><ele>477.0</ele><time>2026-04-06T10:13:03Z</time></trkpt><trkpt lat="43.07760931187036" lon="11.01065850690349"><ele>476.5</ele><time>2026-04-06T10:13:04.001Z</time></trkpt><trkpt lat="43.07766428691764" lon="11.011035040623431"><ele>476.0</ele><time>2026-04-06T10:13:05.001Z</time></trkpt><trkpt lat="43.07771045734061" lon="11.011389724978471"><ele>474.5</ele><time>2026-04-06T10:13:06.001Z</time></trkpt><trkpt lat="43.077758795874125" lon="11.011719679365914"><ele>473.0</ele><time>2026-04-06T10:13:07.001Z</time></trkpt><trkpt lat="43.0778012797593" lon="11.01202513612303"><ele>473.0</ele><time>2026-04-06T10:13:08.001Z</time></trkpt><trkpt lat="43.077843596518264" lon="11.012310662130307"><ele>473.0</ele><time>2026-04-06T10:13:09.001Z</time></trkpt><trkpt lat="43.07788164642955" lon="11.012584091261168"><ele>473.0</ele><time>2026-04-06T10:13:10.001Z</time></trkpt><trkpt lat="43.07792249867873" lon="11.012859539033009"><ele>473.0</ele><time>2026-04-06T10:13:11.001Z</time></trkpt><trkpt lat="43.077960516344724" lon="11.013109913555413"><ele>473.0</ele><time>2026-04-06T10:13:12.001Z</time></trkpt><trkpt lat="43.07799465029439" lon="11.013340518378037"><ele>473.0</ele><time>2026-04-06T10:13:13.001Z</time></trkpt><trkpt lat="43.07802444614685" lon="11.013556287927445"><ele>473.0</ele><time>2026-04-06T10:13:14.001Z</time></trkpt><trkpt lat="43.07805836080496" lon="11.01378875754642"><ele>473.0</ele><time>2026-04-06T10:13:15.001Z</time></trkpt><trkpt lat="43.07808301319514" lon="11.014078663189103"><ele>473.0</ele><time>2026-04-06T10:13:16.001Z</time></trkpt><trkpt lat="43.07814392960852" lon="11.014403498906168"><ele>473.0</ele><time>2026-04-06T10:13:17.001Z</time></trkpt><trkpt lat="43.07817489767703" lon="11.014767112608185"><ele>473.0</ele><time>2026-04-06T10:13:18.001Z</time></trkpt><trkpt lat="43.078229201903405" lon="11.015151845592582"><ele>473.0</ele><time>2026-04-06T10:13:19.001Z</time></trkpt><trkpt lat="43.07828890986339" lon="11.015553147994751"><ele>473.0</ele><time>2026-04-06T10:13:20.001Z</time></trkpt><trkpt lat="43.07834253780568" lon="11.015927913843063"><ele>473.0</ele><time>2026-04-06T10:13:21.001Z</time></trkpt><trkpt lat="43.078392302805796" lon="11.016266563706607"><ele>473.0</ele><time>2026-04-06T10:13:22.001Z</time></trkpt><trkpt lat="43.078436358067556" lon="11.016585363951554"><ele>473.3333333333333</ele><time>2026-04-06T10:13:23.001Z</time></trkpt><trkpt lat="43.078482763859974" lon="11.016883663275133"><ele>473.66666666666663</ele><time>2026-04-06T10:13:24.001Z</time></trkpt><trkpt lat="43.078506329986006" lon="11.017174459297477"><ele>474.0</ele><time>2026-04-06T10:13:25.001Z</time></trkpt><trkpt lat="43.07854280191965" lon="11.017423997651154"><ele>474.0</ele><time>2026-04-06T10:13:26.001Z</time></trkpt><trkpt lat="43.07857539499402" lon="11.01764699711891"><ele>474.0</ele><time>2026-04-06T10:13:27.001Z</time></trkpt><trkpt lat="43.07860573161044" lon="11.017847422550448"><ele>474.0</ele><time>2026-04-06T10:13:28.001Z</time></trkpt><trkpt lat="43.07863455682299" lon="11.01802319425719"><ele>474.0</ele><time>2026-04-06T10:13:29.001Z</time></trkpt><trkpt lat="43.07866087052383" lon="11.01816639841883"><ele>474.0</ele><time>2026-04-06T10:13:30.001Z</time></trkpt><trkpt lat="43.07868417355002" lon="11.018285533438014"><ele>474.0</ele><time>2026-04-06T10:13:31.001Z</time></trkpt><trkpt lat="43.0786719335137" lon="11.018389515869519"><ele>474.0</ele><time>2026-04-06T10:13:32.001Z</time></trkpt><trkpt lat="43.07857034847454" lon="11.018533519709749"><ele>474.0</ele><time>2026-04-06T10:13:34.001Z</time></trkpt><trkpt lat="43.07849757750058" lon="11.018541000624634"><ele>474.0</ele><time>2026-04-06T10:13:35.001Z</time></trkpt><trkpt lat="43.078417291148696" lon="11.018505716425892"><ele>474.0</ele><time>2026-04-06T10:13:36.001Z</time></trkpt><trkpt lat="43.0783213200006" lon="11.018448155553267"><ele>474.0</ele><time>2026-04-06T10:13:37.001Z</time></trkpt><trkpt lat="43.07819993655755" lon="11.018380578175654"><ele>474.0</ele><time>2026-04-06T10:13:38.001Z</time></trkpt><trkpt lat="43.07804347358446" lon="11.018295194739942"><ele>474.0</ele><time>2026-04-06T10:13:39.001Z</time></trkpt><trkpt lat="43.07784844448116" lon="11.018181303254817"><ele>474.0</ele><time>2026-04-06T10:13:40.001Z</time></trkpt><trkpt lat="43.07762568324294" lon="11.01804330378725"><ele>474.0</ele><time>2026-04-06T10:13:41.001Z</time></trkpt><trkpt lat="43.07739596107998" lon="11.017885942626728"><ele>474.66666666666663</ele><time>2026-04-06T10:13:42.001Z</time></trkpt><trkpt lat="43.077206356983574" lon="11.017735500785985"><ele>475.3333333333333</ele><time>2026-04-06T10:13:43.001Z</time></trkpt><trkpt lat="43.07703136238262" lon="11.01760120080273"><ele>476.0</ele><time>2026-04-06T10:13:44.001Z</time></trkpt><trkpt lat="43.076849736614406" lon="11.017509501411977"><ele>476.0</ele><time>2026-04-06T10:13:45.001Z</time></trkpt><trkpt lat="43.07664202211749" lon="11.017466557355645"><ele>476.0</ele><time>2026-04-06T10:13:46.001Z</time></trkpt><trkpt lat="43.076403242366446" lon="11.017458524736746"><ele>476.0</ele><time>2026-04-06T10:13:47Z</time></trkpt><trkpt lat="43.076151328732934" lon="11.017459220823278"><ele>476.0</ele><time>2026-04-06T10:13:48Z</time></trkpt><trkpt lat="43.07588471792189" lon="11.01744514849955"><ele>476.0</ele><time>2026-04-06T10:13:49Z</time></trkpt><trkpt lat="43.07561300092272" lon="11.01742290485377"><ele>476.0</ele><time>2026-04-06T10:13:50Z</time></trkpt><trkpt lat="43.075324842519564" lon="11.017387923443371"><ele>476.0</ele><time>2026-04-06T10:13:51Z</time></trkpt><trkpt lat="43.07504493983544" lon="11.01733969041044"><ele>476.0</ele><time>2026-04-06T10:13:52Z</time></trkpt><trkpt lat="43.07478724698231" lon="11.017277279253944"><ele>476.0</ele><time>2026-04-06T10:13:53Z</time></trkpt><trkpt lat="43.0745462859527" lon="11.017221143202956"><ele>476.0</ele><time>2026-04-06T10:13:54Z</time></trkpt><trkpt lat="43.07429898178598" lon="11.017176280488036"><ele>476.0</ele><time>2026-04-06T10:13:55Z</time></trkpt><trkpt lat="43.07405165625369" lon="11.017133698608866"><ele>476.0</ele><time>2026-04-06T10:13:56Z</time></trkpt><trkpt lat="43.07380686943851" lon="11.017077369951714"><ele>476.0</ele><time>2026-04-06T10:13:57Z</time></trkpt><trkpt lat="43.07356038194304" lon="11.017008064171073"><ele>476.0</ele><time>2026-04-06T10:13:58Z</time></trkpt><trkpt lat="43.073304014914584" lon="11.016942939279089"><ele>476.0</ele><time>2026-04-06T10:13:59Z</time></trkpt><trkpt lat="43.073073334134676" lon="11.016874452388215"><ele>477.0</ele><time>2026-04-06T10:14:00Z</time></trkpt><trkpt lat="43.07284064708454" lon="11.016837133189716"><ele>478.0</ele><time>2026-04-06T10:14:01Z</time></trkpt><trkpt lat="43.07259828901453" lon="11.016831559735818"><ele>479.0</ele><time>2026-04-06T10:14:02Z</time></trkpt><trkpt lat="43.07236506246072" lon="11.01684132066486"><ele>480.0</ele><time>2026-04-06T10:14:03Z</time></trkpt><trkpt lat="43.0721706927024" lon="11.016851598314664"><ele>481.0</ele><time>2026-04-06T10:14:04Z</time></trkpt><trkpt lat="43.07200269097219" lon="11.016891414218245"><ele>481.0</ele><time>2026-04-06T10:14:05Z</time></trkpt><trkpt lat="43.07181270288445" lon="11.016981541258376"><ele>481.0</ele><time>2026-04-06T10:14:06Z</time></trkpt><trkpt lat="43.071601569523565" lon="11.017115056448269"><ele>481.0</ele><time>2026-04-06T10:14:07Z</time></trkpt><trkpt lat="43.071361269816805" lon="11.017270711746642"><ele>481.0</ele><time>2026-04-06T10:14:08Z</time></trkpt><trkpt lat="43.07109171999423" lon="11.017432521332443"><ele>481.0</ele><time>2026-04-06T10:14:09Z</time></trkpt><trkpt lat="43.07080797709788" lon="11.017591701208838"><ele>482.0</ele><time>2026-04-06T10:14:10Z</time></trkpt><trkpt lat="43.07053113075511" lon="11.0177334735636"><ele>483.0</ele><time>2026-04-06T10:14:11Z</time></trkpt><trkpt lat="43.07029424699299" lon="11.017857438364837"><ele>483.0</ele><time>2026-04-06T10:14:12Z</time></trkpt><trkpt lat="43.070095484322586" lon="11.017959373204894"><ele>483.0</ele><time>2026-04-06T10:14:13Z</time></trkpt><trkpt lat="43.069921421814065" lon="11.018048235826038"><ele>483.0</ele><time>2026-04-06T10:14:14Z</time></trkpt><trkpt lat="43.06977256882646" lon="11.018149947005176"><ele>489.0</ele><time>2026-04-06T10:14:15Z</time></trkpt><trkpt lat="43.06964649260391" lon="11.018296185703647"><ele>495.0</ele><time>2026-04-06T10:14:16Z</time></trkpt><trkpt lat="43.06954326013348" lon="11.018488020462316"><ele>501.0</ele><time>2026-04-06T10:14:17Z</time></trkpt><trkpt lat="43.06945827330988" lon="11.018735370965954"><ele>501.0</ele><time>2026-04-06T10:14:18Z</time></trkpt><trkpt lat="43.06938939472335" lon="11.01897231163949"><ele>501.0</ele><time>2026-04-06T10:14:19Z</time></trkpt><trkpt lat="43.06933382158848" lon="11.019166084333053"><ele>501.0</ele><time>2026-04-06T10:14:20Z</time></trkpt><trkpt lat="43.06925449216412" lon="11.019323756865376"><ele>499.25</ele><time>2026-04-06T10:14:21Z</time></trkpt><trkpt lat="43.069135721363075" lon="11.019439543597343"><ele>497.5</ele><time>2026-04-06T10:14:22Z</time></trkpt><trkpt lat="43.06902392084612" lon="11.019582348581192"><ele>495.75</ele><time>2026-04-06T10:14:23Z</time></trkpt><trkpt lat="43.06893171288857" lon="11.01972097716226"><ele>494.0</ele><time>2026-04-06T10:14:24Z</time></trkpt><trkpt lat="43.068631432989086" lon="11.019569802616857"><ele>494.0</ele><time>2026-04-06T10:14:25Z</time></trkpt><trkpt lat="43.06844150566163" lon="11.019522829542545"><ele>494.0</ele><time>2026-04-06T10:14:26Z</time></trkpt><trkpt lat="43.06822137140146" lon="11.019453897081345"><ele>494.0</ele><time>2026-04-06T10:14:27Z</time></trkpt><trkpt lat="43.067977922801255" lon="11.019370846779863"><ele>492.0</ele><time>2026-04-06T10:14:28Z</time></trkpt><trkpt lat="43.06776592174707" lon="11.019316555676872"><ele>490.0</ele><time>2026-04-06T10:14:29Z</time></trkpt><trkpt lat="43.0675724695348" lon="11.019277609544847"><ele>488.0</ele><time>2026-04-06T10:14:30Z</time></trkpt><trkpt lat="43.067396077374184" lon="11.019241534173547"><ele>488.0</ele><time>2026-04-06T10:14:31Z</time></trkpt><trkpt lat="43.067213371253196" lon="11.019201014277124"><ele>488.0</ele><time>2026-04-06T10:14:32Z</time></trkpt><trkpt lat="43.067038351130634" lon="11.019141014665237"><ele>488.0</ele><time>2026-04-06T10:14:33Z</time></trkpt><trkpt lat="43.06686388524924" lon="11.019062882580913"><ele>487.66666666666663</ele><time>2026-04-06T10:14:34Z</time></trkpt><trkpt lat="43.066678435041524" lon="11.018968431937031"><ele>487.33333333333337</ele><time>2026-04-06T10:14:35Z</time></trkpt><trkpt lat="43.066480230458936" lon="11.018854960797992"><ele>487.0</ele><time>2026-04-06T10:14:36Z</time></trkpt><trkpt lat="43.06628812705958" lon="11.018762324871117"><ele>487.0</ele><time>2026-04-06T10:14:37Z</time></trkpt><trkpt lat="43.06609018427246" lon="11.018675054020122"><ele>487.0</ele><time>2026-04-06T10:14:38Z</time></trkpt><trkpt lat="43.065875863978285" lon="11.018583484704152"><ele>487.0</ele><time>2026-04-06T10:14:39Z</time></trkpt><trkpt lat="43.06564155484446" lon="11.01851956492624"><ele>488.5</ele><time>2026-04-06T10:14:40Z</time></trkpt><trkpt lat="43.06539692282733" lon="11.018467778368963"><ele>490.0</ele><time>2026-04-06T10:14:41Z</time></trkpt><trkpt lat="43.0651430860686" lon="11.01842330057209"><ele>489.5</ele><time>2026-04-06T10:14:42Z</time></trkpt><trkpt lat="43.064879790446405" lon="11.018372369866837"><ele>489.0</ele><time>2026-04-06T10:14:43Z</time></trkpt><trkpt lat="43.0646073211137" lon="11.018320019925113"><ele>487.5</ele><time>2026-04-06T10:14:44Z</time></trkpt><trkpt lat="43.064331551708555" lon="11.018246620547103"><ele>486.0</ele><time>2026-04-06T10:14:45Z</time></trkpt><trkpt lat="43.06407131045322" lon="11.018157632633498"><ele>486.0</ele><time>2026-04-06T10:14:46Z</time></trkpt><trkpt lat="43.06384618545279" lon="11.018058948400347"><ele>486.0</ele><time>2026-04-06T10:14:47Z</time></trkpt><trkpt lat="43.063635023366984" lon="11.017988616144224"><ele>486.0</ele><time>2026-04-06T10:14:48Z</time></trkpt><trkpt lat="43.063426422090075" lon="11.017939647422377"><ele>486.0</ele><time>2026-04-06T10:14:49Z</time></trkpt><trkpt lat="43.06319456075998" lon="11.017914400478025"><ele>486.0</ele><time>2026-04-06T10:14:50Z</time></trkpt><trkpt lat="43.06295745144715" lon="11.017899725414749"><ele>488.0</ele><time>2026-04-06T10:14:51Z</time></trkpt><trkpt lat="43.06270943441799" lon="11.017877561238931"><ele>490.0</ele><time>2026-04-06T10:14:52Z</time></trkpt><trkpt lat="43.06246277080467" lon="11.017859340980914"><ele>491.6666666666667</ele><time>2026-04-06T10:14:53Z</time></trkpt><trkpt lat="43.06224608102703" lon="11.017848352645396"><ele>493.33333333333337</ele><time>2026-04-06T10:14:54Z</time></trkpt><trkpt lat="43.06204877717437" lon="11.017864603206466"><ele>495.0</ele><time>2026-04-06T10:14:55Z</time></trkpt><trkpt lat="43.061854068274314" lon="11.017920442028498"><ele>495.0</ele><time>2026-04-06T10:14:56Z</time></trkpt><trkpt lat="43.0616723452443" lon="11.018016608504533"><ele>495.0</ele><time>2026-04-06T10:14:57Z</time></trkpt><trkpt lat="43.06147644237079" lon="11.018166076716916"><ele>495.0</ele><time>2026-04-06T10:14:58Z</time></trkpt><trkpt lat="43.06126523085044" lon="11.018353519168736"><ele>495.0</ele><time>2026-04-06T10:14:59Z</time></trkpt><trkpt lat="43.06104016852137" lon="11.01856336301249"><ele>495.0</ele><time>2026-04-06T10:15:00Z</time></trkpt><trkpt lat="43.06078574559595" lon="11.018778672690962"><ele>495.0</ele><time>2026-04-06T10:15:01.001Z</time></trkpt><trkpt lat="43.06050782839631" lon="11.019022038630483"><ele>495.0</ele><time>2026-04-06T10:15:02.001Z</time></trkpt><trkpt lat="43.06024081355809" lon="11.019265256117738"><ele>495.0</ele><time>2026-04-06T10:15:03.001Z</time></trkpt><trkpt lat="43.06002374629724" lon="11.019466731497745"><ele>495.0</ele><time>2026-04-06T10:15:04.001Z</time></trkpt><trkpt lat="43.059841272936836" lon="11.01964909660621"><ele>495.33333333333337</ele><time>2026-04-06T10:15:05.001Z</time></trkpt><trkpt lat="43.05968343674667" lon="11.019836162509684"><ele>495.6666666666667</ele><time>2026-04-06T10:15:06.001Z</time></trkpt><trkpt lat="43.05954785681591" lon="11.020060207909456"><ele>496.0</ele><time>2026-04-06T10:15:07.001Z</time></trkpt><trkpt lat="43.05941194484384" lon="11.020347115915351"><ele>496.0</ele><time>2026-04-06T10:15:08.001Z</time></trkpt><trkpt lat="43.05926328945871" lon="11.020695102422314"><ele>496.0</ele><time>2026-04-06T10:15:09.001Z</time></trkpt><trkpt lat="43.05909162376843" lon="11.021082248316285"><ele>493.0</ele><time>2026-04-06T10:15:10.001Z</time></trkpt><trkpt lat="43.058901072075365" lon="11.021511702525446"><ele>490.0</ele><time>2026-04-06T10:15:11.001Z</time></trkpt><trkpt lat="43.058692802225" lon="11.021958539016266"><ele>489.5</ele><time>2026-04-06T10:15:12.001Z</time></trkpt><trkpt lat="43.05850664136143" lon="11.022360943357041"><ele>489.0</ele><time>2026-04-06T10:15:13.001Z</time></trkpt><trkpt lat="43.05832361155736" lon="11.022665998811512"><ele>489.5</ele><time>2026-04-06T10:15:14.001Z</time></trkpt><trkpt lat="43.05816174348971" lon="11.022982095997701"><ele>490.0</ele><time>2026-04-06T10:15:15.001Z</time></trkpt><trkpt lat="43.05800440488724" lon="11.023270268522873"><ele>490.0</ele><time>2026-04-06T10:15:16.001Z</time></trkpt><trkpt lat="43.05786896435272" lon="11.023524038177925"><ele>490.0</ele><time>2026-04-06T10:15:17.001Z</time></trkpt><trkpt lat="43.057759966141305" lon="11.023729066951578"><ele>490.0</ele><time>2026-04-06T10:15:18.001Z</time></trkpt><trkpt lat="43.05767657801941" lon="11.02392732670616"><ele>489.33333333333337</ele><time>2026-04-06T10:15:19.001Z</time></trkpt><trkpt lat="43.05762717107635" lon="11.024156190749755"><ele>488.66666666666663</ele><time>2026-04-06T10:15:20.001Z</time></trkpt><trkpt lat="43.05763019371014" lon="11.024407310642259"><ele>488.0</ele><time>2026-04-06T10:15:21.001Z</time></trkpt><trkpt lat="43.05768003766959" lon="11.024684503301367"><ele>490.0</ele><time>2026-04-06T10:15:22.001Z</time></trkpt><trkpt lat="43.05776825838356" lon="11.024996910899663"><ele>492.0</ele><time>2026-04-06T10:15:23.001Z</time></trkpt><trkpt lat="43.05786363975392" lon="11.025313631788176"><ele>492.0</ele><time>2026-04-06T10:15:24.001Z</time></trkpt><trkpt lat="43.05793908768833" lon="11.025594332378686"><ele>492.0</ele><time>2026-04-06T10:15:25.001Z</time></trkpt><trkpt lat="43.05799070877331" lon="11.02586447000352"><ele>492.0</ele><time>2026-04-06T10:15:26.001Z</time></trkpt><trkpt lat="43.05800533028672" lon="11.02612285064474"><ele>491.33333333333337</ele><time>2026-04-06T10:15:27.001Z</time></trkpt><trkpt lat="43.05797016013635" lon="11.026394970910733"><ele>490.6666666666667</ele><time>2026-04-06T10:15:28.001Z</time></trkpt><trkpt lat="43.05789426425024" lon="11.026699011641522"><ele>490.0</ele><time>2026-04-06T10:15:29.001Z</time></trkpt><trkpt lat="43.05780969830196" lon="11.02704639372405"><ele>489.6666666666667</ele><time>2026-04-06T10:15:30.001Z</time></trkpt><trkpt lat="43.05774270372988" lon="11.027319847061682"><ele>489.33333333333337</ele><time>2026-04-06T10:15:31.001Z</time></trkpt><trkpt lat="43.057640829800754" lon="11.027566180870728"><ele>489.0</ele><time>2026-04-06T10:15:32.001Z</time></trkpt><trkpt lat="43.05748533161313" lon="11.02780657090761"><ele>483.5</ele><time>2026-04-06T10:15:33.001Z</time></trkpt><trkpt lat="43.05729402421744" lon="11.02807011890992"><ele>478.0</ele><time>2026-04-06T10:15:34.001Z</time></trkpt><trkpt lat="43.05708786140977" lon="11.028347585396451"><ele>476.0</ele><time>2026-04-06T10:15:35.001Z</time></trkpt><trkpt lat="43.05692029598323" lon="11.028586868856241"><ele>474.0</ele><time>2026-04-06T10:15:36.001Z</time></trkpt><trkpt lat="43.05673927936191" lon="11.028784996334528"><ele>473.0</ele><time>2026-04-06T10:15:37.001Z</time></trkpt><trkpt lat="43.056541309367795" lon="11.028953782249335"><ele>472.0</ele><time>2026-04-06T10:15:38.001Z</time></trkpt><trkpt lat="43.05636466591867" lon="11.029097486361962"><ele>471.0</ele><time>2026-04-06T10:15:39.001Z</time></trkpt><trkpt lat="43.056220567877055" lon="11.02928200449329"><ele>469.5</ele><time>2026-04-06T10:15:40.001Z</time></trkpt><trkpt lat="43.05609944264886" lon="11.029529664893486"><ele>468.0</ele><time>2026-04-06T10:15:41.001Z</time></trkpt><trkpt lat="43.055977702384375" lon="11.029817610962724"><ele>470.5</ele><time>2026-04-06T10:15:42.001Z</time></trkpt><trkpt lat="43.05582677208012" lon="11.030093512398379"><ele>473.0</ele><time>2026-04-06T10:15:43.001Z</time></trkpt><trkpt lat="43.055633030981795" lon="11.03037765654186"><ele>475.5</ele><time>2026-04-06T10:15:44.001Z</time></trkpt><trkpt lat="43.05543206212581" lon="11.03066832516777"><ele>478.0</ele><time>2026-04-06T10:15:45.001Z</time></trkpt><trkpt lat="43.05525110103521" lon="11.030996256088716"><ele>472.5</ele><time>2026-04-06T10:15:46.001Z</time></trkpt><trkpt lat="43.05508401906294" lon="11.031341470747002"><ele>467.0</ele><time>2026-04-06T10:15:47.001Z</time></trkpt><trkpt lat="43.05494673322442" lon="11.031657622223724"><ele>464.0</ele><time>2026-04-06T10:15:48.001Z</time></trkpt><trkpt lat="43.054804958905564" lon="11.031927941485026"><ele>461.0</ele><time>2026-04-06T10:15:49.001Z</time></trkpt><trkpt lat="43.05465770712851" lon="11.032146532791725"><ele>461.0</ele><time>2026-04-06T10:15:50.001Z</time></trkpt><trkpt lat="43.05448104318769" lon="11.032318755435739"><ele>461.0</ele><time>2026-04-06T10:15:51.001Z</time></trkpt><trkpt lat="43.05427737335601" lon="11.032448874862943"><ele>461.0</ele><time>2026-04-06T10:15:52.001Z</time></trkpt><trkpt lat="43.05408155503769" lon="11.032543904354005"><ele>461.3333333333333</ele><time>2026-04-06T10:15:53Z</time></trkpt><trkpt lat="43.05390562339056" lon="11.032649951941186"><ele>461.66666666666663</ele><time>2026-04-06T10:15:54Z</time></trkpt><trkpt lat="43.05374831862806" lon="11.032826646984258"><ele>462.0</ele><time>2026-04-06T10:15:55Z</time></trkpt><trkpt lat="43.053601356297875" lon="11.033047103219303"><ele>462.0</ele><time>2026-04-06T10:15:56Z</time></trkpt><trkpt lat="43.05346516835857" lon="11.033228901471055"><ele>462.0</ele><time>2026-04-06T10:15:57Z</time></trkpt><trkpt lat="43.05329942857533" lon="11.033344724120074"><ele>462.0</ele><time>2026-04-06T10:15:58Z</time></trkpt><trkpt lat="43.05311288753546" lon="11.033402829557355"><ele>465.0</ele><time>2026-04-06T10:15:59Z</time></trkpt><trkpt lat="43.05286587613202" lon="11.033406687274342"><ele>468.0</ele><time>2026-04-06T10:16:00Z</time></trkpt><trkpt lat="43.052613177843526" lon="11.033403924505075"><ele>467.5</ele><time>2026-04-06T10:16:01Z</time></trkpt><trkpt lat="43.052367545383866" lon="11.03345421251421"><ele>467.0</ele><time>2026-04-06T10:16:02Z</time></trkpt><trkpt lat="43.052178243307324" lon="11.033554326188787"><ele>467.0</ele><time>2026-04-06T10:16:03Z</time></trkpt><trkpt lat="43.05202624030696" lon="11.033651634062068"><ele>467.0</ele><time>2026-04-06T10:16:04Z</time></trkpt><trkpt lat="43.051897495626775" lon="11.033682931545183"><ele>467.0</ele><time>2026-04-06T10:16:05Z</time></trkpt><trkpt lat="43.05179073531232" lon="11.033629753375344"><ele>467.0</ele><time>2026-04-06T10:16:06Z</time></trkpt><trkpt lat="43.0516656297441" lon="11.033545199110508"><ele>464.66666666666663</ele><time>2026-04-06T10:16:07Z</time></trkpt><trkpt lat="43.05153455254366" lon="11.033319617100409"><ele>462.33333333333337</ele><time>2026-04-06T10:16:08Z</time></trkpt><trkpt lat="43.05145550687035" lon="11.033129154919044"><ele>460.0</ele><time>2026-04-06T10:16:09Z</time></trkpt><trkpt lat="43.05133577099998" lon="11.033105178871073"><ele>460.0</ele><time>2026-04-06T10:16:10Z</time></trkpt><trkpt lat="43.051199527570226" lon="11.033176335872726"><ele>460.0</ele><time>2026-04-06T10:16:11Z</time></trkpt><trkpt lat="43.051060472778104" lon="11.033304205892762"><ele>460.0</ele><time>2026-04-06T10:16:12Z</time></trkpt><trkpt lat="43.05091706561958" lon="11.033459913839222"><ele>459.6666666666667</ele><time>2026-04-06T10:16:13Z</time></trkpt><trkpt lat="43.05074180003256" lon="11.033546618581951"><ele>459.33333333333337</ele><time>2026-04-06T10:16:14Z</time></trkpt><trkpt lat="43.05053231543622" lon="11.03362188820202"><ele>459.0</ele><time>2026-04-06T10:16:15Z</time></trkpt><trkpt lat="43.05031687068968" lon="11.033742590574096"><ele>459.0</ele><time>2026-04-06T10:16:16Z</time></trkpt><trkpt lat="43.05009155669334" lon="11.033896049715231"><ele>459.0</ele><time>2026-04-06T10:16:17Z</time></trkpt><trkpt lat="43.04988491756454" lon="11.034093183831079"><ele>458.33333333333337</ele><time>2026-04-06T10:16:18Z</time></trkpt><trkpt lat="43.04972423531535" lon="11.03427408504637"><ele>457.6666666666667</ele><time>2026-04-06T10:16:19Z</time></trkpt><trkpt lat="43.04956560341439" lon="11.034458017805756"><ele>457.0</ele><time>2026-04-06T10:16:20Z</time></trkpt><trkpt lat="43.049428638158105" lon="11.034705775725525"><ele>457.0</ele><time>2026-04-06T10:16:21Z</time></trkpt><trkpt lat="43.049271256491714" lon="11.034930941289282"><ele>457.0</ele><time>2026-04-06T10:16:22Z</time></trkpt><trkpt lat="43.04906387040982" lon="11.035099722183817"><ele>456.5</ele><time>2026-04-06T10:16:23Z</time></trkpt><trkpt lat="43.048840557081554" lon="11.03528119606718"><ele>456.0</ele><time>2026-04-06T10:16:24Z</time></trkpt><trkpt lat="43.04860563528738" lon="11.035505841034581"><ele>456.0</ele><time>2026-04-06T10:16:25Z</time></trkpt><trkpt lat="43.048360036399984" lon="11.035772305620648"><ele>456.0</ele><time>2026-04-06T10:16:26Z</time></trkpt><trkpt lat="43.04810286666164" lon="11.036078472015157"><ele>455.5</ele><time>2026-04-06T10:16:27Z</time></trkpt><trkpt lat="43.047856915475975" lon="11.03639088644836"><ele>455.0</ele><time>2026-04-06T10:16:28Z</time></trkpt><trkpt lat="43.047613567609496" lon="11.036628697984527"><ele>452.0</ele><time>2026-04-06T10:16:29Z</time></trkpt><trkpt lat="43.047395900950434" lon="11.036831715976279"><ele>449.0</ele><time>2026-04-06T10:16:30Z</time></trkpt><trkpt lat="43.04716401774395" lon="11.037035001477154"><ele>449.0</ele><time>2026-04-06T10:16:31Z</time></trkpt><trkpt lat="43.04691545161676" lon="11.03722541098786"><ele>449.0</ele><time>2026-04-06T10:16:32Z</time></trkpt><trkpt lat="43.04665885809529" lon="11.037359101141233"><ele>447.3333333333333</ele><time>2026-04-06T10:16:33Z</time></trkpt><trkpt lat="43.04643556653354" lon="11.037468064535675"><ele>445.66666666666663</ele><time>2026-04-06T10:16:34Z</time></trkpt><trkpt lat="43.04625053550766" lon="11.037605564890733"><ele>444.0</ele><time>2026-04-06T10:16:35Z</time></trkpt><trkpt lat="43.04606580983996" lon="11.037803198004196"><ele>446.0</ele><time>2026-04-06T10:16:36Z</time></trkpt><trkpt lat="43.045855978897116" lon="11.038037737446686"><ele>448.0</ele><time>2026-04-06T10:16:37Z</time></trkpt><trkpt lat="43.04564037832412" lon="11.038291428145174"><ele>445.5</ele><time>2026-04-06T10:16:38Z</time></trkpt><trkpt lat="43.0454125730781" lon="11.038570276464927"><ele>443.0</ele><time>2026-04-06T10:16:39Z</time></trkpt><trkpt lat="43.04516989311644" lon="11.038868750157802"><ele>445.5</ele><time>2026-04-06T10:16:40Z</time></trkpt><trkpt lat="43.044894249355664" lon="11.039208559115796"><ele>448.0</ele><time>2026-04-06T10:16:41Z</time></trkpt><trkpt lat="43.044640946392356" lon="11.039517748469915"><ele>448.0</ele><time>2026-04-06T10:16:42Z</time></trkpt><trkpt lat="43.04441727080543" lon="11.039798343787735"><ele>448.0</ele><time>2026-04-06T10:16:43Z</time></trkpt><trkpt lat="43.0442043162343" lon="11.040048587788618"><ele>447.5</ele><time>2026-04-06T10:16:44Z</time></trkpt><trkpt lat="43.04401345896139" lon="11.040268968004803"><ele>447.0</ele><time>2026-04-06T10:16:45Z</time></trkpt><trkpt lat="43.043829595967566" lon="11.040490809574381"><ele>447.0</ele><time>2026-04-06T10:16:46Z</time></trkpt><trkpt lat="43.04361568028519" lon="11.040696788705281"><ele>447.0</ele><time>2026-04-06T10:16:47Z</time></trkpt><trkpt lat="43.04339518264184" lon="11.040883065035159"><ele>449.66666666666663</ele><time>2026-04-06T10:16:48Z</time></trkpt><trkpt lat="43.04319390121878" lon="11.041023846870985"><ele>452.3333333333333</ele><time>2026-04-06T10:16:49Z</time></trkpt><trkpt lat="43.04302447061353" lon="11.041151547253392"><ele>455.0</ele><time>2026-04-06T10:16:50Z</time></trkpt><trkpt lat="43.042924480462" lon="11.041307981611919"><ele>455.0</ele><time>2026-04-06T10:16:51Z</time></trkpt><trkpt lat="43.04281355923667" lon="11.04148542839398"><ele>455.0</ele><time>2026-04-06T10:16:52Z</time></trkpt><trkpt lat="43.04269324882933" lon="11.041705467029242"><ele>455.0</ele><time>2026-04-06T10:16:53Z</time></trkpt><trkpt lat="43.0426139946457" lon="11.041961306892583"><ele>448.5</ele><time>2026-04-06T10:16:54Z</time></trkpt><trkpt lat="43.042578168361715" lon="11.042256457106655"><ele>442.0</ele><time>2026-04-06T10:16:55Z</time></trkpt><trkpt lat="43.042565996985054" lon="11.04261215802983"><ele>442.0</ele><time>2026-04-06T10:16:56Z</time></trkpt><trkpt lat="43.04255366072919" lon="11.043026191781296"><ele>442.0</ele><time>2026-04-06T10:16:57Z</time></trkpt><trkpt lat="43.04253607340163" lon="11.043488572138045"><ele>442.0</ele><time>2026-04-06T10:16:58Z</time></trkpt><trkpt lat="43.042505055481875" lon="11.043922326429817"><ele>442.0</ele><time>2026-04-06T10:16:59Z</time></trkpt><trkpt lat="43.042473185868204" lon="11.044288713109164"><ele>442.5</ele><time>2026-04-06T10:17:00Z</time></trkpt><trkpt lat="43.04245711442771" lon="11.044626812249273"><ele>443.0</ele><time>2026-04-06T10:17:01Z</time></trkpt><trkpt lat="43.042475525120835" lon="11.044980287314704"><ele>443.0</ele><time>2026-04-06T10:17:02Z</time></trkpt><trkpt lat="43.042513448505375" lon="11.045354907960613"><ele>443.0</ele><time>2026-04-06T10:17:03Z</time></trkpt><trkpt lat="43.04253930289635" lon="11.045681744229762"><ele>442.66666666666663</ele><time>2026-04-06T10:17:04Z</time></trkpt><trkpt lat="43.042562017211324" lon="11.045965583828503"><ele>442.33333333333337</ele><time>2026-04-06T10:17:05.001Z</time></trkpt><trkpt lat="43.04255115379103" lon="11.046254910944501"><ele>442.0</ele><time>2026-04-06T10:17:06.001Z</time></trkpt><trkpt lat="43.042506724443676" lon="11.046534956255186"><ele>441.0</ele><time>2026-04-06T10:17:07.001Z</time></trkpt><trkpt lat="43.04245143347152" lon="11.046765525637538"><ele>440.0</ele><time>2026-04-06T10:17:08.001Z</time></trkpt><trkpt lat="43.042436148733294" lon="11.046989495152614"><ele>439.0</ele><time>2026-04-06T10:17:09.001Z</time></trkpt><trkpt lat="43.04247182169296" lon="11.04721755148684"><ele>439.0</ele><time>2026-04-06T10:17:10.001Z</time></trkpt><trkpt lat="43.04256014397333" lon="11.047451187977442"><ele>439.0</ele><time>2026-04-06T10:17:11.001Z</time></trkpt><trkpt lat="43.042673019831476" lon="11.047699949531204"><ele>439.0</ele><time>2026-04-06T10:17:12.001Z</time></trkpt><trkpt lat="43.042759236913746" lon="11.047913719327523"><ele>437.33333333333337</ele><time>2026-04-06T10:17:13.001Z</time></trkpt><trkpt lat="43.04281042086207" lon="11.048136671801869"><ele>435.66666666666663</ele><time>2026-04-06T10:17:14.001Z</time></trkpt><trkpt lat="43.04281581518265" lon="11.048349298654815"><ele>434.0</ele><time>2026-04-06T10:17:15.001Z</time></trkpt><trkpt lat="43.042762650468006" lon="11.048560057725727"><ele>434.0</ele><time>2026-04-06T10:17:16.001Z</time></trkpt><trkpt lat="43.04268059934504" lon="11.048781675910229"><ele>434.0</ele><time>2026-04-06T10:17:17.001Z</time></trkpt><trkpt lat="43.04260184436919" lon="11.0490316958125"><ele>434.0</ele><time>2026-04-06T10:17:18.001Z</time></trkpt><trkpt lat="43.042472899338854" lon="11.049296253203558"><ele>446.5</ele><time>2026-04-06T10:17:19.001Z</time></trkpt><trkpt lat="43.042300167722274" lon="11.049577553635272"><ele>459.0</ele><time>2026-04-06T10:17:20.001Z</time></trkpt><trkpt lat="43.04211562250536" lon="11.049878858526238"><ele>453.0</ele><time>2026-04-06T10:17:21.001Z</time></trkpt><trkpt lat="43.04194592334237" lon="11.050189205448785"><ele>447.0</ele><time>2026-04-06T10:17:22.001Z</time></trkpt><trkpt lat="43.04181279215598" lon="11.050458330605094"><ele>447.0</ele><time>2026-04-06T10:17:23.001Z</time></trkpt><trkpt lat="43.04167942771066" lon="11.050670734787273"><ele>447.0</ele><time>2026-04-06T10:17:24.001Z</time></trkpt><trkpt lat="43.04151413183004" lon="11.050842469988316"><ele>447.0</ele><time>2026-04-06T10:17:25.001Z</time></trkpt><trkpt lat="43.04131977998536" lon="11.05098853773442"><ele>450.5</ele><time>2026-04-06T10:17:26.001Z</time></trkpt><trkpt lat="43.04111555249694" lon="11.051152425958822"><ele>454.0</ele><time>2026-04-06T10:17:27.001Z</time></trkpt><trkpt lat="43.040931464814165" lon="11.051378151900071"><ele>451.33333333333337</ele><time>2026-04-06T10:17:28.001Z</time></trkpt><trkpt lat="43.04078513571961" lon="11.051625730089347"><ele>448.66666666666663</ele><time>2026-04-06T10:17:29.001Z</time></trkpt><trkpt lat="43.0406854933829" lon="11.05186064811129"><ele>446.0</ele><time>2026-04-06T10:17:30.001Z</time></trkpt><trkpt lat="43.04059578758368" lon="11.052033765326009"><ele>446.0</ele><time>2026-04-06T10:17:31.001Z</time></trkpt><trkpt lat="43.04050098016428" lon="11.052132793432158"><ele>446.0</ele><time>2026-04-06T10:17:32.001Z</time></trkpt><trkpt lat="43.040386712155474" lon="11.052168962579682"><ele>446.0</ele><time>2026-04-06T10:17:33.001Z</time></trkpt><trkpt lat="43.040242226214225" lon="11.052141554447745"><ele>446.0</ele><time>2026-04-06T10:17:34.001Z</time></trkpt><trkpt lat="43.040087363155976" lon="11.052104460896778"><ele>452.3333333333333</ele><time>2026-04-06T10:17:35.001Z</time></trkpt><trkpt lat="43.0399339194447" lon="11.052124388479301"><ele>458.66666666666663</ele><time>2026-04-06T10:17:36.001Z</time></trkpt><trkpt lat="43.03979106567489" lon="11.052223039821925"><ele>465.0</ele><time>2026-04-06T10:17:37.001Z</time></trkpt><trkpt lat="43.03962933679056" lon="11.052390891305597"><ele>457.0</ele><time>2026-04-06T10:17:38.001Z</time></trkpt><trkpt lat="43.03946450246389" lon="11.052611023720775"><ele>449.0</ele><time>2026-04-06T10:17:39.001Z</time></trkpt><trkpt lat="43.03927501608328" lon="11.052850449414809"><ele>451.0</ele><time>2026-04-06T10:17:40.001Z</time></trkpt><trkpt lat="43.03908437570105" lon="11.053136874027782"><ele>453.0</ele><time>2026-04-06T10:17:41.001Z</time></trkpt><trkpt lat="43.03894247687527" lon="11.05343558815418"><ele>453.0</ele><time>2026-04-06T10:17:42.001Z</time></trkpt><trkpt lat="43.038826510330395" lon="11.053663946329952"><ele>453.0</ele><time>2026-04-06T10:17:43.001Z</time></trkpt><trkpt lat="43.03871812501708" lon="11.053848893142389"><ele>453.0</ele><time>2026-04-06T10:17:44.001Z</time></trkpt><trkpt lat="43.038600400792944" lon="11.054016631112834"><ele>453.0</ele><time>2026-04-06T10:17:45.001Z</time></trkpt><trkpt lat="43.038426694554" lon="11.054098531130663"><ele>453.0</ele><time>2026-04-06T10:17:46.001Z</time></trkpt><trkpt lat="43.038225438515624" lon="11.054204932469831"><ele>453.0</ele><time>2026-04-06T10:17:47.001Z</time></trkpt><trkpt lat="43.038037016583786" lon="11.054294983698814"><ele>451.66666666666663</ele><time>2026-04-06T10:17:48.001Z</time></trkpt><trkpt lat="43.03787458768239" lon="11.054404559354658"><ele>450.3333333333333</ele><time>2026-04-06T10:17:49.001Z</time></trkpt><trkpt lat="43.03772763384717" lon="11.054606899785009"><ele>449.0</ele><time>2026-04-06T10:17:50.001Z</time></trkpt><trkpt lat="43.03761781066225" lon="11.054799651070905"><ele>449.0</ele><time>2026-04-06T10:17:51.001Z</time></trkpt><trkpt lat="43.037493522099744" lon="11.054915176565839"><ele>449.0</ele><time>2026-04-06T10:17:52.001Z</time></trkpt><trkpt lat="43.03736871571189" lon="11.055001650397935"><ele>449.0</ele><time>2026-04-06T10:17:53.001Z</time></trkpt><trkpt lat="43.037232027008095" lon="11.054996485977078"><ele>449.0</ele><time>2026-04-06T10:17:54.001Z</time></trkpt><trkpt lat="43.03707474019416" lon="11.05491414486333"><ele>449.0</ele><time>2026-04-06T10:17:55.001Z</time></trkpt><trkpt lat="43.03696252601079" lon="11.054847311068134"><ele>449.0</ele><time>2026-04-06T10:17:56.001Z</time></trkpt><trkpt lat="43.03685640574458" lon="11.054937879745987"><ele>449.0</ele><time>2026-04-06T10:17:57.001Z</time></trkpt><trkpt lat="43.03677970856838" lon="11.055093154827684"><ele>449.0</ele><time>2026-04-06T10:17:58.001Z</time></trkpt><trkpt lat="43.03672970483512" lon="11.055300486205939"><ele>449.0</ele><time>2026-04-06T10:17:59Z</time></trkpt><trkpt lat="43.03667137017524" lon="11.055547349579994"><ele>449.0</ele><time>2026-04-06T10:18:00Z</time></trkpt><trkpt lat="43.03657515161267" lon="11.055782314134845"><ele>449.0</ele><time>2026-04-06T10:18:01Z</time></trkpt><trkpt lat="43.03646436219236" lon="11.056087556511953"><ele>446.66666666666663</ele><time>2026-04-06T10:18:02Z</time></trkpt><trkpt lat="43.03634194093029" lon="11.056329955626772"><ele>444.33333333333337</ele><time>2026-04-06T10:18:03Z</time></trkpt><trkpt lat="43.03626016053632" lon="11.056552161592357"><ele>442.0</ele><time>2026-04-06T10:18:04Z</time></trkpt><trkpt lat="43.036147053817096" lon="11.056767175215708"><ele>442.0</ele><time>2026-04-06T10:18:05Z</time></trkpt><trkpt lat="43.03594997071853" lon="11.056963414159108"><ele>442.0</ele><time>2026-04-06T10:18:06Z</time></trkpt><trkpt lat="43.035696461965244" lon="11.05703153895271"><ele>442.6666666666667</ele><time>2026-04-06T10:18:07Z</time></trkpt><trkpt lat="43.03552768351518" lon="11.057175822004636"><ele>443.33333333333337</ele><time>2026-04-06T10:18:08Z</time></trkpt><trkpt lat="43.035315303562136" lon="11.057243466158154"><ele>444.0</ele><time>2026-04-06T10:18:09Z</time></trkpt><trkpt lat="43.03513453904739" lon="11.057282448205521"><ele>445.33333333333337</ele><time>2026-04-06T10:18:10Z</time></trkpt><trkpt lat="43.03495917745876" lon="11.057225524760629"><ele>446.6666666666667</ele><time>2026-04-06T10:18:11Z</time></trkpt><trkpt lat="43.034745192942054" lon="11.057081895831969"><ele>448.0</ele><time>2026-04-06T10:18:12Z</time></trkpt><trkpt lat="43.03462276293658" lon="11.056992837977113"><ele>448.0</ele><time>2026-04-06T10:18:13Z</time></trkpt><trkpt lat="43.034521232809524" lon="11.056890509153515"><ele>448.0</ele><time>2026-04-06T10:18:14Z</time></trkpt><trkpt lat="43.034394957968836" lon="11.056983327587899"><ele>448.0</ele><time>2026-04-06T10:18:15Z</time></trkpt><trkpt lat="43.03428198361996" lon="11.057131280627026"><ele>448.0</ele><time>2026-04-06T10:18:16Z</time></trkpt><trkpt lat="43.03420412306332" lon="11.057336363272428"><ele>449.0</ele><time>2026-04-06T10:18:17Z</time></trkpt><trkpt lat="43.034144862610184" lon="11.05752211367449"><ele>450.0</ele><time>2026-04-06T10:18:18Z</time></trkpt><trkpt lat="43.034057798252725" lon="11.057663600970287"><ele>451.0</ele><time>2026-04-06T10:18:19Z</time></trkpt><trkpt lat="43.03392022528657" lon="11.057778997367489"><ele>452.0</ele><time>2026-04-06T10:18:20Z</time></trkpt><trkpt lat="43.033765280196164" lon="11.057875374796156"><ele>452.0</ele><time>2026-04-06T10:18:21Z</time></trkpt><trkpt lat="43.0335915695517" lon="11.057931254756127"><ele>452.0</ele><time>2026-04-06T10:18:22Z</time></trkpt><trkpt lat="43.03335723104654" lon="11.057875563390526"><ele>452.0</ele><time>2026-04-06T10:18:23Z</time></trkpt><trkpt lat="43.03321603977266" lon="11.05784003245292"><ele>452.75</ele><time>2026-04-06T10:18:24Z</time></trkpt><trkpt lat="43.03305934725285" lon="11.057777506486149"><ele>453.5</ele><time>2026-04-06T10:18:25Z</time></trkpt><trkpt lat="43.03296913967747" lon="11.057856573015433"><ele>454.25</ele><time>2026-04-06T10:18:26Z</time></trkpt><trkpt lat="43.03291535120561" lon="11.057980650288979"><ele>455.0</ele><time>2026-04-06T10:18:27Z</time></trkpt><trkpt lat="43.032894859608334" lon="11.058153053596925"><ele>452.0</ele><time>2026-04-06T10:18:28Z</time></trkpt><trkpt lat="43.03296175265781" lon="11.058335002441058"><ele>449.0</ele><time>2026-04-06T10:18:29Z</time></trkpt><trkpt lat="43.03307186034938" lon="11.058512567982076"><ele>446.0</ele><time>2026-04-06T10:18:30Z</time></trkpt><trkpt lat="43.03316692800844" lon="11.0587099527632"><ele>446.0</ele><time>2026-04-06T10:18:31Z</time></trkpt><trkpt lat="43.03320928654069" lon="11.058894215950383"><ele>446.0</ele><time>2026-04-06T10:18:32Z</time></trkpt><trkpt lat="43.03321426148515" lon="11.059072336923046"><ele>446.0</ele><time>2026-04-06T10:18:33Z</time></trkpt><trkpt lat="43.033158064386335" lon="11.059263277371782"><ele>446.0</ele><time>2026-04-06T10:18:34Z</time></trkpt><trkpt lat="43.03303791937531" lon="11.059560032122725"><ele>454.0</ele><time>2026-04-06T10:18:35Z</time></trkpt><trkpt lat="43.03296194045164" lon="11.059860760707421"><ele>462.0</ele><time>2026-04-06T10:18:36Z</time></trkpt><trkpt lat="43.032895867067005" lon="11.060215082466947"><ele>463.5</ele><time>2026-04-06T10:18:37Z</time></trkpt><trkpt lat="43.032776114352146" lon="11.060495995010092"><ele>465.0</ele><time>2026-04-06T10:18:38Z</time></trkpt><trkpt lat="43.032644543716145" lon="11.060764747276217"><ele>471.5</ele><time>2026-04-06T10:18:39Z</time></trkpt><trkpt lat="43.03245904031175" lon="11.06099884021415"><ele>478.0</ele><time>2026-04-06T10:18:40Z</time></trkpt><trkpt lat="43.032355695386215" lon="11.06126156398021"><ele>478.0</ele><time>2026-04-06T10:18:41Z</time></trkpt><trkpt lat="43.03229655119935" lon="11.061546927358805"><ele>478.0</ele><time>2026-04-06T10:18:42Z</time></trkpt><trkpt lat="43.032286304076514" lon="11.061842599254026"><ele>478.0</ele><time>2026-04-06T10:18:43Z</time></trkpt><trkpt lat="43.03230734293576" lon="11.062141191698265"><ele>476.0</ele><time>2026-04-06T10:18:44Z</time></trkpt><trkpt lat="43.03236716094525" lon="11.062410572611244"><ele>474.0</ele><time>2026-04-06T10:18:45Z</time></trkpt><trkpt lat="43.03239898338977" lon="11.062637091623222"><ele>472.0</ele><time>2026-04-06T10:18:46Z</time></trkpt><trkpt lat="43.032437851372535" lon="11.062816667093447"><ele>470.0</ele><time>2026-04-06T10:18:47Z</time></trkpt><trkpt lat="43.03248115379907" lon="11.063003023418187"><ele>468.0</ele><time>2026-04-06T10:18:48Z</time></trkpt><trkpt lat="43.032549138108976" lon="11.063190237913817"><ele>466.0</ele><time>2026-04-06T10:18:49Z</time></trkpt><trkpt lat="43.03262137296497" lon="11.063364006535345"><ele>464.0</ele><time>2026-04-06T10:18:50Z</time></trkpt><trkpt lat="43.03270119522206" lon="11.06351902390583"><ele>464.0</ele><time>2026-04-06T10:18:51Z</time></trkpt><trkpt lat="43.032784649217234" lon="11.06366413327811"><ele>464.0</ele><time>2026-04-06T10:18:52Z</time></trkpt><trkpt lat="43.032870178878554" lon="11.06380083166588"><ele>464.0</ele><time>2026-04-06T10:18:53Z</time></trkpt><trkpt lat="43.03294192920998" lon="11.063938925745767"><ele>464.0</ele><time>2026-04-06T10:18:54Z</time></trkpt><trkpt lat="43.03300836645115" lon="11.064079914281905"><ele>465.5</ele><time>2026-04-06T10:18:55Z</time></trkpt><trkpt lat="43.03307847294921" lon="11.064212329211918"><ele>467.0</ele><time>2026-04-06T10:18:56Z</time></trkpt><trkpt lat="43.03314305114371" lon="11.064348255683383"><ele>468.5</ele><time>2026-04-06T10:18:57Z</time></trkpt><trkpt lat="43.033197510387524" lon="11.064486059439755"><ele>470.0</ele><time>2026-04-06T10:18:58Z</time></trkpt><trkpt lat="43.033239739392386" lon="11.064606434828258"><ele>469.99999999999994</ele><time>2026-04-06T10:18:59Z</time></trkpt><trkpt lat="43.03326706742669" lon="11.064722409233221"><ele>470.0</ele><time>2026-04-06T10:19:00Z</time></trkpt><trkpt lat="43.03329029352037" lon="11.064838292834981"><ele>470.0</ele><time>2026-04-06T10:19:01Z</time></trkpt><trkpt lat="43.033313830953695" lon="11.06494054972681"><ele>470.0</ele><time>2026-04-06T10:19:02Z</time></trkpt><trkpt lat="43.03333183208955" lon="11.065051227368922"><ele>469.99999999999994</ele><time>2026-04-06T10:19:04Z</time></trkpt><trkpt lat="43.03329849560591" lon="11.065126848161931"><ele>470.0</ele><time>2026-04-06T10:19:06Z</time></trkpt><trkpt lat="43.03322759237233" lon="11.065149206970107"><ele>469.99999999999994</ele><time>2026-04-06T10:19:08Z</time></trkpt><trkpt lat="43.033160872351964" lon="11.065148852798751"><ele>470.0</ele><time>2026-04-06T10:19:10Z</time></trkpt><trkpt lat="43.033092247413364" lon="11.06509744243021"><ele>470.0</ele><time>2026-04-06T10:19:12.001Z</time></trkpt><trkpt lat="43.03302629843443" lon="11.065033010638277"><ele>470.0</ele><time>2026-04-06T10:20:54Z</time></trkpt><trkpt lat="43.032969315087584" lon="11.064995559662467"><ele>469.99999999999994</ele><time>2026-04-06T10:20:55Z</time></trkpt><trkpt lat="43.03289335857065" lon="11.064948364874537"><ele>470.0</ele><time>2026-04-06T10:20:56Z</time></trkpt><trkpt lat="43.032777499470285" lon="11.064898800248093"><ele>470.0</ele><time>2026-04-06T10:20:57Z</time></trkpt><trkpt lat="43.03264866947768" lon="11.064828456800486"><ele>470.0</ele><time>2026-04-06T10:20:58Z</time></trkpt><trkpt lat="43.03251388157127" lon="11.064770679445617"><ele>470.0</ele><time>2026-04-06T10:20:59Z</time></trkpt><trkpt lat="43.0323629844782" lon="11.064678026666225"><ele>470.0</ele><time>2026-04-06T10:21:00Z</time></trkpt><trkpt lat="43.032206243935896" lon="11.064599275858512"><ele>466.3333333333333</ele><time>2026-04-06T10:21:01Z</time></trkpt><trkpt lat="43.03205273666446" lon="11.064518129227041"><ele>462.66666666666663</ele><time>2026-04-06T10:21:02Z</time></trkpt><trkpt lat="43.031920749782486" lon="11.064429803413915"><ele>459.0</ele><time>2026-04-06T10:21:03Z</time></trkpt><trkpt lat="43.031806081711714" lon="11.064321628028646"><ele>459.0</ele><time>2026-04-06T10:21:04Z</time></trkpt><trkpt lat="43.03167434307233" lon="11.064151891240288"><ele>459.0</ele><time>2026-04-06T10:21:05Z</time></trkpt><trkpt lat="43.031519377792705" lon="11.063957450628351"><ele>459.0</ele><time>2026-04-06T10:21:06Z</time></trkpt><trkpt lat="43.03135654538856" lon="11.063755599585773"><ele>459.0</ele><time>2026-04-06T10:21:07Z</time></trkpt><trkpt lat="43.0311849188459" lon="11.063549510170153"><ele>459.0</ele><time>2026-04-06T10:21:08Z</time></trkpt><trkpt lat="43.03104301487025" lon="11.063367215276237"><ele>459.0</ele><time>2026-04-06T10:21:09Z</time></trkpt><trkpt lat="43.03091040075166" lon="11.063206715528377"><ele>461.66666666666663</ele><time>2026-04-06T10:21:10Z</time></trkpt><trkpt lat="43.03078448996062" lon="11.063068727402154"><ele>464.3333333333333</ele><time>2026-04-06T10:21:11Z</time></trkpt><trkpt lat="43.03065613166656" lon="11.062968023900687"><ele>467.0</ele><time>2026-04-06T10:21:12Z</time></trkpt><trkpt lat="43.03051100041865" lon="11.062914459340716"><ele>467.0</ele><time>2026-04-06T10:21:13Z</time></trkpt><trkpt lat="43.03034225015538" lon="11.06290399531956"><ele>467.0</ele><time>2026-04-06T10:21:14Z</time></trkpt><trkpt lat="43.0301702182391" lon="11.062961631982088"><ele>467.0</ele><time>2026-04-06T10:21:15Z</time></trkpt><trkpt lat="43.029993336313396" lon="11.063072699965199"><ele>466.0</ele><time>2026-04-06T10:21:16Z</time></trkpt><trkpt lat="43.02982997853838" lon="11.063181054345346"><ele>465.0</ele><time>2026-04-06T10:21:17Z</time></trkpt><trkpt lat="43.029642805272324" lon="11.06323986163895"><ele>464.0</ele><time>2026-04-06T10:21:18Z</time></trkpt><trkpt lat="43.029443061542786" lon="11.063278810822933"><ele>466.0</ele><time>2026-04-06T10:21:19Z</time></trkpt><trkpt lat="43.02924002285356" lon="11.063297771998634"><ele>468.0</ele><time>2026-04-06T10:21:20Z</time></trkpt><trkpt lat="43.029068217530764" lon="11.063292306947645"><ele>470.0</ele><time>2026-04-06T10:21:21Z</time></trkpt><trkpt lat="43.02891559901709" lon="11.063250927463507"><ele>470.0</ele><time>2026-04-06T10:21:22Z</time></trkpt><trkpt lat="43.02877726128668" lon="11.063207480479665"><ele>470.0</ele><time>2026-04-06T10:21:23Z</time></trkpt><trkpt lat="43.02866623159568" lon="11.063203050931284"><ele>470.0</ele><time>2026-04-06T10:21:24Z</time></trkpt><trkpt lat="43.028562880252345" lon="11.06327319555564"><ele>470.0</ele><time>2026-04-06T10:21:25.001Z</time></trkpt><trkpt lat="43.02845892544278" lon="11.063422563144243"><ele>470.0</ele><time>2026-04-06T10:21:26.001Z</time></trkpt><trkpt lat="43.028377937521206" lon="11.063623440139475"><ele>470.0</ele><time>2026-04-06T10:21:27.001Z</time></trkpt><trkpt lat="43.02830074421126" lon="11.063877476225755"><ele>470.0</ele><time>2026-04-06T10:21:28.001Z</time></trkpt><trkpt lat="43.028201446460805" lon="11.064143546537409"><ele>465.5</ele><time>2026-04-06T10:21:29.001Z</time></trkpt><trkpt lat="43.02807257313713" lon="11.064407423976643"><ele>461.0</ele><time>2026-04-06T10:21:30.001Z</time></trkpt><trkpt lat="43.02793358389553" lon="11.064641019156195"><ele>461.0</ele><time>2026-04-06T10:21:31.001Z</time></trkpt><trkpt lat="43.027831605437136" lon="11.064857769519126"><ele>461.0</ele><time>2026-04-06T10:21:32.001Z</time></trkpt><trkpt lat="43.02778835521238" lon="11.06506763224643"><ele>461.0</ele><time>2026-04-06T10:21:33.001Z</time></trkpt><trkpt lat="43.02776047300554" lon="11.065255871307375"><ele>456.0</ele><time>2026-04-06T10:21:34.001Z</time></trkpt><trkpt lat="43.02770364344769" lon="11.065407194086777"><ele>451.0</ele><time>2026-04-06T10:21:35.001Z</time></trkpt><trkpt lat="43.02762516639042" lon="11.065508860128215"><ele>446.0</ele><time>2026-04-06T10:21:36.001Z</time></trkpt><trkpt lat="43.02751411355843" lon="11.065562347775254"><ele>441.0</ele><time>2026-04-06T10:21:37.001Z</time></trkpt><trkpt lat="43.02738919082832" lon="11.065542825675744"><ele>436.66666666666663</ele><time>2026-04-06T10:21:38.001Z</time></trkpt><trkpt lat="43.02725985712739" lon="11.06545913101511"><ele>432.3333333333333</ele><time>2026-04-06T10:21:39.001Z</time></trkpt><trkpt lat="43.02712829520641" lon="11.06530823720735"><ele>428.0</ele><time>2026-04-06T10:21:40.001Z</time></trkpt><trkpt lat="43.026952247946305" lon="11.065166448247272"><ele>428.0</ele><time>2026-04-06T10:21:41.001Z</time></trkpt><trkpt lat="43.02677021145635" lon="11.064966269152164"><ele>428.0</ele><time>2026-04-06T10:21:42.001Z</time></trkpt><trkpt lat="43.026565840813475" lon="11.064789534603038"><ele>429.0</ele><time>2026-04-06T10:21:43.001Z</time></trkpt><trkpt lat="43.02640562156134" lon="11.06461690829729"><ele>430.0</ele><time>2026-04-06T10:21:44.001Z</time></trkpt><trkpt lat="43.02626697740988" lon="11.064486325779646"><ele>431.0</ele><time>2026-04-06T10:21:45.001Z</time></trkpt><trkpt lat="43.02611619779923" lon="11.064413526510627"><ele>431.0</ele><time>2026-04-06T10:21:46.001Z</time></trkpt><trkpt lat="43.025943850176255" lon="11.064422331010391"><ele>431.0</ele><time>2026-04-06T10:21:47.001Z</time></trkpt><trkpt lat="43.025757666425335" lon="11.064450090095011"><ele>431.0</ele><time>2026-04-06T10:21:48.001Z</time></trkpt><trkpt lat="43.02557684669813" lon="11.064455226197794"><ele>427.0</ele><time>2026-04-06T10:21:49.001Z</time></trkpt><trkpt lat="43.02538986830097" lon="11.06438822194274"><ele>423.0</ele><time>2026-04-06T10:21:50.001Z</time></trkpt><trkpt lat="43.025231262791955" lon="11.064303428042153"><ele>419.0</ele><time>2026-04-06T10:21:51.001Z</time></trkpt><trkpt lat="43.02510529660091" lon="11.064228983457"><ele>419.0</ele><time>2026-04-06T10:21:52.001Z</time></trkpt><trkpt lat="43.025019331148265" lon="11.064137007477381"><ele>419.0</ele><time>2026-04-06T10:21:53.001Z</time></trkpt><trkpt lat="43.02496444057338" lon="11.064017443278997"><ele>419.0</ele><time>2026-04-06T10:21:54.001Z</time></trkpt><trkpt lat="43.02496076561251" lon="11.063864327198136"><ele>419.0</ele><time>2026-04-06T10:21:55.001Z</time></trkpt><trkpt lat="43.025014145211834" lon="11.063701783299775"><ele>417.75</ele><time>2026-04-06T10:21:56.001Z</time></trkpt><trkpt lat="43.02505257723966" lon="11.063525462553713"><ele>416.5</ele><time>2026-04-06T10:21:57.001Z</time></trkpt><trkpt lat="43.02507964084458" lon="11.063344595116675"><ele>415.25</ele><time>2026-04-06T10:21:58.001Z</time></trkpt><trkpt lat="43.02504857852333" lon="11.063136165385707"><ele>414.0</ele><time>2026-04-06T10:21:59.001Z</time></trkpt><trkpt lat="43.02494639585078" lon="11.062911437712188"><ele>408.5</ele><time>2026-04-06T10:22:00.001Z</time></trkpt><trkpt lat="43.02481796809226" lon="11.06266057589917"><ele>403.0</ele><time>2026-04-06T10:22:01.001Z</time></trkpt><trkpt lat="43.02469777301108" lon="11.06237201540488"><ele>403.0</ele><time>2026-04-06T10:22:02.001Z</time></trkpt><trkpt lat="43.02456496963114" lon="11.062075047026154"><ele>403.0</ele><time>2026-04-06T10:22:03.001Z</time></trkpt><trkpt lat="43.02445553740071" lon="11.061792497130082"><ele>404.6666666666667</ele><time>2026-04-06T10:22:04.001Z</time></trkpt><trkpt lat="43.02437116199835" lon="11.061550955845199"><ele>406.33333333333337</ele><time>2026-04-06T10:22:05.001Z</time></trkpt><trkpt lat="43.024295398964995" lon="11.06137219214289"><ele>408.0</ele><time>2026-04-06T10:22:06.001Z</time></trkpt><trkpt lat="43.024191260842926" lon="11.0612344880394"><ele>404.75</ele><time>2026-04-06T10:22:07.001Z</time></trkpt><trkpt lat="43.02406112483989" lon="11.06116381959737"><ele>401.5</ele><time>2026-04-06T10:22:08.001Z</time></trkpt><trkpt lat="43.02392487836154" lon="11.061125629663042"><ele>398.25</ele><time>2026-04-06T10:22:09.001Z</time></trkpt><trkpt lat="43.023819143859455" lon="11.06102465776956"><ele>395.0</ele><time>2026-04-06T10:22:10.001Z</time></trkpt><trkpt lat="43.02372243436049" lon="11.060874413020205"><ele>396.66666666666663</ele><time>2026-04-06T10:22:11Z</time></trkpt><trkpt lat="43.02364520438378" lon="11.060674281668447"><ele>398.33333333333337</ele><time>2026-04-06T10:22:12Z</time></trkpt><trkpt lat="43.023618507861535" lon="11.060429922124195"><ele>400.0</ele><time>2026-04-06T10:22:13Z</time></trkpt><trkpt lat="43.0236022950132" lon="11.060160942661494"><ele>401.0</ele><time>2026-04-06T10:22:14Z</time></trkpt><trkpt lat="43.023482277295" lon="11.059944905491726"><ele>402.0</ele><time>2026-04-06T10:22:15Z</time></trkpt><trkpt lat="43.02331339204124" lon="11.059771753465684"><ele>403.0</ele><time>2026-04-06T10:22:16Z</time></trkpt><trkpt lat="43.023095472688205" lon="11.059610194729766"><ele>403.0</ele><time>2026-04-06T10:22:17Z</time></trkpt><trkpt lat="43.022844680540146" lon="11.059461856416053"><ele>403.0</ele><time>2026-04-06T10:22:18Z</time></trkpt><trkpt lat="43.0226100174639" lon="11.059310211272843"><ele>406.33333333333337</ele><time>2026-04-06T10:22:19Z</time></trkpt><trkpt lat="43.022417933252505" lon="11.059169336636689"><ele>409.66666666666663</ele><time>2026-04-06T10:22:20Z</time></trkpt><trkpt lat="43.0222397176718" lon="11.059052183780013"><ele>413.0</ele><time>2026-04-06T10:22:21Z</time></trkpt><trkpt lat="43.02206609281386" lon="11.0590156875651"><ele>413.0</ele><time>2026-04-06T10:22:22Z</time></trkpt><trkpt lat="43.02185454492345" lon="11.059010038178998"><ele>413.0</ele><time>2026-04-06T10:22:23Z</time></trkpt><trkpt lat="43.02161911885394" lon="11.059039185414886"><ele>413.0</ele><time>2026-04-06T10:22:24Z</time></trkpt><trkpt lat="43.021367960803374" lon="11.059045195837543"><ele>412.3333333333333</ele><time>2026-04-06T10:22:25Z</time></trkpt><trkpt lat="43.021145804737955" lon="11.05904644624225"><ele>411.66666666666663</ele><time>2026-04-06T10:22:26Z</time></trkpt><trkpt lat="43.02094774783885" lon="11.05901377580723"><ele>411.0</ele><time>2026-04-06T10:22:27Z</time></trkpt><trkpt lat="43.02078307710672" lon="11.058965790426578"><ele>411.0</ele><time>2026-04-06T10:22:28Z</time></trkpt><trkpt lat="43.020635906972274" lon="11.058915972010098"><ele>411.0</ele><time>2026-04-06T10:22:29Z</time></trkpt><trkpt lat="43.02052355512473" lon="11.058951271814186"><ele>411.0</ele><time>2026-04-06T10:22:30Z</time></trkpt><trkpt lat="43.020392973104194" lon="11.05905107836785"><ele>411.0</ele><time>2026-04-06T10:22:31Z</time></trkpt><trkpt lat="43.02028833230254" lon="11.059222987654875"><ele>408.25</ele><time>2026-04-06T10:22:32Z</time></trkpt><trkpt lat="43.02023342497166" lon="11.059445970380022"><ele>405.5</ele><time>2026-04-06T10:22:33Z</time></trkpt><trkpt lat="43.02017412517367" lon="11.059616339996415"><ele>402.75</ele><time>2026-04-06T10:22:34Z</time></trkpt><trkpt lat="43.02008344617549" lon="11.0597399509197"><ele>400.0</ele><time>2026-04-06T10:22:35Z</time></trkpt><trkpt lat="43.01994620594849" lon="11.059795808062033"><ele>400.0</ele><time>2026-04-06T10:22:36Z</time></trkpt><trkpt lat="43.019789402403084" lon="11.059870884594915"><ele>400.0</ele><time>2026-04-06T10:22:37Z</time></trkpt><trkpt lat="43.01960664958207" lon="11.059925314652967"><ele>400.0</ele><time>2026-04-06T10:22:38Z</time></trkpt><trkpt lat="43.019392972689175" lon="11.059938888445318"><ele>391.0</ele><time>2026-04-06T10:22:39Z</time></trkpt><trkpt lat="43.01914147083822" lon="11.059981208529013"><ele>382.0</ele><time>2026-04-06T10:22:40Z</time></trkpt><trkpt lat="43.018951198546276" lon="11.060054788034787"><ele>382.0</ele><time>2026-04-06T10:22:41Z</time></trkpt><trkpt lat="43.0187729110577" lon="11.060123677512331"><ele>382.0</ele><time>2026-04-06T10:22:42Z</time></trkpt><trkpt lat="43.018618861799624" lon="11.06018435784815"><ele>382.0</ele><time>2026-04-06T10:22:43Z</time></trkpt><trkpt lat="43.01843636873256" lon="11.060245366328841"><ele>380.0</ele><time>2026-04-06T10:22:44Z</time></trkpt><trkpt lat="43.01824272979852" lon="11.06026670328802"><ele>378.0</ele><time>2026-04-06T10:22:45Z</time></trkpt><trkpt lat="43.01804441364651" lon="11.060270175955162"><ele>376.0</ele><time>2026-04-06T10:22:46Z</time></trkpt><trkpt lat="43.017840918998154" lon="11.060253977615417"><ele>376.0</ele><time>2026-04-06T10:22:47Z</time></trkpt><trkpt lat="43.017614970689245" lon="11.060189393824285"><ele>376.0</ele><time>2026-04-06T10:22:48Z</time></trkpt><trkpt lat="43.01735117712148" lon="11.060124817999935"><ele>372.0</ele><time>2026-04-06T10:22:49Z</time></trkpt><trkpt lat="43.0171026550365" lon="11.060092081435016"><ele>368.0</ele><time>2026-04-06T10:22:50Z</time></trkpt><trkpt lat="43.016852982313544" lon="11.060100078841515"><ele>366.0</ele><time>2026-04-06T10:22:51Z</time></trkpt><trkpt lat="43.01661442900173" lon="11.060081547868098"><ele>364.0</ele><time>2026-04-06T10:22:52Z</time></trkpt><trkpt lat="43.016386184023766" lon="11.060083021583907"><ele>364.0</ele><time>2026-04-06T10:22:53Z</time></trkpt><trkpt lat="43.01617828878718" lon="11.060079299260325"><ele>364.0</ele><time>2026-04-06T10:22:54Z</time></trkpt><trkpt lat="43.01598053749559" lon="11.06006833219832"><ele>364.0</ele><time>2026-04-06T10:22:55Z</time></trkpt><trkpt lat="43.015800414966016" lon="11.060062619460865"><ele>364.0</ele><time>2026-04-06T10:22:56Z</time></trkpt><trkpt lat="43.01562851876491" lon="11.060051639891237"><ele>364.0</ele><time>2026-04-06T10:22:57Z</time></trkpt><trkpt lat="43.01546901322428" lon="11.059970871970695"><ele>364.0</ele><time>2026-04-06T10:22:58Z</time></trkpt><trkpt lat="43.01528929961537" lon="11.059863700467266"><ele>364.0</ele><time>2026-04-06T10:22:59Z</time></trkpt><trkpt lat="43.01504748299039" lon="11.059715067908028"><ele>364.0</ele><time>2026-04-06T10:23:00Z</time></trkpt><trkpt lat="43.014799707152484" lon="11.059569836823849"><ele>361.0</ele><time>2026-04-06T10:23:01Z</time></trkpt><trkpt lat="43.0145229854216" lon="11.059376362208258"><ele>358.0</ele><time>2026-04-06T10:23:02Z</time></trkpt><trkpt lat="43.01424055608854" lon="11.059223051191132"><ele>360.0</ele><time>2026-04-06T10:23:03Z</time></trkpt><trkpt lat="43.014010445518224" lon="11.059079750259457"><ele>362.0</ele><time>2026-04-06T10:23:04Z</time></trkpt><trkpt lat="43.0137864554433" lon="11.058946583714706"><ele>362.0</ele><time>2026-04-06T10:23:05Z</time></trkpt><trkpt lat="43.01357429202975" lon="11.058816344117503"><ele>362.0</ele><time>2026-04-06T10:23:06Z</time></trkpt><trkpt lat="43.013380688807246" lon="11.05868899935562"><ele>362.0</ele><time>2026-04-06T10:23:07Z</time></trkpt><trkpt lat="43.01319902189518" lon="11.058573063030721"><ele>361.6666666666667</ele><time>2026-04-06T10:23:08Z</time></trkpt><trkpt lat="43.013014336753606" lon="11.058512075086682"><ele>361.3333333333333</ele><time>2026-04-06T10:23:09Z</time></trkpt><trkpt lat="43.01279399990701" lon="11.058493564984335"><ele>361.0</ele><time>2026-04-06T10:23:10Z</time></trkpt><trkpt lat="43.01254997020363" lon="11.058487470870022"><ele>362.0</ele><time>2026-04-06T10:23:11Z</time></trkpt><trkpt lat="43.01230750663421" lon="11.058479166375859"><ele>363.0</ele><time>2026-04-06T10:23:12Z</time></trkpt><trkpt lat="43.01210137447324" lon="11.058483919736554"><ele>364.0</ele><time>2026-04-06T10:23:13Z</time></trkpt><trkpt lat="43.011910987830696" lon="11.058521986382974"><ele>364.0</ele><time>2026-04-06T10:23:14Z</time></trkpt><trkpt lat="43.01172903292735" lon="11.05858373071823"><ele>364.0</ele><time>2026-04-06T10:23:15Z</time></trkpt><trkpt lat="43.011552814249185" lon="11.05865282047593"><ele>364.0</ele><time>2026-04-06T10:23:16Z</time></trkpt><trkpt lat="43.011409663273085" lon="11.058722177727253"><ele>362.75</ele><time>2026-04-06T10:23:17Z</time></trkpt><trkpt lat="43.011277801835014" lon="11.05874682268981"><ele>361.5</ele><time>2026-04-06T10:23:18Z</time></trkpt><trkpt lat="43.01114944439743" lon="11.058723921219833"><ele>360.25</ele><time>2026-04-06T10:23:19Z</time></trkpt><trkpt lat="43.011033986205014" lon="11.05866518475693"><ele>359.0</ele><time>2026-04-06T10:23:20Z</time></trkpt><trkpt lat="43.0109094659014" lon="11.058545675097758"><ele>358.0</ele><time>2026-04-06T10:23:21Z</time></trkpt><trkpt lat="43.01079607611709" lon="11.058322989969383"><ele>357.0</ele><time>2026-04-06T10:23:22Z</time></trkpt><trkpt lat="43.01066626415279" lon="11.058095703236292"><ele>356.0</ele><time>2026-04-06T10:23:23Z</time></trkpt><trkpt lat="43.01051616315285" lon="11.057910696023445"><ele>356.0</ele><time>2026-04-06T10:23:24Z</time></trkpt><trkpt lat="43.01032388029476" lon="11.057771166983615"><ele>356.0</ele><time>2026-04-06T10:23:25Z</time></trkpt><trkpt lat="43.01009831290702" lon="11.057623322469073"><ele>356.0</ele><time>2026-04-06T10:23:26Z</time></trkpt><trkpt lat="43.009855578332676" lon="11.057467021698871"><ele>356.0</ele><time>2026-04-06T10:23:27Z</time></trkpt><trkpt lat="43.009646862857835" lon="11.057320299057459"><ele>356.0</ele><time>2026-04-06T10:23:28.001Z</time></trkpt><trkpt lat="43.00947302576555" lon="11.057197920509443"><ele>356.0</ele><time>2026-04-06T10:23:29.001Z</time></trkpt><trkpt lat="43.00932916026041" lon="11.057105873134969"><ele>356.0</ele><time>2026-04-06T10:23:30.001Z</time></trkpt><trkpt lat="43.00920768419051" lon="11.05705445022728"><ele>354.0</ele><time>2026-04-06T10:23:31.001Z</time></trkpt><trkpt lat="43.00907153822965" lon="11.057086939219781"><ele>352.0</ele><time>2026-04-06T10:23:32.001Z</time></trkpt><trkpt lat="43.00892373663284" lon="11.057188567667984"><ele>350.0</ele><time>2026-04-06T10:23:33.001Z</time></trkpt><trkpt lat="43.00875109039252" lon="11.05731830676423"><ele>350.0</ele><time>2026-04-06T10:23:34.001Z</time></trkpt><trkpt lat="43.00855333162335" lon="11.057439527663151"><ele>350.0</ele><time>2026-04-06T10:23:35.001Z</time></trkpt><trkpt lat="43.0083255427905" lon="11.057547872993075"><ele>346.6666666666667</ele><time>2026-04-06T10:23:36.001Z</time></trkpt><trkpt lat="43.00809538601118" lon="11.057631133103712"><ele>343.3333333333333</ele><time>2026-04-06T10:23:37.001Z</time></trkpt><trkpt lat="43.00791029243155" lon="11.057674118111661"><ele>340.0</ele><time>2026-04-06T10:23:38.001Z</time></trkpt><trkpt lat="43.007763736445575" lon="11.057719802422445"><ele>340.0</ele><time>2026-04-06T10:23:39.001Z</time></trkpt><trkpt lat="43.00761502857837" lon="11.057703224788636"><ele>340.0</ele><time>2026-04-06T10:23:40.001Z</time></trkpt><trkpt lat="43.00742412408077" lon="11.057658855968358"><ele>340.0</ele><time>2026-04-06T10:23:41.001Z</time></trkpt><trkpt lat="43.007207815145264" lon="11.057598607579987"><ele>337.5</ele><time>2026-04-06T10:23:42.001Z</time></trkpt><trkpt lat="43.00696981098546" lon="11.05752834737283"><ele>335.0</ele><time>2026-04-06T10:23:43.001Z</time></trkpt><trkpt lat="43.00675765083728" lon="11.05746716256595"><ele>330.6666666666667</ele><time>2026-04-06T10:23:44.001Z</time></trkpt><trkpt lat="43.00657789714775" lon="11.05742309125492"><ele>326.3333333333333</ele><time>2026-04-06T10:23:45.001Z</time></trkpt><trkpt lat="43.00643376554569" lon="11.05730441375273"><ele>322.0</ele><time>2026-04-06T10:23:46.001Z</time></trkpt><trkpt lat="43.006312363685176" lon="11.057160558736351"><ele>322.0</ele><time>2026-04-06T10:23:47.001Z</time></trkpt><trkpt lat="43.00619852393569" lon="11.05701382123756"><ele>322.0</ele><time>2026-04-06T10:23:48.001Z</time></trkpt><trkpt lat="43.00606827588315" lon="11.056897161015165"><ele>322.0</ele><time>2026-04-06T10:23:49.001Z</time></trkpt><trkpt lat="43.00592471414926" lon="11.0568336494737"><ele>321.3333333333333</ele><time>2026-04-06T10:23:50.001Z</time></trkpt><trkpt lat="43.00577198764638" lon="11.056836139798868"><ele>320.6666666666667</ele><time>2026-04-06T10:23:51.001Z</time></trkpt><trkpt lat="43.00562737963674" lon="11.056915474571674"><ele>320.0</ele><time>2026-04-06T10:23:52.001Z</time></trkpt><trkpt lat="43.005504804542106" lon="11.057047521240245"><ele>320.0</ele><time>2026-04-06T10:23:53.001Z</time></trkpt><trkpt lat="43.00540453602065" lon="11.057171768073557"><ele>320.0</ele><time>2026-04-06T10:23:54.001Z</time></trkpt><trkpt lat="43.005302860109936" lon="11.057233318664666"><ele>320.0</ele><time>2026-04-06T10:23:55.001Z</time></trkpt><trkpt lat="43.005200072151474" lon="11.057210780811817"><ele>320.0</ele><time>2026-04-06T10:23:56.001Z</time></trkpt><trkpt lat="43.00510025281504" lon="11.057117079017344"><ele>320.0</ele><time>2026-04-06T10:23:57.001Z</time></trkpt><trkpt lat="43.00502540942191" lon="11.056950470107836"><ele>320.0</ele><time>2026-04-06T10:23:58.001Z</time></trkpt><trkpt lat="43.004947721071396" lon="11.056749902015447"><ele>320.0</ele><time>2026-04-06T10:23:59.001Z</time></trkpt><trkpt lat="43.004838615283724" lon="11.056560766885111"><ele>315.0</ele><time>2026-04-06T10:24:00.001Z</time></trkpt><trkpt lat="43.004720114518605" lon="11.056415990313127"><ele>310.0</ele><time>2026-04-06T10:24:01.001Z</time></trkpt><trkpt lat="43.00458950455181" lon="11.0563222375052"><ele>305.0</ele><time>2026-04-06T10:24:02.001Z</time></trkpt><trkpt lat="43.00444151710725" lon="11.05629200779482"><ele>305.0</ele><time>2026-04-06T10:24:03.001Z</time></trkpt><trkpt lat="43.00428416429286" lon="11.056318428462639"><ele>305.0</ele><time>2026-04-06T10:24:04.001Z</time></trkpt><trkpt lat="43.0041018590442" lon="11.05639118568892"><ele>305.0</ele><time>2026-04-06T10:24:05.001Z</time></trkpt><trkpt lat="43.00396976266761" lon="11.056437301751897"><ele>305.4</ele><time>2026-04-06T10:24:06.001Z</time></trkpt><trkpt lat="43.003870910716905" lon="11.056485010032894"><ele>305.8</ele><time>2026-04-06T10:24:07.001Z</time></trkpt><trkpt lat="43.003802954537235" lon="11.056550798190543"><ele>306.2</ele><time>2026-04-06T10:24:08.001Z</time></trkpt><trkpt lat="43.003733763663135" lon="11.056628079663918"><ele>306.6</ele><time>2026-04-06T10:24:09.001Z</time></trkpt><trkpt lat="43.00367869474435" lon="11.056731552615721"><ele>307.0</ele><time>2026-04-06T10:24:10.001Z</time></trkpt><trkpt lat="43.00365422462047" lon="11.056878437183963"><ele>307.0</ele><time>2026-04-06T10:24:11.001Z</time></trkpt><trkpt lat="43.003647366182406" lon="11.057026479853585"><ele>307.0</ele><time>2026-04-06T10:24:12.001Z</time></trkpt><trkpt lat="43.00368148160962" lon="11.05715484669817"><ele>307.0</ele><time>2026-04-06T10:24:13.001Z</time></trkpt><trkpt lat="43.003720175251004" lon="11.057297889352771"><ele>307.0</ele><time>2026-04-06T10:24:14.001Z</time></trkpt><trkpt lat="43.00373288599461" lon="11.057451677927359"><ele>307.0</ele><time>2026-04-06T10:24:15.001Z</time></trkpt><trkpt lat="43.003727141046525" lon="11.057616771887997"><ele>307.4</ele><time>2026-04-06T10:24:16.001Z</time></trkpt><trkpt lat="43.003680261152375" lon="11.05776757442731"><ele>307.79999999999995</ele><time>2026-04-06T10:24:17Z</time></trkpt><trkpt lat="43.003629220373405" lon="11.057884923237843"><ele>308.2</ele><time>2026-04-06T10:24:18Z</time></trkpt><trkpt lat="43.003563368388335" lon="11.057989426694764"><ele>308.59999999999997</ele><time>2026-04-06T10:24:19Z</time></trkpt><trkpt lat="43.003481528671685" lon="11.058087869324295"><ele>309.0</ele><time>2026-04-06T10:24:20Z</time></trkpt><trkpt lat="43.00338485721991" lon="11.05814270916153"><ele>305.4</ele><time>2026-04-06T10:24:21Z</time></trkpt><trkpt lat="43.00327558189343" lon="11.058150025795246"><ele>301.79999999999995</ele><time>2026-04-06T10:24:22Z</time></trkpt><trkpt lat="43.003182798764435" lon="11.058128903938265"><ele>298.20000000000005</ele><time>2026-04-06T10:24:23Z</time></trkpt><trkpt lat="43.003096480598096" lon="11.058122010231276"><ele>294.6</ele><time>2026-04-06T10:24:24Z</time></trkpt><trkpt lat="43.00301606965832" lon="11.058152251361864"><ele>291.0</ele><time>2026-04-06T10:24:25Z</time></trkpt><trkpt lat="43.00295373693294" lon="11.058222620841637"><ele>292.6</ele><time>2026-04-06T10:24:26Z</time></trkpt><trkpt lat="43.00290344715188" lon="11.058331712044048"><ele>294.20000000000005</ele><time>2026-04-06T10:24:27Z</time></trkpt><trkpt lat="43.002867570367165" lon="11.058463251137848"><ele>295.79999999999995</ele><time>2026-04-06T10:24:28Z</time></trkpt><trkpt lat="43.00282812092426" lon="11.058606358634265"><ele>297.4</ele><time>2026-04-06T10:24:29Z</time></trkpt><trkpt lat="43.00279192723741" lon="11.058735371626414"><ele>299.0</ele><time>2026-04-06T10:24:30Z</time></trkpt><trkpt lat="43.00276608344395" lon="11.058852455090262"><ele>299.0</ele><time>2026-04-06T10:24:31Z</time></trkpt><trkpt lat="43.00275083901422" lon="11.058968219949035"><ele>299.0</ele><time>2026-04-06T10:24:32Z</time></trkpt><trkpt lat="43.00275357367395" lon="11.059101465507732"><ele>299.0</ele><time>2026-04-06T10:24:33Z</time></trkpt><trkpt lat="43.002773848148095" lon="11.05924538086169"><ele>299.0</ele><time>2026-04-06T10:24:34Z</time></trkpt><trkpt lat="43.00278155311651" lon="11.059393262198832"><ele>299.0</ele><time>2026-04-06T10:24:35Z</time></trkpt><trkpt lat="43.00280454331696" lon="11.059528270161154"><ele>299.4</ele><time>2026-04-06T10:24:36Z</time></trkpt><trkpt lat="43.00281566341283" lon="11.059642366013218"><ele>299.79999999999995</ele><time>2026-04-06T10:24:37Z</time></trkpt><trkpt lat="43.00282250277212" lon="11.059766370611165"><ele>300.20000000000005</ele><time>2026-04-06T10:24:38Z</time></trkpt><trkpt lat="43.00278508819595" lon="11.059902579748643"><ele>300.6</ele><time>2026-04-06T10:24:39Z</time></trkpt><trkpt lat="43.00271656953556" lon="11.060011650762977"><ele>301.0</ele><time>2026-04-06T10:24:40Z</time></trkpt><trkpt lat="43.00263064311162" lon="11.060096571768101"><ele>301.5</ele><time>2026-04-06T10:24:41Z</time></trkpt><trkpt lat="43.00252864720274" lon="11.060158226340558"><ele>302.0</ele><time>2026-04-06T10:24:42Z</time></trkpt><trkpt lat="43.002417750282795" lon="11.0602021029027"><ele>302.5</ele><time>2026-04-06T10:24:43Z</time></trkpt><trkpt lat="43.00230050444285" lon="11.06024240097461"><ele>303.0</ele><time>2026-04-06T10:24:44Z</time></trkpt><trkpt lat="43.00220185485077" lon="11.06027957263334"><ele>300.0</ele><time>2026-04-06T10:24:45Z</time></trkpt><trkpt lat="43.002106914863404" lon="11.060316130572643"><ele>297.0</ele><time>2026-04-06T10:24:46Z</time></trkpt><trkpt lat="43.00200503706204" lon="11.060358636256659"><ele>294.0</ele><time>2026-04-06T10:24:47Z</time></trkpt><trkpt lat="43.00191470891389" lon="11.060395950843425"><ele>291.0</ele><time>2026-04-06T10:24:48Z</time></trkpt><trkpt lat="43.00182674096234" lon="11.060462249829545"><ele>288.0</ele><time>2026-04-06T10:24:49Z</time></trkpt><trkpt lat="43.001749622315245" lon="11.06054822268614"><ele>288.0</ele><time>2026-04-06T10:24:50Z</time></trkpt><trkpt lat="43.00169623281259" lon="11.060637575938516"><ele>288.0</ele><time>2026-04-06T10:24:51Z</time></trkpt><trkpt lat="43.00164825192204" lon="11.060755117228853"><ele>288.0</ele><time>2026-04-06T10:24:52Z</time></trkpt><trkpt lat="43.00161818166553" lon="11.060900362106137"><ele>288.0</ele><time>2026-04-06T10:24:53Z</time></trkpt><trkpt lat="43.00159802602362" lon="11.061071794352458"><ele>288.0</ele><time>2026-04-06T10:24:54Z</time></trkpt><trkpt lat="43.001593457999036" lon="11.061234470702589"><ele>287.6666666666667</ele><time>2026-04-06T10:24:55Z</time></trkpt><trkpt lat="43.0015893207342" lon="11.061371915697928"><ele>287.3333333333333</ele><time>2026-04-06T10:24:56Z</time></trkpt><trkpt lat="43.00158213176641" lon="11.06149199221219"><ele>287.0</ele><time>2026-04-06T10:24:57Z</time></trkpt><trkpt lat="43.00157319224849" lon="11.061603044066054"><ele>286.66666666666663</ele><time>2026-04-06T10:24:58Z</time></trkpt><trkpt lat="43.0015416285343" lon="11.061704029342026"><ele>286.3333333333333</ele><time>2026-04-06T10:24:59Z</time></trkpt><trkpt lat="43.00148198202006" lon="11.061801248030397"><ele>286.0</ele><time>2026-04-06T10:25:00Z</time></trkpt><trkpt lat="43.00139659203783" lon="11.061869211630277"><ele>286.0</ele><time>2026-04-06T10:25:01Z</time></trkpt><trkpt lat="43.001296767386954" lon="11.061903137175724"><ele>286.0</ele><time>2026-04-06T10:25:02Z</time></trkpt><trkpt lat="43.00119410440528" lon="11.061902152359714"><ele>286.0</ele><time>2026-04-06T10:25:03Z</time></trkpt><trkpt lat="43.00109143334301" lon="11.061874936002901"><ele>286.0</ele><time>2026-04-06T10:25:04Z</time></trkpt><trkpt lat="43.00098256989631" lon="11.061843902232184"><ele>286.0</ele><time>2026-04-06T10:25:05Z</time></trkpt><trkpt lat="43.000875995991166" lon="11.06181564033715"><ele>283.6</ele><time>2026-04-06T10:25:06Z</time></trkpt><trkpt lat="43.00077704434926" lon="11.061786998285031"><ele>281.20000000000005</ele><time>2026-04-06T10:25:07Z</time></trkpt><trkpt lat="43.00067305377514" lon="11.061764232312411"><ele>278.79999999999995</ele><time>2026-04-06T10:25:08Z</time></trkpt><trkpt lat="43.00056773530511" lon="11.061762397186161"><ele>276.4</ele><time>2026-04-06T10:25:09Z</time></trkpt><trkpt lat="43.0004614756431" lon="11.061788761799752"><ele>274.0</ele><time>2026-04-06T10:25:10Z</time></trkpt><trkpt lat="43.00035612204699" lon="11.061851247335579"><ele>274.0</ele><time>2026-04-06T10:25:11Z</time></trkpt><trkpt lat="43.000253244070386" lon="11.061929800338064"><ele>274.0</ele><time>2026-04-06T10:25:12Z</time></trkpt><trkpt lat="43.00014845145456" lon="11.062003145352396"><ele>274.0</ele><time>2026-04-06T10:25:13Z</time></trkpt><trkpt lat="43.00004482250795" lon="11.062085204955885"><ele>274.0</ele><time>2026-04-06T10:25:14Z</time></trkpt><trkpt lat="42.99994310597081" lon="11.062177026929275"><ele>274.0</ele><time>2026-04-06T10:25:15Z</time></trkpt><trkpt lat="42.9998457293029" lon="11.062278318807248"><ele>274.0</ele><time>2026-04-06T10:25:16Z</time></trkpt><trkpt lat="42.99975873258356" lon="11.062385292826"><ele>274.0</ele><time>2026-04-06T10:25:17Z</time></trkpt><trkpt lat="42.99968907373706" lon="11.062499853954291"><ele>274.0</ele><time>2026-04-06T10:25:18Z</time></trkpt><trkpt lat="42.99963056711957" lon="11.062616114206442"><ele>276.59999999999997</ele><time>2026-04-06T10:25:19.001Z</time></trkpt><trkpt lat="42.99958574084448" lon="11.062723803704191"><ele>279.2</ele><time>2026-04-06T10:25:20.001Z</time></trkpt><trkpt lat="42.99954225227067" lon="11.062844946299776"><ele>281.79999999999995</ele><time>2026-04-06T10:25:21.001Z</time></trkpt><trkpt lat="42.99949361033042" lon="11.062976224392017"><ele>284.4</ele><time>2026-04-06T10:25:22.001Z</time></trkpt><trkpt lat="42.99943407393255" lon="11.063099829500413"><ele>287.0</ele><time>2026-04-06T10:25:23.001Z</time></trkpt><trkpt lat="42.99935630327211" lon="11.0631995084328"><ele>287.0</ele><time>2026-04-06T10:25:24.001Z</time></trkpt><trkpt lat="42.99926960872527" lon="11.063262627290925"><ele>287.0</ele><time>2026-04-06T10:25:25.001Z</time></trkpt><trkpt lat="42.99916920418094" lon="11.063304373703167"><ele>287.0</ele><time>2026-04-06T10:25:26.001Z</time></trkpt><trkpt lat="42.99906032957743" lon="11.06331756055299"><ele>287.0</ele><time>2026-04-06T10:25:27.001Z</time></trkpt><trkpt lat="42.998948816350044" lon="11.063295381991715"><ele>287.0</ele><time>2026-04-06T10:25:28.001Z</time></trkpt><trkpt lat="42.99883963748797" lon="11.063248144633048"><ele>283.4</ele><time>2026-04-06T10:25:29.001Z</time></trkpt><trkpt lat="42.99873366847318" lon="11.063201196275534"><ele>279.79999999999995</ele><time>2026-04-06T10:25:30.001Z</time></trkpt><trkpt lat="42.99862481766859" lon="11.063150503795802"><ele>276.2</ele><time>2026-04-06T10:25:31.001Z</time></trkpt><trkpt lat="42.99852028998074" lon="11.063112286697086"><ele>272.59999999999997</ele><time>2026-04-06T10:25:32.001Z</time></trkpt><trkpt lat="42.998415946197746" lon="11.06307853377094"><ele>269.0</ele><time>2026-04-06T10:25:33.001Z</time></trkpt><trkpt lat="42.99831276892533" lon="11.063052156009567"><ele>265.75</ele><time>2026-04-06T10:25:34.001Z</time></trkpt><trkpt lat="42.99820453047945" lon="11.063029062039947"><ele>262.5</ele><time>2026-04-06T10:25:35.001Z</time></trkpt><trkpt lat="42.998094125194704" lon="11.063021518630688"><ele>259.25</ele><time>2026-04-06T10:25:36.001Z</time></trkpt><trkpt lat="42.997979585659685" lon="11.063026885697601"><ele>256.0</ele><time>2026-04-06T10:25:37.001Z</time></trkpt><trkpt lat="42.99786047891157" lon="11.063049334598073"><ele>256.0</ele><time>2026-04-06T10:25:38.001Z</time></trkpt><trkpt lat="42.99773812318067" lon="11.063086561037851"><ele>256.0</ele><time>2026-04-06T10:25:39.001Z</time></trkpt><trkpt lat="42.997611211432734" lon="11.063130399859583"><ele>256.0</ele><time>2026-04-06T10:25:40.001Z</time></trkpt><trkpt lat="42.99748062095466" lon="11.063172734419267"><ele>256.0</ele><time>2026-04-06T10:25:41.001Z</time></trkpt><trkpt lat="42.99734967681266" lon="11.063213197376605"><ele>255.0</ele><time>2026-04-06T10:25:42.001Z</time></trkpt><trkpt lat="42.99720713289073" lon="11.063257927850122"><ele>254.0</ele><time>2026-04-06T10:25:43.001Z</time></trkpt><trkpt lat="42.99705874703572" lon="11.063303160384647"><ele>253.0</ele><time>2026-04-06T10:25:44.001Z</time></trkpt><trkpt lat="42.996906779839925" lon="11.063340759951517"><ele>254.66666666666666</ele><time>2026-04-06T10:25:45.001Z</time></trkpt><trkpt lat="42.996751367185745" lon="11.063379801261501"><ele>256.3333333333333</ele><time>2026-04-06T10:25:46.001Z</time></trkpt><trkpt lat="42.996596345003645" lon="11.063422974237104"><ele>258.0</ele><time>2026-04-06T10:25:47.001Z</time></trkpt><trkpt lat="42.99644050520234" lon="11.063462397936064"><ele>258.0</ele><time>2026-04-06T10:25:48.001Z</time></trkpt><trkpt lat="42.99628558050368" lon="11.063478183223554"><ele>258.0</ele><time>2026-04-06T10:25:49.001Z</time></trkpt><trkpt lat="42.99612799901081" lon="11.063478499140494"><ele>258.0</ele><time>2026-04-06T10:25:50.001Z</time></trkpt><trkpt lat="42.995965402030244" lon="11.063457539259922"><ele>255.0</ele><time>2026-04-06T10:25:51.001Z</time></trkpt><trkpt lat="42.99579703148783" lon="11.063431336694745"><ele>252.0</ele><time>2026-04-06T10:25:52.001Z</time></trkpt><trkpt lat="42.99562165444229" lon="11.063394660700677"><ele>249.0</ele><time>2026-04-06T10:25:53.001Z</time></trkpt><trkpt lat="42.995442570890184" lon="11.063354026244978"><ele>249.0</ele><time>2026-04-06T10:25:54.001Z</time></trkpt><trkpt lat="42.99526186001781" lon="11.063312615177384"><ele>249.0</ele><time>2026-04-06T10:25:55.001Z</time></trkpt><trkpt lat="42.99509552210074" lon="11.063270611907752"><ele>249.0</ele><time>2026-04-06T10:25:56.001Z</time></trkpt><trkpt lat="42.99493669394841" lon="11.063230987888106"><ele>243.0</ele><time>2026-04-06T10:25:57.001Z</time></trkpt><trkpt lat="42.99478890658255" lon="11.063197454753995"><ele>237.0</ele><time>2026-04-06T10:25:58.001Z</time></trkpt><trkpt lat="42.99464801432547" lon="11.063162341300243"><ele>231.0</ele><time>2026-04-06T10:25:59.001Z</time></trkpt><trkpt lat="42.994510394414704" lon="11.063122564254295"><ele>225.0</ele><time>2026-04-06T10:26:00.001Z</time></trkpt><trkpt lat="42.994381057652504" lon="11.063083271181892"><ele>225.0</ele><time>2026-04-06T10:26:01.001Z</time></trkpt><trkpt lat="42.99426426330107" lon="11.063028124484358"><ele>225.0</ele><time>2026-04-06T10:26:02.001Z</time></trkpt><trkpt lat="42.99416092601144" lon="11.062938903851173"><ele>225.0</ele><time>2026-04-06T10:26:03.001Z</time></trkpt><trkpt lat="42.99406396487305" lon="11.062816417917812"><ele>225.0</ele><time>2026-04-06T10:26:04.001Z</time></trkpt><trkpt lat="42.99396534338932" lon="11.06267132928808"><ele>226.66666666666669</ele><time>2026-04-06T10:26:05.001Z</time></trkpt><trkpt lat="42.993861899931694" lon="11.062519530409878"><ele>228.33333333333334</ele><time>2026-04-06T10:26:06.001Z</time></trkpt><trkpt lat="42.99374213334249" lon="11.062324599416783"><ele>230.0</ele><time>2026-04-06T10:26:07.001Z</time></trkpt><trkpt lat="42.99358731360121" lon="11.06209438278159"><ele>219.0</ele><time>2026-04-06T10:26:08.001Z</time></trkpt><trkpt lat="42.99340983477715" lon="11.061836985663234"><ele>208.0</ele><time>2026-04-06T10:26:09.001Z</time></trkpt><trkpt lat="42.993261374044586" lon="11.061590416586613"><ele>206.66666666666666</ele><time>2026-04-06T10:26:10.001Z</time></trkpt><trkpt lat="42.993112619338454" lon="11.061371826549374"><ele>205.33333333333331</ele><time>2026-04-06T10:26:11.001Z</time></trkpt><trkpt lat="42.9929611626359" lon="11.061178771143249"><ele>204.0</ele><time>2026-04-06T10:26:12.001Z</time></trkpt><trkpt lat="42.99280563447208" lon="11.061010558445595"><ele>204.0</ele><time>2026-04-06T10:26:13.001Z</time></trkpt><trkpt lat="42.992654291543275" lon="11.060864920769859"><ele>204.0</ele><time>2026-04-06T10:26:14.001Z</time></trkpt><trkpt lat="42.992514705357536" lon="11.06073904287865"><ele>204.0</ele><time>2026-04-06T10:26:15.001Z</time></trkpt><trkpt lat="42.99239416624728" lon="11.060639254006793"><ele>201.5</ele><time>2026-04-06T10:26:16.001Z</time></trkpt><trkpt lat="42.992276021244635" lon="11.060583512293823"><ele>199.0</ele><time>2026-04-06T10:26:17.001Z</time></trkpt><trkpt lat="42.992164388558486" lon="11.06058220144865"><ele>196.5</ele><time>2026-04-06T10:26:18.001Z</time></trkpt><trkpt lat="42.99203798042912" lon="11.06064259060411"><ele>194.0</ele><time>2026-04-06T10:26:19.001Z</time></trkpt><trkpt lat="42.99193039796933" lon="11.060765157242267"><ele>199.25</ele><time>2026-04-06T10:26:20.001Z</time></trkpt><trkpt lat="42.99186504599215" lon="11.06093529367914"><ele>204.5</ele><time>2026-04-06T10:26:21.001Z</time></trkpt><trkpt lat="42.99183265652882" lon="11.061135927075181"><ele>209.75</ele><time>2026-04-06T10:26:22.001Z</time></trkpt><trkpt lat="42.991823721540065" lon="11.061342578954228"><ele>215.0</ele><time>2026-04-06T10:26:23Z</time></trkpt><trkpt lat="42.99181885234946" lon="11.061543296956348"><ele>218.0</ele><time>2026-04-06T10:26:24Z</time></trkpt><trkpt lat="42.9918032465457" lon="11.061721044552048"><ele>221.0</ele><time>2026-04-06T10:26:25Z</time></trkpt><trkpt lat="42.99175448396085" lon="11.061903433021476"><ele>224.0</ele><time>2026-04-06T10:26:26Z</time></trkpt><trkpt lat="42.991657526046716" lon="11.062077859074074"><ele>227.0</ele><time>2026-04-06T10:26:27Z</time></trkpt><trkpt lat="42.99152238860018" lon="11.062221024373786"><ele>222.33333333333334</ele><time>2026-04-06T10:26:28Z</time></trkpt><trkpt lat="42.991354194395726" lon="11.062338314069462"><ele>217.66666666666669</ele><time>2026-04-06T10:26:29Z</time></trkpt><trkpt lat="42.99116771027092" lon="11.06244014177015"><ele>213.0</ele><time>2026-04-06T10:26:30Z</time></trkpt><trkpt lat="42.99096545027489" lon="11.062557848179846"><ele>204.5</ele><time>2026-04-06T10:26:31Z</time></trkpt><trkpt lat="42.99076713239845" lon="11.062711006288811"><ele>196.0</ele><time>2026-04-06T10:26:32Z</time></trkpt><trkpt lat="42.990569774286655" lon="11.06288543454299"><ele>196.0</ele><time>2026-04-06T10:26:33Z</time></trkpt><trkpt lat="42.99038320612531" lon="11.06309682488402"><ele>196.0</ele><time>2026-04-06T10:26:34Z</time></trkpt><trkpt lat="42.990222882244446" lon="11.063307936785355"><ele>194.0</ele><time>2026-04-06T10:26:35Z</time></trkpt><trkpt lat="42.99007500924711" lon="11.063507050600519"><ele>192.0</ele><time>2026-04-06T10:26:36Z</time></trkpt><trkpt lat="42.98992703428714" lon="11.063687076683937"><ele>190.0</ele><time>2026-04-06T10:26:37Z</time></trkpt><trkpt lat="42.98979898670263" lon="11.063877041292885"><ele>190.0</ele><time>2026-04-06T10:26:38Z</time></trkpt><trkpt lat="42.98968603194079" lon="11.064084426635207"><ele>190.0</ele><time>2026-04-06T10:26:39Z</time></trkpt><trkpt lat="42.9895861992556" lon="11.064323521739576"><ele>190.0</ele><time>2026-04-06T10:26:40Z</time></trkpt><trkpt lat="42.9895048773284" lon="11.064583280391398"><ele>197.5</ele><time>2026-04-06T10:26:41Z</time></trkpt><trkpt lat="42.98944114108293" lon="11.064870913853555"><ele>205.0</ele><time>2026-04-06T10:26:42Z</time></trkpt><trkpt lat="42.98938999107816" lon="11.065185364306599"><ele>208.66666666666666</ele><time>2026-04-06T10:26:43Z</time></trkpt><trkpt lat="42.989351043607314" lon="11.065490461171938"><ele>212.33333333333331</ele><time>2026-04-06T10:26:44Z</time></trkpt><trkpt lat="42.989317242490166" lon="11.065763917441782"><ele>216.0</ele><time>2026-04-06T10:26:45Z</time></trkpt><trkpt lat="42.989293072527616" lon="11.0660111789988"><ele>216.0</ele><time>2026-04-06T10:26:46Z</time></trkpt><trkpt lat="42.98929162582514" lon="11.066251717570738"><ele>216.0</ele><time>2026-04-06T10:26:47Z</time></trkpt><trkpt lat="42.989335576797004" lon="11.066490312123893"><ele>216.0</ele><time>2026-04-06T10:26:48Z</time></trkpt><trkpt lat="42.989404334611855" lon="11.066742360932906"><ele>210.33333333333331</ele><time>2026-04-06T10:26:49Z</time></trkpt><trkpt lat="42.98948209732113" lon="11.066974626910337"><ele>204.66666666666666</ele><time>2026-04-06T10:26:50Z</time></trkpt><trkpt lat="42.98957610011109" lon="11.067176996867287"><ele>199.0</ele><time>2026-04-06T10:26:51Z</time></trkpt><trkpt lat="42.98969385528467" lon="11.06733884575643"><ele>191.33333333333331</ele><time>2026-04-06T10:26:52Z</time></trkpt><trkpt lat="42.98983144788144" lon="11.06745533612064"><ele>183.66666666666666</ele><time>2026-04-06T10:26:53Z</time></trkpt><trkpt lat="42.98999752955964" lon="11.067544637164888"><ele>176.0</ele><time>2026-04-06T10:26:54Z</time></trkpt><trkpt lat="42.99018490777496" lon="11.067572268839685"><ele>176.0</ele><time>2026-04-06T10:26:55Z</time></trkpt><trkpt lat="42.99039645842911" lon="11.06755897313295"><ele>176.0</ele><time>2026-04-06T10:26:56Z</time></trkpt><trkpt lat="42.990602030542945" lon="11.067535302543977"><ele>176.0</ele><time>2026-04-06T10:26:57Z</time></trkpt><trkpt lat="42.990784821679675" lon="11.06752014608518"><ele>175.66666666666666</ele><time>2026-04-06T10:26:58Z</time></trkpt><trkpt lat="42.99094696322743" lon="11.067520123991725"><ele>175.33333333333334</ele><time>2026-04-06T10:26:59Z</time></trkpt><trkpt lat="42.99109432452007" lon="11.067529042495472"><ele>175.0</ele><time>2026-04-06T10:27:00Z</time></trkpt><trkpt lat="42.99122519171846" lon="11.067598187708395"><ele>175.0</ele><time>2026-04-06T10:27:01Z</time></trkpt><trkpt lat="42.99132559423724" lon="11.06771992868714"><ele>175.0</ele><time>2026-04-06T10:27:02Z</time></trkpt><trkpt lat="42.99140914038794" lon="11.067890508648382"><ele>175.0</ele><time>2026-04-06T10:27:03Z</time></trkpt><trkpt lat="42.991445756834786" lon="11.068089257315073"><ele>175.0</ele><time>2026-04-06T10:27:04Z</time></trkpt><trkpt lat="42.9914223995512" lon="11.068306109222638"><ele>175.0</ele><time>2026-04-06T10:27:05Z</time></trkpt><trkpt lat="42.99135702701079" lon="11.068527679557508"><ele>175.0</ele><time>2026-04-06T10:27:06Z</time></trkpt><trkpt lat="42.991241300753856" lon="11.068771078455931"><ele>175.0</ele><time>2026-04-06T10:27:07Z</time></trkpt><trkpt lat="42.99111817274771" lon="11.069047866343716"><ele>175.0</ele><time>2026-04-06T10:27:08Z</time></trkpt><trkpt lat="42.99099101146811" lon="11.0693572244059"><ele>175.0</ele><time>2026-04-06T10:27:09Z</time></trkpt><trkpt lat="42.99086702370406" lon="11.069655951853493"><ele>168.33333333333334</ele><time>2026-04-06T10:27:10Z</time></trkpt><trkpt lat="42.99076122996845" lon="11.069902779255324"><ele>161.66666666666666</ele><time>2026-04-06T10:27:11Z</time></trkpt><trkpt lat="42.99065535943633" lon="11.07011637182233"><ele>155.0</ele><time>2026-04-06T10:27:12Z</time></trkpt><trkpt lat="42.99052256639881" lon="11.07027870659557"><ele>155.0</ele><time>2026-04-06T10:27:13Z</time></trkpt><trkpt lat="42.99035336885092" lon="11.070395565464862"><ele>155.0</ele><time>2026-04-06T10:27:14Z</time></trkpt><trkpt lat="42.99014694156567" lon="11.07050575959255"><ele>155.0</ele><time>2026-04-06T10:27:15Z</time></trkpt><trkpt lat="42.98991401911833" lon="11.070629055307492"><ele>151.0</ele><time>2026-04-06T10:27:16Z</time></trkpt><trkpt lat="42.98966606058907" lon="11.07076786873713"><ele>147.0</ele><time>2026-04-06T10:27:17Z</time></trkpt><trkpt lat="42.989397017311596" lon="11.070916786800437"><ele>142.0</ele><time>2026-04-06T10:27:18Z</time></trkpt><trkpt lat="42.98912964537733" lon="11.07107219601957"><ele>137.0</ele><time>2026-04-06T10:27:19Z</time></trkpt><trkpt lat="42.988894710035325" lon="11.07120823035258"><ele>137.0</ele><time>2026-04-06T10:27:20.001Z</time></trkpt><trkpt lat="42.988669132167196" lon="11.07130359779554"><ele>137.0</ele><time>2026-04-06T10:27:21.001Z</time></trkpt><trkpt lat="42.988438424608624" lon="11.071339071347364"><ele>132.0</ele><time>2026-04-06T10:27:22.001Z</time></trkpt><trkpt lat="42.98818735294943" lon="11.071330760037982"><ele>127.0</ele><time>2026-04-06T10:27:23.001Z</time></trkpt><trkpt lat="42.98795360039725" lon="11.071324748240041"><ele>127.0</ele><time>2026-04-06T10:27:24.001Z</time></trkpt><trkpt lat="42.98775977115752" lon="11.07132712412138"><ele>127.0</ele><time>2026-04-06T10:27:25.001Z</time></trkpt><trkpt lat="42.98759804347391" lon="11.071369386354517"><ele>127.0</ele><time>2026-04-06T10:27:26.001Z</time></trkpt><trkpt lat="42.987454870866486" lon="11.071472231649226"><ele>128.66666666666669</ele><time>2026-04-06T10:27:27.001Z</time></trkpt><trkpt lat="42.98734220058588" lon="11.071632592287198"><ele>130.33333333333334</ele><time>2026-04-06T10:27:28.001Z</time></trkpt><trkpt lat="42.9872602578099" lon="11.071843771162099"><ele>132.0</ele><time>2026-04-06T10:27:29.001Z</time></trkpt><trkpt lat="42.98720341209927" lon="11.072116633015476"><ele>132.0</ele><time>2026-04-06T10:27:30.001Z</time></trkpt><trkpt lat="42.9871464555563" lon="11.072432948192956"><ele>132.0</ele><time>2026-04-06T10:27:31.001Z</time></trkpt><trkpt lat="42.98708866686793" lon="11.072758416034356"><ele>133.0</ele><time>2026-04-06T10:27:32.001Z</time></trkpt><trkpt lat="42.98704576849818" lon="11.073030275009467"><ele>134.0</ele><time>2026-04-06T10:27:33.001Z</time></trkpt><trkpt lat="42.987026296470205" lon="11.073265792323754"><ele>135.0</ele><time>2026-04-06T10:27:34.001Z</time></trkpt><trkpt lat="42.98705809725787" lon="11.073505515077516"><ele>133.0</ele><time>2026-04-06T10:27:35.001Z</time></trkpt><trkpt lat="42.98713331024963" lon="11.073757975051212"><ele>131.0</ele><time>2026-04-06T10:27:36.001Z</time></trkpt><trkpt lat="42.9872280644133" lon="11.074020171771727"><ele>129.0</ele><time>2026-04-06T10:27:37.001Z</time></trkpt><trkpt lat="42.9873133601529" lon="11.074271179474467"><ele>127.0</ele><time>2026-04-06T10:27:38.001Z</time></trkpt><trkpt lat="42.98738121000804" lon="11.074495844909634"><ele>125.0</ele><time>2026-04-06T10:27:39.001Z</time></trkpt><trkpt lat="42.987435103246604" lon="11.074713070736612"><ele>123.0</ele><time>2026-04-06T10:27:40.001Z</time></trkpt><trkpt lat="42.98746132977101" lon="11.074926677193893"><ele>122.0</ele><time>2026-04-06T10:27:41.001Z</time></trkpt><trkpt lat="42.9874605514661" lon="11.075161329428573"><ele>121.0</ele><time>2026-04-06T10:27:42.001Z</time></trkpt><trkpt lat="42.98742625195076" lon="11.075400665851383"><ele>120.0</ele><time>2026-04-06T10:27:43.001Z</time></trkpt><trkpt lat="42.98737409425059" lon="11.075638466608336"><ele>120.66666666666666</ele><time>2026-04-06T10:27:44.001Z</time></trkpt><trkpt lat="42.98732712287331" lon="11.07586237061292"><ele>121.33333333333333</ele><time>2026-04-06T10:27:45.001Z</time></trkpt><trkpt lat="42.98729230709417" lon="11.07605910116622"><ele>122.0</ele><time>2026-04-06T10:27:46.001Z</time></trkpt><trkpt lat="42.987259228711714" lon="11.076247294559074"><ele>122.0</ele><time>2026-04-06T10:27:47.001Z</time></trkpt><trkpt lat="42.98721994194284" lon="11.076459952639125"><ele>122.0</ele><time>2026-04-06T10:27:48.001Z</time></trkpt><trkpt lat="42.98716061475302" lon="11.076689477884536"><ele>122.0</ele><time>2026-04-06T10:27:49.001Z</time></trkpt><trkpt lat="42.98710192735889" lon="11.076950702377179"><ele>120.5</ele><time>2026-04-06T10:27:50.001Z</time></trkpt><trkpt lat="42.9870483813293" lon="11.077251999454509"><ele>119.0</ele><time>2026-04-06T10:27:51.001Z</time></trkpt><trkpt lat="42.986985584111686" lon="11.07756518681278"><ele>119.0</ele><time>2026-04-06T10:27:52.001Z</time></trkpt><trkpt lat="42.98692156510609" lon="11.077890663574063"><ele>119.0</ele><time>2026-04-06T10:27:53.001Z</time></trkpt><trkpt lat="42.98686580791764" lon="11.07820904213222"><ele>120.0</ele><time>2026-04-06T10:27:54.001Z</time></trkpt><trkpt lat="42.98683130205583" lon="11.078501622731627"><ele>121.0</ele><time>2026-04-06T10:27:55.001Z</time></trkpt><trkpt lat="42.98682157704794" lon="11.078781187219908"><ele>122.0</ele><time>2026-04-06T10:27:56.001Z</time></trkpt><trkpt lat="42.98683826487843" lon="11.079065275904863"><ele>122.0</ele><time>2026-04-06T10:27:57.001Z</time></trkpt><trkpt lat="42.98687844094591" lon="11.079353841114669"><ele>122.0</ele><time>2026-04-06T10:27:58.001Z</time></trkpt><trkpt lat="42.98694408822597" lon="11.079640576745566"><ele>122.0</ele><time>2026-04-06T10:27:59.001Z</time></trkpt><trkpt lat="42.98703534438459" lon="11.079931630934722"><ele>120.5</ele><time>2026-04-06T10:28:00.001Z</time></trkpt><trkpt lat="42.98713757008936" lon="11.080223931152968"><ele>119.0</ele><time>2026-04-06T10:28:01.001Z</time></trkpt><trkpt lat="42.987298090133365" lon="11.080480967886906"><ele>119.0</ele><time>2026-04-06T10:28:02.001Z</time></trkpt><trkpt lat="42.987473173135925" lon="11.080748691339076"><ele>119.0</ele><time>2026-04-06T10:28:03.001Z</time></trkpt><trkpt lat="42.987659289077335" lon="11.081011148490365"><ele>116.0</ele><time>2026-04-06T10:28:04.001Z</time></trkpt><trkpt lat="42.98783244322787" lon="11.08126187713177"><ele>113.0</ele><time>2026-04-06T10:28:05.001Z</time></trkpt><trkpt lat="42.987989045220395" lon="11.081497094073454"><ele>112.66666666666666</ele><time>2026-04-06T10:28:06.001Z</time></trkpt><trkpt lat="42.98813694218755" lon="11.081717644933494"><ele>112.33333333333334</ele><time>2026-04-06T10:28:07.001Z</time></trkpt><trkpt lat="42.988290757256806" lon="11.081933358307497"><ele>112.0</ele><time>2026-04-06T10:28:08.001Z</time></trkpt><trkpt lat="42.98842628181439" lon="11.082164388982017"><ele>112.0</ele><time>2026-04-06T10:28:09.001Z</time></trkpt><trkpt lat="42.988573717041156" lon="11.082381656071915"><ele>112.0</ele><time>2026-04-06T10:28:10.001Z</time></trkpt><trkpt lat="42.98871857774563" lon="11.082595134577772"><ele>112.0</ele><time>2026-04-06T10:28:11.001Z</time></trkpt><trkpt lat="42.988849884868344" lon="11.082792261059653"><ele>112.0</ele><time>2026-04-06T10:28:12.001Z</time></trkpt><trkpt lat="42.98897598022632" lon="11.082997869615514"><ele>112.0</ele><time>2026-04-06T10:28:13.001Z</time></trkpt><trkpt lat="42.98910604110727" lon="11.083217930989107"><ele>112.0</ele><time>2026-04-06T10:28:14.001Z</time></trkpt><trkpt lat="42.989202496646044" lon="11.083468398835949"><ele>112.0</ele><time>2026-04-06T10:28:15.001Z</time></trkpt><trkpt lat="42.989266350591485" lon="11.083762553188928"><ele>112.0</ele><time>2026-04-06T10:28:16.001Z</time></trkpt><trkpt lat="42.989318662601654" lon="11.084057972072928"><ele>112.0</ele><time>2026-04-06T10:28:17.001Z</time></trkpt><trkpt lat="42.98934444299948" lon="11.084367822137803"><ele>112.0</ele><time>2026-04-06T10:28:18.001Z</time></trkpt><trkpt lat="42.98934075018796" lon="11.084687318861805"><ele>112.0</ele><time>2026-04-06T10:28:19.001Z</time></trkpt><trkpt lat="42.989320172203584" lon="11.08501529731191"><ele>112.0</ele><time>2026-04-06T10:28:20.001Z</time></trkpt><trkpt lat="42.989232486685786" lon="11.0853314067634"><ele>112.0</ele><time>2026-04-06T10:28:21.001Z</time></trkpt><trkpt lat="42.98914834008094" lon="11.085634606540847"><ele>111.5</ele><time>2026-04-06T10:28:22.001Z</time></trkpt><trkpt lat="42.989023986412164" lon="11.08590382947384"><ele>111.0</ele><time>2026-04-06T10:28:23.001Z</time></trkpt><trkpt lat="42.98886642609939" lon="11.086153586024455"><ele>111.0</ele><time>2026-04-06T10:28:24.001Z</time></trkpt><trkpt lat="42.988678628334185" lon="11.086392496885017"><ele>111.0</ele><time>2026-04-06T10:28:25.001Z</time></trkpt><trkpt lat="42.98847115591019" lon="11.086621330948145"><ele>110.0</ele><time>2026-04-06T10:28:26.001Z</time></trkpt><trkpt lat="42.98825124837869" lon="11.086854659294"><ele>109.0</ele><time>2026-04-06T10:28:27.001Z</time></trkpt><trkpt lat="42.988023463783804" lon="11.087098373328294"><ele>109.0</ele><time>2026-04-06T10:28:28.001Z</time></trkpt><trkpt lat="42.98779840696574" lon="11.087335060523905"><ele>109.0</ele><time>2026-04-06T10:28:29Z</time></trkpt><trkpt lat="42.9875785306" lon="11.087575529023093"><ele>106.0</ele><time>2026-04-06T10:28:30Z</time></trkpt><trkpt lat="42.98735788447769" lon="11.087807948707988"><ele>103.0</ele><time>2026-04-06T10:28:31Z</time></trkpt><trkpt lat="42.987137453681235" lon="11.088043176230407"><ele>102.5</ele><time>2026-04-06T10:28:32Z</time></trkpt><trkpt lat="42.98692095759861" lon="11.088277737170738"><ele>102.0</ele><time>2026-04-06T10:28:33Z</time></trkpt><trkpt lat="42.98670360522555" lon="11.088512067630733"><ele>101.5</ele><time>2026-04-06T10:28:34Z</time></trkpt><trkpt lat="42.98649060986257" lon="11.088745157644993"><ele>101.0</ele><time>2026-04-06T10:28:35Z</time></trkpt><trkpt lat="42.98627898324247" lon="11.088977202971652"><ele>100.5</ele><time>2026-04-06T10:28:36Z</time></trkpt><trkpt lat="42.98606524127177" lon="11.089204768231768"><ele>100.0</ele><time>2026-04-06T10:28:37Z</time></trkpt><trkpt lat="42.98585220790385" lon="11.089429492359848"><ele>99.0</ele><time>2026-04-06T10:28:38Z</time></trkpt><trkpt lat="42.98564275373067" lon="11.08965501054308"><ele>98.0</ele><time>2026-04-06T10:28:39Z</time></trkpt><trkpt lat="42.985435768063546" lon="11.089872212607618"><ele>98.5</ele><time>2026-04-06T10:28:40Z</time></trkpt><trkpt lat="42.98523197805592" lon="11.090091092935356"><ele>99.0</ele><time>2026-04-06T10:28:41Z</time></trkpt><trkpt lat="42.985028609247436" lon="11.090311166142488"><ele>97.0</ele><time>2026-04-06T10:28:42Z</time></trkpt><trkpt lat="42.98482593968003" lon="11.090520729024052"><ele>95.0</ele><time>2026-04-06T10:28:43Z</time></trkpt><trkpt lat="42.98462884554524" lon="11.090730525531221"><ele>94.5</ele><time>2026-04-06T10:28:44Z</time></trkpt><trkpt lat="42.98443743318126" lon="11.090938284121155"><ele>94.0</ele><time>2026-04-06T10:28:45Z</time></trkpt><trkpt lat="42.98424762900343" lon="11.091150084212268"><ele>93.5</ele><time>2026-04-06T10:28:46Z</time></trkpt><trkpt lat="42.9840592460614" lon="11.091354667585124"><ele>93.0</ele><time>2026-04-06T10:28:47Z</time></trkpt><trkpt lat="42.98387291665928" lon="11.091560562204513"><ele>93.0</ele><time>2026-04-06T10:28:48Z</time></trkpt><trkpt lat="42.98368509752985" lon="11.091760674883822"><ele>93.0</ele><time>2026-04-06T10:28:49Z</time></trkpt><trkpt lat="42.983500607003144" lon="11.09195629025962"><ele>92.5</ele><time>2026-04-06T10:28:50Z</time></trkpt><trkpt lat="42.98331871473172" lon="11.092157522804666"><ele>92.0</ele><time>2026-04-06T10:28:51Z</time></trkpt><trkpt lat="42.9831371096807" lon="11.092356102056812"><ele>92.0</ele><time>2026-04-06T10:28:52Z</time></trkpt><trkpt lat="42.98295354085677" lon="11.092552258660783"><ele>92.0</ele><time>2026-04-06T10:28:53Z</time></trkpt><trkpt lat="42.98277072166553" lon="11.092746524143678"><ele>92.0</ele><time>2026-04-06T10:28:54Z</time></trkpt><trkpt lat="42.98258827169206" lon="11.092937373395946"><ele>92.0</ele><time>2026-04-06T10:28:55Z</time></trkpt><trkpt lat="42.98241878546707" lon="11.093150339681927"><ele>91.5</ele><time>2026-04-06T10:28:56Z</time></trkpt><trkpt lat="42.98225290743261" lon="11.093377046894703"><ele>91.0</ele><time>2026-04-06T10:28:57Z</time></trkpt><trkpt lat="42.98203746694051" lon="11.09353191187589"><ele>91.0</ele><time>2026-04-06T10:28:58Z</time></trkpt><trkpt lat="42.98185497902214" lon="11.093720967369032"><ele>91.0</ele><time>2026-04-06T10:28:59Z</time></trkpt><trkpt lat="42.98166331098931" lon="11.093887606560774"><ele>90.5</ele><time>2026-04-06T10:29:00Z</time></trkpt><trkpt lat="42.981459922913785" lon="11.094030483183763"><ele>90.0</ele><time>2026-04-06T10:29:01Z</time></trkpt><trkpt lat="42.9812434331238" lon="11.09415109891504"><ele>90.0</ele><time>2026-04-06T10:29:02Z</time></trkpt><trkpt lat="42.98101906854137" lon="11.094256089000117"><ele>90.0</ele><time>2026-04-06T10:29:03Z</time></trkpt><trkpt lat="42.980783096220314" lon="11.094342175890786"><ele>89.0</ele><time>2026-04-06T10:29:04Z</time></trkpt><trkpt lat="42.98053550019014" lon="11.094400103900801"><ele>88.0</ele><time>2026-04-06T10:29:05Z</time></trkpt><trkpt lat="42.980280467460986" lon="11.094428076879053"><ele>88.0</ele><time>2026-04-06T10:29:06Z</time></trkpt><trkpt lat="42.9800184485514" lon="11.09442441755434"><ele>88.0</ele><time>2026-04-06T10:29:07Z</time></trkpt><trkpt lat="42.97975899700197" lon="11.094390759558479"><ele>87.5</ele><time>2026-04-06T10:29:08Z</time></trkpt><trkpt lat="42.97949886597822" lon="11.094335785243336"><ele>87.0</ele><time>2026-04-06T10:29:09Z</time></trkpt><trkpt lat="42.97924212409889" lon="11.094272032615216"><ele>86.5</ele><time>2026-04-06T10:29:10Z</time></trkpt><trkpt lat="42.97898166564867" lon="11.094198360296248"><ele>86.0</ele><time>2026-04-06T10:29:11Z</time></trkpt><trkpt lat="42.97872627189427" lon="11.094132393428477"><ele>86.0</ele><time>2026-04-06T10:29:12Z</time></trkpt><trkpt lat="42.97847566531339" lon="11.09407299404885"><ele>86.0</ele><time>2026-04-06T10:29:13Z</time></trkpt><trkpt lat="42.97822736833855" lon="11.094013417969665"><ele>86.0</ele><time>2026-04-06T10:29:14Z</time></trkpt><trkpt lat="42.977982729446445" lon="11.093950207219988"><ele>86.0</ele><time>2026-04-06T10:29:15Z</time></trkpt><trkpt lat="42.9777394804365" lon="11.093884607097435"><ele>85.0</ele><time>2026-04-06T10:29:16Z</time></trkpt><trkpt lat="42.977502775584824" lon="11.093822866287713"><ele>84.0</ele><time>2026-04-06T10:29:17Z</time></trkpt><trkpt lat="42.97727232013725" lon="11.09376151939453"><ele>84.0</ele><time>2026-04-06T10:29:18Z</time></trkpt><trkpt lat="42.977041905091475" lon="11.093702055806498"><ele>84.0</ele><time>2026-04-06T10:29:19Z</time></trkpt><trkpt lat="42.97680740433857" lon="11.093641149442188"><ele>84.0</ele><time>2026-04-06T10:29:20Z</time></trkpt><trkpt lat="42.97656962168812" lon="11.093579569862419"><ele>84.0</ele><time>2026-04-06T10:29:21Z</time></trkpt><trkpt lat="42.976329132619725" lon="11.093517521085735"><ele>84.0</ele><time>2026-04-06T10:29:22Z</time></trkpt><trkpt lat="42.97608760272641" lon="11.0934550051226"><ele>84.0</ele><time>2026-04-06T10:29:23Z</time></trkpt><trkpt lat="42.97584604449278" lon="11.09339322128082"><ele>82.0</ele><time>2026-04-06T10:29:24Z</time></trkpt><trkpt lat="42.97560684327368" lon="11.09332891568957"><ele>80.0</ele><time>2026-04-06T10:29:25.001Z</time></trkpt><trkpt lat="42.97536819384303" lon="11.093266384494882"><ele>80.0</ele><time>2026-04-06T10:29:26.001Z</time></trkpt><trkpt lat="42.97512873511473" lon="11.093202352235778"><ele>80.0</ele><time>2026-04-06T10:29:27.001Z</time></trkpt><trkpt lat="42.97489055143043" lon="11.093138874918568"><ele>79.5</ele><time>2026-04-06T10:29:28.001Z</time></trkpt><trkpt lat="42.97464935316643" lon="11.09307657764316"><ele>79.0</ele><time>2026-04-06T10:29:29.001Z</time></trkpt><trkpt lat="42.97441001884737" lon="11.093011999899563"><ele>79.5</ele><time>2026-04-06T10:29:30.001Z</time></trkpt><trkpt lat="42.97417260821129" lon="11.092948985395482"><ele>80.0</ele><time>2026-04-06T10:29:31.001Z</time></trkpt><trkpt lat="42.97393439540421" lon="11.092888258569337"><ele>80.0</ele><time>2026-04-06T10:29:32.001Z</time></trkpt><trkpt lat="42.97369534384083" lon="11.092830595423168"><ele>80.0</ele><time>2026-04-06T10:29:33.001Z</time></trkpt><trkpt lat="42.97345733807867" lon="11.092771761588844"><ele>78.5</ele><time>2026-04-06T10:29:34.001Z</time></trkpt><trkpt lat="42.97321898525396" lon="11.092711684721465"><ele>77.0</ele><time>2026-04-06T10:29:35.001Z</time></trkpt><trkpt lat="42.97298016254468" lon="11.092653254850484"><ele>77.0</ele><time>2026-04-06T10:29:36.001Z</time></trkpt><trkpt lat="42.9727410446151" lon="11.092604274737795"><ele>77.0</ele><time>2026-04-06T10:29:37.001Z</time></trkpt><trkpt lat="42.97250308556358" lon="11.092535715932453"><ele>76.5</ele><time>2026-04-06T10:29:38.001Z</time></trkpt><trkpt lat="42.972261867261246" lon="11.092467826040732"><ele>76.0</ele><time>2026-04-06T10:29:39.001Z</time></trkpt><trkpt lat="42.97202039218202" lon="11.09240157287469"><ele>76.0</ele><time>2026-04-06T10:29:40.001Z</time></trkpt><trkpt lat="42.97177864304376" lon="11.09233956031528"><ele>76.0</ele><time>2026-04-06T10:29:41.001Z</time></trkpt><trkpt lat="42.97153787790025" lon="11.09227821713001"><ele>76.0</ele><time>2026-04-06T10:29:42.001Z</time></trkpt><trkpt lat="42.97129813322264" lon="11.09222127231348"><ele>76.0</ele><time>2026-04-06T10:29:43.001Z</time></trkpt><trkpt lat="42.97105751063606" lon="11.092159335192944"><ele>75.5</ele><time>2026-04-06T10:29:44.001Z</time></trkpt><trkpt lat="42.97081769565403" lon="11.092095576233726"><ele>75.0</ele><time>2026-04-06T10:29:45.001Z</time></trkpt><trkpt lat="42.970579856798096" lon="11.0920387169633"><ele>75.0</ele><time>2026-04-06T10:29:46.001Z</time></trkpt><trkpt lat="42.970340770253586" lon="11.091979561444386"><ele>75.0</ele><time>2026-04-06T10:29:47.001Z</time></trkpt><trkpt lat="42.9701010201567" lon="11.091919947534862"><ele>74.0</ele><time>2026-04-06T10:29:48.001Z</time></trkpt><trkpt lat="42.96986343146027" lon="11.091859280322984"><ele>73.0</ele><time>2026-04-06T10:29:49.001Z</time></trkpt><trkpt lat="42.969628636344616" lon="11.091802160200736"><ele>73.0</ele><time>2026-04-06T10:29:50.001Z</time></trkpt><trkpt lat="42.96939002690746" lon="11.091741848428546"><ele>73.0</ele><time>2026-04-06T10:29:51.001Z</time></trkpt><trkpt lat="42.96915082903986" lon="11.091677805348858"><ele>71.5</ele><time>2026-04-06T10:29:52.001Z</time></trkpt><trkpt lat="42.968914322103274" lon="11.091620102250774"><ele>70.0</ele><time>2026-04-06T10:29:53.001Z</time></trkpt><trkpt lat="42.96867606391175" lon="11.091560515142799"><ele>70.0</ele><time>2026-04-06T10:29:54.001Z</time></trkpt><trkpt lat="42.96843733610292" lon="11.091501545905334"><ele>70.0</ele><time>2026-04-06T10:29:55.001Z</time></trkpt><trkpt lat="42.968199035345876" lon="11.09144543290867"><ele>70.0</ele><time>2026-04-06T10:29:56.001Z</time></trkpt><trkpt lat="42.96795769910731" lon="11.091381866516327"><ele>70.0</ele><time>2026-04-06T10:29:57.001Z</time></trkpt><trkpt lat="42.96771738447764" lon="11.091318988305733"><ele>70.0</ele><time>2026-04-06T10:29:58.001Z</time></trkpt><trkpt lat="42.96747562763117" lon="11.091254841730246"><ele>70.0</ele><time>2026-04-06T10:29:59.001Z</time></trkpt><trkpt lat="42.967236817538854" lon="11.091191745324664"><ele>70.0</ele><time>2026-04-06T10:30:00.001Z</time></trkpt><trkpt lat="42.96699888602077" lon="11.091126084442074"><ele>70.0</ele><time>2026-04-06T10:30:01.001Z</time></trkpt><trkpt lat="42.96675983398087" lon="11.091068510518825"><ele>70.0</ele><time>2026-04-06T10:30:02.001Z</time></trkpt><trkpt lat="42.966521288621045" lon="11.091006990125823"><ele>70.0</ele><time>2026-04-06T10:30:03.001Z</time></trkpt><trkpt lat="42.966281457197574" lon="11.090943496294507"><ele>70.0</ele><time>2026-04-06T10:30:04.001Z</time></trkpt><trkpt lat="42.966043382903266" lon="11.090879696835637"><ele>70.0</ele><time>2026-04-06T10:30:05.001Z</time></trkpt><trkpt lat="42.965806975868965" lon="11.090815295429802"><ele>69.0</ele><time>2026-04-06T10:30:06.001Z</time></trkpt><trkpt lat="42.96556964859297" lon="11.090749650925863"><ele>68.0</ele><time>2026-04-06T10:30:07.001Z</time></trkpt><trkpt lat="42.96532717775199" lon="11.090687176345874"><ele>68.0</ele><time>2026-04-06T10:30:08.001Z</time></trkpt><trkpt lat="42.96508784560235" lon="11.090632858660264"><ele>68.0</ele><time>2026-04-06T10:30:09.001Z</time></trkpt><trkpt lat="42.96484763623062" lon="11.090568867046754"><ele>67.0</ele><time>2026-04-06T10:30:10.001Z</time></trkpt><trkpt lat="42.964608755790515" lon="11.090505680206553"><ele>66.0</ele><time>2026-04-06T10:30:11.001Z</time></trkpt><trkpt lat="42.96436799420302" lon="11.090444341395202"><ele>65.5</ele><time>2026-04-06T10:30:12.001Z</time></trkpt><trkpt lat="42.96412789902567" lon="11.090382013549409"><ele>65.0</ele><time>2026-04-06T10:30:13.001Z</time></trkpt><trkpt lat="42.96388841492833" lon="11.090320237858213"><ele>65.0</ele><time>2026-04-06T10:30:14.001Z</time></trkpt><trkpt lat="42.96365028441716" lon="11.09025935242303"><ele>65.0</ele><time>2026-04-06T10:30:15.001Z</time></trkpt><trkpt lat="42.963411662327466" lon="11.090198318633714"><ele>64.0</ele><time>2026-04-06T10:30:16.001Z</time></trkpt><trkpt lat="42.963170755651596" lon="11.09013532475318"><ele>63.0</ele><time>2026-04-06T10:30:17.001Z</time></trkpt><trkpt lat="42.962931708329364" lon="11.090074353788935"><ele>63.0</ele><time>2026-04-06T10:30:18.001Z</time></trkpt><trkpt lat="42.96269241142133" lon="11.090014103751557"><ele>63.0</ele><time>2026-04-06T10:30:19.001Z</time></trkpt><trkpt lat="42.96245312731428" lon="11.089954082462102"><ele>63.0</ele><time>2026-04-06T10:30:20.001Z</time></trkpt><trkpt lat="42.96221358920871" lon="11.089892796355226"><ele>63.0</ele><time>2026-04-06T10:30:21.001Z</time></trkpt><trkpt lat="42.96197487275403" lon="11.089833110624879"><ele>63.0</ele><time>2026-04-06T10:30:22.001Z</time></trkpt><trkpt lat="42.961735522619065" lon="11.089771893536723"><ele>63.0</ele><time>2026-04-06T10:30:23.001Z</time></trkpt><trkpt lat="42.961496682896374" lon="11.089711039799864"><ele>63.5</ele><time>2026-04-06T10:30:24.001Z</time></trkpt><trkpt lat="42.96125763585174" lon="11.089645621411353"><ele>64.0</ele><time>2026-04-06T10:30:25.001Z</time></trkpt><trkpt lat="42.961018799325856" lon="11.089584366957238"><ele>63.0</ele><time>2026-04-06T10:30:26.001Z</time></trkpt><trkpt lat="42.96078046800505" lon="11.089523053279157"><ele>62.0</ele><time>2026-04-06T10:30:27.001Z</time></trkpt><trkpt lat="42.96054125097964" lon="11.089464711098945"><ele>62.0</ele><time>2026-04-06T10:30:28.001Z</time></trkpt><trkpt lat="42.96029892938882" lon="11.089402124006117"><ele>62.0</ele><time>2026-04-06T10:30:29.001Z</time></trkpt><trkpt lat="42.96005723644269" lon="11.089343909755925"><ele>61.5</ele><time>2026-04-06T10:30:30.001Z</time></trkpt><trkpt lat="42.95981672503808" lon="11.089283657830858"><ele>61.0</ele><time>2026-04-06T10:30:31.001Z</time></trkpt><trkpt lat="42.9595763374885" lon="11.089224276689738"><ele>61.0</ele><time>2026-04-06T10:30:32.001Z</time></trkpt><trkpt lat="42.959335693394884" lon="11.089160961847414"><ele>61.0</ele><time>2026-04-06T10:30:33.001Z</time></trkpt><trkpt lat="42.95909812081253" lon="11.089101504426448"><ele>61.0</ele><time>2026-04-06T10:30:34.001Z</time></trkpt><trkpt lat="42.95886002665962" lon="11.089041351942356"><ele>61.0</ele><time>2026-04-06T10:30:35Z</time></trkpt><trkpt lat="42.9586209936828" lon="11.088981455665422"><ele>61.0</ele><time>2026-04-06T10:30:36Z</time></trkpt><trkpt lat="42.95838267779715" lon="11.088922348714902"><ele>61.0</ele><time>2026-04-06T10:30:37Z</time></trkpt><trkpt lat="42.95814520965179" lon="11.088861826487737"><ele>60.0</ele><time>2026-04-06T10:30:38Z</time></trkpt><trkpt lat="42.957906884757506" lon="11.088799061996731"><ele>59.0</ele><time>2026-04-06T10:30:39Z</time></trkpt><trkpt lat="42.957667186363615" lon="11.088736468451279"><ele>58.5</ele><time>2026-04-06T10:30:40Z</time></trkpt><trkpt lat="42.95742527025274" lon="11.088674810180615"><ele>58.0</ele><time>2026-04-06T10:30:41Z</time></trkpt><trkpt lat="42.957185214624204" lon="11.088616344530008"><ele>58.0</ele><time>2026-04-06T10:30:42Z</time></trkpt><trkpt lat="42.95694634132406" lon="11.0885579017562"><ele>58.0</ele><time>2026-04-06T10:30:43Z</time></trkpt><trkpt lat="42.956707057998635" lon="11.088499377760971"><ele>58.5</ele><time>2026-04-06T10:30:44Z</time></trkpt><trkpt lat="42.95646916376678" lon="11.088440730885404"><ele>59.0</ele><time>2026-04-06T10:30:45Z</time></trkpt><trkpt lat="42.95623259045663" lon="11.08837989543918"><ele>59.0</ele><time>2026-04-06T10:30:46Z</time></trkpt><trkpt lat="42.95599231047239" lon="11.088316611658534"><ele>59.0</ele><time>2026-04-06T10:30:47Z</time></trkpt><trkpt lat="42.95575185848366" lon="11.08825321909051"><ele>58.0</ele><time>2026-04-06T10:30:48Z</time></trkpt><trkpt lat="42.955511793251425" lon="11.088192113668656"><ele>57.0</ele><time>2026-04-06T10:30:49Z</time></trkpt><trkpt lat="42.955270524131095" lon="11.08812977428767"><ele>57.0</ele><time>2026-04-06T10:30:50Z</time></trkpt><trkpt lat="42.955030732936685" lon="11.088065334522227"><ele>57.0</ele><time>2026-04-06T10:30:51Z</time></trkpt><trkpt lat="42.95479211197932" lon="11.0880025080843"><ele>57.0</ele><time>2026-04-06T10:30:52Z</time></trkpt><trkpt lat="42.95455284564801" lon="11.087944374976415"><ele>57.0</ele><time>2026-04-06T10:30:53Z</time></trkpt><trkpt lat="42.95431167016956" lon="11.087879252822919"><ele>57.0</ele><time>2026-04-06T10:30:54Z</time></trkpt><trkpt lat="42.95407184655756" lon="11.087816276690102"><ele>57.0</ele><time>2026-04-06T10:30:55Z</time></trkpt><trkpt lat="42.95383201662016" lon="11.087755521211076"><ele>57.0</ele><time>2026-04-06T10:30:56Z</time></trkpt><trkpt lat="42.95359237104715" lon="11.087693018873898"><ele>57.0</ele><time>2026-04-06T10:30:57Z</time></trkpt><trkpt lat="42.95335698562911" lon="11.087635263646394"><ele>56.5</ele><time>2026-04-06T10:30:58Z</time></trkpt><trkpt lat="42.95311650498274" lon="11.08756965348028"><ele>56.0</ele><time>2026-04-06T10:30:59Z</time></trkpt><trkpt lat="42.952878142510805" lon="11.087507498179514"><ele>56.0</ele><time>2026-04-06T10:31:00Z</time></trkpt><trkpt lat="42.95263884700811" lon="11.087445969069606"><ele>56.0</ele><time>2026-04-06T10:31:01Z</time></trkpt><trkpt lat="42.952398371477486" lon="11.087385296453277"><ele>56.0</ele><time>2026-04-06T10:31:02Z</time></trkpt><trkpt lat="42.95215961097108" lon="11.087326674494673"><ele>56.0</ele><time>2026-04-06T10:31:03Z</time></trkpt><trkpt lat="42.95191971780489" lon="11.08726226298862"><ele>55.5</ele><time>2026-04-06T10:31:04Z</time></trkpt><trkpt lat="42.95168024566735" lon="11.08720172450076"><ele>55.0</ele><time>2026-04-06T10:31:05Z</time></trkpt><trkpt lat="42.95144145181249" lon="11.08713946087192"><ele>55.0</ele><time>2026-04-06T10:31:06Z</time></trkpt><trkpt lat="42.951202155648126" lon="11.087077231598313"><ele>55.0</ele><time>2026-04-06T10:31:07Z</time></trkpt><trkpt lat="42.950964762101535" lon="11.087021403648048"><ele>54.5</ele><time>2026-04-06T10:31:08Z</time></trkpt><trkpt lat="42.95072455955196" lon="11.086963303329624"><ele>54.0</ele><time>2026-04-06T10:31:09Z</time></trkpt><trkpt lat="42.95048587216382" lon="11.086906204273138"><ele>54.0</ele><time>2026-04-06T10:31:10Z</time></trkpt><trkpt lat="42.95024828424142" lon="11.08684725933275"><ele>54.0</ele><time>2026-04-06T10:31:11Z</time></trkpt><trkpt lat="42.95000788274206" lon="11.08679098880121"><ele>54.0</ele><time>2026-04-06T10:31:12Z</time></trkpt><trkpt lat="42.949769040098666" lon="11.086732671980181"><ele>54.0</ele><time>2026-04-06T10:31:13Z</time></trkpt><trkpt lat="42.94953029489715" lon="11.086668505632174"><ele>54.0</ele><time>2026-04-06T10:31:14Z</time></trkpt><trkpt lat="42.94929255617978" lon="11.086605406031929"><ele>54.0</ele><time>2026-04-06T10:31:15Z</time></trkpt><trkpt lat="42.94905622525782" lon="11.08654407973993"><ele>53.0</ele><time>2026-04-06T10:31:16Z</time></trkpt><trkpt lat="42.94881847646268" lon="11.086482451452516"><ele>52.0</ele><time>2026-04-06T10:31:17Z</time></trkpt><trkpt lat="42.94857972175438" lon="11.086420709558949"><ele>51.5</ele><time>2026-04-06T10:31:18Z</time></trkpt><trkpt lat="42.94834012090312" lon="11.086357732574458"><ele>51.0</ele><time>2026-04-06T10:31:19Z</time></trkpt><trkpt lat="42.94810039527818" lon="11.086299491949891"><ele>51.0</ele><time>2026-04-06T10:31:20Z</time></trkpt><trkpt lat="42.94785971994903" lon="11.08624087839701"><ele>51.0</ele><time>2026-04-06T10:31:21Z</time></trkpt><trkpt lat="42.94761964946876" lon="11.086182104933592"><ele>50.5</ele><time>2026-04-06T10:31:22Z</time></trkpt><trkpt lat="42.947380719466445" lon="11.086124174778716"><ele>50.0</ele><time>2026-04-06T10:31:23Z</time></trkpt><trkpt lat="42.94714318805776" lon="11.086069588744978"><ele>50.0</ele><time>2026-04-06T10:31:24Z</time></trkpt><trkpt lat="42.94690358776925" lon="11.086010889950119"><ele>50.0</ele><time>2026-04-06T10:31:25Z</time></trkpt><trkpt lat="42.94666603681652" lon="11.08595379374068"><ele>49.5</ele><time>2026-04-06T10:31:26Z</time></trkpt><trkpt lat="42.94642802515536" lon="11.085896056509508"><ele>49.0</ele><time>2026-04-06T10:31:27Z</time></trkpt><trkpt lat="42.94619010993177" lon="11.085837877021095"><ele>49.0</ele><time>2026-04-06T10:31:28Z</time></trkpt><trkpt lat="42.9459518646258" lon="11.085777403977305"><ele>49.0</ele><time>2026-04-06T10:31:29Z</time></trkpt><trkpt lat="42.94571515422387" lon="11.085719041965868"><ele>49.0</ele><time>2026-04-06T10:31:30Z</time></trkpt><trkpt lat="42.945475599865205" lon="11.085654157318801"><ele>49.0</ele><time>2026-04-06T10:31:31Z</time></trkpt><trkpt lat="42.945238710763334" lon="11.085595262394953"><ele>48.5</ele><time>2026-04-06T10:31:32Z</time></trkpt><trkpt lat="42.94499954158659" lon="11.085534451023065"><ele>48.0</ele><time>2026-04-06T10:31:33.001Z</time></trkpt><trkpt lat="42.94476046758242" lon="11.085470466897794"><ele>48.0</ele><time>2026-04-06T10:31:34.001Z</time></trkpt><trkpt lat="42.94452106017578" lon="11.085413158174394"><ele>48.0</ele><time>2026-04-06T10:31:35.001Z</time></trkpt><trkpt lat="42.94428337703321" lon="11.085349241752171"><ele>47.5</ele><time>2026-04-06T10:31:36.001Z</time></trkpt><trkpt lat="42.944044088532834" lon="11.085282808945076"><ele>47.0</ele><time>2026-04-06T10:31:37.001Z</time></trkpt><trkpt lat="42.943805282185494" lon="11.085215601197858"><ele>47.0</ele><time>2026-04-06T10:31:38.001Z</time></trkpt><trkpt lat="42.94356583985738" lon="11.08515615960182"><ele>47.0</ele><time>2026-04-06T10:31:39.001Z</time></trkpt><trkpt lat="42.94332378714383" lon="11.085095537415524"><ele>46.5</ele><time>2026-04-06T10:31:40.001Z</time></trkpt><trkpt lat="42.94308215382032" lon="11.085038383376174"><ele>46.0</ele><time>2026-04-06T10:31:41.001Z</time></trkpt><trkpt lat="42.94284495330217" lon="11.084980618550292"><ele>46.0</ele><time>2026-04-06T10:31:42.001Z</time></trkpt><trkpt lat="42.94260580090483" lon="11.084919997157343"><ele>46.0</ele><time>2026-04-06T10:31:43.001Z</time></trkpt><trkpt lat="42.94236687827385" lon="11.084860065934375"><ele>45.5</ele><time>2026-04-06T10:31:44.001Z</time></trkpt><trkpt lat="42.942128396338475" lon="11.084800662545426"><ele>45.0</ele><time>2026-04-06T10:31:45.001Z</time></trkpt><trkpt lat="42.94188796528082" lon="11.084734339495315"><ele>44.5</ele><time>2026-04-06T10:31:46.001Z</time></trkpt><trkpt lat="42.941647249059706" lon="11.084664418068177"><ele>44.0</ele><time>2026-04-06T10:31:47.001Z</time></trkpt><trkpt lat="42.941405843848315" lon="11.084599624372046"><ele>44.0</ele><time>2026-04-06T10:31:48.001Z</time></trkpt><trkpt lat="42.94116518039937" lon="11.084539676062239"><ele>44.0</ele><time>2026-04-06T10:31:49.001Z</time></trkpt><trkpt lat="42.940923243265736" lon="11.084479194364459"><ele>44.5</ele><time>2026-04-06T10:31:50.001Z</time></trkpt><trkpt lat="42.940682504020906" lon="11.084419945304276"><ele>45.0</ele><time>2026-04-06T10:31:51.001Z</time></trkpt><trkpt lat="42.94044269162417" lon="11.084357270019506"><ele>45.0</ele><time>2026-04-06T10:31:52.001Z</time></trkpt><trkpt lat="42.940203242628805" lon="11.084289737667552"><ele>45.0</ele><time>2026-04-06T10:31:53.001Z</time></trkpt><trkpt lat="42.93996495862381" lon="11.084228608148859"><ele>44.5</ele><time>2026-04-06T10:31:54.001Z</time></trkpt><trkpt lat="42.9397250498111" lon="11.084163334493686"><ele>44.0</ele><time>2026-04-06T10:31:55.001Z</time></trkpt><trkpt lat="42.93948669478641" lon="11.084101512822503"><ele>44.0</ele><time>2026-04-06T10:31:56.001Z</time></trkpt><trkpt lat="42.93924679699785" lon="11.084042208659632"><ele>44.0</ele><time>2026-04-06T10:31:57.001Z</time></trkpt><trkpt lat="42.93900706257822" lon="11.083986603118793"><ele>43.5</ele><time>2026-04-06T10:31:58.001Z</time></trkpt><trkpt lat="42.938766227690195" lon="11.083926926186844"><ele>43.0</ele><time>2026-04-06T10:31:59.001Z</time></trkpt><trkpt lat="42.9385262634778" lon="11.083866406656247"><ele>42.5</ele><time>2026-04-06T10:32:00.001Z</time></trkpt><trkpt lat="42.93828769382518" lon="11.083807476049067"><ele>42.0</ele><time>2026-04-06T10:32:01.001Z</time></trkpt><trkpt lat="42.93804820426307" lon="11.083745745673166"><ele>42.0</ele><time>2026-04-06T10:32:02.001Z</time></trkpt><trkpt lat="42.937810157270356" lon="11.083682903636198"><ele>42.0</ele><time>2026-04-06T10:32:03.001Z</time></trkpt><trkpt lat="42.93756981085919" lon="11.083621175992633"><ele>41.5</ele><time>2026-04-06T10:32:04.001Z</time></trkpt><trkpt lat="42.93733013706288" lon="11.08356215619102"><ele>41.0</ele><time>2026-04-06T10:32:05.001Z</time></trkpt><trkpt lat="42.93709118855849" lon="11.083503637367459"><ele>41.0</ele><time>2026-04-06T10:32:06.001Z</time></trkpt><trkpt lat="42.93685234361192" lon="11.08344461904248"><ele>41.0</ele><time>2026-04-06T10:32:07.001Z</time></trkpt><trkpt lat="42.93661150418788" lon="11.083382740247599"><ele>41.0</ele><time>2026-04-06T10:32:08.001Z</time></trkpt><trkpt lat="42.93637216269468" lon="11.083320575403944"><ele>41.0</ele><time>2026-04-06T10:32:09.001Z</time></trkpt><trkpt lat="42.936134829090605" lon="11.083260552653234"><ele>42.0</ele><time>2026-04-06T10:32:10.001Z</time></trkpt><trkpt lat="42.935893767465146" lon="11.083199999139117"><ele>43.0</ele><time>2026-04-06T10:32:11.001Z</time></trkpt><trkpt lat="42.93565356456373" lon="11.083139010798789"><ele>44.0</ele><time>2026-04-06T10:32:12.001Z</time></trkpt><trkpt lat="42.93541269388791" lon="11.083076119174981"><ele>45.0</ele><time>2026-04-06T10:32:13.001Z</time></trkpt><trkpt lat="42.9351721691821" lon="11.083017681060761"><ele>44.0</ele><time>2026-04-06T10:32:14.001Z</time></trkpt><trkpt lat="42.93493056477997" lon="11.082952456231762"><ele>43.0</ele><time>2026-04-06T10:32:15.001Z</time></trkpt><trkpt lat="42.93469199644642" lon="11.082887004365888"><ele>43.0</ele><time>2026-04-06T10:32:16.001Z</time></trkpt><trkpt lat="42.934452516604104" lon="11.082825109506983"><ele>43.0</ele><time>2026-04-06T10:32:17.001Z</time></trkpt><trkpt lat="42.9342161442359" lon="11.08276469189269"><ele>43.5</ele><time>2026-04-06T10:32:18.001Z</time></trkpt><trkpt lat="42.93398022699393" lon="11.082705383223203"><ele>44.0</ele><time>2026-04-06T10:32:19.001Z</time></trkpt><trkpt lat="42.93374130566255" lon="11.082642903478297"><ele>44.0</ele><time>2026-04-06T10:32:20.001Z</time></trkpt><trkpt lat="42.93350532774082" lon="11.082580763620893"><ele>44.0</ele><time>2026-04-06T10:32:21.001Z</time></trkpt><trkpt lat="42.93327104408185" lon="11.082526613563623"><ele>44.0</ele><time>2026-04-06T10:32:22.001Z</time></trkpt><trkpt lat="42.93303243429273" lon="11.082468351264453"><ele>44.0</ele><time>2026-04-06T10:32:23.001Z</time></trkpt><trkpt lat="42.93279459478777" lon="11.08241373840392"><ele>43.5</ele><time>2026-04-06T10:32:24.001Z</time></trkpt><trkpt lat="42.932556108311694" lon="11.082353913917329"><ele>43.0</ele><time>2026-04-06T10:32:25.001Z</time></trkpt><trkpt lat="42.9323187455115" lon="11.08229596854484"><ele>43.0</ele><time>2026-04-06T10:32:26.001Z</time></trkpt><trkpt lat="42.93208013345738" lon="11.08223712367461"><ele>43.0</ele><time>2026-04-06T10:32:27.001Z</time></trkpt><trkpt lat="42.93184234634333" lon="11.082182477374229"><ele>42.5</ele><time>2026-04-06T10:32:28.001Z</time></trkpt><trkpt lat="42.93160278422835" lon="11.082121189814673"><ele>42.0</ele><time>2026-04-06T10:32:29.001Z</time></trkpt><trkpt lat="42.931362824127866" lon="11.08205973405809"><ele>42.0</ele><time>2026-04-06T10:32:30.001Z</time></trkpt><trkpt lat="42.93112197249856" lon="11.081998519547186"><ele>42.0</ele><time>2026-04-06T10:32:31.001Z</time></trkpt><trkpt lat="42.93087918951216" lon="11.081926658298382"><ele>41.5</ele><time>2026-04-06T10:32:32.001Z</time></trkpt><trkpt lat="42.93063558834063" lon="11.081863445186318"><ele>41.0</ele><time>2026-04-06T10:32:33.001Z</time></trkpt><trkpt lat="42.930395882861646" lon="11.081805712630763"><ele>41.0</ele><time>2026-04-06T10:32:34.001Z</time></trkpt><trkpt lat="42.93015443418376" lon="11.08174457040807"><ele>41.0</ele><time>2026-04-06T10:32:35.001Z</time></trkpt><trkpt lat="42.92991254940903" lon="11.081686000512812"><ele>41.5</ele><time>2026-04-06T10:32:36.001Z</time></trkpt><trkpt lat="42.9296730623904" lon="11.081625049465426"><ele>42.0</ele><time>2026-04-06T10:32:37.001Z</time></trkpt><trkpt lat="42.92943719641952" lon="11.08156170784865"><ele>42.0</ele><time>2026-04-06T10:32:38.001Z</time></trkpt><trkpt lat="42.929199676718504" lon="11.081503735201386"><ele>42.0</ele><time>2026-04-06T10:32:39.001Z</time></trkpt><trkpt lat="42.92895613667058" lon="11.081445089010277"><ele>42.0</ele><time>2026-04-06T10:32:40.001Z</time></trkpt><trkpt lat="42.92871816233813" lon="11.081387740170847"><ele>42.0</ele><time>2026-04-06T10:32:41Z</time></trkpt><trkpt lat="42.9284745570498" lon="11.081322051485115"><ele>41.0</ele><time>2026-04-06T10:32:42Z</time></trkpt><trkpt lat="42.92823412379867" lon="11.081257012006684"><ele>40.0</ele><time>2026-04-06T10:32:43Z</time></trkpt><trkpt lat="42.92799516926123" lon="11.081191896210012"><ele>40.0</ele><time>2026-04-06T10:32:44Z</time></trkpt><trkpt lat="42.9277563781206" lon="11.08113251652268"><ele>40.0</ele><time>2026-04-06T10:32:45Z</time></trkpt><trkpt lat="42.92751626734684" lon="11.081069491295136"><ele>39.0</ele><time>2026-04-06T10:32:46Z</time></trkpt><trkpt lat="42.92727744333515" lon="11.081006925406331"><ele>38.0</ele><time>2026-04-06T10:32:47Z</time></trkpt><trkpt lat="42.927035773814076" lon="11.080943578094939"><ele>38.0</ele><time>2026-04-06T10:32:48Z</time></trkpt><trkpt lat="42.92679519388248" lon="11.080882626494141"><ele>38.0</ele><time>2026-04-06T10:32:49Z</time></trkpt><trkpt lat="42.92655562896232" lon="11.080816275895954"><ele>38.0</ele><time>2026-04-06T10:32:50Z</time></trkpt><trkpt lat="42.926317979239165" lon="11.080757841953412"><ele>38.0</ele><time>2026-04-06T10:32:51Z</time></trkpt><trkpt lat="42.926079773863606" lon="11.080704495165325"><ele>36.5</ele><time>2026-04-06T10:32:52Z</time></trkpt><trkpt lat="42.92583874871699" lon="11.080643977801088"><ele>35.0</ele><time>2026-04-06T10:32:53Z</time></trkpt><trkpt lat="42.92559810406677" lon="11.080579401070235"><ele>35.0</ele><time>2026-04-06T10:32:54Z</time></trkpt><trkpt lat="42.92535839082819" lon="11.080507342684127"><ele>35.0</ele><time>2026-04-06T10:32:55Z</time></trkpt><trkpt lat="42.925119576028926" lon="11.080449050279942"><ele>34.5</ele><time>2026-04-06T10:32:56Z</time></trkpt><trkpt lat="42.92488289792603" lon="11.08038444840708"><ele>34.0</ele><time>2026-04-06T10:32:57Z</time></trkpt><trkpt lat="42.92464239140356" lon="11.080334083604392"><ele>34.0</ele><time>2026-04-06T10:32:58Z</time></trkpt><trkpt lat="42.92440256540855" lon="11.080275411542901"><ele>34.0</ele><time>2026-04-06T10:32:59Z</time></trkpt><trkpt lat="42.92416248527299" lon="11.080213187938297"><ele>33.0</ele><time>2026-04-06T10:33:00Z</time></trkpt><trkpt lat="42.92392470515609" lon="11.08014803553255"><ele>32.0</ele><time>2026-04-06T10:33:01Z</time></trkpt><trkpt lat="42.92368542013741" lon="11.080084792659543"><ele>32.0</ele><time>2026-04-06T10:33:02Z</time></trkpt><trkpt lat="42.92344422372769" lon="11.080022071692234"><ele>32.0</ele><time>2026-04-06T10:33:03Z</time></trkpt><trkpt lat="42.923205428146616" lon="11.079960038905604"><ele>32.5</ele><time>2026-04-06T10:33:04Z</time></trkpt><trkpt lat="42.92296528486749" lon="11.07989685945145"><ele>33.0</ele><time>2026-04-06T10:33:05Z</time></trkpt><trkpt lat="42.9227258817263" lon="11.079836032497436"><ele>34.5</ele><time>2026-04-06T10:33:06Z</time></trkpt><trkpt lat="42.92248883927582" lon="11.079776616285782"><ele>36.0</ele><time>2026-04-06T10:33:07Z</time></trkpt><trkpt lat="42.92225151727304" lon="11.079715733303166"><ele>36.0</ele><time>2026-04-06T10:33:08Z</time></trkpt><trkpt lat="42.92201339246299" lon="11.07965354744855"><ele>36.0</ele><time>2026-04-06T10:33:09Z</time></trkpt><trkpt lat="42.9217761198725" lon="11.079594836610047"><ele>35.0</ele><time>2026-04-06T10:33:10Z</time></trkpt><trkpt lat="42.92153779596248" lon="11.07954010805438"><ele>34.0</ele><time>2026-04-06T10:33:11Z</time></trkpt><trkpt lat="42.92129562925838" lon="11.079480786328695"><ele>34.0</ele><time>2026-04-06T10:33:12Z</time></trkpt><trkpt lat="42.921054503940205" lon="11.079418955142582"><ele>34.0</ele><time>2026-04-06T10:33:13Z</time></trkpt><trkpt lat="42.92081424755127" lon="11.079357922948146"><ele>35.0</ele><time>2026-04-06T10:33:14Z</time></trkpt><trkpt lat="42.92057306105176" lon="11.079297588635386"><ele>36.0</ele><time>2026-04-06T10:33:15Z</time></trkpt><trkpt lat="42.92033083513355" lon="11.079234734232676"><ele>36.0</ele><time>2026-04-06T10:33:16Z</time></trkpt><trkpt lat="42.92009290055864" lon="11.079170483539933"><ele>36.0</ele><time>2026-04-06T10:33:17Z</time></trkpt><trkpt lat="42.919856370333214" lon="11.079105525973977"><ele>38.0</ele><time>2026-04-06T10:33:18Z</time></trkpt><trkpt lat="42.91961665234011" lon="11.079044701030435"><ele>40.0</ele><time>2026-04-06T10:33:19Z</time></trkpt><trkpt lat="42.919378319576744" lon="11.078990543426684"><ele>40.0</ele><time>2026-04-06T10:33:20Z</time></trkpt><trkpt lat="42.91913844393371" lon="11.078929550724549"><ele>40.0</ele><time>2026-04-06T10:33:21Z</time></trkpt><trkpt lat="42.91889993583072" lon="11.078868379442168"><ele>40.0</ele><time>2026-04-06T10:33:22Z</time></trkpt><trkpt lat="42.91866464823611" lon="11.078818009242132"><ele>40.0</ele><time>2026-04-06T10:33:23Z</time></trkpt><trkpt lat="42.918427937546056" lon="11.078764086732107"><ele>39.0</ele><time>2026-04-06T10:33:24Z</time></trkpt><trkpt lat="42.9181888400697" lon="11.078703897268031"><ele>38.0</ele><time>2026-04-06T10:33:25Z</time></trkpt><trkpt lat="42.917947463048854" lon="11.078640133623026"><ele>38.0</ele><time>2026-04-06T10:33:26Z</time></trkpt><trkpt lat="42.91770420446509" lon="11.078576752274113"><ele>38.0</ele><time>2026-04-06T10:33:27Z</time></trkpt><trkpt lat="42.9174635604676" lon="11.078512509467734"><ele>37.5</ele><time>2026-04-06T10:33:28Z</time></trkpt><trkpt lat="42.91721755569533" lon="11.078446396744509"><ele>37.0</ele><time>2026-04-06T10:33:29Z</time></trkpt><trkpt lat="42.91697416738581" lon="11.078382538961765"><ele>36.5</ele><time>2026-04-06T10:33:30Z</time></trkpt><trkpt lat="42.91673296919462" lon="11.078319548394731"><ele>36.0</ele><time>2026-04-06T10:33:31Z</time></trkpt><trkpt lat="42.91649604736849" lon="11.078257249859572"><ele>35.5</ele><time>2026-04-06T10:33:32Z</time></trkpt><trkpt lat="42.91626208772913" lon="11.078191383098273"><ele>35.0</ele><time>2026-04-06T10:33:33Z</time></trkpt><trkpt lat="42.9160261000716" lon="11.078117305939212"><ele>35.0</ele><time>2026-04-06T10:33:34Z</time></trkpt><trkpt lat="42.91579342847846" lon="11.078037724423716"><ele>35.0</ele><time>2026-04-06T10:33:35Z</time></trkpt><trkpt lat="42.915558301085674" lon="11.07795217328466"><ele>35.0</ele><time>2026-04-06T10:33:36Z</time></trkpt><trkpt lat="42.91532614439932" lon="11.07786590258841"><ele>35.0</ele><time>2026-04-06T10:33:37Z</time></trkpt><trkpt lat="42.915088851500194" lon="11.077770365150995"><ele>35.0</ele><time>2026-04-06T10:33:38.001Z</time></trkpt><trkpt lat="42.914851839482246" lon="11.077668183527527"><ele>35.0</ele><time>2026-04-06T10:33:39.001Z</time></trkpt><trkpt lat="42.914620110550125" lon="11.077569680152807"><ele>35.0</ele><time>2026-04-06T10:33:40.001Z</time></trkpt><trkpt lat="42.91438897859005" lon="11.07747141106017"><ele>35.0</ele><time>2026-04-06T10:33:41.001Z</time></trkpt><trkpt lat="42.91415882977515" lon="11.077372799909165"><ele>32.5</ele><time>2026-04-06T10:33:42.001Z</time></trkpt><trkpt lat="42.91392940187272" lon="11.077272045828455"><ele>30.0</ele><time>2026-04-06T10:33:43.001Z</time></trkpt><trkpt lat="42.91370074084727" lon="11.0771764161015"><ele>30.0</ele><time>2026-04-06T10:33:44.001Z</time></trkpt><trkpt lat="42.91346881748138" lon="11.07708105526821"><ele>30.0</ele><time>2026-04-06T10:33:45.001Z</time></trkpt><trkpt lat="42.91323480331014" lon="11.076983874300664"><ele>30.0</ele><time>2026-04-06T10:33:46.001Z</time></trkpt><trkpt lat="42.91300678434626" lon="11.07689456451975"><ele>30.0</ele><time>2026-04-06T10:33:47.001Z</time></trkpt><trkpt lat="42.912777976810375" lon="11.076801400389757"><ele>30.0</ele><time>2026-04-06T10:33:48.001Z</time></trkpt><trkpt lat="42.9125496980601" lon="11.076706373603209"><ele>30.0</ele><time>2026-04-06T10:33:49.001Z</time></trkpt><trkpt lat="42.91232107618875" lon="11.076612615530719"><ele>28.0</ele><time>2026-04-06T10:33:50.001Z</time></trkpt><trkpt lat="42.91208873956375" lon="11.076517377187718"><ele>26.0</ele><time>2026-04-06T10:33:51.001Z</time></trkpt><trkpt lat="42.911856707406756" lon="11.076422470582598"><ele>27.0</ele><time>2026-04-06T10:33:52.001Z</time></trkpt><trkpt lat="42.91162235916478" lon="11.076326100303449"><ele>28.0</ele><time>2026-04-06T10:33:53.001Z</time></trkpt><trkpt lat="42.91139078102154" lon="11.07623007404492"><ele>28.0</ele><time>2026-04-06T10:33:54.001Z</time></trkpt><trkpt lat="42.91115972340509" lon="11.076133984587038"><ele>28.0</ele><time>2026-04-06T10:33:55.001Z</time></trkpt><trkpt lat="42.91092658622848" lon="11.076038355242597"><ele>28.5</ele><time>2026-04-06T10:33:56.001Z</time></trkpt><trkpt lat="42.91069432146674" lon="11.075937511126323"><ele>29.0</ele><time>2026-04-06T10:33:57.001Z</time></trkpt><trkpt lat="42.91046065196907" lon="11.075836474412526"><ele>28.5</ele><time>2026-04-06T10:33:58.001Z</time></trkpt><trkpt lat="42.91022461914955" lon="11.075736004748434"><ele>28.0</ele><time>2026-04-06T10:33:59.001Z</time></trkpt><trkpt lat="42.909989486443884" lon="11.0756350881479"><ele>28.0</ele><time>2026-04-06T10:34:00.001Z</time></trkpt><trkpt lat="42.909756466378845" lon="11.07553644134341"><ele>28.0</ele><time>2026-04-06T10:34:01.001Z</time></trkpt><trkpt lat="42.90952340915846" lon="11.075438201969414"><ele>28.0</ele><time>2026-04-06T10:34:02.001Z</time></trkpt><trkpt lat="42.90929188960275" lon="11.075342231737583"><ele>28.0</ele><time>2026-04-06T10:34:03.001Z</time></trkpt><trkpt lat="42.909056833392796" lon="11.075243657834578"><ele>27.5</ele><time>2026-04-06T10:34:04.001Z</time></trkpt><trkpt lat="42.90882493805456" lon="11.075149597449833"><ele>27.0</ele><time>2026-04-06T10:34:05.001Z</time></trkpt><trkpt lat="42.90859359000527" lon="11.075054772851729"><ele>27.5</ele><time>2026-04-06T10:34:06.001Z</time></trkpt><trkpt lat="42.90836305491598" lon="11.0749590481287"><ele>28.0</ele><time>2026-04-06T10:34:07.001Z</time></trkpt><trkpt lat="42.908128096432414" lon="11.074863921870097"><ele>26.0</ele><time>2026-04-06T10:34:08.001Z</time></trkpt><trkpt lat="42.9079016807408" lon="11.074754362364132"><ele>24.0</ele><time>2026-04-06T10:34:09.001Z</time></trkpt><trkpt lat="42.907668261157355" lon="11.074650149538742"><ele>25.0</ele><time>2026-04-06T10:34:10.001Z</time></trkpt><trkpt lat="42.907435992890726" lon="11.074552547619014"><ele>26.0</ele><time>2026-04-06T10:34:11.001Z</time></trkpt><trkpt lat="42.90720039677413" lon="11.074450535077942"><ele>26.0</ele><time>2026-04-06T10:34:12.001Z</time></trkpt><trkpt lat="42.906966655604556" lon="11.074353307251085"><ele>26.0</ele><time>2026-04-06T10:34:13.001Z</time></trkpt><trkpt lat="42.90673314976138" lon="11.074252962496447"><ele>24.5</ele><time>2026-04-06T10:34:14.001Z</time></trkpt><trkpt lat="42.90650272621971" lon="11.074154890532522"><ele>23.0</ele><time>2026-04-06T10:34:15.001Z</time></trkpt><trkpt lat="42.90627035074232" lon="11.074058169853888"><ele>23.0</ele><time>2026-04-06T10:34:16.001Z</time></trkpt><trkpt lat="42.906038092246604" lon="11.073968947356892"><ele>23.0</ele><time>2026-04-06T10:34:17.001Z</time></trkpt><trkpt lat="42.905806968356934" lon="11.073869277120355"><ele>23.0</ele><time>2026-04-06T10:34:18.001Z</time></trkpt><trkpt lat="42.9055724651211" lon="11.07376963780551"><ele>23.0</ele><time>2026-04-06T10:34:19.001Z</time></trkpt><trkpt lat="42.90533808733393" lon="11.073669229749273"><ele>23.0</ele><time>2026-04-06T10:34:20.001Z</time></trkpt><trkpt lat="42.90510421228819" lon="11.07356877686766"><ele>23.0</ele><time>2026-04-06T10:34:21.001Z</time></trkpt><trkpt lat="42.904872599370556" lon="11.07346991168906"><ele>22.5</ele><time>2026-04-06T10:34:22.001Z</time></trkpt><trkpt lat="42.90463912209225" lon="11.073369415552026"><ele>22.0</ele><time>2026-04-06T10:34:23.001Z</time></trkpt><trkpt lat="42.9044080291045" lon="11.073274796191594"><ele>21.5</ele><time>2026-04-06T10:34:24.001Z</time></trkpt><trkpt lat="42.904176229176315" lon="11.073177815886226"><ele>21.0</ele><time>2026-04-06T10:34:25.001Z</time></trkpt><trkpt lat="42.90394696652729" lon="11.073083071792846"><ele>21.0</ele><time>2026-04-06T10:34:26.001Z</time></trkpt><trkpt lat="42.90371917933039" lon="11.072987816228801"><ele>21.0</ele><time>2026-04-06T10:34:27.001Z</time></trkpt><trkpt lat="42.90348842357821" lon="11.07288786757012"><ele>20.5</ele><time>2026-04-06T10:34:28.001Z</time></trkpt><trkpt lat="42.903254688608925" lon="11.07278841332689"><ele>20.0</ele><time>2026-04-06T10:34:29.001Z</time></trkpt><trkpt lat="42.90302282828857" lon="11.072689033142522"><ele>20.0</ele><time>2026-04-06T10:34:30.001Z</time></trkpt><trkpt lat="42.90278988607649" lon="11.072591783794117"><ele>20.0</ele><time>2026-04-06T10:34:31.001Z</time></trkpt><trkpt lat="42.90255334975844" lon="11.0724907811138"><ele>20.0</ele><time>2026-04-06T10:34:32.001Z</time></trkpt><trkpt lat="42.90231897798327" lon="11.072392444832401"><ele>20.0</ele><time>2026-04-06T10:34:33.001Z</time></trkpt><trkpt lat="42.90208376568116" lon="11.07229310955684"><ele>20.0</ele><time>2026-04-06T10:34:34.001Z</time></trkpt><trkpt lat="42.90185194922079" lon="11.07219405454616"><ele>20.0</ele><time>2026-04-06T10:34:35.001Z</time></trkpt><trkpt lat="42.90162021129454" lon="11.072094092114668"><ele>20.0</ele><time>2026-04-06T10:34:36.001Z</time></trkpt><trkpt lat="42.90138930086379" lon="11.071995941766458"><ele>20.0</ele><time>2026-04-06T10:34:37.001Z</time></trkpt><trkpt lat="42.901157376962296" lon="11.071896841056132"><ele>20.0</ele><time>2026-04-06T10:34:38.001Z</time></trkpt><trkpt lat="42.900923647851805" lon="11.071798491308677"><ele>20.0</ele><time>2026-04-06T10:34:39.001Z</time></trkpt><trkpt lat="42.90069238478668" lon="11.071701263121435"><ele>19.5</ele><time>2026-04-06T10:34:40.001Z</time></trkpt><trkpt lat="42.90045877292968" lon="11.071602401887787"><ele>19.0</ele><time>2026-04-06T10:34:41.001Z</time></trkpt><trkpt lat="42.900225144189655" lon="11.071506493582556"><ele>19.5</ele><time>2026-04-06T10:34:42.001Z</time></trkpt><trkpt lat="42.89999127017833" lon="11.071410125656616"><ele>20.0</ele><time>2026-04-06T10:34:43.001Z</time></trkpt><trkpt lat="42.89975978757215" lon="11.071313286785543"><ele>20.0</ele><time>2026-04-06T10:34:44.001Z</time></trkpt><trkpt lat="42.89952829664789" lon="11.07121470877418"><ele>20.0</ele><time>2026-04-06T10:34:45.001Z</time></trkpt><trkpt lat="42.89929706762045" lon="11.071112930166471"><ele>20.0</ele><time>2026-04-06T10:34:46.001Z</time></trkpt><trkpt lat="42.89906295893207" lon="11.071011693301015"><ele>20.0</ele><time>2026-04-06T10:34:47Z</time></trkpt><trkpt lat="42.89882670879971" lon="11.070911517342477"><ele>20.0</ele><time>2026-04-06T10:34:48Z</time></trkpt><trkpt lat="42.898593405394536" lon="11.070816107497752"><ele>20.0</ele><time>2026-04-06T10:34:49Z</time></trkpt><trkpt lat="42.898357859976464" lon="11.070718737738613"><ele>19.0</ele><time>2026-04-06T10:34:50Z</time></trkpt><trkpt lat="42.89812802595858" lon="11.070615834767361"><ele>18.0</ele><time>2026-04-06T10:34:51Z</time></trkpt><trkpt lat="42.89789642352181" lon="11.070517959839714"><ele>18.0</ele><time>2026-04-06T10:34:52Z</time></trkpt><trkpt lat="42.897664984089914" lon="11.070422760930487"><ele>18.0</ele><time>2026-04-06T10:34:53Z</time></trkpt><trkpt lat="42.897437331114226" lon="11.07032843639563"><ele>18.0</ele><time>2026-04-06T10:34:54Z</time></trkpt><trkpt lat="42.89720953183037" lon="11.070230981586356"><ele>18.0</ele><time>2026-04-06T10:34:55Z</time></trkpt><trkpt lat="42.89698100119933" lon="11.070134701208811"><ele>17.0</ele><time>2026-04-06T10:34:56Z</time></trkpt><trkpt lat="42.89675084770708" lon="11.070030247905887"><ele>16.0</ele><time>2026-04-06T10:34:57Z</time></trkpt><trkpt lat="42.896526126312715" lon="11.069926896893094"><ele>16.0</ele><time>2026-04-06T10:34:58Z</time></trkpt><trkpt lat="42.8963085552831" lon="11.069792596877273"><ele>16.0</ele><time>2026-04-06T10:34:59Z</time></trkpt><trkpt lat="42.896110729985644" lon="11.069639311114914"><ele>16.333333333333332</ele><time>2026-04-06T10:35:00Z</time></trkpt><trkpt lat="42.89591479866797" lon="11.069492791701697"><ele>16.666666666666668</ele><time>2026-04-06T10:35:01Z</time></trkpt><trkpt lat="42.89572509385568" lon="11.069340202193663"><ele>17.0</ele><time>2026-04-06T10:35:02Z</time></trkpt><trkpt lat="42.89554413655629" lon="11.06917040684155"><ele>16.666666666666668</ele><time>2026-04-06T10:35:03Z</time></trkpt><trkpt lat="42.89536771917948" lon="11.068989048597215"><ele>16.333333333333332</ele><time>2026-04-06T10:35:04Z</time></trkpt><trkpt lat="42.895195834737805" lon="11.068797462111075"><ele>16.0</ele><time>2026-04-06T10:35:05Z</time></trkpt><trkpt lat="42.895019937450805" lon="11.0686119763545"><ele>16.0</ele><time>2026-04-06T10:35:06Z</time></trkpt><trkpt lat="42.894840352060214" lon="11.06843208176939"><ele>16.0</ele><time>2026-04-06T10:35:07Z</time></trkpt><trkpt lat="42.89466159054007" lon="11.068249788053416"><ele>16.0</ele><time>2026-04-06T10:35:08Z</time></trkpt><trkpt lat="42.89448556103087" lon="11.068066941760467"><ele>16.0</ele><time>2026-04-06T10:35:09Z</time></trkpt><trkpt lat="42.89430790165876" lon="11.067888422166762"><ele>16.0</ele><time>2026-04-06T10:35:10Z</time></trkpt><trkpt lat="42.894128570180264" lon="11.067710367180599"><ele>16.0</ele><time>2026-04-06T10:35:11Z</time></trkpt><trkpt lat="42.89395483509126" lon="11.067525871468046"><ele>16.0</ele><time>2026-04-06T10:35:12Z</time></trkpt><trkpt lat="42.89378538869284" lon="11.067343004425137"><ele>16.0</ele><time>2026-04-06T10:35:13Z</time></trkpt><trkpt lat="42.89361353955802" lon="11.067167211317688"><ele>16.0</ele><time>2026-04-06T10:35:14Z</time></trkpt><trkpt lat="42.89345679492132" lon="11.067015527878436"><ele>16.0</ele><time>2026-04-06T10:35:15Z</time></trkpt><trkpt lat="42.89331250981377" lon="11.066874333830377"><ele>16.0</ele><time>2026-04-06T10:35:16Z</time></trkpt><trkpt lat="42.893182255552404" lon="11.066736715852128"><ele>16.0</ele><time>2026-04-06T10:35:17Z</time></trkpt><trkpt lat="42.89306545018512" lon="11.066607156196103"><ele>15.75</ele><time>2026-04-06T10:35:18Z</time></trkpt><trkpt lat="42.892951542348804" lon="11.066479288535856"><ele>15.5</ele><time>2026-04-06T10:35:19Z</time></trkpt><trkpt lat="42.89284206788427" lon="11.066364848132183"><ele>15.25</ele><time>2026-04-06T10:35:20Z</time></trkpt><trkpt lat="42.89273530110472" lon="11.066258470422804"><ele>15.0</ele><time>2026-04-06T10:35:21Z</time></trkpt><trkpt lat="42.8926361956202" lon="11.066158719296105"><ele>15.0</ele><time>2026-04-06T10:35:22Z</time></trkpt><trkpt lat="42.89254907011576" lon="11.066069244050132"><ele>15.0</ele><time>2026-04-06T10:35:23Z</time></trkpt><trkpt lat="42.89247538095186" lon="11.065987984679772"><ele>15.0</ele><time>2026-04-06T10:35:24Z</time></trkpt><trkpt lat="42.89239006818112" lon="11.06595592066708"><ele>15.0</ele><time>2026-04-06T10:35:25Z</time></trkpt><trkpt lat="42.89237457704291" lon="11.065770940732998"><ele>15.0</ele><time>2026-04-06T10:35:26Z</time></trkpt><trkpt lat="42.89236604601584" lon="11.065631099355523"><ele>15.0</ele><time>2026-04-06T10:35:27Z</time></trkpt><trkpt lat="42.892391555821185" lon="11.065476000120597"><ele>15.0</ele><time>2026-04-06T10:35:28Z</time></trkpt><trkpt lat="42.89244916037073" lon="11.065303003983441"><ele>15.0</ele><time>2026-04-06T10:35:29Z</time></trkpt><trkpt lat="42.892530407738874" lon="11.06510441165007"><ele>15.0</ele><time>2026-04-06T10:35:30Z</time></trkpt><trkpt lat="42.892629259318845" lon="11.06486898154446"><ele>15.0</ele><time>2026-04-06T10:35:31Z</time></trkpt><trkpt lat="42.89274727740507" lon="11.064582162916688"><ele>15.0</ele><time>2026-04-06T10:35:32Z</time></trkpt><trkpt lat="42.89289514714582" lon="11.064219793632619"><ele>15.0</ele><time>2026-04-06T10:35:33Z</time></trkpt><trkpt lat="42.89304694779133" lon="11.063816861298406"><ele>15.0</ele><time>2026-04-06T10:35:34Z</time></trkpt><trkpt lat="42.89322366895494" lon="11.06338897558225"><ele>15.0</ele><time>2026-04-06T10:35:35Z</time></trkpt><trkpt lat="42.89341843070691" lon="11.062897923613159"><ele>15.0</ele><time>2026-04-06T10:35:36Z</time></trkpt><trkpt lat="42.89361486204275" lon="11.062402115069384"><ele>15.0</ele><time>2026-04-06T10:35:37Z</time></trkpt><trkpt lat="42.8938088637177" lon="11.061874744521917"><ele>15.0</ele><time>2026-04-06T10:35:38Z</time></trkpt><trkpt lat="42.89403119395687" lon="11.061349232706334"><ele>15.0</ele><time>2026-04-06T10:35:39Z</time></trkpt><trkpt lat="42.89425517808415" lon="11.060807069674746"><ele>14.5</ele><time>2026-04-06T10:35:40Z</time></trkpt><trkpt lat="42.894458585210046" lon="11.06029049579567"><ele>14.0</ele><time>2026-04-06T10:35:41Z</time></trkpt><trkpt lat="42.89463984888778" lon="11.059838086257706"><ele>14.0</ele><time>2026-04-06T10:35:42Z</time></trkpt><trkpt lat="42.894797551278934" lon="11.059442697813372"><ele>14.0</ele><time>2026-04-06T10:35:43Z</time></trkpt><trkpt lat="42.89493945734992" lon="11.059085688009704"><ele>13.5</ele><time>2026-04-06T10:35:44Z</time></trkpt><trkpt lat="42.895066256074756" lon="11.058743224492014"><ele>13.0</ele><time>2026-04-06T10:35:45Z</time></trkpt><trkpt lat="42.895201180915706" lon="11.058402335858332"><ele>13.0</ele><time>2026-04-06T10:35:46Z</time></trkpt><trkpt lat="42.89534175924147" lon="11.05804857755932"><ele>13.0</ele><time>2026-04-06T10:35:47Z</time></trkpt><trkpt lat="42.89548389355615" lon="11.0577023279044"><ele>14.0</ele><time>2026-04-06T10:35:48Z</time></trkpt><trkpt lat="42.895622196649896" lon="11.057351187214069"><ele>15.0</ele><time>2026-04-06T10:35:49Z</time></trkpt><trkpt lat="42.89575658424769" lon="11.057011462733081"><ele>15.0</ele><time>2026-04-06T10:35:50Z</time></trkpt><trkpt lat="42.89588700323668" lon="11.056679319077068"><ele>15.0</ele><time>2026-04-06T10:35:51Z</time></trkpt><trkpt lat="42.896014923669625" lon="11.056355652707428"><ele>15.5</ele><time>2026-04-06T10:35:52.001Z</time></trkpt><trkpt lat="42.896138663115245" lon="11.05604233603646"><ele>16.0</ele><time>2026-04-06T10:35:53.001Z</time></trkpt><trkpt lat="42.896261283470636" lon="11.055732070421808"><ele>16.0</ele><time>2026-04-06T10:35:54.001Z</time></trkpt><trkpt lat="42.89637447666892" lon="11.055431682143537"><ele>16.0</ele><time>2026-04-06T10:35:55.001Z</time></trkpt><trkpt lat="42.896479893526326" lon="11.055163822151552"><ele>16.0</ele><time>2026-04-06T10:35:56.001Z</time></trkpt><trkpt lat="42.89658439653106" lon="11.054903670189308"><ele>16.0</ele><time>2026-04-06T10:35:57.001Z</time></trkpt><trkpt lat="42.8966923964292" lon="11.054633573949879"><ele>16.0</ele><time>2026-04-06T10:35:58.001Z</time></trkpt><trkpt lat="42.896811257442565" lon="11.054360029785991"><ele>15.5</ele><time>2026-04-06T10:35:59.001Z</time></trkpt><trkpt lat="42.89693006222752" lon="11.05408218015503"><ele>15.0</ele><time>2026-04-06T10:36:00.001Z</time></trkpt><trkpt lat="42.897044510130314" lon="11.053800212398942"><ele>15.0</ele><time>2026-04-06T10:36:01.001Z</time></trkpt><trkpt lat="42.89715450512543" lon="11.053514992227775"><ele>15.0</ele><time>2026-04-06T10:36:02.001Z</time></trkpt><trkpt lat="42.89726612392463" lon="11.053237333655204"><ele>14.5</ele><time>2026-04-06T10:36:03.001Z</time></trkpt><trkpt lat="42.89737391704577" lon="11.052965372778457"><ele>14.0</ele><time>2026-04-06T10:36:04.001Z</time></trkpt><trkpt lat="42.89747873074509" lon="11.052695796099536"><ele>14.0</ele><time>2026-04-06T10:36:05.001Z</time></trkpt><trkpt lat="42.89757881031187" lon="11.05241814078565"><ele>14.0</ele><time>2026-04-06T10:36:06.001Z</time></trkpt><trkpt lat="42.89768295036211" lon="11.052122860295695"><ele>14.5</ele><time>2026-04-06T10:36:07.001Z</time></trkpt><trkpt lat="42.89778933909829" lon="11.051812951637409"><ele>15.0</ele><time>2026-04-06T10:36:08.001Z</time></trkpt><trkpt lat="42.8979147998094" lon="11.05149984271003"><ele>15.5</ele><time>2026-04-06T10:36:09.001Z</time></trkpt><trkpt lat="42.89807180338289" lon="11.051211222502182"><ele>16.0</ele><time>2026-04-06T10:36:10.001Z</time></trkpt><trkpt lat="42.898217285743534" lon="11.050978215863484"><ele>16.0</ele><time>2026-04-06T10:36:11.001Z</time></trkpt><trkpt lat="42.89839475697888" lon="11.050768444281049"><ele>16.0</ele><time>2026-04-06T10:36:12.001Z</time></trkpt><trkpt lat="42.898577868351346" lon="11.050569141088333"><ele>15.5</ele><time>2026-04-06T10:36:13.001Z</time></trkpt><trkpt lat="42.8987546997782" lon="11.050375141575442"><ele>15.0</ele><time>2026-04-06T10:36:14.001Z</time></trkpt><trkpt lat="42.898941107757636" lon="11.050169698883774"><ele>15.5</ele><time>2026-04-06T10:36:15.001Z</time></trkpt><trkpt lat="42.899132037906426" lon="11.049957039895062"><ele>16.0</ele><time>2026-04-06T10:36:16.001Z</time></trkpt><trkpt lat="42.89932569699328" lon="11.049750001282488"><ele>16.0</ele><time>2026-04-06T10:36:17.001Z</time></trkpt><trkpt lat="42.89952357623124" lon="11.049543009373656"><ele>16.0</ele><time>2026-04-06T10:36:18.001Z</time></trkpt><trkpt lat="42.89970917527066" lon="11.049349404363065"><ele>16.0</ele><time>2026-04-06T10:36:19.001Z</time></trkpt><trkpt lat="42.899874155640916" lon="11.049176147698251"><ele>16.0</ele><time>2026-04-06T10:36:20.001Z</time></trkpt><trkpt lat="42.9000264617454" lon="11.049014778793046"><ele>16.0</ele><time>2026-04-06T10:36:21.001Z</time></trkpt><trkpt lat="42.90015251272423" lon="11.04886107098289"><ele>15.666666666666666</ele><time>2026-04-06T10:36:22.001Z</time></trkpt><trkpt lat="42.900250015546334" lon="11.048678568621739"><ele>15.333333333333332</ele><time>2026-04-06T10:36:23.001Z</time></trkpt><trkpt lat="42.900320536474425" lon="11.048467429007093"><ele>15.0</ele><time>2026-04-06T10:36:24.001Z</time></trkpt><trkpt lat="42.90036487333049" lon="11.048227872588308"><ele>14.333333333333332</ele><time>2026-04-06T10:36:25.001Z</time></trkpt><trkpt lat="42.90037080172688" lon="11.047983519013856"><ele>13.666666666666666</ele><time>2026-04-06T10:36:26.001Z</time></trkpt><trkpt lat="42.90034070342993" lon="11.047739032267797"><ele>13.0</ele><time>2026-04-06T10:36:27.001Z</time></trkpt><trkpt lat="42.900267968787524" lon="11.047507440196878"><ele>13.666666666666666</ele><time>2026-04-06T10:36:28.001Z</time></trkpt><trkpt lat="42.90016822064471" lon="11.047314768683703"><ele>14.333333333333332</ele><time>2026-04-06T10:36:29.001Z</time></trkpt><trkpt lat="42.90007009675808" lon="11.04716191269183"><ele>15.0</ele><time>2026-04-06T10:36:30.001Z</time></trkpt><trkpt lat="42.89997661111249" lon="11.047031259149069"><ele>15.0</ele><time>2026-04-06T10:36:31.001Z</time></trkpt><trkpt lat="42.89988355501596" lon="11.046940918860683"><ele>15.0</ele><time>2026-04-06T10:36:32.001Z</time></trkpt><trkpt lat="42.899810317643606" lon="11.04685656960713"><ele>15.0</ele><time>2026-04-06T10:36:33.001Z</time></trkpt><trkpt lat="42.89974584336973" lon="11.046767963098858"><ele>15.0</ele><time>2026-04-06T10:36:34.001Z</time></trkpt><trkpt lat="42.899682607799626" lon="11.046680195042907"><ele>15.0</ele><time>2026-04-06T10:36:35.001Z</time></trkpt><trkpt lat="42.899625093323145" lon="11.046593192260481"><ele>15.0</ele><time>2026-04-06T10:36:36.001Z</time></trkpt><trkpt lat="42.89957566832558" lon="11.046504914589041"><ele>15.0</ele><time>2026-04-06T10:36:37.001Z</time></trkpt><trkpt lat="42.89953475587775" lon="11.046416123507905"><ele>15.0</ele><time>2026-04-06T10:36:38.001Z</time></trkpt><trkpt lat="42.89950888953014" lon="11.046329553535106"><ele>15.0</ele><time>2026-04-06T10:36:39.001Z</time></trkpt><trkpt lat="42.899488698671824" lon="11.046240915220858"><ele>15.0</ele><time>2026-04-06T10:36:40.001Z</time></trkpt><trkpt lat="42.899471499495675" lon="11.046145462835943"><ele>15.0</ele><time>2026-04-06T10:36:41.001Z</time></trkpt><trkpt lat="42.89946488581451" lon="11.046036226366109"><ele>15.0</ele><time>2026-04-06T10:36:42.001Z</time></trkpt><trkpt lat="42.899462887648625" lon="11.04591893506803"><ele>15.0</ele><time>2026-04-06T10:36:43.001Z</time></trkpt><trkpt lat="42.89947113329277" lon="11.045799268580296"><ele>15.0</ele><time>2026-04-06T10:36:44.001Z</time></trkpt><trkpt lat="42.89949108576055" lon="11.045675800623963"><ele>15.0</ele><time>2026-04-06T10:36:45.001Z</time></trkpt><trkpt lat="42.899524012389406" lon="11.045555213562018"><ele>15.0</ele><time>2026-04-06T10:36:46.001Z</time></trkpt><trkpt lat="42.89956690944921" lon="11.045434832136154"><ele>15.0</ele><time>2026-04-06T10:36:47.001Z</time></trkpt><trkpt lat="42.89962635015112" lon="11.045319054171996"><ele>15.0</ele><time>2026-04-06T10:36:48.001Z</time></trkpt><trkpt lat="42.89969722954698" lon="11.045210347630865"><ele>15.0</ele><time>2026-04-06T10:36:49.001Z</time></trkpt><trkpt lat="42.89977211351078" lon="11.045120193824332"><ele>15.0</ele><time>2026-04-06T10:36:50.001Z</time></trkpt><trkpt lat="42.89985963620198" lon="11.045031900956207"><ele>15.0</ele><time>2026-04-06T10:36:51.001Z</time></trkpt><trkpt lat="42.89995123549783" lon="11.044940671435699"><ele>15.0</ele><time>2026-04-06T10:36:52.001Z</time></trkpt><trkpt lat="42.900036488825464" lon="11.044845113060083"><ele>15.5</ele><time>2026-04-06T10:36:53Z</time></trkpt><trkpt lat="42.90012543642594" lon="11.044747493464994"><ele>16.0</ele><time>2026-04-06T10:36:54Z</time></trkpt><trkpt lat="42.90021800690717" lon="11.044646150863997"><ele>16.5</ele><time>2026-04-06T10:36:55Z</time></trkpt><trkpt lat="42.9003132755361" lon="11.044547227372751"><ele>17.0</ele><time>2026-04-06T10:36:56Z</time></trkpt><trkpt lat="42.90040788060141" lon="11.044444662924624"><ele>17.0</ele><time>2026-04-06T10:36:57Z</time></trkpt><trkpt lat="42.9005022517877" lon="11.044343910583674"><ele>17.0</ele><time>2026-04-06T10:36:58Z</time></trkpt><trkpt lat="42.90059914989203" lon="11.044235678353122"><ele>17.0</ele><time>2026-04-06T10:36:59Z</time></trkpt><trkpt lat="42.90069449501814" lon="11.044125906547771"><ele>17.0</ele><time>2026-04-06T10:37:00Z</time></trkpt><trkpt lat="42.900788756164076" lon="11.044011394518238"><ele>16.25</ele><time>2026-04-06T10:37:01Z</time></trkpt><trkpt lat="42.90087668926799" lon="11.043887296226542"><ele>15.5</ele><time>2026-04-06T10:37:02Z</time></trkpt><trkpt lat="42.90095799450512" lon="11.043754404162295"><ele>14.75</ele><time>2026-04-06T10:37:03Z</time></trkpt><trkpt lat="42.90103417350876" lon="11.043618200545719"><ele>14.0</ele><time>2026-04-06T10:37:04Z</time></trkpt><trkpt lat="42.90110201058144" lon="11.043472842267496"><ele>14.0</ele><time>2026-04-06T10:37:05Z</time></trkpt><trkpt lat="42.90116328247467" lon="11.043324789500682"><ele>14.0</ele><time>2026-04-06T10:37:06Z</time></trkpt><trkpt lat="42.901220671434245" lon="11.043173933129587"><ele>14.0</ele><time>2026-04-06T10:37:07Z</time></trkpt><trkpt lat="42.901274260760395" lon="11.043025959015553"><ele>14.0</ele><time>2026-04-06T10:37:08Z</time></trkpt><trkpt lat="42.90132459793018" lon="11.042904332343607"><ele>13.833333333333334</ele><time>2026-04-06T10:37:09Z</time></trkpt><trkpt lat="42.90136985759305" lon="11.042788160955821"><ele>13.666666666666668</ele><time>2026-04-06T10:37:10Z</time></trkpt><trkpt lat="42.90141082154005" lon="11.042683015773141"><ele>13.5</ele><time>2026-04-06T10:37:11Z</time></trkpt><trkpt lat="42.90144801719648" lon="11.0425875430408"><ele>13.333333333333332</ele><time>2026-04-06T10:37:12Z</time></trkpt><trkpt lat="42.9014778805855" lon="11.042511594586893"><ele>13.166666666666666</ele><time>2026-04-06T10:37:13Z</time></trkpt><trkpt lat="42.90151004187053" lon="11.042429730685447"><ele>13.0</ele><time>2026-04-06T10:37:15Z</time></trkpt><trkpt lat="42.90153131342856" lon="11.042297785126951"><ele>13.0</ele><time>2026-04-06T10:39:14Z</time></trkpt><trkpt lat="42.90160284586923" lon="11.042181151619683"><ele>13.0</ele><time>2026-04-06T10:39:15Z</time></trkpt><trkpt lat="42.901665233018456" lon="11.042034780215468"><ele>13.0</ele><time>2026-04-06T10:39:16Z</time></trkpt><trkpt lat="42.90172923721505" lon="11.041868407106639"><ele>13.0</ele><time>2026-04-06T10:39:17Z</time></trkpt><trkpt lat="42.90180964137373" lon="11.041670499850472"><ele>13.666666666666666</ele><time>2026-04-06T10:39:18Z</time></trkpt><trkpt lat="42.9019037174629" lon="11.041442728697026"><ele>14.333333333333332</ele><time>2026-04-06T10:39:19Z</time></trkpt><trkpt lat="42.90200544801073" lon="11.041191408056017"><ele>15.0</ele><time>2026-04-06T10:39:20Z</time></trkpt><trkpt lat="42.902113659789954" lon="11.040924615279762"><ele>15.0</ele><time>2026-04-06T10:39:21Z</time></trkpt><trkpt lat="42.90222795558106" lon="11.040642750720933"><ele>15.0</ele><time>2026-04-06T10:39:22Z</time></trkpt><trkpt lat="42.90234962538175" lon="11.04034732482738"><ele>15.0</ele><time>2026-04-06T10:39:23Z</time></trkpt><trkpt lat="42.90247668615867" lon="11.040032620855639"><ele>15.0</ele><time>2026-04-06T10:39:24Z</time></trkpt><trkpt lat="42.9026063371898" lon="11.039712706285796"><ele>15.5</ele><time>2026-04-06T10:39:25Z</time></trkpt><trkpt lat="42.90273810426666" lon="11.039390660736672"><ele>16.0</ele><time>2026-04-06T10:39:26Z</time></trkpt><trkpt lat="42.902861470617516" lon="11.039100004905617"><ele>16.0</ele><time>2026-04-06T10:39:27Z</time></trkpt><trkpt lat="42.902974065370486" lon="11.038837019276945"><ele>16.0</ele><time>2026-04-06T10:39:28Z</time></trkpt><trkpt lat="42.903081077776996" lon="11.03859000102309"><ele>16.0</ele><time>2026-04-06T10:39:29Z</time></trkpt><trkpt lat="42.90317527323826" lon="11.03833663420248"><ele>15.666666666666666</ele><time>2026-04-06T10:39:30Z</time></trkpt><trkpt lat="42.90324188097564" lon="11.038069641794538"><ele>15.333333333333332</ele><time>2026-04-06T10:39:31Z</time></trkpt><trkpt lat="42.9032988927931" lon="11.037801301620688"><ele>15.0</ele><time>2026-04-06T10:39:32Z</time></trkpt><trkpt lat="42.90331748427423" lon="11.03753822301499"><ele>15.333333333333332</ele><time>2026-04-06T10:39:33Z</time></trkpt><trkpt lat="42.903313427542585" lon="11.037264625720804"><ele>15.666666666666666</ele><time>2026-04-06T10:39:34Z</time></trkpt><trkpt lat="42.903303487513455" lon="11.03696969397278"><ele>16.0</ele><time>2026-04-06T10:39:35Z</time></trkpt><trkpt lat="42.90329350019733" lon="11.036666801356715"><ele>15.5</ele><time>2026-04-06T10:39:36Z</time></trkpt><trkpt lat="42.903283226957306" lon="11.036345934937474"><ele>15.0</ele><time>2026-04-06T10:39:37Z</time></trkpt><trkpt lat="42.90327399945435" lon="11.03601106403587"><ele>14.666666666666668</ele><time>2026-04-06T10:39:38Z</time></trkpt><trkpt lat="42.903259196270284" lon="11.035713606998106"><ele>14.333333333333334</ele><time>2026-04-06T10:39:39Z</time></trkpt><trkpt lat="42.90324704285336" lon="11.035439573109032"><ele>14.0</ele><time>2026-04-06T10:39:40Z</time></trkpt><trkpt lat="42.903231653155764" lon="11.035187501967188"><ele>14.0</ele><time>2026-04-06T10:39:41Z</time></trkpt><trkpt lat="42.90321447336938" lon="11.03495549330816"><ele>14.0</ele><time>2026-04-06T10:39:42Z</time></trkpt><trkpt lat="42.903189422943775" lon="11.034749859034806"><ele>14.0</ele><time>2026-04-06T10:39:43Z</time></trkpt><trkpt lat="42.90316445653012" lon="11.034560857737663"><ele>14.0</ele><time>2026-04-06T10:39:44Z</time></trkpt><trkpt lat="42.903162740348186" lon="11.034393365973191"><ele>13.999999999999998</ele><time>2026-04-06T10:39:45Z</time></trkpt><trkpt lat="42.90317924428998" lon="11.0342641742955"><ele>13.999999999999998</ele><time>2026-04-06T10:39:46Z</time></trkpt><trkpt lat="42.90318212819905" lon="11.03416109651807"><ele>14.0</ele><time>2026-04-06T10:39:47Z</time></trkpt><trkpt lat="42.903190189680515" lon="11.034051370557693"><ele>14.0</ele><time>2026-04-06T10:39:48Z</time></trkpt><trkpt lat="42.903183600163686" lon="11.033944436799914"><ele>14.000000000000002</ele><time>2026-04-06T10:39:49Z</time></trkpt><trkpt lat="42.90313742891609" lon="11.033855260046312"><ele>14.0</ele><time>2026-04-06T10:39:50Z</time></trkpt><trkpt lat="42.90305722545758" lon="11.033818778895007"><ele>14.0</ele><time>2026-04-06T10:39:51Z</time></trkpt><trkpt lat="42.9029699499914" lon="11.033831336247504"><ele>14.0</ele><time>2026-04-06T10:39:52Z</time></trkpt><trkpt lat="42.90289147774526" lon="11.033892755833401"><ele>14.000000000000002</ele><time>2026-04-06T10:39:53Z</time></trkpt><trkpt lat="42.90282095180206" lon="11.033996305737412"><ele>14.0</ele><time>2026-04-06T10:39:54Z</time></trkpt><trkpt lat="42.902741029852955" lon="11.034103974408497"><ele>14.0</ele><time>2026-04-06T10:39:55Z</time></trkpt><trkpt lat="42.90264502403253" lon="11.034209435376512"><ele>14.0</ele><time>2026-04-06T10:39:56Z</time></trkpt><trkpt lat="42.90254318568258" lon="11.034319661666501"><ele>14.0</ele><time>2026-04-06T10:39:57Z</time></trkpt><trkpt lat="42.9024299339665" lon="11.034432320579246"><ele>14.0</ele><time>2026-04-06T10:39:58Z</time></trkpt><trkpt lat="42.902301365773006" lon="11.03453790162567"><ele>14.333333333333334</ele><time>2026-04-06T10:39:59Z</time></trkpt><trkpt lat="42.902167579992295" lon="11.034625288767982"><ele>14.666666666666668</ele><time>2026-04-06T10:40:00Z</time></trkpt><trkpt lat="42.90202151353407" lon="11.03468932090462"><ele>15.0</ele><time>2026-04-06T10:40:01Z</time></trkpt><trkpt lat="42.901863393715516" lon="11.034725311790712"><ele>15.0</ele><time>2026-04-06T10:40:02Z</time></trkpt><trkpt lat="42.90170152022739" lon="11.034725840131486"><ele>15.0</ele><time>2026-04-06T10:40:03Z</time></trkpt><trkpt lat="42.901534125160154" lon="11.034692097754048"><ele>15.0</ele><time>2026-04-06T10:40:04Z</time></trkpt><trkpt lat="42.90137083381193" lon="11.034620228600506"><ele>15.0</ele><time>2026-04-06T10:40:05Z</time></trkpt><trkpt lat="42.901223946510136" lon="11.03451587882145"><ele>15.0</ele><time>2026-04-06T10:40:06Z</time></trkpt><trkpt lat="42.90108362494415" lon="11.03438582440469"><ele>15.0</ele><time>2026-04-06T10:40:07Z</time></trkpt><trkpt lat="42.90094306860959" lon="11.034236337284563"><ele>15.333333333333332</ele><time>2026-04-06T10:40:08Z</time></trkpt><trkpt lat="42.9008002188693" lon="11.034080278783794"><ele>15.666666666666666</ele><time>2026-04-06T10:40:09Z</time></trkpt><trkpt lat="42.90065290010454" lon="11.03392965524496"><ele>16.0</ele><time>2026-04-06T10:40:10Z</time></trkpt><trkpt lat="42.900504118739725" lon="11.033771129333452"><ele>16.0</ele><time>2026-04-06T10:40:11Z</time></trkpt><trkpt lat="42.90033643204086" lon="11.033607336696393"><ele>16.0</ele><time>2026-04-06T10:40:12Z</time></trkpt><trkpt lat="42.90017770163265" lon="11.033444732776344"><ele>16.0</ele><time>2026-04-06T10:40:13Z</time></trkpt><trkpt lat="42.90001341797465" lon="11.033270588627593"><ele>16.333333333333332</ele><time>2026-04-06T10:40:14Z</time></trkpt><trkpt lat="42.8998496510782" lon="11.033089848869814"><ele>16.666666666666668</ele><time>2026-04-06T10:40:15Z</time></trkpt><trkpt lat="42.89968030863615" lon="11.03292002663165"><ele>17.0</ele><time>2026-04-06T10:40:16Z</time></trkpt><trkpt lat="42.899496753760616" lon="11.032767081930949"><ele>17.0</ele><time>2026-04-06T10:40:17Z</time></trkpt><trkpt lat="42.899306437778286" lon="11.032629903759286"><ele>17.0</ele><time>2026-04-06T10:40:18.001Z</time></trkpt><trkpt lat="42.8991099888673" lon="11.032510983495827"><ele>17.0</ele><time>2026-04-06T10:40:19.001Z</time></trkpt><trkpt lat="42.89890723636294" lon="11.03240636088091"><ele>18.0</ele><time>2026-04-06T10:40:20.001Z</time></trkpt><trkpt lat="42.89869647852503" lon="11.032322521057404"><ele>19.0</ele><time>2026-04-06T10:40:21.001Z</time></trkpt><trkpt lat="42.89848015495964" lon="11.032260880905831"><ele>20.0</ele><time>2026-04-06T10:40:22.001Z</time></trkpt><trkpt lat="42.89825658653791" lon="11.032217571316504"><ele>21.0</ele><time>2026-04-06T10:40:23.001Z</time></trkpt><trkpt lat="42.89803142932299" lon="11.032187950563069"><ele>22.0</ele><time>2026-04-06T10:40:24.001Z</time></trkpt><trkpt lat="42.897808967573766" lon="11.032158417006137"><ele>22.0</ele><time>2026-04-06T10:40:25.001Z</time></trkpt><trkpt lat="42.89760729848472" lon="11.032133269252908"><ele>22.0</ele><time>2026-04-06T10:40:26.001Z</time></trkpt><trkpt lat="42.89741696112751" lon="11.032117690185734"><ele>22.0</ele><time>2026-04-06T10:40:27.001Z</time></trkpt><trkpt lat="42.897244362002056" lon="11.032102586043894"><ele>21.5</ele><time>2026-04-06T10:40:28.001Z</time></trkpt><trkpt lat="42.89708499223339" lon="11.032084802692646"><ele>21.0</ele><time>2026-04-06T10:40:29.001Z</time></trkpt><trkpt lat="42.89693917241142" lon="11.032074016182412"><ele>20.5</ele><time>2026-04-06T10:40:30.001Z</time></trkpt><trkpt lat="42.89679854030011" lon="11.032043325526322"><ele>20.0</ele><time>2026-04-06T10:40:31.001Z</time></trkpt><trkpt lat="42.89666114943969" lon="11.031974894953363"><ele>20.0</ele><time>2026-04-06T10:40:32.001Z</time></trkpt><trkpt lat="42.89652858224868" lon="11.031879038068185"><ele>20.0</ele><time>2026-04-06T10:40:33.001Z</time></trkpt><trkpt lat="42.89640397926699" lon="11.031768200494376"><ele>20.0</ele><time>2026-04-06T10:40:34.001Z</time></trkpt><trkpt lat="42.896290506553925" lon="11.031658858603471"><ele>20.0</ele><time>2026-04-06T10:40:35.001Z</time></trkpt><trkpt lat="42.896203268890176" lon="11.031538180246292"><ele>20.25</ele><time>2026-04-06T10:40:36.001Z</time></trkpt><trkpt lat="42.89615131157736" lon="11.031371008566957"><ele>20.5</ele><time>2026-04-06T10:40:37.001Z</time></trkpt><trkpt lat="42.89612025476558" lon="11.031186859944171"><ele>20.75</ele><time>2026-04-06T10:40:38.001Z</time></trkpt><trkpt lat="42.896091431660366" lon="11.030994577710867"><ele>21.0</ele><time>2026-04-06T10:40:39.001Z</time></trkpt><trkpt lat="42.8960608938094" lon="11.030790861455452"><ele>21.666666666666668</ele><time>2026-04-06T10:40:40.001Z</time></trkpt><trkpt lat="42.8960301437448" lon="11.030582863607535"><ele>22.333333333333336</ele><time>2026-04-06T10:40:41.001Z</time></trkpt><trkpt lat="42.895998815068005" lon="11.030371978008509"><ele>23.0</ele><time>2026-04-06T10:40:42.001Z</time></trkpt><trkpt lat="42.89596199333666" lon="11.030157531673645"><ele>22.75</ele><time>2026-04-06T10:40:43.001Z</time></trkpt><trkpt lat="42.89592938950882" lon="11.029946629211342"><ele>22.5</ele><time>2026-04-06T10:40:44.001Z</time></trkpt><trkpt lat="42.89590106724546" lon="11.029745578885638"><ele>22.25</ele><time>2026-04-06T10:40:45.001Z</time></trkpt><trkpt lat="42.895898490304155" lon="11.029556204285418"><ele>22.0</ele><time>2026-04-06T10:40:46.001Z</time></trkpt><trkpt lat="42.89592797854211" lon="11.029374145642096"><ele>22.75</ele><time>2026-04-06T10:40:47.001Z</time></trkpt><trkpt lat="42.89597509781246" lon="11.029190664378689"><ele>23.5</ele><time>2026-04-06T10:40:48.001Z</time></trkpt><trkpt lat="42.89603093508953" lon="11.028999996013493"><ele>24.25</ele><time>2026-04-06T10:40:49.001Z</time></trkpt><trkpt lat="42.89608108247009" lon="11.028802454003205"><ele>25.0</ele><time>2026-04-06T10:40:50.001Z</time></trkpt><trkpt lat="42.896132389447956" lon="11.028594352813768"><ele>25.0</ele><time>2026-04-06T10:40:51.001Z</time></trkpt><trkpt lat="42.896174714671744" lon="11.02837536198665"><ele>25.0</ele><time>2026-04-06T10:40:52.001Z</time></trkpt><trkpt lat="42.8962052279262" lon="11.028146543156852"><ele>25.0</ele><time>2026-04-06T10:40:53.001Z</time></trkpt><trkpt lat="42.89622193364263" lon="11.027917733109017"><ele>24.8</ele><time>2026-04-06T10:40:54.001Z</time></trkpt><trkpt lat="42.89622829473568" lon="11.027720680906471"><ele>24.6</ele><time>2026-04-06T10:40:55.001Z</time></trkpt><trkpt lat="42.89622558997882" lon="11.027557472093529"><ele>24.4</ele><time>2026-04-06T10:40:56.001Z</time></trkpt><trkpt lat="42.89622373547523" lon="11.027445009540301"><ele>24.2</ele><time>2026-04-06T10:40:57.001Z</time></trkpt><trkpt lat="42.89622577021344" lon="11.027323120383565"><ele>24.0</ele><time>2026-04-06T10:40:59.001Z</time></trkpt><trkpt lat="42.89621920388076" lon="11.027236489901483"><ele>24.25</ele><time>2026-04-06T10:42:16.001Z</time></trkpt><trkpt lat="42.89620076286598" lon="11.027033017596644"><ele>24.5</ele><time>2026-04-06T10:42:18.001Z</time></trkpt><trkpt lat="42.896194199194916" lon="11.026898159881867"><ele>24.75</ele><time>2026-04-06T10:42:19.001Z</time></trkpt><trkpt lat="42.89618633297903" lon="11.02673992774998"><ele>25.0</ele><time>2026-04-06T10:42:20.001Z</time></trkpt><trkpt lat="42.89617663461049" lon="11.026558075952504"><ele>25.0</ele><time>2026-04-06T10:42:21.001Z</time></trkpt><trkpt lat="42.896165516512305" lon="11.026375617285824"><ele>25.0</ele><time>2026-04-06T10:42:22.001Z</time></trkpt><trkpt lat="42.89615198194584" lon="11.026163064501993"><ele>25.0</ele><time>2026-04-06T10:42:23.001Z</time></trkpt><trkpt lat="42.89613583832037" lon="11.025931451022272"><ele>24.666666666666668</ele><time>2026-04-06T10:42:24.001Z</time></trkpt><trkpt lat="42.89611991292042" lon="11.02570034057106"><ele>24.333333333333336</ele><time>2026-04-06T10:42:25.001Z</time></trkpt><trkpt lat="42.89610612623196" lon="11.025453701079421"><ele>24.0</ele><time>2026-04-06T10:42:26.001Z</time></trkpt><trkpt lat="42.896090285808114" lon="11.0251864761317"><ele>23.0</ele><time>2026-04-06T10:42:27.001Z</time></trkpt><trkpt lat="42.896072547944236" lon="11.024927540438728"><ele>22.0</ele><time>2026-04-06T10:42:28.001Z</time></trkpt><trkpt lat="42.8960536806663" lon="11.024672093108297"><ele>21.0</ele><time>2026-04-06T10:42:29.001Z</time></trkpt><trkpt lat="42.89604110427544" lon="11.024418564521683"><ele>21.0</ele><time>2026-04-06T10:42:30.001Z</time></trkpt><trkpt lat="42.89602661449347" lon="11.024167253962277"><ele>21.0</ele><time>2026-04-06T10:42:31.001Z</time></trkpt><trkpt lat="42.89601107654153" lon="11.023913636170084"><ele>21.0</ele><time>2026-04-06T10:42:32.001Z</time></trkpt><trkpt lat="42.89599291689711" lon="11.023662440373958"><ele>21.0</ele><time>2026-04-06T10:42:33.001Z</time></trkpt><trkpt lat="42.895976352219286" lon="11.023406301040485"><ele>21.0</ele><time>2026-04-06T10:42:34.001Z</time></trkpt><trkpt lat="42.89595900523038" lon="11.023148985360121"><ele>21.0</ele><time>2026-04-06T10:42:35.001Z</time></trkpt><trkpt lat="42.895942853973594" lon="11.022893026559814"><ele>21.0</ele><time>2026-04-06T10:42:36.001Z</time></trkpt><trkpt lat="42.895929668038896" lon="11.02263336032316"><ele>21.0</ele><time>2026-04-06T10:42:37.001Z</time></trkpt><trkpt lat="42.89591307875972" lon="11.022370717707766"><ele>21.0</ele><time>2026-04-06T10:42:38.001Z</time></trkpt><trkpt lat="42.89589626747273" lon="11.022102074640312"><ele>21.0</ele><time>2026-04-06T10:42:39.001Z</time></trkpt><trkpt lat="42.89588123736767" lon="11.021828078079208"><ele>21.0</ele><time>2026-04-06T10:42:40.001Z</time></trkpt><trkpt lat="42.8958653432873" lon="11.021548351110118"><ele>21.0</ele><time>2026-04-06T10:42:41.001Z</time></trkpt><trkpt lat="42.89585137890065" lon="11.021262752063574"><ele>21.666666666666668</ele><time>2026-04-06T10:42:42.001Z</time></trkpt><trkpt lat="42.89583295072763" lon="11.020974746517394"><ele>22.333333333333336</ele><time>2026-04-06T10:42:43.001Z</time></trkpt><trkpt lat="42.89581234422733" lon="11.02068107875452"><ele>23.0</ele><time>2026-04-06T10:42:44.001Z</time></trkpt><trkpt lat="42.89579255658276" lon="11.02038601334499"><ele>23.0</ele><time>2026-04-06T10:42:45.001Z</time></trkpt><trkpt lat="42.89577459539424" lon="11.02009117358255"><ele>23.0</ele><time>2026-04-06T10:42:46.001Z</time></trkpt><trkpt lat="42.895753441232614" lon="11.019798194615438"><ele>23.0</ele><time>2026-04-06T10:42:47.001Z</time></trkpt><trkpt lat="42.89573597354082" lon="11.019528500628224"><ele>22.333333333333336</ele><time>2026-04-06T10:42:48.001Z</time></trkpt><trkpt lat="42.895723536398656" lon="11.019263611122664"><ele>21.666666666666668</ele><time>2026-04-06T10:42:49.001Z</time></trkpt><trkpt lat="42.89570440503946" lon="11.018991976844378"><ele>21.0</ele><time>2026-04-06T10:42:50.001Z</time></trkpt><trkpt lat="42.89568466412385" lon="11.018715194915217"><ele>19.666666666666668</ele><time>2026-04-06T10:42:51.001Z</time></trkpt><trkpt lat="42.895666578673215" lon="11.018433388101498"><ele>18.333333333333336</ele><time>2026-04-06T10:42:52.001Z</time></trkpt><trkpt lat="42.89565101234711" lon="11.01814798120801"><ele>17.0</ele><time>2026-04-06T10:42:53.001Z</time></trkpt><trkpt lat="42.895633840536085" lon="11.01785800741651"><ele>15.666666666666668</ele><time>2026-04-06T10:42:54.001Z</time></trkpt><trkpt lat="42.89561799228193" lon="11.017566439977594"><ele>14.333333333333332</ele><time>2026-04-06T10:42:55.001Z</time></trkpt><trkpt lat="42.89560090743438" lon="11.017273352071467"><ele>13.0</ele><time>2026-04-06T10:42:56.001Z</time></trkpt><trkpt lat="42.89558537467464" lon="11.01698072044689"><ele>12.666666666666666</ele><time>2026-04-06T10:42:57.001Z</time></trkpt><trkpt lat="42.89556981284202" lon="11.016690280511925"><ele>12.333333333333332</ele><time>2026-04-06T10:42:58.001Z</time></trkpt><trkpt lat="42.89555305403647" lon="11.016401781948977"><ele>12.0</ele><time>2026-04-06T10:42:59.001Z</time></trkpt><trkpt lat="42.89553337596031" lon="11.016115228057638"><ele>12.0</ele><time>2026-04-06T10:43:00.001Z</time></trkpt><trkpt lat="42.89551533078997" lon="11.015829583327985"><ele>12.0</ele><time>2026-04-06T10:43:01.001Z</time></trkpt><trkpt lat="42.89549667918301" lon="11.015546088890172"><ele>12.0</ele><time>2026-04-06T10:43:02.001Z</time></trkpt><trkpt lat="42.89547967018128" lon="11.015264165997724"><ele>12.0</ele><time>2026-04-06T10:43:03.001Z</time></trkpt><trkpt lat="42.89546034384626" lon="11.014985475786753"><ele>12.0</ele><time>2026-04-06T10:43:04.001Z</time></trkpt><trkpt lat="42.89544453646536" lon="11.01471044001745"><ele>12.0</ele><time>2026-04-06T10:43:05.001Z</time></trkpt><trkpt lat="42.895430020207336" lon="11.014443325837684"><ele>12.0</ele><time>2026-04-06T10:43:06.001Z</time></trkpt><trkpt lat="42.89541344229792" lon="11.01418201342817"><ele>12.0</ele><time>2026-04-06T10:43:07.001Z</time></trkpt><trkpt lat="42.895398689363354" lon="11.013929203651518"><ele>12.0</ele><time>2026-04-06T10:43:08.001Z</time></trkpt><trkpt lat="42.895385166304116" lon="11.013677901910409"><ele>12.0</ele><time>2026-04-06T10:43:09.001Z</time></trkpt><trkpt lat="42.89537044044974" lon="11.013426261353514"><ele>12.0</ele><time>2026-04-06T10:43:10.001Z</time></trkpt><trkpt lat="42.895355845328616" lon="11.013170638950042"><ele>12.0</ele><time>2026-04-06T10:43:11Z</time></trkpt><trkpt lat="42.89533927720702" lon="11.01291330768422"><ele>11.0</ele><time>2026-04-06T10:43:12Z</time></trkpt><trkpt lat="42.895324204499175" lon="11.012654358683049"><ele>10.0</ele><time>2026-04-06T10:43:13Z</time></trkpt><trkpt lat="42.89530797748237" lon="11.012398055772211"><ele>9.0</ele><time>2026-04-06T10:43:14Z</time></trkpt><trkpt lat="42.89529216702461" lon="11.012144259022616"><ele>9.0</ele><time>2026-04-06T10:43:15Z</time></trkpt><trkpt lat="42.89527508152668" lon="11.011891787531942"><ele>9.0</ele><time>2026-04-06T10:43:16Z</time></trkpt><trkpt lat="42.89525717574022" lon="11.011638836550837"><ele>9.0</ele><time>2026-04-06T10:43:17Z</time></trkpt><trkpt lat="42.895243170712" lon="11.011387987717743"><ele>9.0</ele><time>2026-04-06T10:43:18Z</time></trkpt><trkpt lat="42.895230699020004" lon="11.011139994824896"><ele>9.0</ele><time>2026-04-06T10:43:19Z</time></trkpt><trkpt lat="42.8952126294805" lon="11.01089662593905"><ele>9.0</ele><time>2026-04-06T10:43:20Z</time></trkpt><trkpt lat="42.8951967021796" lon="11.010657767821993"><ele>9.333333333333334</ele><time>2026-04-06T10:43:21Z</time></trkpt><trkpt lat="42.89518623859059" lon="11.010418953755376"><ele>9.666666666666668</ele><time>2026-04-06T10:43:22Z</time></trkpt><trkpt lat="42.89517373738833" lon="11.01018114761888"><ele>10.0</ele><time>2026-04-06T10:43:23Z</time></trkpt><trkpt lat="42.89515910718549" lon="11.009944370566386"><ele>10.333333333333334</ele><time>2026-04-06T10:43:24Z</time></trkpt><trkpt lat="42.89514456417173" lon="11.009702199221651"><ele>10.666666666666666</ele><time>2026-04-06T10:43:25Z</time></trkpt><trkpt lat="42.89512915627261" lon="11.009454075599079"><ele>11.0</ele><time>2026-04-06T10:43:26Z</time></trkpt><trkpt lat="42.89511654337205" lon="11.009202119905256"><ele>10.666666666666666</ele><time>2026-04-06T10:43:27Z</time></trkpt><trkpt lat="42.895105221064895" lon="11.008949295960168"><ele>10.333333333333334</ele><time>2026-04-06T10:43:28Z</time></trkpt><trkpt lat="42.895090951630564" lon="11.008692983643568"><ele>10.0</ele><time>2026-04-06T10:43:29Z</time></trkpt><trkpt lat="42.89507376769565" lon="11.008434298090277"><ele>9.666666666666668</ele><time>2026-04-06T10:43:30Z</time></trkpt><trkpt lat="42.89505511332234" lon="11.008180353376902"><ele>9.333333333333334</ele><time>2026-04-06T10:43:31Z</time></trkpt><trkpt lat="42.89503830688411" lon="11.007924601804776"><ele>9.0</ele><time>2026-04-06T10:43:32Z</time></trkpt><trkpt lat="42.895021713827866" lon="11.007669079851276"><ele>9.333333333333334</ele><time>2026-04-06T10:43:33Z</time></trkpt><trkpt lat="42.89500667811115" lon="11.007413175511282"><ele>9.666666666666668</ele><time>2026-04-06T10:43:34Z</time></trkpt><trkpt lat="42.89499027834838" lon="11.007163682249093"><ele>10.0</ele><time>2026-04-06T10:43:35Z</time></trkpt><trkpt lat="42.89497352141216" lon="11.006919802520974"><ele>10.0</ele><time>2026-04-06T10:43:36Z</time></trkpt><trkpt lat="42.894960273108055" lon="11.006676800684625"><ele>10.0</ele><time>2026-04-06T10:43:37Z</time></trkpt><trkpt lat="42.8949474549332" lon="11.00644782449321"><ele>10.0</ele><time>2026-04-06T10:43:38Z</time></trkpt><trkpt lat="42.89493915311278" lon="11.006238760226834"><ele>10.25</ele><time>2026-04-06T10:43:39Z</time></trkpt><trkpt lat="42.89493026519617" lon="11.006049121837018"><ele>10.5</ele><time>2026-04-06T10:43:40Z</time></trkpt><trkpt lat="42.89491758450324" lon="11.005871624416203"><ele>10.75</ele><time>2026-04-06T10:43:41Z</time></trkpt><trkpt lat="42.894910276280804" lon="11.005701747689594"><ele>11.0</ele><time>2026-04-06T10:43:42Z</time></trkpt><trkpt lat="42.894898245771635" lon="11.005535393143798"><ele>11.5</ele><time>2026-04-06T10:43:43Z</time></trkpt><trkpt lat="42.89488432864325" lon="11.005364746157424"><ele>12.0</ele><time>2026-04-06T10:43:44Z</time></trkpt><trkpt lat="42.8948633333681" lon="11.00518323246952"><ele>12.5</ele><time>2026-04-06T10:43:45Z</time></trkpt><trkpt lat="42.89482051594886" lon="11.004991372725685"><ele>13.0</ele><time>2026-04-06T10:43:46Z</time></trkpt><trkpt lat="42.89474972852423" lon="11.00479725356905"><ele>15.333333333333332</ele><time>2026-04-06T10:43:47Z</time></trkpt><trkpt lat="42.89466683684466" lon="11.004603388175493"><ele>17.666666666666668</ele><time>2026-04-06T10:43:48Z</time></trkpt><trkpt lat="42.89457233121767" lon="11.004415907579727"><ele>20.0</ele><time>2026-04-06T10:43:49Z</time></trkpt><trkpt lat="42.89448288544406" lon="11.004256694207097"><ele>19.5</ele><time>2026-04-06T10:43:50Z</time></trkpt><trkpt lat="42.89440344308013" lon="11.004113608763701"><ele>19.0</ele><time>2026-04-06T10:43:51Z</time></trkpt><trkpt lat="42.89432426169853" lon="11.004000474061066"><ele>18.5</ele><time>2026-04-06T10:43:52Z</time></trkpt><trkpt lat="42.894241002829276" lon="11.00389437713722"><ele>18.0</ele><time>2026-04-06T10:43:53Z</time></trkpt><trkpt lat="42.89415982479787" lon="11.003797492116451"><ele>18.0</ele><time>2026-04-06T10:43:54Z</time></trkpt><trkpt lat="42.89409529204904" lon="11.003696037683424"><ele>18.0</ele><time>2026-04-06T10:43:55Z</time></trkpt><trkpt lat="42.894042417716925" lon="11.003582767119063"><ele>18.0</ele><time>2026-04-06T10:43:56Z</time></trkpt><trkpt lat="42.89399877047994" lon="11.003471614807337"><ele>18.0</ele><time>2026-04-06T10:43:57Z</time></trkpt><trkpt lat="42.89395650824684" lon="11.0033646525636"><ele>18.0</ele><time>2026-04-06T10:43:58Z</time></trkpt><trkpt lat="42.89390731103119" lon="11.00326921140208"><ele>18.0</ele><time>2026-04-06T10:43:59Z</time></trkpt><trkpt lat="42.893849150319596" lon="11.00319947761704"><ele>18.0</ele><time>2026-04-06T10:44:00Z</time></trkpt><trkpt lat="42.89377530794871" lon="11.003148295191071"><ele>18.0</ele><time>2026-04-06T10:44:01Z</time></trkpt><trkpt lat="42.893690976156144" lon="11.0031415286326"><ele>18.0</ele><time>2026-04-06T10:44:02Z</time></trkpt><trkpt lat="42.893605480232196" lon="11.003179934150193"><ele>18.0</ele><time>2026-04-06T10:44:03Z</time></trkpt><trkpt lat="42.89353359766039" lon="11.003250902374766"><ele>18.0</ele><time>2026-04-06T10:44:04Z</time></trkpt><trkpt lat="42.893480957056724" lon="11.003345968235513"><ele>18.0</ele><time>2026-04-06T10:44:05Z</time></trkpt><trkpt lat="42.8934233912474" lon="11.003433046594713"><ele>18.0</ele><time>2026-04-06T10:44:06Z</time></trkpt><trkpt lat="42.89335093445777" lon="11.003501637689169"><ele>18.0</ele><time>2026-04-06T10:44:07Z</time></trkpt><trkpt lat="42.89326862329283" lon="11.003543085697844"><ele>18.0</ele><time>2026-04-06T10:44:08Z</time></trkpt><trkpt lat="42.89317140058565" lon="11.003556179267772"><ele>18.0</ele><time>2026-04-06T10:44:09Z</time></trkpt><trkpt lat="42.89305823924927" lon="11.00356752862214"><ele>16.0</ele><time>2026-04-06T10:44:10Z</time></trkpt><trkpt lat="42.89292058409165" lon="11.003591454498302"><ele>14.0</ele><time>2026-04-06T10:44:11Z</time></trkpt><trkpt lat="42.89274984692371" lon="11.00360446567447"><ele>12.0</ele><time>2026-04-06T10:44:12Z</time></trkpt><trkpt lat="42.89254889760692" lon="11.00360518820889"><ele>11.5</ele><time>2026-04-06T10:44:13Z</time></trkpt><trkpt lat="42.892332619933775" lon="11.003614681534266"><ele>11.0</ele><time>2026-04-06T10:44:14Z</time></trkpt><trkpt lat="42.89209692487386" lon="11.003628973050223"><ele>11.0</ele><time>2026-04-06T10:44:15Z</time></trkpt><trkpt lat="42.89184626771878" lon="11.003634285633078"><ele>11.0</ele><time>2026-04-06T10:44:16Z</time></trkpt><trkpt lat="42.89159214589048" lon="11.003638820327058"><ele>9.5</ele><time>2026-04-06T10:44:17Z</time></trkpt><trkpt lat="42.891329663834405" lon="11.003640021274624"><ele>8.0</ele><time>2026-04-06T10:44:18Z</time></trkpt><trkpt lat="42.89105896271723" lon="11.00365421349496"><ele>8.5</ele><time>2026-04-06T10:44:19Z</time></trkpt><trkpt lat="42.89077768607786" lon="11.003668934034193"><ele>9.0</ele><time>2026-04-06T10:44:20Z</time></trkpt><trkpt lat="42.89049242546269" lon="11.003684643025087"><ele>9.0</ele><time>2026-04-06T10:44:21Z</time></trkpt><trkpt lat="42.890200307648996" lon="11.00369713333321"><ele>9.0</ele><time>2026-04-06T10:44:22Z</time></trkpt><trkpt lat="42.889907500536516" lon="11.003662915661884"><ele>8.5</ele><time>2026-04-06T10:44:23.001Z</time></trkpt><trkpt lat="42.8896146837072" lon="11.003676236992476"><ele>8.0</ele><time>2026-04-06T10:44:24.001Z</time></trkpt><trkpt lat="42.8893223115979" lon="11.00368953986014"><ele>8.5</ele><time>2026-04-06T10:44:25.001Z</time></trkpt><trkpt lat="42.889032238855506" lon="11.003702736361307"><ele>9.0</ele><time>2026-04-06T10:44:26.001Z</time></trkpt><trkpt lat="42.88874247890728" lon="11.00372902766641"><ele>9.0</ele><time>2026-04-06T10:44:27.001Z</time></trkpt><trkpt lat="42.888455057405615" lon="11.003737601109517"><ele>9.0</ele><time>2026-04-06T10:44:28.001Z</time></trkpt><trkpt lat="42.88816802318573" lon="11.003753363701115"><ele>9.0</ele><time>2026-04-06T10:44:29.001Z</time></trkpt><trkpt lat="42.88787443160756" lon="11.003763281865071"><ele>9.0</ele><time>2026-04-06T10:44:30.001Z</time></trkpt><trkpt lat="42.88758164404347" lon="11.003780907800564"><ele>9.0</ele><time>2026-04-06T10:44:31.001Z</time></trkpt><trkpt lat="42.88728429183598" lon="11.00379318557715"><ele>9.0</ele><time>2026-04-06T10:44:32.001Z</time></trkpt><trkpt lat="42.88698616332887" lon="11.003805759564864"><ele>9.0</ele><time>2026-04-06T10:44:33.001Z</time></trkpt><trkpt lat="42.88668700604762" lon="11.003818930376546"><ele>9.0</ele><time>2026-04-06T10:44:34.001Z</time></trkpt><trkpt lat="42.886386276133514" lon="11.003833141935036"><ele>9.0</ele><time>2026-04-06T10:44:35.001Z</time></trkpt><trkpt lat="42.88608755146999" lon="11.00384440015625"><ele>9.0</ele><time>2026-04-06T10:44:36.001Z</time></trkpt><trkpt lat="42.8858015666615" lon="11.003853756473111"><ele>9.0</ele><time>2026-04-06T10:44:37.001Z</time></trkpt><trkpt lat="42.88553938942772" lon="11.003863026588308"><ele>9.0</ele><time>2026-04-06T10:44:38.001Z</time></trkpt><trkpt lat="42.88529763695396" lon="11.00387092227989"><ele>9.333333333333334</ele><time>2026-04-06T10:44:39.001Z</time></trkpt><trkpt lat="42.88508246392039" lon="11.003880747246564"><ele>9.666666666666668</ele><time>2026-04-06T10:44:40.001Z</time></trkpt><trkpt lat="42.8848870332507" lon="11.0038813225764"><ele>10.0</ele><time>2026-04-06T10:44:41.001Z</time></trkpt><trkpt lat="42.8847014727003" lon="11.003892507567842"><ele>10.0</ele><time>2026-04-06T10:44:42.001Z</time></trkpt><trkpt lat="42.884524006529375" lon="11.003904636536776"><ele>10.0</ele><time>2026-04-06T10:44:43.001Z</time></trkpt><trkpt lat="42.88433571461606" lon="11.0039488910253"><ele>10.0</ele><time>2026-04-06T10:44:44.001Z</time></trkpt><trkpt lat="42.884141160550115" lon="11.004026178030742"><ele>10.0</ele><time>2026-04-06T10:44:45.001Z</time></trkpt><trkpt lat="42.88394483142894" lon="11.004135644513534"><ele>10.0</ele><time>2026-04-06T10:44:46.001Z</time></trkpt><trkpt lat="42.883745807735906" lon="11.00427672610018"><ele>10.0</ele><time>2026-04-06T10:44:47.001Z</time></trkpt><trkpt lat="42.883547025228495" lon="11.00445857981335"><ele>8.5</ele><time>2026-04-06T10:44:48.001Z</time></trkpt><trkpt lat="42.88334748415408" lon="11.004663950614818"><ele>7.0</ele><time>2026-04-06T10:44:49.001Z</time></trkpt><trkpt lat="42.883141288438026" lon="11.004875255016996"><ele>7.5</ele><time>2026-04-06T10:44:50.001Z</time></trkpt><trkpt lat="42.88292993487495" lon="11.005088384834377"><ele>8.0</ele><time>2026-04-06T10:44:51.001Z</time></trkpt><trkpt lat="42.88271493721932" lon="11.005306632442082"><ele>8.0</ele><time>2026-04-06T10:44:52.001Z</time></trkpt><trkpt lat="42.88249530646969" lon="11.005519715347875"><ele>8.0</ele><time>2026-04-06T10:44:53.001Z</time></trkpt><trkpt lat="42.8822751011711" lon="11.005742577639083"><ele>7.5</ele><time>2026-04-06T10:44:54.001Z</time></trkpt><trkpt lat="42.88205208215271" lon="11.005970081546367"><ele>7.0</ele><time>2026-04-06T10:44:55.001Z</time></trkpt><trkpt lat="42.88182265594665" lon="11.006194415074122"><ele>8.0</ele><time>2026-04-06T10:44:56.001Z</time></trkpt><trkpt lat="42.88159418078816" lon="11.006423595614384"><ele>9.0</ele><time>2026-04-06T10:44:57.001Z</time></trkpt><trkpt lat="42.881364360433146" lon="11.006651540137588"><ele>9.0</ele><time>2026-04-06T10:44:58.001Z</time></trkpt><trkpt lat="42.88113359727286" lon="11.0068799863896"><ele>9.0</ele><time>2026-04-06T10:44:59.001Z</time></trkpt><trkpt lat="42.88090423238938" lon="11.007110337320203"><ele>9.5</ele><time>2026-04-06T10:45:00.001Z</time></trkpt><trkpt lat="42.88067920473928" lon="11.007332854073237"><ele>10.0</ele><time>2026-04-06T10:45:01.001Z</time></trkpt><trkpt lat="42.880474580615974" lon="11.00753614290606"><ele>10.0</ele><time>2026-04-06T10:45:02.001Z</time></trkpt><trkpt lat="42.880278995030146" lon="11.00772780914316"><ele>10.0</ele><time>2026-04-06T10:45:03.001Z</time></trkpt><trkpt lat="42.88007470289867" lon="11.007905424960908"><ele>13.0</ele><time>2026-04-06T10:45:04.001Z</time></trkpt><trkpt lat="42.87985678693477" lon="11.008054826934607"><ele>16.0</ele><time>2026-04-06T10:45:05.001Z</time></trkpt><trkpt lat="42.87962834132562" lon="11.008175971373982"><ele>16.0</ele><time>2026-04-06T10:45:06.001Z</time></trkpt><trkpt lat="42.87938701762278" lon="11.008274772695572"><ele>16.0</ele><time>2026-04-06T10:45:07.001Z</time></trkpt><trkpt lat="42.879133085714074" lon="11.008348047715511"><ele>16.0</ele><time>2026-04-06T10:45:08.001Z</time></trkpt><trkpt lat="42.87887262328459" lon="11.008392123320098"><ele>16.0</ele><time>2026-04-06T10:45:09.001Z</time></trkpt><trkpt lat="42.87861886537835" lon="11.008416464937552"><ele>16.333333333333332</ele><time>2026-04-06T10:45:10.001Z</time></trkpt><trkpt lat="42.878389104682505" lon="11.008430717751892"><ele>16.666666666666668</ele><time>2026-04-06T10:45:11.001Z</time></trkpt><trkpt lat="42.87817797955561" lon="11.008442338821233"><ele>17.0</ele><time>2026-04-06T10:45:12.001Z</time></trkpt><trkpt lat="42.87797540373858" lon="11.008449227029159"><ele>17.0</ele><time>2026-04-06T10:45:13.001Z</time></trkpt><trkpt lat="42.87776989998336" lon="11.00846554756904"><ele>17.0</ele><time>2026-04-06T10:45:14.001Z</time></trkpt><trkpt lat="42.87755144614908" lon="11.008477952522007"><ele>17.0</ele><time>2026-04-06T10:45:15.001Z</time></trkpt><trkpt lat="42.877327290553644" lon="11.008495715037611"><ele>15.0</ele><time>2026-04-06T10:45:16.001Z</time></trkpt><trkpt lat="42.87708944927815" lon="11.008512680612016"><ele>13.0</ele><time>2026-04-06T10:45:17Z</time></trkpt><trkpt lat="42.876836967564145" lon="11.008531259201716"><ele>11.5</ele><time>2026-04-06T10:45:18Z</time></trkpt><trkpt lat="42.87657218097881" lon="11.008548628916424"><ele>10.0</ele><time>2026-04-06T10:45:19Z</time></trkpt><trkpt lat="42.876294500912856" lon="11.008567480784118"><ele>10.0</ele><time>2026-04-06T10:45:20Z</time></trkpt><trkpt lat="42.87601253357163" lon="11.008611179476189"><ele>10.0</ele><time>2026-04-06T10:45:21Z</time></trkpt><trkpt lat="42.87572713386424" lon="11.008683286852012"><ele>8.5</ele><time>2026-04-06T10:45:22Z</time></trkpt><trkpt lat="42.875441526763126" lon="11.008792391921531"><ele>7.0</ele><time>2026-04-06T10:45:23Z</time></trkpt><trkpt lat="42.87515529502147" lon="11.008924620760707"><ele>7.0</ele><time>2026-04-06T10:45:24Z</time></trkpt><trkpt lat="42.874874656318056" lon="11.009064975775845"><ele>7.0</ele><time>2026-04-06T10:45:25Z</time></trkpt><trkpt lat="42.874599903236046" lon="11.00919361351217"><ele>7.0</ele><time>2026-04-06T10:45:26Z</time></trkpt><trkpt lat="42.87433363661059" lon="11.009325865473656"><ele>7.0</ele><time>2026-04-06T10:45:27Z</time></trkpt><trkpt lat="42.87406563188773" lon="11.009463558597995"><ele>7.0</ele><time>2026-04-06T10:45:28Z</time></trkpt><trkpt lat="42.87381110935856" lon="11.009581827629926"><ele>7.0</ele><time>2026-04-06T10:45:29Z</time></trkpt><trkpt lat="42.8735723414411" lon="11.009683071143796"><ele>7.5</ele><time>2026-04-06T10:45:30Z</time></trkpt><trkpt lat="42.87333878456323" lon="11.009786618092951"><ele>8.0</ele><time>2026-04-06T10:45:31Z</time></trkpt><trkpt lat="42.87309182796579" lon="11.009911208199767"><ele>7.5</ele><time>2026-04-06T10:45:32Z</time></trkpt><trkpt lat="42.87282762998026" lon="11.010031788922662"><ele>7.0</ele><time>2026-04-06T10:45:33Z</time></trkpt><trkpt lat="42.87255532078982" lon="11.01013585604621"><ele>7.0</ele><time>2026-04-06T10:45:34Z</time></trkpt><trkpt lat="42.87228464035281" lon="11.010252982677168"><ele>7.0</ele><time>2026-04-06T10:45:35Z</time></trkpt><trkpt lat="42.87201632412356" lon="11.010378342256507"><ele>6.5</ele><time>2026-04-06T10:45:36Z</time></trkpt><trkpt lat="42.87174493980221" lon="11.0104812942943"><ele>6.0</ele><time>2026-04-06T10:45:37Z</time></trkpt><trkpt lat="42.87146734727813" lon="11.01056351401695"><ele>6.0</ele><time>2026-04-06T10:45:38Z</time></trkpt><trkpt lat="42.87118568942832" lon="11.010634259273441"><ele>6.0</ele><time>2026-04-06T10:45:39Z</time></trkpt><trkpt lat="42.87090076549937" lon="11.010695677172365"><ele>5.5</ele><time>2026-04-06T10:45:40Z</time></trkpt><trkpt lat="42.87061074347752" lon="11.010751196081193"><ele>5.0</ele><time>2026-04-06T10:45:41Z</time></trkpt><trkpt lat="42.87031765630327" lon="11.01080104093543"><ele>5.5</ele><time>2026-04-06T10:45:42Z</time></trkpt><trkpt lat="42.87002547010691" lon="11.010857211442946"><ele>6.0</ele><time>2026-04-06T10:45:43Z</time></trkpt><trkpt lat="42.86973999751312" lon="11.010910139663551"><ele>6.0</ele><time>2026-04-06T10:45:44Z</time></trkpt><trkpt lat="42.86948085724505" lon="11.01095539322204"><ele>6.0</ele><time>2026-04-06T10:45:45Z</time></trkpt><trkpt lat="42.869240134973865" lon="11.011001111199407"><ele>6.0</ele><time>2026-04-06T10:45:46Z</time></trkpt><trkpt lat="42.86901069110621" lon="11.011031182610223"><ele>6.0</ele><time>2026-04-06T10:45:47Z</time></trkpt><trkpt lat="42.86879691590334" lon="11.011062820433521"><ele>6.0</ele><time>2026-04-06T10:45:48Z</time></trkpt><trkpt lat="42.86859590116301" lon="11.011093899299624"><ele>5.666666666666667</ele><time>2026-04-06T10:45:49Z</time></trkpt><trkpt lat="42.868388895454096" lon="11.011127803679063"><ele>5.333333333333334</ele><time>2026-04-06T10:45:50Z</time></trkpt><trkpt lat="42.86817896307542" lon="11.011163330573282"><ele>5.0</ele><time>2026-04-06T10:45:51Z</time></trkpt><trkpt lat="42.86796819258157" lon="11.011203644148335"><ele>5.0</ele><time>2026-04-06T10:45:52Z</time></trkpt><trkpt lat="42.867754633675695" lon="11.011241662241392"><ele>5.0</ele><time>2026-04-06T10:45:53Z</time></trkpt><trkpt lat="42.86753681655257" lon="11.011278775588442"><ele>5.0</ele><time>2026-04-06T10:45:54Z</time></trkpt><trkpt lat="42.86731849818539" lon="11.011317011644463"><ele>5.333333333333334</ele><time>2026-04-06T10:45:55Z</time></trkpt><trkpt lat="42.86710021933285" lon="11.011357538573343"><ele>5.666666666666667</ele><time>2026-04-06T10:45:56Z</time></trkpt><trkpt lat="42.86687904382285" lon="11.011396645489924"><ele>6.0</ele><time>2026-04-06T10:45:57Z</time></trkpt><trkpt lat="42.86666227684662" lon="11.011437835273549"><ele>6.0</ele><time>2026-04-06T10:45:58Z</time></trkpt><trkpt lat="42.86644380412637" lon="11.011474837006654"><ele>6.0</ele><time>2026-04-06T10:45:59Z</time></trkpt><trkpt lat="42.866230260322446" lon="11.011508958802555"><ele>6.0</ele><time>2026-04-06T10:46:00Z</time></trkpt><trkpt lat="42.86601940784435" lon="11.011544686199752"><ele>6.0</ele><time>2026-04-06T10:46:01Z</time></trkpt><trkpt lat="42.865808680679386" lon="11.0115792643803"><ele>6.0</ele><time>2026-04-06T10:46:02Z</time></trkpt><trkpt lat="42.865607755115526" lon="11.011617203995149"><ele>6.0</ele><time>2026-04-06T10:46:03Z</time></trkpt><trkpt lat="42.86542073226681" lon="11.011645542970143"><ele>6.0</ele><time>2026-04-06T10:46:04Z</time></trkpt><trkpt lat="42.8652417858936" lon="11.011671729123965"><ele>6.0</ele><time>2026-04-06T10:46:05Z</time></trkpt><trkpt lat="42.865075163136055" lon="11.011701874420194"><ele>6.0</ele><time>2026-04-06T10:46:06Z</time></trkpt><trkpt lat="42.86491676854863" lon="11.011729681355261"><ele>5.5</ele><time>2026-04-06T10:46:07Z</time></trkpt><trkpt lat="42.86476844675176" lon="11.011757858875532"><ele>5.0</ele><time>2026-04-06T10:46:08Z</time></trkpt><trkpt lat="42.86462658456197" lon="11.011778390632731"><ele>4.5</ele><time>2026-04-06T10:46:09Z</time></trkpt><trkpt lat="42.86449240834909" lon="11.011805194447705"><ele>4.0</ele><time>2026-04-06T10:46:10Z</time></trkpt><trkpt lat="42.864356023185024" lon="11.01183226800054"><ele>4.0</ele><time>2026-04-06T10:46:11Z</time></trkpt><trkpt lat="42.86421611798975" lon="11.011862012928836"><ele>4.0</ele><time>2026-04-06T10:46:12Z</time></trkpt><trkpt lat="42.86407141408669" lon="11.011892978829469"><ele>4.0</ele><time>2026-04-06T10:46:13Z</time></trkpt><trkpt lat="42.86391885048371" lon="11.011924069122516"><ele>4.0</ele><time>2026-04-06T10:46:14Z</time></trkpt><trkpt lat="42.86376166654774" lon="11.011956176169301"><ele>4.0</ele><time>2026-04-06T10:46:15Z</time></trkpt><trkpt lat="42.86359922201107" lon="11.0119859488635"><ele>4.0</ele><time>2026-04-06T10:46:16Z</time></trkpt><trkpt lat="42.863433450242695" lon="11.012017353518594"><ele>4.0</ele><time>2026-04-06T10:46:17Z</time></trkpt><trkpt lat="42.863265106288125" lon="11.012049591643736"><ele>4.333333333333333</ele><time>2026-04-06T10:46:18Z</time></trkpt><trkpt lat="42.86310054961482" lon="11.01208336389625"><ele>4.666666666666667</ele><time>2026-04-06T10:46:19.001Z</time></trkpt><trkpt lat="42.862935805174594" lon="11.012122538025165"><ele>5.0</ele><time>2026-04-06T10:46:20.001Z</time></trkpt><trkpt lat="42.86276921418121" lon="11.012160123804737"><ele>4.0</ele><time>2026-04-06T10:46:21.001Z</time></trkpt><trkpt lat="42.86259578374003" lon="11.012200965358382"><ele>3.0</ele><time>2026-04-06T10:46:22.001Z</time></trkpt><trkpt lat="42.862416029644244" lon="11.012240650186413"><ele>2.0</ele><time>2026-04-06T10:46:23.001Z</time></trkpt><trkpt lat="42.8622359797277" lon="11.012280050368332"><ele>2.0</ele><time>2026-04-06T10:46:24.001Z</time></trkpt><trkpt lat="42.86205420078275" lon="11.012318296115572"><ele>2.0</ele><time>2026-04-06T10:46:25.001Z</time></trkpt><trkpt lat="42.861872739104534" lon="11.012356547197896"><ele>2.0</ele><time>2026-04-06T10:46:26.001Z</time></trkpt><trkpt lat="42.86168677212174" lon="11.012393778679801"><ele>2.0</ele><time>2026-04-06T10:46:27.001Z</time></trkpt><trkpt lat="42.86150440180063" lon="11.012431247504157"><ele>2.0</ele><time>2026-04-06T10:46:28.001Z</time></trkpt><trkpt lat="42.861324483173554" lon="11.0124694030072"><ele>2.0</ele><time>2026-04-06T10:46:29.001Z</time></trkpt><trkpt lat="42.86114724785712" lon="11.01250639931012"><ele>2.0</ele><time>2026-04-06T10:46:30.001Z</time></trkpt><trkpt lat="42.86096597856203" lon="11.01254060590623"><ele>2.0</ele><time>2026-04-06T10:46:31.001Z</time></trkpt><trkpt lat="42.86078642045283" lon="11.012577796284491"><ele>2.0</ele><time>2026-04-06T10:46:32.001Z</time></trkpt><trkpt lat="42.86060078812211" lon="11.012616250094364"><ele>2.333333333333333</ele><time>2026-04-06T10:46:33.001Z</time></trkpt><trkpt lat="42.860414933414525" lon="11.012655098289036"><ele>2.6666666666666665</ele><time>2026-04-06T10:46:34.001Z</time></trkpt><trkpt lat="42.860229217425406" lon="11.012695010947937"><ele>3.0</ele><time>2026-04-06T10:46:35.001Z</time></trkpt><trkpt lat="42.860041652962984" lon="11.012732705680898"><ele>3.0</ele><time>2026-04-06T10:46:36.001Z</time></trkpt><trkpt lat="42.85985335783186" lon="11.012761593658597"><ele>3.0</ele><time>2026-04-06T10:46:37.001Z</time></trkpt><trkpt lat="42.85966413757805" lon="11.012779692044651"><ele>3.0</ele><time>2026-04-06T10:46:38.001Z</time></trkpt><trkpt lat="42.85947100486514" lon="11.012792175453354"><ele>3.0</ele><time>2026-04-06T10:46:39.001Z</time></trkpt><trkpt lat="42.85927638233316" lon="11.012799766687825"><ele>3.0</ele><time>2026-04-06T10:46:40.001Z</time></trkpt><trkpt lat="42.859082696963135" lon="11.012808808469963"><ele>3.0</ele><time>2026-04-06T10:46:41.001Z</time></trkpt><trkpt lat="42.85888679418799" lon="11.012816272859496"><ele>3.0</ele><time>2026-04-06T10:46:42.001Z</time></trkpt><trkpt lat="42.858691967229994" lon="11.012823528334641"><ele>3.0</ele><time>2026-04-06T10:46:43.001Z</time></trkpt><trkpt lat="42.85850943886296" lon="11.012831186507047"><ele>3.0</ele><time>2026-04-06T10:46:44.001Z</time></trkpt><trkpt lat="42.858332571407374" lon="11.012838750064985"><ele>3.0</ele><time>2026-04-06T10:46:45.001Z</time></trkpt><trkpt lat="42.85815188534047" lon="11.012845904206841"><ele>3.0</ele><time>2026-04-06T10:46:46.001Z</time></trkpt><trkpt lat="42.85796807568306" lon="11.012854998721986"><ele>3.0</ele><time>2026-04-06T10:46:47.001Z</time></trkpt><trkpt lat="42.857781807908104" lon="11.012860844524146"><ele>3.0</ele><time>2026-04-06T10:46:48.001Z</time></trkpt><trkpt lat="42.85759658640285" lon="11.01286717175468"><ele>3.0</ele><time>2026-04-06T10:46:49.001Z</time></trkpt><trkpt lat="42.857406735856316" lon="11.012871394527473"><ele>3.0</ele><time>2026-04-06T10:46:50.001Z</time></trkpt><trkpt lat="42.857216084511336" lon="11.012878541472526"><ele>3.0</ele><time>2026-04-06T10:46:51.001Z</time></trkpt><trkpt lat="42.8570205693092" lon="11.012885638706658"><ele>3.0</ele><time>2026-04-06T10:46:52.001Z</time></trkpt><trkpt lat="42.85682532772444" lon="11.012891136872646"><ele>3.0</ele><time>2026-04-06T10:46:53.001Z</time></trkpt><trkpt lat="42.85662949954404" lon="11.012897468168605"><ele>3.0</ele><time>2026-04-06T10:46:54.001Z</time></trkpt><trkpt lat="42.85643318796822" lon="11.01290553033522"><ele>3.0</ele><time>2026-04-06T10:46:55.001Z</time></trkpt><trkpt lat="42.856235300097474" lon="11.012911667746875"><ele>3.0</ele><time>2026-04-06T10:46:56.001Z</time></trkpt><trkpt lat="42.856035749732726" lon="11.012917718858095"><ele>3.0</ele><time>2026-04-06T10:46:57.001Z</time></trkpt><trkpt lat="42.85583753886566" lon="11.012925641501313"><ele>3.0</ele><time>2026-04-06T10:46:58.001Z</time></trkpt><trkpt lat="42.855637107229256" lon="11.012928726707415"><ele>3.0</ele><time>2026-04-06T10:46:59.001Z</time></trkpt><trkpt lat="42.855432583893204" lon="11.012935415266805"><ele>3.0</ele><time>2026-04-06T10:47:00.001Z</time></trkpt><trkpt lat="42.855226417436135" lon="11.012942219211297"><ele>3.0</ele><time>2026-04-06T10:47:01.001Z</time></trkpt><trkpt lat="42.85502196621851" lon="11.012950095144395"><ele>3.0</ele><time>2026-04-06T10:47:02.001Z</time></trkpt><trkpt lat="42.85481787216461" lon="11.012955146504268"><ele>3.333333333333333</ele><time>2026-04-06T10:47:03.001Z</time></trkpt><trkpt lat="42.85461332462561" lon="11.01296151109701"><ele>3.6666666666666665</ele><time>2026-04-06T10:47:04.001Z</time></trkpt><trkpt lat="42.85440815179253" lon="11.012967759622342"><ele>4.0</ele><time>2026-04-06T10:47:05.001Z</time></trkpt><trkpt lat="42.85420141294829" lon="11.012975002505348"><ele>4.666666666666666</ele><time>2026-04-06T10:47:06.001Z</time></trkpt><trkpt lat="42.8539946093808" lon="11.012979076847659"><ele>5.333333333333333</ele><time>2026-04-06T10:47:07.001Z</time></trkpt><trkpt lat="42.85378890095376" lon="11.012984195752747"><ele>6.0</ele><time>2026-04-06T10:47:08.001Z</time></trkpt><trkpt lat="42.85358363507766" lon="11.012996580167565"><ele>5.666666666666667</ele><time>2026-04-06T10:47:09.001Z</time></trkpt><trkpt lat="42.85337819086152" lon="11.013003051672634"><ele>5.333333333333334</ele><time>2026-04-06T10:47:10.001Z</time></trkpt><trkpt lat="42.85316870949756" lon="11.01300935039843"><ele>5.0</ele><time>2026-04-06T10:47:11.001Z</time></trkpt><trkpt lat="42.852958177537936" lon="11.013016495680606"><ele>5.0</ele><time>2026-04-06T10:47:12.001Z</time></trkpt><trkpt lat="42.852745985667895" lon="11.013025905476836"><ele>5.0</ele><time>2026-04-06T10:47:13.001Z</time></trkpt><trkpt lat="42.85253409465326" lon="11.013038745649977"><ele>5.0</ele><time>2026-04-06T10:47:14.001Z</time></trkpt><trkpt lat="42.85232106418696" lon="11.01304803893197"><ele>5.333333333333334</ele><time>2026-04-06T10:47:15.001Z</time></trkpt><trkpt lat="42.85210502608069" lon="11.013057328218382"><ele>5.666666666666667</ele><time>2026-04-06T10:47:16.001Z</time></trkpt><trkpt lat="42.851887771853896" lon="11.013070031672408"><ele>6.0</ele><time>2026-04-06T10:47:17.001Z</time></trkpt><trkpt lat="42.85166936166728" lon="11.013078434071526"><ele>5.333333333333333</ele><time>2026-04-06T10:47:18.001Z</time></trkpt><trkpt lat="42.85145117978796" lon="11.01308895554623"><ele>4.666666666666666</ele><time>2026-04-06T10:47:19.001Z</time></trkpt><trkpt lat="42.851237495629235" lon="11.01309615143326"><ele>4.0</ele><time>2026-04-06T10:47:20.001Z</time></trkpt><trkpt lat="42.85104225996857" lon="11.013100027774287"><ele>4.333333333333333</ele><time>2026-04-06T10:47:21.001Z</time></trkpt><trkpt lat="42.85085461068088" lon="11.013098163738125"><ele>4.666666666666667</ele><time>2026-04-06T10:47:22.001Z</time></trkpt><trkpt lat="42.850660313949156" lon="11.013083911763347"><ele>5.0</ele><time>2026-04-06T10:47:23Z</time></trkpt><trkpt lat="42.850467384825826" lon="11.013041127659037"><ele>5.0</ele><time>2026-04-06T10:47:24Z</time></trkpt><trkpt lat="42.850275662316484" lon="11.01297299041773"><ele>5.0</ele><time>2026-04-06T10:47:25Z</time></trkpt><trkpt lat="42.85008641812787" lon="11.012882669584881"><ele>5.0</ele><time>2026-04-06T10:47:26Z</time></trkpt><trkpt lat="42.84989839354345" lon="11.012788469191664"><ele>5.333333333333334</ele><time>2026-04-06T10:47:27Z</time></trkpt><trkpt lat="42.84971014248392" lon="11.012687174586295"><ele>5.666666666666667</ele><time>2026-04-06T10:47:28Z</time></trkpt><trkpt lat="42.84951611422293" lon="11.012579416646497"><ele>6.0</ele><time>2026-04-06T10:47:29Z</time></trkpt><trkpt lat="42.84931464372824" lon="11.012460673730867"><ele>6.0</ele><time>2026-04-06T10:47:30Z</time></trkpt><trkpt lat="42.84910970340484" lon="11.012341302462461"><ele>6.0</ele><time>2026-04-06T10:47:31Z</time></trkpt><trkpt lat="42.84889762633608" lon="11.012218274379016"><ele>6.0</ele><time>2026-04-06T10:47:32Z</time></trkpt><trkpt lat="42.848681152379946" lon="11.012096311492414"><ele>6.0</ele><time>2026-04-06T10:47:33Z</time></trkpt><trkpt lat="42.84845900663016" lon="11.011969294591909"><ele>6.0</ele><time>2026-04-06T10:47:34Z</time></trkpt><trkpt lat="42.84823631417497" lon="11.011838616363391"><ele>6.0</ele><time>2026-04-06T10:47:35Z</time></trkpt><trkpt lat="42.84801231070817" lon="11.011705321668893"><ele>7.0</ele><time>2026-04-06T10:47:36Z</time></trkpt><trkpt lat="42.84778717290097" lon="11.011577871341478"><ele>8.0</ele><time>2026-04-06T10:47:37Z</time></trkpt><trkpt lat="42.84756291867572" lon="11.01144743413539"><ele>8.0</ele><time>2026-04-06T10:47:38Z</time></trkpt><trkpt lat="42.847333973458866" lon="11.011315803584383"><ele>8.0</ele><time>2026-04-06T10:47:39Z</time></trkpt><trkpt lat="42.8471049347257" lon="11.011186809718826"><ele>8.0</ele><time>2026-04-06T10:47:40Z</time></trkpt><trkpt lat="42.84687104422659" lon="11.01106244708372"><ele>8.0</ele><time>2026-04-06T10:47:41Z</time></trkpt><trkpt lat="42.84663939724636" lon="11.010931418329731"><ele>7.5</ele><time>2026-04-06T10:47:42Z</time></trkpt><trkpt lat="42.846415787678275" lon="11.01080460458217"><ele>7.0</ele><time>2026-04-06T10:47:43Z</time></trkpt><trkpt lat="42.84618748295476" lon="11.01069061594472"><ele>7.0</ele><time>2026-04-06T10:47:44Z</time></trkpt><trkpt lat="42.84595364631481" lon="11.010598972790667"><ele>7.0</ele><time>2026-04-06T10:47:45Z</time></trkpt><trkpt lat="42.84571735308823" lon="11.010528063321823"><ele>7.0</ele><time>2026-04-06T10:47:46Z</time></trkpt><trkpt lat="42.845476675362654" lon="11.010468622362849"><ele>7.0</ele><time>2026-04-06T10:47:47Z</time></trkpt><trkpt lat="42.84523265615297" lon="11.010430128661538"><ele>7.0</ele><time>2026-04-06T10:47:48Z</time></trkpt><trkpt lat="42.84498211250598" lon="11.010414937007818"><ele>7.0</ele><time>2026-04-06T10:47:49Z</time></trkpt><trkpt lat="42.84472792756644" lon="11.01041210856566"><ele>7.0</ele><time>2026-04-06T10:47:50Z</time></trkpt><trkpt lat="42.84447144912465" lon="11.010410644233588"><ele>7.0</ele><time>2026-04-06T10:47:51Z</time></trkpt><trkpt lat="42.84421584682994" lon="11.010404719668712"><ele>6.0</ele><time>2026-04-06T10:47:52Z</time></trkpt><trkpt lat="42.843959822932156" lon="11.010401798301471"><ele>5.0</ele><time>2026-04-06T10:47:53Z</time></trkpt><trkpt lat="42.84370773956673" lon="11.010401501826452"><ele>5.0</ele><time>2026-04-06T10:47:54Z</time></trkpt><trkpt lat="42.843455280924296" lon="11.010398947994139"><ele>5.0</ele><time>2026-04-06T10:47:55Z</time></trkpt><trkpt lat="42.84320269222353" lon="11.01039355597573"><ele>5.0</ele><time>2026-04-06T10:47:56Z</time></trkpt><trkpt lat="42.84295286843058" lon="11.01039151911525"><ele>5.0</ele><time>2026-04-06T10:47:57Z</time></trkpt><trkpt lat="42.84269946477788" lon="11.010388375451205"><ele>5.5</ele><time>2026-04-06T10:47:58Z</time></trkpt><trkpt lat="42.842446464715536" lon="11.01038071116658"><ele>6.0</ele><time>2026-04-06T10:47:59Z</time></trkpt><trkpt lat="42.84219461464333" lon="11.010372044720107"><ele>6.0</ele><time>2026-04-06T10:48:00Z</time></trkpt><trkpt lat="42.84194504238929" lon="11.010367050546975"><ele>6.0</ele><time>2026-04-06T10:48:01Z</time></trkpt><trkpt lat="42.84169522252395" lon="11.010364887592324"><ele>7.5</ele><time>2026-04-06T10:48:02Z</time></trkpt><trkpt lat="42.841445695273926" lon="11.010364857249199"><ele>9.0</ele><time>2026-04-06T10:48:03Z</time></trkpt><trkpt lat="42.841193229868935" lon="11.010361910304486"><ele>10.5</ele><time>2026-04-06T10:48:04Z</time></trkpt><trkpt lat="42.84094066325591" lon="11.010358911727447"><ele>12.0</ele><time>2026-04-06T10:48:05Z</time></trkpt><trkpt lat="42.84068511855334" lon="11.010358654589103"><ele>12.0</ele><time>2026-04-06T10:48:06Z</time></trkpt><trkpt lat="42.840426427129046" lon="11.010355565840262"><ele>12.0</ele><time>2026-04-06T10:48:07Z</time></trkpt><trkpt lat="42.84016951558404" lon="11.010352529928024"><ele>13.0</ele><time>2026-04-06T10:48:08Z</time></trkpt><trkpt lat="42.83991141951677" lon="11.010348849686766"><ele>14.0</ele><time>2026-04-06T10:48:09Z</time></trkpt><trkpt lat="42.83964900767578" lon="11.010344548453482"><ele>14.0</ele><time>2026-04-06T10:48:10Z</time></trkpt><trkpt lat="42.83938570885891" lon="11.010340128951393"><ele>14.0</ele><time>2026-04-06T10:48:11Z</time></trkpt><trkpt lat="42.83911831625194" lon="11.010331581148426"><ele>13.5</ele><time>2026-04-06T10:48:12Z</time></trkpt><trkpt lat="42.838850145934295" lon="11.010324822594837"><ele>13.0</ele><time>2026-04-06T10:48:13Z</time></trkpt><trkpt lat="42.83858476381602" lon="11.01032010812754"><ele>12.0</ele><time>2026-04-06T10:48:14Z</time></trkpt><trkpt lat="42.838319263178064" lon="11.010318566711378"><ele>11.0</ele><time>2026-04-06T10:48:15Z</time></trkpt><trkpt lat="42.83805154851631" lon="11.010308910746193"><ele>11.0</ele><time>2026-04-06T10:48:16Z</time></trkpt><trkpt lat="42.83778466815342" lon="11.010301535968352"><ele>11.0</ele><time>2026-04-06T10:48:17Z</time></trkpt><trkpt lat="42.83751700912045" lon="11.010293505458517"><ele>11.0</ele><time>2026-04-06T10:48:18Z</time></trkpt><trkpt lat="42.83724752672661" lon="11.010289499208348"><ele>11.0</ele><time>2026-04-06T10:48:19Z</time></trkpt><trkpt lat="42.83697674563458" lon="11.010284660710678"><ele>11.0</ele><time>2026-04-06T10:48:20Z</time></trkpt><trkpt lat="42.836707720578225" lon="11.010279747165296"><ele>11.0</ele><time>2026-04-06T10:48:21Z</time></trkpt><trkpt lat="42.836437777381974" lon="11.010276715153326"><ele>11.0</ele><time>2026-04-06T10:48:22Z</time></trkpt><trkpt lat="42.83616574394932" lon="11.010271320115862"><ele>11.0</ele><time>2026-04-06T10:48:23Z</time></trkpt><trkpt lat="42.8358939854118" lon="11.010271096417197"><ele>11.0</ele><time>2026-04-06T10:48:24Z</time></trkpt><trkpt lat="42.8356221223595" lon="11.010268962637209"><ele>11.0</ele><time>2026-04-06T10:48:25Z</time></trkpt><trkpt lat="42.83534949023701" lon="11.010260314530408"><ele>11.5</ele><time>2026-04-06T10:48:26Z</time></trkpt><trkpt lat="42.83507871185528" lon="11.010254513937921"><ele>12.0</ele><time>2026-04-06T10:48:27Z</time></trkpt><trkpt lat="42.83480778829594" lon="11.010247028774279"><ele>12.0</ele><time>2026-04-06T10:48:28Z</time></trkpt><trkpt lat="42.83454304937978" lon="11.010242717945529"><ele>12.0</ele><time>2026-04-06T10:48:29Z</time></trkpt><trkpt lat="42.8342792953376" lon="11.010237374858143"><ele>12.5</ele><time>2026-04-06T10:48:30Z</time></trkpt><trkpt lat="42.83401755029202" lon="11.010232234019364"><ele>13.0</ele><time>2026-04-06T10:48:31.001Z</time></trkpt><trkpt lat="42.83375921426312" lon="11.010228481751774"><ele>13.0</ele><time>2026-04-06T10:48:32.001Z</time></trkpt><trkpt lat="42.833503365758354" lon="11.010222253296517"><ele>13.0</ele><time>2026-04-06T10:48:33.001Z</time></trkpt><trkpt lat="42.833244685743196" lon="11.010212746444203"><ele>14.0</ele><time>2026-04-06T10:48:34.001Z</time></trkpt><trkpt lat="42.832985888974676" lon="11.010215399345999"><ele>15.0</ele><time>2026-04-06T10:48:35.001Z</time></trkpt><trkpt lat="42.83272612899708" lon="11.010206828761985"><ele>13.0</ele><time>2026-04-06T10:48:36.001Z</time></trkpt><trkpt lat="42.83246492202539" lon="11.010203104567951"><ele>11.0</ele><time>2026-04-06T10:48:37.001Z</time></trkpt><trkpt lat="42.83220148953085" lon="11.010200809192598"><ele>11.0</ele><time>2026-04-06T10:48:38.001Z</time></trkpt><trkpt lat="42.831936827706436" lon="11.010195990436213"><ele>11.0</ele><time>2026-04-06T10:48:39.001Z</time></trkpt><trkpt lat="42.83167263454247" lon="11.01019082960732"><ele>10.5</ele><time>2026-04-06T10:48:40.001Z</time></trkpt><trkpt lat="42.83140873058298" lon="11.010183822350482"><ele>10.0</ele><time>2026-04-06T10:48:41.001Z</time></trkpt><trkpt lat="42.831144767283355" lon="11.01017765182198"><ele>10.5</ele><time>2026-04-06T10:48:42.001Z</time></trkpt><trkpt lat="42.830880816880516" lon="11.010175446402812"><ele>11.0</ele><time>2026-04-06T10:48:43.001Z</time></trkpt><trkpt lat="42.83062069318892" lon="11.010171055719256"><ele>11.0</ele><time>2026-04-06T10:48:44.001Z</time></trkpt><trkpt lat="42.83036435595901" lon="11.010164626103878"><ele>11.0</ele><time>2026-04-06T10:48:45.001Z</time></trkpt><trkpt lat="42.83011485716653" lon="11.010160716355522"><ele>11.5</ele><time>2026-04-06T10:48:46.001Z</time></trkpt><trkpt lat="42.829872776780945" lon="11.010154679995601"><ele>12.0</ele><time>2026-04-06T10:48:47.001Z</time></trkpt><trkpt lat="42.82963375609758" lon="11.010150471931325"><ele>12.0</ele><time>2026-04-06T10:48:48.001Z</time></trkpt><trkpt lat="42.82939564884209" lon="11.010148565091217"><ele>12.0</ele><time>2026-04-06T10:48:49.001Z</time></trkpt><trkpt lat="42.82915827779752" lon="11.010146944021841"><ele>12.5</ele><time>2026-04-06T10:48:50.001Z</time></trkpt><trkpt lat="42.82892449245343" lon="11.010141799871986"><ele>13.0</ele><time>2026-04-06T10:48:51.001Z</time></trkpt><trkpt lat="42.828693466263736" lon="11.010139615234893"><ele>14.5</ele><time>2026-04-06T10:48:52.001Z</time></trkpt><trkpt lat="42.82846275314368" lon="11.010137683126185"><ele>16.0</ele><time>2026-04-06T10:48:53.001Z</time></trkpt><trkpt lat="42.82823728804039" lon="11.01013253596189"><ele>16.0</ele><time>2026-04-06T10:48:54.001Z</time></trkpt><trkpt lat="42.82801636643752" lon="11.010130820988781"><ele>16.0</ele><time>2026-04-06T10:48:55.001Z</time></trkpt><trkpt lat="42.82778880249284" lon="11.010136717103974"><ele>16.0</ele><time>2026-04-06T10:48:56.001Z</time></trkpt><trkpt lat="42.82755655875256" lon="11.01013598793355"><ele>16.5</ele><time>2026-04-06T10:48:57.001Z</time></trkpt><trkpt lat="42.82732209429373" lon="11.010136760350143"><ele>17.0</ele><time>2026-04-06T10:48:58.001Z</time></trkpt><trkpt lat="42.82708467717332" lon="11.010136057208912"><ele>17.0</ele><time>2026-04-06T10:48:59.001Z</time></trkpt><trkpt lat="42.826842813715366" lon="11.010134951750395"><ele>17.0</ele><time>2026-04-06T10:49:00.001Z</time></trkpt><trkpt lat="42.82659911945959" lon="11.010132124462903"><ele>17.0</ele><time>2026-04-06T10:49:01.001Z</time></trkpt><trkpt lat="42.826353395829734" lon="11.010129544844606"><ele>17.0</ele><time>2026-04-06T10:49:02.001Z</time></trkpt><trkpt lat="42.826104482288834" lon="11.010127198753851"><ele>17.0</ele><time>2026-04-06T10:49:03.001Z</time></trkpt><trkpt lat="42.82585438507079" lon="11.010125809457453"><ele>17.0</ele><time>2026-04-06T10:49:04.001Z</time></trkpt><trkpt lat="42.825602095812094" lon="11.010123401612756"><ele>17.0</ele><time>2026-04-06T10:49:05.001Z</time></trkpt><trkpt lat="42.82534963164976" lon="11.010125884116267"><ele>17.0</ele><time>2026-04-06T10:49:06.001Z</time></trkpt><trkpt lat="42.82509323343917" lon="11.010120832648296"><ele>15.5</ele><time>2026-04-06T10:49:07.001Z</time></trkpt><trkpt lat="42.824837520991174" lon="11.010121526410238"><ele>14.0</ele><time>2026-04-06T10:49:08.001Z</time></trkpt><trkpt lat="42.82457874771722" lon="11.01012181298768"><ele>14.0</ele><time>2026-04-06T10:49:09.001Z</time></trkpt><trkpt lat="42.82432740953941" lon="11.010115482935573"><ele>14.0</ele><time>2026-04-06T10:49:10.001Z</time></trkpt><trkpt lat="42.82408282378808" lon="11.010099485642298"><ele>13.5</ele><time>2026-04-06T10:49:11.001Z</time></trkpt><trkpt lat="42.82384025266972" lon="11.010055045267972"><ele>13.0</ele><time>2026-04-06T10:49:12.001Z</time></trkpt><trkpt lat="42.823597701415046" lon="11.009966686477567"><ele>13.0</ele><time>2026-04-06T10:49:13.001Z</time></trkpt><trkpt lat="42.82336644634263" lon="11.009848139191122"><ele>13.0</ele><time>2026-04-06T10:49:14.001Z</time></trkpt><trkpt lat="42.8231345370491" lon="11.009716215344907"><ele>13.0</ele><time>2026-04-06T10:49:15.001Z</time></trkpt><trkpt lat="42.82289426396282" lon="11.009582928997105"><ele>13.0</ele><time>2026-04-06T10:49:16.001Z</time></trkpt><trkpt lat="42.822652583924594" lon="11.009444049617489"><ele>12.5</ele><time>2026-04-06T10:49:17.001Z</time></trkpt><trkpt lat="42.82240104258505" lon="11.009307149068771"><ele>12.0</ele><time>2026-04-06T10:49:18.001Z</time></trkpt><trkpt lat="42.82214551264617" lon="11.009169666050914"><ele>14.0</ele><time>2026-04-06T10:49:19.001Z</time></trkpt><trkpt lat="42.82189070595157" lon="11.009033607048135"><ele>16.0</ele><time>2026-04-06T10:49:20.001Z</time></trkpt><trkpt lat="42.82163389846662" lon="11.008892908662533"><ele>16.5</ele><time>2026-04-06T10:49:21.001Z</time></trkpt><trkpt lat="42.82137922724783" lon="11.008753936320195"><ele>17.0</ele><time>2026-04-06T10:49:22.001Z</time></trkpt><trkpt lat="42.82112101830617" lon="11.008615323343793"><ele>17.5</ele><time>2026-04-06T10:49:23.001Z</time></trkpt><trkpt lat="42.82086426097172" lon="11.008481623677227"><ele>18.0</ele><time>2026-04-06T10:49:24.001Z</time></trkpt><trkpt lat="42.82060657373009" lon="11.008342556133838"><ele>18.5</ele><time>2026-04-06T10:49:25.001Z</time></trkpt><trkpt lat="42.820358622864454" lon="11.008207072012016"><ele>19.0</ele><time>2026-04-06T10:49:26.001Z</time></trkpt><trkpt lat="42.82011586913254" lon="11.00807422299815"><ele>19.0</ele><time>2026-04-06T10:49:27.001Z</time></trkpt><trkpt lat="42.819877804358335" lon="11.007944669626747"><ele>19.0</ele><time>2026-04-06T10:49:28.001Z</time></trkpt><trkpt lat="42.81964239874891" lon="11.007816786855685"><ele>19.0</ele><time>2026-04-06T10:49:29Z</time></trkpt><trkpt lat="42.81940925147459" lon="11.007688820750055"><ele>19.0</ele><time>2026-04-06T10:49:30Z</time></trkpt><trkpt lat="42.819181332351086" lon="11.007564797448756"><ele>20.0</ele><time>2026-04-06T10:49:31Z</time></trkpt><trkpt lat="42.81895377740607" lon="11.00743989819803"><ele>21.0</ele><time>2026-04-06T10:49:32Z</time></trkpt><trkpt lat="42.81872301374017" lon="11.007313217529122"><ele>21.0</ele><time>2026-04-06T10:49:33Z</time></trkpt><trkpt lat="42.81849107415259" lon="11.007186454694885"><ele>21.0</ele><time>2026-04-06T10:49:34Z</time></trkpt><trkpt lat="42.8182561604101" lon="11.007057466119546"><ele>19.0</ele><time>2026-04-06T10:49:35Z</time></trkpt><trkpt lat="42.818018887483845" lon="11.006928985449733"><ele>17.0</ele><time>2026-04-06T10:49:36Z</time></trkpt><trkpt lat="42.81778045843544" lon="11.006797374068068"><ele>16.0</ele><time>2026-04-06T10:49:37Z</time></trkpt><trkpt lat="42.8175392093569" lon="11.006668816609002"><ele>15.0</ele><time>2026-04-06T10:49:38Z</time></trkpt><trkpt lat="42.817298369480994" lon="11.006534505306591"><ele>15.5</ele><time>2026-04-06T10:49:39Z</time></trkpt><trkpt lat="42.81705824351342" lon="11.006404868997063"><ele>16.0</ele><time>2026-04-06T10:49:40Z</time></trkpt><trkpt lat="42.81681527044921" lon="11.006278219118883"><ele>16.0</ele><time>2026-04-06T10:49:41Z</time></trkpt><trkpt lat="42.816574037171996" lon="11.006146969667187"><ele>16.0</ele><time>2026-04-06T10:49:42Z</time></trkpt><trkpt lat="42.816333169027" lon="11.006011524471877"><ele>16.0</ele><time>2026-04-06T10:49:43Z</time></trkpt><trkpt lat="42.81609001345628" lon="11.005876040325365"><ele>16.0</ele><time>2026-04-06T10:49:44Z</time></trkpt><trkpt lat="42.81584463909129" lon="11.005739453621118"><ele>14.5</ele><time>2026-04-06T10:49:45Z</time></trkpt><trkpt lat="42.81559978525559" lon="11.005602414852026"><ele>13.0</ele><time>2026-04-06T10:49:46Z</time></trkpt><trkpt lat="42.81535457049158" lon="11.00547224363797"><ele>11.5</ele><time>2026-04-06T10:49:47Z</time></trkpt><trkpt lat="42.81510838154532" lon="11.005336527366413"><ele>10.0</ele><time>2026-04-06T10:49:48Z</time></trkpt><trkpt lat="42.81486387066549" lon="11.005193722367933"><ele>10.0</ele><time>2026-04-06T10:49:49Z</time></trkpt><trkpt lat="42.81462085406835" lon="11.005063148459765"><ele>10.0</ele><time>2026-04-06T10:49:50Z</time></trkpt><trkpt lat="42.814379711189865" lon="11.004928371297249"><ele>10.0</ele><time>2026-04-06T10:49:51Z</time></trkpt><trkpt lat="42.814134877682356" lon="11.004795148474152"><ele>10.0</ele><time>2026-04-06T10:49:52Z</time></trkpt><trkpt lat="42.81389068686036" lon="11.004662482207927"><ele>10.0</ele><time>2026-04-06T10:49:53Z</time></trkpt><trkpt lat="42.81364903376758" lon="11.004531993494664"><ele>10.0</ele><time>2026-04-06T10:49:54Z</time></trkpt><trkpt lat="42.813406302666415" lon="11.004400481193535"><ele>9.5</ele><time>2026-04-06T10:49:55Z</time></trkpt><trkpt lat="42.8131642076755" lon="11.004269608603206"><ele>9.0</ele><time>2026-04-06T10:49:56Z</time></trkpt><trkpt lat="42.812921553257425" lon="11.004143117983157"><ele>9.0</ele><time>2026-04-06T10:49:57Z</time></trkpt><trkpt lat="42.81267710259886" lon="11.004013357845666"><ele>9.0</ele><time>2026-04-06T10:49:58Z</time></trkpt><trkpt lat="42.81243240807017" lon="11.003885989280754"><ele>6.5</ele><time>2026-04-06T10:49:59Z</time></trkpt><trkpt lat="42.81218545679777" lon="11.003752844310354"><ele>4.0</ele><time>2026-04-06T10:50:00Z</time></trkpt><trkpt lat="42.811936040645065" lon="11.00361821527414"><ele>4.0</ele><time>2026-04-06T10:50:01Z</time></trkpt><trkpt lat="42.811687035373744" lon="11.00348634309158"><ele>4.0</ele><time>2026-04-06T10:50:02Z</time></trkpt><trkpt lat="42.811437370659306" lon="11.00336210960834"><ele>5.5</ele><time>2026-04-06T10:50:03Z</time></trkpt><trkpt lat="42.81118623103169" lon="11.003242649713977"><ele>7.0</ele><time>2026-04-06T10:50:04Z</time></trkpt><trkpt lat="42.81094134314612" lon="11.003093916935976"><ele>7.0</ele><time>2026-04-06T10:50:05Z</time></trkpt><trkpt lat="42.81069424126476" lon="11.002966337755504"><ele>7.0</ele><time>2026-04-06T10:50:06Z</time></trkpt><trkpt lat="42.81044365131574" lon="11.002870458137345"><ele>7.0</ele><time>2026-04-06T10:50:07Z</time></trkpt><trkpt lat="42.81020236530766" lon="11.00275245245161"><ele>7.0</ele><time>2026-04-06T10:50:08Z</time></trkpt><trkpt lat="42.80995978181016" lon="11.002632880057233"><ele>7.0</ele><time>2026-04-06T10:50:09Z</time></trkpt><trkpt lat="42.80971652089368" lon="11.002510365766485"><ele>7.0</ele><time>2026-04-06T10:50:10Z</time></trkpt><trkpt lat="42.809471658267164" lon="11.0023880459866"><ele>10.5</ele><time>2026-04-06T10:50:11Z</time></trkpt><trkpt lat="42.8092313809126" lon="11.002266954924204"><ele>14.0</ele><time>2026-04-06T10:50:12Z</time></trkpt><trkpt lat="42.80898852193518" lon="11.00214858060199"><ele>14.0</ele><time>2026-04-06T10:50:13Z</time></trkpt><trkpt lat="42.80874312562397" lon="11.002032192847542"><ele>14.0</ele><time>2026-04-06T10:50:14Z</time></trkpt><trkpt lat="42.80849806995897" lon="11.001904840210905"><ele>13.0</ele><time>2026-04-06T10:50:15Z</time></trkpt><trkpt lat="42.80825968950144" lon="11.00178079244899"><ele>12.0</ele><time>2026-04-06T10:50:16Z</time></trkpt><trkpt lat="42.808024235104526" lon="11.001661795502434"><ele>12.0</ele><time>2026-04-06T10:50:17Z</time></trkpt><trkpt lat="42.80779395043091" lon="11.001548760616345"><ele>12.0</ele><time>2026-04-06T10:50:18Z</time></trkpt><trkpt lat="42.80756480886705" lon="11.001437383371929"><ele>11.333333333333334</ele><time>2026-04-06T10:50:19Z</time></trkpt><trkpt lat="42.80735607204034" lon="11.001333894480224"><ele>10.666666666666668</ele><time>2026-04-06T10:50:20Z</time></trkpt><trkpt lat="42.807162162472586" lon="11.00123576862691"><ele>10.0</ele><time>2026-04-06T10:50:21Z</time></trkpt><trkpt lat="42.806979977583225" lon="11.00114451700747"><ele>9.333333333333334</ele><time>2026-04-06T10:50:22Z</time></trkpt><trkpt lat="42.806811055254926" lon="11.001066698911279"><ele>8.666666666666666</ele><time>2026-04-06T10:50:23Z</time></trkpt><trkpt lat="42.80665013491817" lon="11.001000384865327"><ele>8.0</ele><time>2026-04-06T10:50:24Z</time></trkpt><trkpt lat="42.806503118609264" lon="11.000937316933301"><ele>8.0</ele><time>2026-04-06T10:50:25Z</time></trkpt><trkpt lat="42.80636671260689" lon="11.000882823098596"><ele>8.0</ele><time>2026-04-06T10:50:26Z</time></trkpt><trkpt lat="42.806244226281876" lon="11.000833637705366"><ele>8.0</ele><time>2026-04-06T10:50:27Z</time></trkpt><trkpt lat="42.80613486837193" lon="11.000784995364056"><ele>8.0</ele><time>2026-04-06T10:50:28Z</time></trkpt><trkpt lat="42.8060375363739" lon="11.000743162434375"><ele>8.666666666666666</ele><time>2026-04-06T10:50:29Z</time></trkpt><trkpt lat="42.8059565823128" lon="11.000704251645915"><ele>9.333333333333332</ele><time>2026-04-06T10:50:30.001Z</time></trkpt><trkpt lat="42.80588825476526" lon="11.000665794457348"><ele>10.0</ele><time>2026-04-06T10:50:31.001Z</time></trkpt><trkpt lat="42.80583089756653" lon="11.00062559954142"><ele>10.666666666666666</ele><time>2026-04-06T10:50:32.001Z</time></trkpt><trkpt lat="42.80576580309018" lon="11.000561555326534"><ele>11.333333333333334</ele><time>2026-04-06T10:50:36.001Z</time></trkpt><trkpt lat="42.80572037146603" lon="11.000484668346704"><ele>12.0</ele><time>2026-04-06T10:50:39.001Z</time></trkpt><trkpt lat="42.805676166766546" lon="11.000377271518904"><ele>12.0</ele><time>2026-04-06T10:50:42.001Z</time></trkpt><trkpt lat="42.80562015664428" lon="11.000248076803132"><ele>12.0</ele><time>2026-04-06T10:50:44.001Z</time></trkpt><trkpt lat="42.80556341262992" lon="11.00013645498079"><ele>12.0</ele><time>2026-04-06T10:50:46.001Z</time></trkpt><trkpt lat="42.80549829475259" lon="11.000039208647143"><ele>12.0</ele><time>2026-04-06T10:50:48.001Z</time></trkpt><trkpt lat="42.80539814264357" lon="10.999943355653071"><ele>12.0</ele><time>2026-04-06T10:50:50.001Z</time></trkpt><trkpt lat="42.805337598834015" lon="10.999912669737718"><ele>12.0</ele><time>2026-04-06T10:50:51.001Z</time></trkpt><trkpt lat="42.80527303133493" lon="10.999880116537168"><ele>12.0</ele><time>2026-04-06T10:50:52.001Z</time></trkpt><trkpt lat="42.805191551239794" lon="10.999842885041692"><ele>12.0</ele><time>2026-04-06T10:50:53.001Z</time></trkpt><trkpt lat="42.80509786277694" lon="10.999801979792437"><ele>12.0</ele><time>2026-04-06T10:50:54.001Z</time></trkpt><trkpt lat="42.805012684586835" lon="10.999752495109236"><ele>12.0</ele><time>2026-04-06T10:50:55.001Z</time></trkpt><trkpt lat="42.804926270851105" lon="10.999684961596193"><ele>12.0</ele><time>2026-04-06T10:50:56.001Z</time></trkpt><trkpt lat="42.80483653006792" lon="10.999593529578117"><ele>11.25</ele><time>2026-04-06T10:50:57.001Z</time></trkpt><trkpt lat="42.80474180235975" lon="10.999484619658698"><ele>10.5</ele><time>2026-04-06T10:50:58.001Z</time></trkpt><trkpt lat="42.80465099290207" lon="10.999358439534156"><ele>9.75</ele><time>2026-04-06T10:50:59.001Z</time></trkpt><trkpt lat="42.80456524704836" lon="10.999225842830256"><ele>9.0</ele><time>2026-04-06T10:51:00.001Z</time></trkpt><trkpt lat="42.80447480756217" lon="10.999085338616062"><ele>9.0</ele><time>2026-04-06T10:51:01.001Z</time></trkpt><trkpt lat="42.804371882491644" lon="10.998933733234729"><ele>9.0</ele><time>2026-04-06T10:51:02.001Z</time></trkpt><trkpt lat="42.80427345123894" lon="10.998778969517112"><ele>9.0</ele><time>2026-04-06T10:51:03.001Z</time></trkpt><trkpt lat="42.80417298781553" lon="10.998627445909227"><ele>8.666666666666666</ele><time>2026-04-06T10:51:04.001Z</time></trkpt><trkpt lat="42.80406811227914" lon="10.998469777984559"><ele>8.333333333333332</ele><time>2026-04-06T10:51:05.001Z</time></trkpt><trkpt lat="42.80396088269726" lon="10.998299847819984"><ele>8.0</ele><time>2026-04-06T10:51:06.001Z</time></trkpt><trkpt lat="42.80384951931569" lon="10.998129508475998"><ele>8.0</ele><time>2026-04-06T10:51:07.001Z</time></trkpt><trkpt lat="42.80372279024823" lon="10.997949885977896"><ele>8.0</ele><time>2026-04-06T10:51:08.001Z</time></trkpt><trkpt lat="42.80357027373088" lon="10.997748406327826"><ele>8.0</ele><time>2026-04-06T10:51:09.001Z</time></trkpt><trkpt lat="42.80340854793503" lon="10.997503566709677"><ele>7.0</ele><time>2026-04-06T10:51:10.001Z</time></trkpt><trkpt lat="42.803247596155714" lon="10.99723297411568"><ele>6.0</ele><time>2026-04-06T10:51:11.001Z</time></trkpt><trkpt lat="42.8030778766101" lon="10.996954507510175"><ele>6.0</ele><time>2026-04-06T10:51:12.001Z</time></trkpt><trkpt lat="42.8028987213889" lon="10.99667924216582"><ele>6.0</ele><time>2026-04-06T10:51:13.001Z</time></trkpt><trkpt lat="42.80271765048407" lon="10.996406966997615"><ele>5.0</ele><time>2026-04-06T10:51:14.001Z</time></trkpt><trkpt lat="42.80254078870801" lon="10.996142323695878"><ele>4.0</ele><time>2026-04-06T10:51:15.001Z</time></trkpt><trkpt lat="42.80236908596042" lon="10.995883830277267"><ele>3.5</ele><time>2026-04-06T10:51:16.001Z</time></trkpt><trkpt lat="42.80220469003503" lon="10.995626303550022"><ele>3.0</ele><time>2026-04-06T10:51:17.001Z</time></trkpt><trkpt lat="42.802040298518655" lon="10.995374157392291"><ele>3.0</ele><time>2026-04-06T10:51:18.001Z</time></trkpt><trkpt lat="42.80187401901813" lon="10.99511955806582"><ele>3.0</ele><time>2026-04-06T10:51:19.001Z</time></trkpt><trkpt lat="42.80170635280048" lon="10.994865714333061"><ele>2.3333333333333335</ele><time>2026-04-06T10:51:20.001Z</time></trkpt><trkpt lat="42.801556281954255" lon="10.994632272941754"><ele>1.6666666666666665</ele><time>2026-04-06T10:51:21.001Z</time></trkpt><trkpt lat="42.801413721777365" lon="10.994403921402403"><ele>1.0</ele><time>2026-04-06T10:51:22.001Z</time></trkpt><trkpt lat="42.80127521616274" lon="10.994191439450255"><ele>1.3333333333333333</ele><time>2026-04-06T10:51:23.001Z</time></trkpt><trkpt lat="42.801140759292245" lon="10.99398143240915"><ele>1.6666666666666665</ele><time>2026-04-06T10:51:24.001Z</time></trkpt><trkpt lat="42.80100530558587" lon="10.993776163263078"><ele>2.0</ele><time>2026-04-06T10:51:25.001Z</time></trkpt><trkpt lat="42.80086838076327" lon="10.993575749779314"><ele>2.0</ele><time>2026-04-06T10:51:26.001Z</time></trkpt><trkpt lat="42.800716752622435" lon="10.99338588990951"><ele>2.0</ele><time>2026-04-06T10:51:27.001Z</time></trkpt><trkpt lat="42.80054827318103" lon="10.993212805201882"><ele>2.0</ele><time>2026-04-06T10:51:28.001Z</time></trkpt><trkpt lat="42.80036511469832" lon="10.993056693573948"><ele>2.0</ele><time>2026-04-06T10:51:29.001Z</time></trkpt><trkpt lat="42.800159145059425" lon="10.99291852699356"><ele>2.0</ele><time>2026-04-06T10:51:30.001Z</time></trkpt><trkpt lat="42.79993789040903" lon="10.992749385039184"><ele>2.0</ele><time>2026-04-06T10:51:31.001Z</time></trkpt><trkpt lat="42.79969594543123" lon="10.99258721166677"><ele>2.0</ele><time>2026-04-06T10:51:32.001Z</time></trkpt><trkpt lat="42.79944303150027" lon="10.992417488398267"><ele>2.0</ele><time>2026-04-06T10:51:33.001Z</time></trkpt><trkpt lat="42.79918229084549" lon="10.992242512837027"><ele>2.0</ele><time>2026-04-06T10:51:34.001Z</time></trkpt><trkpt lat="42.7989160689616" lon="10.992063388311385"><ele>2.0</ele><time>2026-04-06T10:51:35Z</time></trkpt><trkpt lat="42.79864920533486" lon="10.99188338736333"><ele>2.0</ele><time>2026-04-06T10:51:36Z</time></trkpt><trkpt lat="42.798376734860845" lon="10.99169918367313"><ele>3.0</ele><time>2026-04-06T10:51:37Z</time></trkpt><trkpt lat="42.798106427453874" lon="10.991516442339268"><ele>4.0</ele><time>2026-04-06T10:51:38Z</time></trkpt><trkpt lat="42.7978382991452" lon="10.991335174184064"><ele>3.0</ele><time>2026-04-06T10:51:39Z</time></trkpt><trkpt lat="42.797565249882844" lon="10.991172479294582"><ele>2.0</ele><time>2026-04-06T10:51:40Z</time></trkpt><trkpt lat="42.797304208464425" lon="10.990991239858127"><ele>2.0</ele><time>2026-04-06T10:51:41Z</time></trkpt><trkpt lat="42.797053537511445" lon="10.990821488961933"><ele>2.0</ele><time>2026-04-06T10:51:42Z</time></trkpt><trkpt lat="42.79681662624708" lon="10.990662720071573"><ele>2.0</ele><time>2026-04-06T10:51:43Z</time></trkpt><trkpt lat="42.796581167828855" lon="10.990505962123818"><ele>2.0</ele><time>2026-04-06T10:51:44Z</time></trkpt><trkpt lat="42.79634734778664" lon="10.990348113021373"><ele>2.0</ele><time>2026-04-06T10:51:45Z</time></trkpt><trkpt lat="42.79611579698849" lon="10.990191069123624"><ele>2.0</ele><time>2026-04-06T10:51:46Z</time></trkpt><trkpt lat="42.79588262250949" lon="10.990031930304886"><ele>3.0</ele><time>2026-04-06T10:51:47Z</time></trkpt><trkpt lat="42.79565267716134" lon="10.98987264199631"><ele>4.0</ele><time>2026-04-06T10:51:48Z</time></trkpt><trkpt lat="42.795422587541026" lon="10.98971606520536"><ele>4.0</ele><time>2026-04-06T10:51:49Z</time></trkpt><trkpt lat="42.795200890425996" lon="10.989558413422655"><ele>4.0</ele><time>2026-04-06T10:51:50Z</time></trkpt><trkpt lat="42.79499503304847" lon="10.989401687296972"><ele>4.333333333333333</ele><time>2026-04-06T10:51:51Z</time></trkpt><trkpt lat="42.79480566530505" lon="10.989231808706455"><ele>4.666666666666667</ele><time>2026-04-06T10:51:52Z</time></trkpt><trkpt lat="42.794633241348414" lon="10.989046303366019"><ele>5.0</ele><time>2026-04-06T10:51:53Z</time></trkpt><trkpt lat="42.79447618817742" lon="10.988845707028256"><ele>5.333333333333334</ele><time>2026-04-06T10:51:54Z</time></trkpt><trkpt lat="42.79433282485224" lon="10.988635119698378"><ele>5.666666666666667</ele><time>2026-04-06T10:51:55Z</time></trkpt><trkpt lat="42.794202418558434" lon="10.988416486728303"><ele>6.0</ele><time>2026-04-06T10:51:56Z</time></trkpt><trkpt lat="42.794080502386926" lon="10.988195075282569"><ele>6.0</ele><time>2026-04-06T10:51:57Z</time></trkpt><trkpt lat="42.79396823887002" lon="10.987954798188536"><ele>6.0</ele><time>2026-04-06T10:51:58Z</time></trkpt><trkpt lat="42.79386175055658" lon="10.987703036279314"><ele>6.0</ele><time>2026-04-06T10:51:59Z</time></trkpt><trkpt lat="42.79376675695827" lon="10.987451825594079"><ele>5.333333333333333</ele><time>2026-04-06T10:52:00Z</time></trkpt><trkpt lat="42.79366127976881" lon="10.987197421515898"><ele>4.666666666666666</ele><time>2026-04-06T10:52:01Z</time></trkpt><trkpt lat="42.79355443815204" lon="10.98691865247599"><ele>4.0</ele><time>2026-04-06T10:52:02Z</time></trkpt><trkpt lat="42.793447099803295" lon="10.986640719978451"><ele>2.5</ele><time>2026-04-06T10:52:03Z</time></trkpt><trkpt lat="42.793332564133166" lon="10.986362463804632"><ele>1.0</ele><time>2026-04-06T10:52:04Z</time></trkpt><trkpt lat="42.793203350815595" lon="10.986093714029266"><ele>1.0</ele><time>2026-04-06T10:52:05Z</time></trkpt><trkpt lat="42.79304459789248" lon="10.98583964996563"><ele>1.0</ele><time>2026-04-06T10:52:06Z</time></trkpt><trkpt lat="42.79286966034675" lon="10.98558593431835"><ele>1.0</ele><time>2026-04-06T10:52:07Z</time></trkpt><trkpt lat="42.79268436524175" lon="10.985328874843454"><ele>1.0</ele><time>2026-04-06T10:52:08Z</time></trkpt><trkpt lat="42.79249705702346" lon="10.985064748655525"><ele>2.0</ele><time>2026-04-06T10:52:09Z</time></trkpt><trkpt lat="42.792313963079906" lon="10.984800117982205"><ele>3.0</ele><time>2026-04-06T10:52:10Z</time></trkpt><trkpt lat="42.792129049706965" lon="10.98453424050541"><ele>3.0</ele><time>2026-04-06T10:52:11Z</time></trkpt><trkpt lat="42.79194021190994" lon="10.984269278615546"><ele>3.0</ele><time>2026-04-06T10:52:12Z</time></trkpt><trkpt lat="42.791753921776085" lon="10.98400313874669"><ele>2.0</ele><time>2026-04-06T10:52:13Z</time></trkpt><trkpt lat="42.791571019542154" lon="10.983735718742349"><ele>1.0</ele><time>2026-04-06T10:52:14Z</time></trkpt><trkpt lat="42.79139259681716" lon="10.983460133766663"><ele>2.5</ele><time>2026-04-06T10:52:15Z</time></trkpt><trkpt lat="42.79121312111819" lon="10.983196582238964"><ele>4.0</ele><time>2026-04-06T10:52:16Z</time></trkpt><trkpt lat="42.79103439242746" lon="10.982935705119793"><ele>3.5</ele><time>2026-04-06T10:52:17Z</time></trkpt><trkpt lat="42.79085381430958" lon="10.982676574796855"><ele>3.0</ele><time>2026-04-06T10:52:18Z</time></trkpt><trkpt lat="42.790677224741195" lon="10.98241730660438"><ele>4.0</ele><time>2026-04-06T10:52:19Z</time></trkpt><trkpt lat="42.79050148659036" lon="10.982156034660246"><ele>5.0</ele><time>2026-04-06T10:52:20Z</time></trkpt><trkpt lat="42.790334978353094" lon="10.98188954133801"><ele>5.0</ele><time>2026-04-06T10:52:21Z</time></trkpt><trkpt lat="42.79018199481317" lon="10.981617651752947"><ele>5.0</ele><time>2026-04-06T10:52:22Z</time></trkpt><trkpt lat="42.7900438432102" lon="10.981352069882146"><ele>4.666666666666667</ele><time>2026-04-06T10:52:23Z</time></trkpt><trkpt lat="42.78991582350203" lon="10.981095593171036"><ele>4.333333333333333</ele><time>2026-04-06T10:52:24Z</time></trkpt><trkpt lat="42.78980602818677" lon="10.980833775108323"><ele>4.0</ele><time>2026-04-06T10:52:25Z</time></trkpt><trkpt lat="42.78970751419124" lon="10.980594795236806"><ele>4.0</ele><time>2026-04-06T10:52:26Z</time></trkpt><trkpt lat="42.78961645699478" lon="10.980362282174742"><ele>4.0</ele><time>2026-04-06T10:52:27Z</time></trkpt><trkpt lat="42.789535790713664" lon="10.980123849179073"><ele>4.0</ele><time>2026-04-06T10:52:28Z</time></trkpt><trkpt lat="42.789458937486465" lon="10.9798877845794"><ele>4.333333333333333</ele><time>2026-04-06T10:52:29Z</time></trkpt><trkpt lat="42.78938450735121" lon="10.979646195962948"><ele>4.666666666666667</ele><time>2026-04-06T10:52:30Z</time></trkpt><trkpt lat="42.78931313787306" lon="10.979400238479883"><ele>5.0</ele><time>2026-04-06T10:52:31Z</time></trkpt><trkpt lat="42.78924506854826" lon="10.979154629603883"><ele>5.0</ele><time>2026-04-06T10:52:32Z</time></trkpt><trkpt lat="42.789184836238405" lon="10.978916604765724"><ele>5.0</ele><time>2026-04-06T10:52:33Z</time></trkpt><trkpt lat="42.78913146946749" lon="10.978678549899904"><ele>5.0</ele><time>2026-04-06T10:52:34Z</time></trkpt><trkpt lat="42.78908019245835" lon="10.978443325387717"><ele>4.666666666666667</ele><time>2026-04-06T10:52:35Z</time></trkpt><trkpt lat="42.78903007673738" lon="10.978207238906377"><ele>4.333333333333333</ele><time>2026-04-06T10:52:36.001Z</time></trkpt><trkpt lat="42.78897561192198" lon="10.977966430263217"><ele>4.0</ele><time>2026-04-06T10:52:37.001Z</time></trkpt><trkpt lat="42.78892147183105" lon="10.977724753259114"><ele>4.0</ele><time>2026-04-06T10:52:38.001Z</time></trkpt><trkpt lat="42.788867735330896" lon="10.977483691647747"><ele>4.0</ele><time>2026-04-06T10:52:39.001Z</time></trkpt><trkpt lat="42.78881090351393" lon="10.977229667169816"><ele>4.0</ele><time>2026-04-06T10:52:40.001Z</time></trkpt><trkpt lat="42.78874208893826" lon="10.976946421418102"><ele>4.0</ele><time>2026-04-06T10:52:41.001Z</time></trkpt><trkpt lat="42.78867355035332" lon="10.976643307559554"><ele>4.0</ele><time>2026-04-06T10:52:42.001Z</time></trkpt><trkpt lat="42.7886034151296" lon="10.976331022079938"><ele>4.0</ele><time>2026-04-06T10:52:43.001Z</time></trkpt><trkpt lat="42.78853112509949" lon="10.97600723868443"><ele>4.0</ele><time>2026-04-06T10:52:44.001Z</time></trkpt><trkpt lat="42.78845816068678" lon="10.975676360898353"><ele>3.5</ele><time>2026-04-06T10:52:45.001Z</time></trkpt><trkpt lat="42.7883844619378" lon="10.975343326758427"><ele>3.0</ele><time>2026-04-06T10:52:46.001Z</time></trkpt><trkpt lat="42.788309708522895" lon="10.975007476617405"><ele>2.5</ele><time>2026-04-06T10:52:47.001Z</time></trkpt><trkpt lat="42.78823409018749" lon="10.974669036180414"><ele>2.0</ele><time>2026-04-06T10:52:48.001Z</time></trkpt><trkpt lat="42.78816018348709" lon="10.974328241192998"><ele>2.5</ele><time>2026-04-06T10:52:49.001Z</time></trkpt><trkpt lat="42.78808830328696" lon="10.973984899793956"><ele>3.0</ele><time>2026-04-06T10:52:50.001Z</time></trkpt><trkpt lat="42.78802675222809" lon="10.973639187909784"><ele>3.0</ele><time>2026-04-06T10:52:51.001Z</time></trkpt><trkpt lat="42.78796664078128" lon="10.97329733250198"><ele>3.0</ele><time>2026-04-06T10:52:52.001Z</time></trkpt><trkpt lat="42.78791425126461" lon="10.97297608211786"><ele>3.0</ele><time>2026-04-06T10:52:53.001Z</time></trkpt><trkpt lat="42.78787874636175" lon="10.972679553862221"><ele>3.0</ele><time>2026-04-06T10:52:54.001Z</time></trkpt><trkpt lat="42.787850583447806" lon="10.972397730993494"><ele>3.0</ele><time>2026-04-06T10:52:55.001Z</time></trkpt><trkpt lat="42.7878304191179" lon="10.972116214076214"><ele>3.0</ele><time>2026-04-06T10:52:56.001Z</time></trkpt><trkpt lat="42.78781583891647" lon="10.971832206199036"><ele>3.0</ele><time>2026-04-06T10:52:57.001Z</time></trkpt><trkpt lat="42.787806415110346" lon="10.971561732994697"><ele>3.0</ele><time>2026-04-06T10:52:58.001Z</time></trkpt><trkpt lat="42.787804643856326" lon="10.97129791548176"><ele>3.0</ele><time>2026-04-06T10:52:59.001Z</time></trkpt><trkpt lat="42.78781151132176" lon="10.971042228579808"><ele>3.0</ele><time>2026-04-06T10:53:00.001Z</time></trkpt><trkpt lat="42.78781815754266" lon="10.970797941226447"><ele>3.0</ele><time>2026-04-06T10:53:01.001Z</time></trkpt><trkpt lat="42.787831263516445" lon="10.970552864038435"><ele>3.0</ele><time>2026-04-06T10:53:02.001Z</time></trkpt><trkpt lat="42.78785119737242" lon="10.970295734150247"><ele>3.0</ele><time>2026-04-06T10:53:03.001Z</time></trkpt><trkpt lat="42.787869464835794" lon="10.970016725363582"><ele>3.0</ele><time>2026-04-06T10:53:04.001Z</time></trkpt><trkpt lat="42.787896591381404" lon="10.969716217171865"><ele>3.0</ele><time>2026-04-06T10:53:05.001Z</time></trkpt><trkpt lat="42.787932208822546" lon="10.969412952791332"><ele>3.0</ele><time>2026-04-06T10:53:06.001Z</time></trkpt><trkpt lat="42.787969122032806" lon="10.969109787276079"><ele>3.666666666666667</ele><time>2026-04-06T10:53:07.001Z</time></trkpt><trkpt lat="42.787999790866124" lon="10.968823051964206"><ele>4.333333333333334</ele><time>2026-04-06T10:53:08.001Z</time></trkpt><trkpt lat="42.788024182685014" lon="10.96855966390976"><ele>5.0</ele><time>2026-04-06T10:53:09.001Z</time></trkpt><trkpt lat="42.78804263508502" lon="10.968295696883262"><ele>5.0</ele><time>2026-04-06T10:53:10.001Z</time></trkpt><trkpt lat="42.78805181053284" lon="10.968011125310342"><ele>5.0</ele><time>2026-04-06T10:53:11.001Z</time></trkpt><trkpt lat="42.78805711634998" lon="10.967702893901679"><ele>5.0</ele><time>2026-04-06T10:53:12.001Z</time></trkpt><trkpt lat="42.78806166851567" lon="10.967381288394497"><ele>4.0</ele><time>2026-04-06T10:53:13.001Z</time></trkpt><trkpt lat="42.788063469928204" lon="10.967060124439477"><ele>3.0</ele><time>2026-04-06T10:53:14.001Z</time></trkpt><trkpt lat="42.788065761356144" lon="10.966749831412754"><ele>2.3333333333333335</ele><time>2026-04-06T10:53:15.001Z</time></trkpt><trkpt lat="42.78806624480331" lon="10.96646592042138"><ele>1.6666666666666665</ele><time>2026-04-06T10:53:16.001Z</time></trkpt><trkpt lat="42.788063984547875" lon="10.966200503104364"><ele>1.0</ele><time>2026-04-06T10:53:17.001Z</time></trkpt><trkpt lat="42.78806224007061" lon="10.965950322265053"><ele>1.3333333333333333</ele><time>2026-04-06T10:53:18.001Z</time></trkpt><trkpt lat="42.78806037885922" lon="10.965698294066097"><ele>1.6666666666666665</ele><time>2026-04-06T10:53:19.001Z</time></trkpt><trkpt lat="42.78805812231525" lon="10.965459309802377"><ele>2.0</ele><time>2026-04-06T10:53:20.001Z</time></trkpt><trkpt lat="42.788056771505325" lon="10.965231067878287"><ele>2.333333333333333</ele><time>2026-04-06T10:53:21.001Z</time></trkpt><trkpt lat="42.78805585537457" lon="10.964990700492455"><ele>2.6666666666666665</ele><time>2026-04-06T10:53:22.001Z</time></trkpt><trkpt lat="42.78805368885841" lon="10.964751548795173"><ele>3.0</ele><time>2026-04-06T10:53:23.001Z</time></trkpt><trkpt lat="42.788053550654745" lon="10.964513617157547"><ele>3.0</ele><time>2026-04-06T10:53:24.001Z</time></trkpt><trkpt lat="42.78805118473124" lon="10.964277679862874"><ele>3.0</ele><time>2026-04-06T10:53:25.001Z</time></trkpt><trkpt lat="42.78805009383369" lon="10.964032065709771"><ele>3.0</ele><time>2026-04-06T10:53:26.001Z</time></trkpt><trkpt lat="42.78804298105467" lon="10.963749908873844"><ele>2.5</ele><time>2026-04-06T10:53:27.001Z</time></trkpt><trkpt lat="42.788038041430326" lon="10.963442389245278"><ele>2.0</ele><time>2026-04-06T10:53:28.001Z</time></trkpt><trkpt lat="42.78805049307649" lon="10.96312156783571"><ele>2.0</ele><time>2026-04-06T10:53:29.001Z</time></trkpt><trkpt lat="42.78806824920126" lon="10.962819459660603"><ele>2.0</ele><time>2026-04-06T10:53:30.001Z</time></trkpt><trkpt lat="42.788086002535216" lon="10.962548305123546"><ele>2.0</ele><time>2026-04-06T10:53:31.001Z</time></trkpt><trkpt lat="42.78810145712781" lon="10.96230185687466"><ele>2.0</ele><time>2026-04-06T10:53:32.001Z</time></trkpt><trkpt lat="42.78811235107931" lon="10.96204967186674"><ele>2.0</ele><time>2026-04-06T10:53:33.001Z</time></trkpt><trkpt lat="42.78812426635429" lon="10.961757019250953"><ele>2.0</ele><time>2026-04-06T10:53:34.001Z</time></trkpt><trkpt lat="42.788145543782434" lon="10.961436893238767"><ele>2.0</ele><time>2026-04-06T10:53:35.001Z</time></trkpt><trkpt lat="42.788170262109055" lon="10.961107207682456"><ele>2.0</ele><time>2026-04-06T10:53:36.001Z</time></trkpt><trkpt lat="42.788192365838306" lon="10.960771406652253"><ele>1.0</ele><time>2026-04-06T10:53:37.001Z</time></trkpt><trkpt lat="42.78821128440229" lon="10.960440983236197"><ele>0.0</ele><time>2026-04-06T10:53:38.001Z</time></trkpt><trkpt lat="42.788230147732314" lon="10.960112896168194"><ele>0.5</ele><time>2026-04-06T10:53:39.001Z</time></trkpt><trkpt lat="42.7882440009824" lon="10.959777983348877"><ele>1.0</ele><time>2026-04-06T10:53:40.001Z</time></trkpt><trkpt lat="42.788256316093644" lon="10.959431074575486"><ele>2.0</ele><time>2026-04-06T10:53:41Z</time></trkpt><trkpt lat="42.78828046849846" lon="10.959083568426799"><ele>3.0</ele><time>2026-04-06T10:53:42Z</time></trkpt><trkpt lat="42.7883083658248" lon="10.95873485464103"><ele>3.0</ele><time>2026-04-06T10:53:43Z</time></trkpt><trkpt lat="42.788333878290786" lon="10.958386365098244"><ele>3.0</ele><time>2026-04-06T10:53:44Z</time></trkpt><trkpt lat="42.788359874247234" lon="10.958039470784309"><ele>2.0</ele><time>2026-04-06T10:53:45Z</time></trkpt><trkpt lat="42.78837653031904" lon="10.957687396666357"><ele>1.0</ele><time>2026-04-06T10:53:46Z</time></trkpt><trkpt lat="42.78839333762959" lon="10.957340078945341"><ele>1.0</ele><time>2026-04-06T10:53:47Z</time></trkpt><trkpt lat="42.78840919831434" lon="10.956998346112142"><ele>1.0</ele><time>2026-04-06T10:53:48Z</time></trkpt><trkpt lat="42.78842351910697" lon="10.956665678100023"><ele>1.5</ele><time>2026-04-06T10:53:49Z</time></trkpt><trkpt lat="42.78843860326378" lon="10.956344314454295"><ele>2.0</ele><time>2026-04-06T10:53:50Z</time></trkpt><trkpt lat="42.78845734877874" lon="10.956034132460731"><ele>1.6666666666666665</ele><time>2026-04-06T10:53:51Z</time></trkpt><trkpt lat="42.78846857849543" lon="10.955732916739827"><ele>1.3333333333333333</ele><time>2026-04-06T10:53:52Z</time></trkpt><trkpt lat="42.78848077907477" lon="10.955437336101845"><ele>1.0</ele><time>2026-04-06T10:53:53Z</time></trkpt><trkpt lat="42.78849353899933" lon="10.955147737620127"><ele>1.0</ele><time>2026-04-06T10:53:54Z</time></trkpt><trkpt lat="42.78850432576199" lon="10.954863197395728"><ele>1.0</ele><time>2026-04-06T10:53:55Z</time></trkpt><trkpt lat="42.78851593570948" lon="10.954588923780065"><ele>1.0</ele><time>2026-04-06T10:53:56Z</time></trkpt><trkpt lat="42.788529574829" lon="10.954315464831987"><ele>1.0</ele><time>2026-04-06T10:53:57Z</time></trkpt><trkpt lat="42.78854175754739" lon="10.954041817977934"><ele>1.0</ele><time>2026-04-06T10:53:58Z</time></trkpt><trkpt lat="42.78855529143267" lon="10.953776457423956"><ele>1.0</ele><time>2026-04-06T10:53:59Z</time></trkpt><trkpt lat="42.78856876797586" lon="10.95352004244836"><ele>1.3333333333333333</ele><time>2026-04-06T10:54:00Z</time></trkpt><trkpt lat="42.788581715692395" lon="10.953275380207002"><ele>1.6666666666666665</ele><time>2026-04-06T10:54:01Z</time></trkpt><trkpt lat="42.78859231545436" lon="10.953029769490843"><ele>2.0</ele><time>2026-04-06T10:54:02Z</time></trkpt><trkpt lat="42.78860332183142" lon="10.952797915630637"><ele>2.0</ele><time>2026-04-06T10:54:03Z</time></trkpt><trkpt lat="42.78861981012392" lon="10.952549142963068"><ele>2.0</ele><time>2026-04-06T10:54:04Z</time></trkpt><trkpt lat="42.78863426026124" lon="10.952283014759773"><ele>2.0</ele><time>2026-04-06T10:54:05Z</time></trkpt><trkpt lat="42.788641586653476" lon="10.951966298387111"><ele>1.0</ele><time>2026-04-06T10:54:06Z</time></trkpt><trkpt lat="42.78865212351634" lon="10.951614541399655"><ele>0.0</ele><time>2026-04-06T10:54:07Z</time></trkpt><trkpt lat="42.78867416863487" lon="10.95122655983141"><ele>0.5</ele><time>2026-04-06T10:54:08Z</time></trkpt><trkpt lat="42.78869791219268" lon="10.950831972424105"><ele>1.0</ele><time>2026-04-06T10:54:09Z</time></trkpt><trkpt lat="42.78872037515642" lon="10.950487202321506"><ele>1.0</ele><time>2026-04-06T10:54:10Z</time></trkpt><trkpt lat="42.78873819715661" lon="10.95016641850239"><ele>1.0</ele><time>2026-04-06T10:54:11Z</time></trkpt><trkpt lat="42.78875145768213" lon="10.949881509418523"><ele>1.0</ele><time>2026-04-06T10:54:12Z</time></trkpt><trkpt lat="42.788760463852434" lon="10.949623274463354"><ele>1.3333333333333333</ele><time>2026-04-06T10:54:13Z</time></trkpt><trkpt lat="42.78877109678579" lon="10.94937230178569"><ele>1.6666666666666665</ele><time>2026-04-06T10:54:14Z</time></trkpt><trkpt lat="42.78878432017166" lon="10.949123982939966"><ele>2.0</ele><time>2026-04-06T10:54:15Z</time></trkpt><trkpt lat="42.78879761074261" lon="10.94888326398281"><ele>2.0</ele><time>2026-04-06T10:54:16Z</time></trkpt><trkpt lat="42.78881275472843" lon="10.948638601346428"><ele>2.0</ele><time>2026-04-06T10:54:17Z</time></trkpt><trkpt lat="42.788828064008854" lon="10.948387942391962"><ele>2.0</ele><time>2026-04-06T10:54:18Z</time></trkpt><trkpt lat="42.788837038066056" lon="10.94813692272604"><ele>2.0</ele><time>2026-04-06T10:54:19Z</time></trkpt><trkpt lat="42.788848575836234" lon="10.947885425488538"><ele>2.0</ele><time>2026-04-06T10:54:20Z</time></trkpt><trkpt lat="42.788860466387575" lon="10.947629993026643"><ele>2.0</ele><time>2026-04-06T10:54:21Z</time></trkpt><trkpt lat="42.788871200836624" lon="10.947379801853826"><ele>1.6666666666666665</ele><time>2026-04-06T10:54:22Z</time></trkpt><trkpt lat="42.78888050673872" lon="10.947146496930394"><ele>1.3333333333333333</ele><time>2026-04-06T10:54:23Z</time></trkpt><trkpt lat="42.78888341019578" lon="10.946924513215881"><ele>1.0</ele><time>2026-04-06T10:54:24Z</time></trkpt><trkpt lat="42.78888260773613" lon="10.946704792266843"><ele>1.0</ele><time>2026-04-06T10:54:25Z</time></trkpt><trkpt lat="42.78887749557897" lon="10.946489040320603"><ele>1.0</ele><time>2026-04-06T10:54:26Z</time></trkpt><trkpt lat="42.78887286852204" lon="10.946298513187841"><ele>1.0</ele><time>2026-04-06T10:54:27Z</time></trkpt><trkpt lat="42.78887366908109" lon="10.946130105916595"><ele>1.0</ele><time>2026-04-06T10:54:28Z</time></trkpt><trkpt lat="42.78887678890508" lon="10.94597947721419"><ele>1.25</ele><time>2026-04-06T10:54:29Z</time></trkpt><trkpt lat="42.78888618617773" lon="10.94583109225515"><ele>1.5</ele><time>2026-04-06T10:54:30Z</time></trkpt><trkpt lat="42.78890507032203" lon="10.945677508551148"><ele>1.75</ele><time>2026-04-06T10:54:31Z</time></trkpt><trkpt lat="42.78891713573088" lon="10.945526928785565"><ele>2.0</ele><time>2026-04-06T10:54:32Z</time></trkpt><trkpt lat="42.7889260065939" lon="10.945369805430479"><ele>2.0</ele><time>2026-04-06T10:54:33Z</time></trkpt><trkpt lat="42.78893483079608" lon="10.945200888743653"><ele>2.0</ele><time>2026-04-06T10:54:34Z</time></trkpt><trkpt lat="42.78894295772419" lon="10.945025534585177"><ele>2.0</ele><time>2026-04-06T10:54:35Z</time></trkpt><trkpt lat="42.78895270064103" lon="10.944849027177296"><ele>2.0</ele><time>2026-04-06T10:54:36Z</time></trkpt><trkpt lat="42.788962489307174" lon="10.944658101336588"><ele>2.0</ele><time>2026-04-06T10:54:37Z</time></trkpt><trkpt lat="42.78897254756826" lon="10.944460672260945"><ele>2.0</ele><time>2026-04-06T10:54:38Z</time></trkpt><trkpt lat="42.788983735135396" lon="10.944266608205895"><ele>2.0</ele><time>2026-04-06T10:54:39Z</time></trkpt><trkpt lat="42.78899305072903" lon="10.944088450182925"><ele>2.0</ele><time>2026-04-06T10:54:40Z</time></trkpt><trkpt lat="42.78900095454238" lon="10.943914467133794"><ele>2.0</ele><time>2026-04-06T10:54:41Z</time></trkpt><trkpt lat="42.78900287718244" lon="10.94372935656491"><ele>2.0</ele><time>2026-04-06T10:54:42Z</time></trkpt><trkpt lat="42.788997831477275" lon="10.943548419261308"><ele>2.0</ele><time>2026-04-06T10:54:43.001Z</time></trkpt><trkpt lat="42.78900318264684" lon="10.943369486757307"><ele>2.0</ele><time>2026-04-06T10:54:44.001Z</time></trkpt><trkpt lat="42.78901212507752" lon="10.943199374744724"><ele>2.4000000000000004</ele><time>2026-04-06T10:54:45.001Z</time></trkpt><trkpt lat="42.78902071937842" lon="10.94304445520943"><ele>2.8000000000000003</ele><time>2026-04-06T10:54:46.001Z</time></trkpt><trkpt lat="42.7890326343104" lon="10.942910077973572"><ele>3.2</ele><time>2026-04-06T10:54:47.001Z</time></trkpt><trkpt lat="42.78904671444591" lon="10.94278325678183"><ele>3.6</ele><time>2026-04-06T10:54:48.001Z</time></trkpt><trkpt lat="42.789060671834626" lon="10.942663323659994"><ele>4.0</ele><time>2026-04-06T10:54:49.001Z</time></trkpt><trkpt lat="42.78907797570564" lon="10.942537189903545"><ele>4.2</ele><time>2026-04-06T10:54:50.001Z</time></trkpt><trkpt lat="42.78910457555893" lon="10.942401115236606"><ele>4.4</ele><time>2026-04-06T10:54:51.001Z</time></trkpt><trkpt lat="42.78912648613885" lon="10.942268107875977"><ele>4.6</ele><time>2026-04-06T10:54:52.001Z</time></trkpt><trkpt lat="42.789152090864285" lon="10.94212636104502"><ele>4.8</ele><time>2026-04-06T10:54:53.001Z</time></trkpt><trkpt lat="42.78917932906153" lon="10.941971857421205"><ele>5.0</ele><time>2026-04-06T10:54:54.001Z</time></trkpt><trkpt lat="42.78921004164073" lon="10.941811262377703"><ele>5.5</ele><time>2026-04-06T10:54:55.001Z</time></trkpt><trkpt lat="42.78924696595871" lon="10.941643442048466"><ele>6.0</ele><time>2026-04-06T10:54:56.001Z</time></trkpt><trkpt lat="42.789293453492" lon="10.941474536686906"><ele>6.5</ele><time>2026-04-06T10:54:57.001Z</time></trkpt><trkpt lat="42.789342884687315" lon="10.941304367985055"><ele>7.0</ele><time>2026-04-06T10:54:58.001Z</time></trkpt><trkpt lat="42.789392339029206" lon="10.94112989225889"><ele>9.666666666666668</ele><time>2026-04-06T10:54:59.001Z</time></trkpt><trkpt lat="42.789443795377174" lon="10.940941306187941"><ele>12.333333333333334</ele><time>2026-04-06T10:55:00.001Z</time></trkpt><trkpt lat="42.78950219688529" lon="10.940712909717487"><ele>15.0</ele><time>2026-04-06T10:55:01.001Z</time></trkpt><trkpt lat="42.789576246361285" lon="10.940456916165356"><ele>15.0</ele><time>2026-04-06T10:55:02.001Z</time></trkpt><trkpt lat="42.78966839486114" lon="10.940188377788107"><ele>15.0</ele><time>2026-04-06T10:55:03.001Z</time></trkpt><trkpt lat="42.78976474429015" lon="10.939915596768186"><ele>15.0</ele><time>2026-04-06T10:55:04.001Z</time></trkpt><trkpt lat="42.789851388897766" lon="10.939673445568825"><ele>13.0</ele><time>2026-04-06T10:55:05.001Z</time></trkpt><trkpt lat="42.78992428367767" lon="10.93944388389853"><ele>11.0</ele><time>2026-04-06T10:55:06.001Z</time></trkpt><trkpt lat="42.78999398785745" lon="10.939233482601413"><ele>9.0</ele><time>2026-04-06T10:55:07.001Z</time></trkpt><trkpt lat="42.79005970256551" lon="10.939036565475575"><ele>7.666666666666667</ele><time>2026-04-06T10:55:08.001Z</time></trkpt><trkpt lat="42.79012355296656" lon="10.93883523502591"><ele>6.333333333333334</ele><time>2026-04-06T10:55:09.001Z</time></trkpt><trkpt lat="42.79018323046236" lon="10.93863468241799"><ele>5.0</ele><time>2026-04-06T10:55:10.001Z</time></trkpt><trkpt lat="42.790244840152695" lon="10.938430790867544"><ele>6.666666666666667</ele><time>2026-04-06T10:55:11.001Z</time></trkpt><trkpt lat="42.79031123593548" lon="10.938219044565383"><ele>8.333333333333334</ele><time>2026-04-06T10:55:12.001Z</time></trkpt><trkpt lat="42.790376074125014" lon="10.938005549210853"><ele>10.0</ele><time>2026-04-06T10:55:13.001Z</time></trkpt><trkpt lat="42.790441253304934" lon="10.937779760161797"><ele>8.666666666666668</ele><time>2026-04-06T10:55:14.001Z</time></trkpt><trkpt lat="42.790504460859" lon="10.937542790370761"><ele>7.333333333333334</ele><time>2026-04-06T10:55:15.001Z</time></trkpt><trkpt lat="42.79056243086321" lon="10.937290789848904"><ele>6.0</ele><time>2026-04-06T10:55:16.001Z</time></trkpt><trkpt lat="42.790613191941056" lon="10.937031183560624"><ele>6.0</ele><time>2026-04-06T10:55:17.001Z</time></trkpt><trkpt lat="42.79065545201411" lon="10.93678337206037"><ele>6.0</ele><time>2026-04-06T10:55:18.001Z</time></trkpt><trkpt lat="42.79069434888565" lon="10.936530195811022"><ele>6.0</ele><time>2026-04-06T10:55:19.001Z</time></trkpt><trkpt lat="42.79073442217754" lon="10.936294247819108"><ele>5.0</ele><time>2026-04-06T10:55:20.001Z</time></trkpt><trkpt lat="42.79076387016785" lon="10.936072758273875"><ele>4.0</ele><time>2026-04-06T10:55:21.001Z</time></trkpt><trkpt lat="42.79079699087212" lon="10.935854344883108"><ele>3.0</ele><time>2026-04-06T10:55:22.001Z</time></trkpt><trkpt lat="42.79081524787309" lon="10.935621348794852"><ele>2.6666666666666665</ele><time>2026-04-06T10:55:23.001Z</time></trkpt><trkpt lat="42.79083474880221" lon="10.935396277879065"><ele>2.333333333333333</ele><time>2026-04-06T10:55:24.001Z</time></trkpt><trkpt lat="42.79084820778686" lon="10.935196243570418"><ele>2.0</ele><time>2026-04-06T10:55:25.001Z</time></trkpt><trkpt lat="42.79085694082019" lon="10.93500589592834"><ele>2.5</ele><time>2026-04-06T10:55:26.001Z</time></trkpt><trkpt lat="42.79086582631278" lon="10.934820283971279"><ele>3.0</ele><time>2026-04-06T10:55:27.001Z</time></trkpt><trkpt lat="42.79087415534439" lon="10.934622678064716"><ele>3.5</ele><time>2026-04-06T10:55:28.001Z</time></trkpt><trkpt lat="42.79087859630963" lon="10.934414524252611"><ele>4.0</ele><time>2026-04-06T10:55:29.001Z</time></trkpt><trkpt lat="42.790873016075075" lon="10.934189596502508"><ele>4.0</ele><time>2026-04-06T10:55:30.001Z</time></trkpt><trkpt lat="42.79085848273768" lon="10.933942833649322"><ele>4.0</ele><time>2026-04-06T10:55:31.001Z</time></trkpt><trkpt lat="42.790841938810246" lon="10.93365845441738"><ele>4.0</ele><time>2026-04-06T10:55:32.001Z</time></trkpt><trkpt lat="42.79082504774454" lon="10.93334918629484"><ele>3.5</ele><time>2026-04-06T10:55:33.001Z</time></trkpt><trkpt lat="42.790809645449606" lon="10.933024071988296"><ele>3.0</ele><time>2026-04-06T10:55:34.001Z</time></trkpt><trkpt lat="42.79079536842473" lon="10.932683839123403"><ele>2.5</ele><time>2026-04-06T10:55:35.001Z</time></trkpt><trkpt lat="42.790780789288085" lon="10.932341843547444"><ele>2.0</ele><time>2026-04-06T10:55:36.001Z</time></trkpt><trkpt lat="42.79076680374763" lon="10.93200082389444"><ele>2.5</ele><time>2026-04-06T10:55:37.001Z</time></trkpt><trkpt lat="42.79075270130102" lon="10.93166390465416"><ele>3.0</ele><time>2026-04-06T10:55:38.001Z</time></trkpt><trkpt lat="42.79074214757233" lon="10.931331171789838"><ele>3.0</ele><time>2026-04-06T10:55:39.001Z</time></trkpt><trkpt lat="42.79073991002367" lon="10.93100937315635"><ele>3.0</ele><time>2026-04-06T10:55:40.001Z</time></trkpt><trkpt lat="42.790732267507416" lon="10.930707659172166"><ele>2.6666666666666665</ele><time>2026-04-06T10:55:41.001Z</time></trkpt><trkpt lat="42.79072171016786" lon="10.930431441190168"><ele>2.333333333333333</ele><time>2026-04-06T10:55:42.001Z</time></trkpt><trkpt lat="42.790708576151324" lon="10.930173316874601"><ele>2.0</ele><time>2026-04-06T10:55:43.001Z</time></trkpt><trkpt lat="42.79069831695259" lon="10.929927903294493"><ele>1.3333333333333333</ele><time>2026-04-06T10:55:44.001Z</time></trkpt><trkpt lat="42.790690651908484" lon="10.929691225133984"><ele>0.6666666666666666</ele><time>2026-04-06T10:55:45.001Z</time></trkpt><trkpt lat="42.79068089087941" lon="10.929450560213859"><ele>0.0</ele><time>2026-04-06T10:55:46.001Z</time></trkpt><trkpt lat="42.79067096342374" lon="10.92922079279816"><ele>0.0</ele><time>2026-04-06T10:55:47Z</time></trkpt><trkpt lat="42.79066008201069" lon="10.929010077290789"><ele>0.0</ele><time>2026-04-06T10:55:48Z</time></trkpt><trkpt lat="42.79065018285157" lon="10.928787890542495"><ele>0.0</ele><time>2026-04-06T10:55:49Z</time></trkpt><trkpt lat="42.790640762558624" lon="10.928567933191168"><ele>0.6666666666666666</ele><time>2026-04-06T10:55:50Z</time></trkpt><trkpt lat="42.790624807669545" lon="10.928345101219591"><ele>1.3333333333333333</ele><time>2026-04-06T10:55:51Z</time></trkpt><trkpt lat="42.79060963207702" lon="10.928126033505652"><ele>2.0</ele><time>2026-04-06T10:55:52Z</time></trkpt><trkpt lat="42.79058910318633" lon="10.927915293081828"><ele>2.0</ele><time>2026-04-06T10:55:53Z</time></trkpt><trkpt lat="42.79056635514009" lon="10.927718993204142"><ele>2.0</ele><time>2026-04-06T10:55:54Z</time></trkpt><trkpt lat="42.7905401188484" lon="10.927530220223643"><ele>2.0</ele><time>2026-04-06T10:55:55Z</time></trkpt><trkpt lat="42.79050644376208" lon="10.92732963153605"><ele>2.0</ele><time>2026-04-06T10:55:56Z</time></trkpt><trkpt lat="42.790471035088146" lon="10.927133357291035"><ele>2.0</ele><time>2026-04-06T10:55:57Z</time></trkpt><trkpt lat="42.79043408196403" lon="10.926941523114062"><ele>2.0</ele><time>2026-04-06T10:55:58Z</time></trkpt><trkpt lat="42.790391859673456" lon="10.926750379676243"><ele>2.0</ele><time>2026-04-06T10:55:59Z</time></trkpt><trkpt lat="42.79034814434705" lon="10.926571444098265"><ele>2.0</ele><time>2026-04-06T10:56:00Z</time></trkpt><trkpt lat="42.790305033777166" lon="10.926401327866643"><ele>2.0</ele><time>2026-04-06T10:56:01Z</time></trkpt><trkpt lat="42.79025435488294" lon="10.926221472720968"><ele>2.0</ele><time>2026-04-06T10:56:02Z</time></trkpt><trkpt lat="42.79019735464757" lon="10.926040663114158"><ele>2.0</ele><time>2026-04-06T10:56:03Z</time></trkpt><trkpt lat="42.79013702714094" lon="10.925858728099247"><ele>2.0</ele><time>2026-04-06T10:56:04Z</time></trkpt><trkpt lat="42.79007393226628" lon="10.925676954756556"><ele>1.75</ele><time>2026-04-06T10:56:05Z</time></trkpt><trkpt lat="42.79000606130228" lon="10.925499447128207"><ele>1.5</ele><time>2026-04-06T10:56:06Z</time></trkpt><trkpt lat="42.78993770050293" lon="10.925321504619436"><ele>1.25</ele><time>2026-04-06T10:56:07Z</time></trkpt><trkpt lat="42.78986761087931" lon="10.925142690350725"><ele>1.0</ele><time>2026-04-06T10:56:08Z</time></trkpt><trkpt lat="42.789791115004896" lon="10.924965566141571"><ele>1.0</ele><time>2026-04-06T10:56:09Z</time></trkpt><trkpt lat="42.789714720957676" lon="10.924796930451633"><ele>1.0</ele><time>2026-04-06T10:56:10Z</time></trkpt><trkpt lat="42.78964195117566" lon="10.924640150270568"><ele>1.0</ele><time>2026-04-06T10:56:11Z</time></trkpt><trkpt lat="42.78956863581801" lon="10.92448763455984"><ele>1.0</ele><time>2026-04-06T10:56:12Z</time></trkpt><trkpt lat="42.78949285237712" lon="10.924335754328673"><ele>0.75</ele><time>2026-04-06T10:56:13Z</time></trkpt><trkpt lat="42.789417310519084" lon="10.92418277835296"><ele>0.5</ele><time>2026-04-06T10:56:14Z</time></trkpt><trkpt lat="42.78934274792582" lon="10.924042052652803"><ele>0.25</ele><time>2026-04-06T10:56:15Z</time></trkpt><trkpt lat="42.78926546899135" lon="10.92390430419476"><ele>0.0</ele><time>2026-04-06T10:56:16Z</time></trkpt><trkpt lat="42.78917994379396" lon="10.923758703875102"><ele>0.0</ele><time>2026-04-06T10:56:17Z</time></trkpt><trkpt lat="42.78909427770071" lon="10.923609122748207"><ele>0.0</ele><time>2026-04-06T10:56:18Z</time></trkpt><trkpt lat="42.789000698950204" lon="10.923456700757757"><ele>0.0</ele><time>2026-04-06T10:56:19Z</time></trkpt><trkpt lat="42.78890525911338" lon="10.923301075024956"><ele>0.0</ele><time>2026-04-06T10:56:20Z</time></trkpt><trkpt lat="42.78880846155263" lon="10.923150785781619"><ele>0.0</ele><time>2026-04-06T10:56:21Z</time></trkpt><trkpt lat="42.7887204083209" lon="10.923018854888177"><ele>0.0</ele><time>2026-04-06T10:56:22Z</time></trkpt><trkpt lat="42.788633550159545" lon="10.922887517142868"><ele>0.0</ele><time>2026-04-06T10:56:23Z</time></trkpt><trkpt lat="42.788541984512975" lon="10.922756370160183"><ele>0.0</ele><time>2026-04-06T10:56:24Z</time></trkpt><trkpt lat="42.7884427140894" lon="10.922622563503928"><ele>0.25</ele><time>2026-04-06T10:56:25Z</time></trkpt><trkpt lat="42.7883424011964" lon="10.922483510198278"><ele>0.5</ele><time>2026-04-06T10:56:26Z</time></trkpt><trkpt lat="42.78823949442186" lon="10.9223457909785"><ele>0.75</ele><time>2026-04-06T10:56:27Z</time></trkpt><trkpt lat="42.78813293927569" lon="10.922210188186753"><ele>1.0</ele><time>2026-04-06T10:56:28Z</time></trkpt><trkpt lat="42.78802576165795" lon="10.922071583379106"><ele>1.0</ele><time>2026-04-06T10:56:29Z</time></trkpt><trkpt lat="42.78792045866753" lon="10.921930912466475"><ele>1.0</ele><time>2026-04-06T10:56:30Z</time></trkpt><trkpt lat="42.78780643256319" lon="10.921793758913521"><ele>1.0</ele><time>2026-04-06T10:56:31Z</time></trkpt><trkpt lat="42.78768979619935" lon="10.921658044110007"><ele>1.0</ele><time>2026-04-06T10:56:32Z</time></trkpt><trkpt lat="42.78757555513749" lon="10.921518156787236"><ele>1.0</ele><time>2026-04-06T10:56:33Z</time></trkpt><trkpt lat="42.78746514759904" lon="10.921385351230473"><ele>1.0</ele><time>2026-04-06T10:56:34Z</time></trkpt><trkpt lat="42.787354975263035" lon="10.92124861595551"><ele>1.0</ele><time>2026-04-06T10:56:35Z</time></trkpt><trkpt lat="42.78724594024521" lon="10.921111897280632"><ele>1.0</ele><time>2026-04-06T10:56:36Z</time></trkpt><trkpt lat="42.78713583944764" lon="10.920980305070163"><ele>1.0</ele><time>2026-04-06T10:56:37Z</time></trkpt><trkpt lat="42.78702681365594" lon="10.920848897299985"><ele>1.0</ele><time>2026-04-06T10:56:38Z</time></trkpt><trkpt lat="42.78692144600894" lon="10.920721531545528"><ele>1.0</ele><time>2026-04-06T10:56:39Z</time></trkpt><trkpt lat="42.78681987566737" lon="10.920594796264501"><ele>1.0</ele><time>2026-04-06T10:56:40Z</time></trkpt><trkpt lat="42.7867281267501" lon="10.920482658231762"><ele>1.0</ele><time>2026-04-06T10:56:41Z</time></trkpt><trkpt lat="42.786636780223375" lon="10.920381745613106"><ele>1.0</ele><time>2026-04-06T10:56:42Z</time></trkpt><trkpt lat="42.7865466065968" lon="10.920270959740423"><ele>1.0</ele><time>2026-04-06T10:56:43Z</time></trkpt><trkpt lat="42.78646363977339" lon="10.92016889699705"><ele>1.0</ele><time>2026-04-06T10:56:44Z</time></trkpt><trkpt lat="42.78638167488172" lon="10.92006373604696"><ele>1.0</ele><time>2026-04-06T10:56:45.001Z</time></trkpt><trkpt lat="42.78629129894143" lon="10.919957166984437"><ele>1.0</ele><time>2026-04-06T10:56:46.001Z</time></trkpt><trkpt lat="42.786201058194386" lon="10.919849245296717"><ele>1.0</ele><time>2026-04-06T10:56:47.001Z</time></trkpt><trkpt lat="42.78611430299438" lon="10.919746037076802"><ele>1.0</ele><time>2026-04-06T10:56:48.001Z</time></trkpt><trkpt lat="42.78602903491703" lon="10.91963785431627"><ele>1.0</ele><time>2026-04-06T10:56:49.001Z</time></trkpt><trkpt lat="42.78594504205583" lon="10.91953276022679"><ele>1.0</ele><time>2026-04-06T10:56:50.001Z</time></trkpt><trkpt lat="42.78585386166859" lon="10.91942434197915"><ele>1.0</ele><time>2026-04-06T10:56:51.001Z</time></trkpt><trkpt lat="42.785762458123706" lon="10.919318364866264"><ele>1.0</ele><time>2026-04-06T10:56:52.001Z</time></trkpt><trkpt lat="42.78566777521783" lon="10.919204390241516"><ele>1.0</ele><time>2026-04-06T10:56:53.001Z</time></trkpt><trkpt lat="42.785571729979004" lon="10.919087364729696"><ele>1.0</ele><time>2026-04-06T10:56:54.001Z</time></trkpt><trkpt lat="42.785474382507" lon="10.918965665816406"><ele>0.75</ele><time>2026-04-06T10:56:55.001Z</time></trkpt><trkpt lat="42.78537440284919" lon="10.918843412636408"><ele>0.5</ele><time>2026-04-06T10:56:56.001Z</time></trkpt><trkpt lat="42.78527012250428" lon="10.918722568758659"><ele>0.25</ele><time>2026-04-06T10:56:57.001Z</time></trkpt><trkpt lat="42.78516345302774" lon="10.918596765472047"><ele>0.0</ele><time>2026-04-06T10:56:58.001Z</time></trkpt><trkpt lat="42.78505908238575" lon="10.91846588810407"><ele>0.25</ele><time>2026-04-06T10:56:59.001Z</time></trkpt><trkpt lat="42.784954893468836" lon="10.918336927246482"><ele>0.5</ele><time>2026-04-06T10:57:00.001Z</time></trkpt><trkpt lat="42.784844131937575" lon="10.918206924026906"><ele>0.75</ele><time>2026-04-06T10:57:01.001Z</time></trkpt><trkpt lat="42.78473909526464" lon="10.91807369400976"><ele>1.0</ele><time>2026-04-06T10:57:02.001Z</time></trkpt><trkpt lat="42.78463450334804" lon="10.917934810143391"><ele>1.0</ele><time>2026-04-06T10:57:03.001Z</time></trkpt><trkpt lat="42.78453500457209" lon="10.917785221922697"><ele>1.0</ele><time>2026-04-06T10:57:04.001Z</time></trkpt><trkpt lat="42.78443335884106" lon="10.91762236041296"><ele>1.0</ele><time>2026-04-06T10:57:05.001Z</time></trkpt><trkpt lat="42.78433830533097" lon="10.917451997873778"><ele>1.0</ele><time>2026-04-06T10:57:06.001Z</time></trkpt><trkpt lat="42.784242972380305" lon="10.917271071385315"><ele>1.0</ele><time>2026-04-06T10:57:07.001Z</time></trkpt><trkpt lat="42.784147002374546" lon="10.917090344994511"><ele>1.0</ele><time>2026-04-06T10:57:08.001Z</time></trkpt><trkpt lat="42.78405395709965" lon="10.91689849990763"><ele>1.0</ele><time>2026-04-06T10:57:09.001Z</time></trkpt><trkpt lat="42.78396263466508" lon="10.91671460475885"><ele>1.0</ele><time>2026-04-06T10:57:10.001Z</time></trkpt><trkpt lat="42.7838733157729" lon="10.916527625595517"><ele>1.0</ele><time>2026-04-06T10:57:11.001Z</time></trkpt><trkpt lat="42.783774044937076" lon="10.916333636475631"><ele>1.0</ele><time>2026-04-06T10:57:12.001Z</time></trkpt><trkpt lat="42.783660599507876" lon="10.916127653133309"><ele>1.0</ele><time>2026-04-06T10:57:13.001Z</time></trkpt><trkpt lat="42.78353596973491" lon="10.915902498826423"><ele>1.0</ele><time>2026-04-06T10:57:14.001Z</time></trkpt><trkpt lat="42.78341760212876" lon="10.915646800004858"><ele>1.0</ele><time>2026-04-06T10:57:15.001Z</time></trkpt><trkpt lat="42.783301162358256" lon="10.915393701541221"><ele>1.0</ele><time>2026-04-06T10:57:16.001Z</time></trkpt><trkpt lat="42.78319853896011" lon="10.915169267918586"><ele>1.0</ele><time>2026-04-06T10:57:17.001Z</time></trkpt><trkpt lat="42.78309933114113" lon="10.914969414261737"><ele>1.0</ele><time>2026-04-06T10:57:18.001Z</time></trkpt><trkpt lat="42.78300842776309" lon="10.914774959489444"><ele>1.0</ele><time>2026-04-06T10:57:19.001Z</time></trkpt><trkpt lat="42.78290708748193" lon="10.914576622848331"><ele>1.0</ele><time>2026-04-06T10:57:20.001Z</time></trkpt><trkpt lat="42.782805307000494" lon="10.914371890475032"><ele>1.0</ele><time>2026-04-06T10:57:21.001Z</time></trkpt><trkpt lat="42.78270136462582" lon="10.914169681091224"><ele>1.0</ele><time>2026-04-06T10:57:22.001Z</time></trkpt><trkpt lat="42.78259832086446" lon="10.913965762663588"><ele>1.0</ele><time>2026-04-06T10:57:23.001Z</time></trkpt><trkpt lat="42.78250174434065" lon="10.913770921498454"><ele>1.0</ele><time>2026-04-06T10:57:24.001Z</time></trkpt><trkpt lat="42.78240817843894" lon="10.9135898325902"><ele>1.0</ele><time>2026-04-06T10:57:25.001Z</time></trkpt><trkpt lat="42.78231025498851" lon="10.913391157642009"><ele>1.0</ele><time>2026-04-06T10:57:26.001Z</time></trkpt><trkpt lat="42.78220863781386" lon="10.913197126042315"><ele>1.3333333333333333</ele><time>2026-04-06T10:57:27.001Z</time></trkpt><trkpt lat="42.782110948835474" lon="10.913000543763657"><ele>1.6666666666666665</ele><time>2026-04-06T10:57:28.001Z</time></trkpt><trkpt lat="42.782011002600065" lon="10.912798415046085"><ele>2.0</ele><time>2026-04-06T10:57:29.001Z</time></trkpt><trkpt lat="42.78190919217656" lon="10.91260167520762"><ele>2.0</ele><time>2026-04-06T10:57:30.001Z</time></trkpt><trkpt lat="42.78181062654228" lon="10.912419426189475"><ele>2.0</ele><time>2026-04-06T10:57:31.001Z</time></trkpt><trkpt lat="42.78172283254673" lon="10.912266493899493"><ele>2.0</ele><time>2026-04-06T10:57:32.001Z</time></trkpt><trkpt lat="42.781637297396756" lon="10.912126455236608"><ele>2.0</ele><time>2026-04-06T10:57:33.001Z</time></trkpt><trkpt lat="42.781544050263804" lon="10.911982158863193"><ele>2.0</ele><time>2026-04-06T10:57:34.001Z</time></trkpt><trkpt lat="42.78144810830168" lon="10.911832774070282"><ele>2.0</ele><time>2026-04-06T10:57:35.001Z</time></trkpt><trkpt lat="42.78135029986803" lon="10.91168112333324"><ele>2.0</ele><time>2026-04-06T10:57:36.001Z</time></trkpt><trkpt lat="42.781236815833125" lon="10.911527038529394"><ele>2.333333333333333</ele><time>2026-04-06T10:57:37.001Z</time></trkpt><trkpt lat="42.78112614457456" lon="10.911356485842578"><ele>2.6666666666666665</ele><time>2026-04-06T10:57:38.001Z</time></trkpt><trkpt lat="42.781012860732716" lon="10.911176515919404"><ele>3.0</ele><time>2026-04-06T10:57:39.001Z</time></trkpt><trkpt lat="42.7808910936557" lon="10.910988924579941"><ele>2.6666666666666665</ele><time>2026-04-06T10:57:40.001Z</time></trkpt><trkpt lat="42.78077123222279" lon="10.910798865572724"><ele>2.333333333333333</ele><time>2026-04-06T10:57:41.001Z</time></trkpt><trkpt lat="42.780660370697554" lon="10.910589703686497"><ele>2.0</ele><time>2026-04-06T10:57:42.001Z</time></trkpt><trkpt lat="42.780534274262365" lon="10.91038976890307"><ele>2.0</ele><time>2026-04-06T10:57:43.001Z</time></trkpt><trkpt lat="42.780411649665005" lon="10.910195194147109"><ele>2.0</ele><time>2026-04-06T10:57:44.001Z</time></trkpt><trkpt lat="42.780286561455874" lon="10.909996139478302"><ele>2.0</ele><time>2026-04-06T10:57:45.001Z</time></trkpt><trkpt lat="42.780158807675754" lon="10.909793503391514"><ele>2.0</ele><time>2026-04-06T10:57:46.001Z</time></trkpt><trkpt lat="42.7800308603137" lon="10.909594101164728"><ele>2.0</ele><time>2026-04-06T10:57:47.001Z</time></trkpt><trkpt lat="42.779904036960374" lon="10.90939622665861"><ele>2.0</ele><time>2026-04-06T10:57:48.001Z</time></trkpt><trkpt lat="42.779778406402464" lon="10.909196946731813"><ele>2.333333333333333</ele><time>2026-04-06T10:57:49.001Z</time></trkpt><trkpt lat="42.779652410533075" lon="10.908997087326263"><ele>2.6666666666666665</ele><time>2026-04-06T10:57:50.001Z</time></trkpt><trkpt lat="42.7795248574886" lon="10.908794788464116"><ele>3.0</ele><time>2026-04-06T10:57:51.001Z</time></trkpt><trkpt lat="42.77939425396049" lon="10.908587697639337"><ele>2.6666666666666665</ele><time>2026-04-06T10:57:52.001Z</time></trkpt><trkpt lat="42.779264682196676" lon="10.908382636203367"><ele>2.333333333333333</ele><time>2026-04-06T10:57:53Z</time></trkpt><trkpt lat="42.779124787945676" lon="10.908189734428776"><ele>2.0</ele><time>2026-04-06T10:57:54Z</time></trkpt><trkpt lat="42.77899527216415" lon="10.907975831824185"><ele>2.0</ele><time>2026-04-06T10:57:55Z</time></trkpt><trkpt lat="42.778864986646994" lon="10.907763847646022"><ele>2.0</ele><time>2026-04-06T10:57:56Z</time></trkpt><trkpt lat="42.77873280083159" lon="10.90755413784586"><ele>2.0</ele><time>2026-04-06T10:57:57Z</time></trkpt><trkpt lat="42.77860218696066" lon="10.907340377075247"><ele>2.0</ele><time>2026-04-06T10:57:58Z</time></trkpt><trkpt lat="42.77847266838472" lon="10.907134026640085"><ele>2.0</ele><time>2026-04-06T10:57:59Z</time></trkpt><trkpt lat="42.778358745843036" lon="10.906945998678527"><ele>2.0</ele><time>2026-04-06T10:58:00Z</time></trkpt><trkpt lat="42.7782540494733" lon="10.906769695210826"><ele>2.0</ele><time>2026-04-06T10:58:01Z</time></trkpt><trkpt lat="42.77815569395784" lon="10.906609540718009"><ele>2.0</ele><time>2026-04-06T10:58:02Z</time></trkpt><trkpt lat="42.77806390566155" lon="10.906460778403886"><ele>2.0</ele><time>2026-04-06T10:58:03Z</time></trkpt><trkpt lat="42.77797271695231" lon="10.906319233032832"><ele>2.0</ele><time>2026-04-06T10:58:04Z</time></trkpt><trkpt lat="42.77788436901467" lon="10.906170683677894"><ele>2.0</ele><time>2026-04-06T10:58:05Z</time></trkpt><trkpt lat="42.77778983336329" lon="10.906014036406098"><ele>2.0</ele><time>2026-04-06T10:58:06Z</time></trkpt><trkpt lat="42.777693876615814" lon="10.905860721105936"><ele>2.0</ele><time>2026-04-06T10:58:07Z</time></trkpt><trkpt lat="42.77760219125032" lon="10.90572331270626"><ele>2.0</ele><time>2026-04-06T10:58:08Z</time></trkpt><trkpt lat="42.77751462742501" lon="10.905581207831796"><ele>2.333333333333333</ele><time>2026-04-06T10:58:09Z</time></trkpt><trkpt lat="42.77742190279451" lon="10.905436800266738"><ele>2.6666666666666665</ele><time>2026-04-06T10:58:10Z</time></trkpt><trkpt lat="42.777319808269965" lon="10.905284680781484"><ele>3.0</ele><time>2026-04-06T10:58:11Z</time></trkpt><trkpt lat="42.77719560654713" lon="10.90511380285849"><ele>3.0</ele><time>2026-04-06T10:58:12Z</time></trkpt><trkpt lat="42.777070694932185" lon="10.90492688317207"><ele>3.0</ele><time>2026-04-06T10:58:13Z</time></trkpt><trkpt lat="42.776948391749876" lon="10.904716214267024"><ele>3.0</ele><time>2026-04-06T10:58:14Z</time></trkpt><trkpt lat="42.77683831201323" lon="10.904529634547362"><ele>3.0</ele><time>2026-04-06T10:58:15Z</time></trkpt><trkpt lat="42.776734765996636" lon="10.90436415906816"><ele>3.0</ele><time>2026-04-06T10:58:16Z</time></trkpt><trkpt lat="42.776630031771646" lon="10.904212799357879"><ele>3.0</ele><time>2026-04-06T10:58:17Z</time></trkpt><trkpt lat="42.7765369636805" lon="10.904056834560567"><ele>2.75</ele><time>2026-04-06T10:58:18Z</time></trkpt><trkpt lat="42.77644791321639" lon="10.90390498360075"><ele>2.5</ele><time>2026-04-06T10:58:19Z</time></trkpt><trkpt lat="42.77637020618321" lon="10.903755760607503"><ele>2.25</ele><time>2026-04-06T10:58:20Z</time></trkpt><trkpt lat="42.7763009488711" lon="10.903594644753474"><ele>2.0</ele><time>2026-04-06T10:58:21Z</time></trkpt><trkpt lat="42.776236433064376" lon="10.903412928087002"><ele>2.0</ele><time>2026-04-06T10:58:22Z</time></trkpt><trkpt lat="42.77618546450443" lon="10.903225150795244"><ele>2.0</ele><time>2026-04-06T10:58:23Z</time></trkpt><trkpt lat="42.77614477512356" lon="10.903041645105382"><ele>2.0</ele><time>2026-04-06T10:58:24Z</time></trkpt><trkpt lat="42.77610826773259" lon="10.902873440374014"><ele>2.0</ele><time>2026-04-06T10:58:25Z</time></trkpt><trkpt lat="42.77607281504079" lon="10.902705822307524"><ele>2.25</ele><time>2026-04-06T10:58:26Z</time></trkpt><trkpt lat="42.77604131462879" lon="10.902546292669792"><ele>2.5</ele><time>2026-04-06T10:58:27Z</time></trkpt><trkpt lat="42.77601077789933" lon="10.902398612544697"><ele>2.75</ele><time>2026-04-06T10:58:28Z</time></trkpt><trkpt lat="42.775979414044144" lon="10.902246625280467"><ele>3.0</ele><time>2026-04-06T10:58:29Z</time></trkpt><trkpt lat="42.77594928219046" lon="10.90210117588415"><ele>3.0</ele><time>2026-04-06T10:58:30Z</time></trkpt><trkpt lat="42.77591576778999" lon="10.90196209561121"><ele>3.0</ele><time>2026-04-06T10:58:31Z</time></trkpt><trkpt lat="42.775871356704" lon="10.901790472614154"><ele>3.0</ele><time>2026-04-06T10:58:32Z</time></trkpt><trkpt lat="42.77582794371214" lon="10.901590001725003"><ele>3.0</ele><time>2026-04-06T10:58:33Z</time></trkpt><trkpt lat="42.7757836895411" lon="10.901365211731882"><ele>3.0</ele><time>2026-04-06T10:58:34Z</time></trkpt><trkpt lat="42.77572722125185" lon="10.901119394690035"><ele>3.0</ele><time>2026-04-06T10:58:35Z</time></trkpt><trkpt lat="42.77568286209078" lon="10.900851475049251"><ele>3.0</ele><time>2026-04-06T10:58:36Z</time></trkpt><trkpt lat="42.775644484438345" lon="10.900572010906801"><ele>3.333333333333333</ele><time>2026-04-06T10:58:37Z</time></trkpt><trkpt lat="42.77558391702742" lon="10.900289681737469"><ele>3.6666666666666665</ele><time>2026-04-06T10:58:38Z</time></trkpt><trkpt lat="42.77551699240836" lon="10.90000031882825"><ele>4.0</ele><time>2026-04-06T10:58:39Z</time></trkpt><trkpt lat="42.775431134845675" lon="10.899714904004783"><ele>4.0</ele><time>2026-04-06T10:58:40Z</time></trkpt><trkpt lat="42.775331933605536" lon="10.899436819192605"><ele>4.0</ele><time>2026-04-06T10:58:41Z</time></trkpt><trkpt lat="42.77522251096442" lon="10.89915664355837"><ele>3.0</ele><time>2026-04-06T10:58:42Z</time></trkpt><trkpt lat="42.775113865607636" lon="10.898870156707762"><ele>2.0</ele><time>2026-04-06T10:58:43Z</time></trkpt><trkpt lat="42.77500746707402" lon="10.898591037280593"><ele>3.0</ele><time>2026-04-06T10:58:44Z</time></trkpt><trkpt lat="42.77490026213948" lon="10.898314563842026"><ele>4.0</ele><time>2026-04-06T10:58:45Z</time></trkpt><trkpt lat="42.77479233141963" lon="10.898040112505385"><ele>4.0</ele><time>2026-04-06T10:58:46Z</time></trkpt><trkpt lat="42.7746907276181" lon="10.897765267775968"><ele>4.0</ele><time>2026-04-06T10:58:47Z</time></trkpt><trkpt lat="42.774592722406574" lon="10.897488654286288"><ele>4.0</ele><time>2026-04-06T10:58:48Z</time></trkpt><trkpt lat="42.77450591388403" lon="10.897207022888288"><ele>4.0</ele><time>2026-04-06T10:58:49Z</time></trkpt><trkpt lat="42.77442494528521" lon="10.896924218980327"><ele>4.0</ele><time>2026-04-06T10:58:50Z</time></trkpt><trkpt lat="42.77435343851146" lon="10.896640257031349"><ele>4.0</ele><time>2026-04-06T10:58:51Z</time></trkpt><trkpt lat="42.77428300524573" lon="10.896359302518771"><ele>4.0</ele><time>2026-04-06T10:58:52.001Z</time></trkpt><trkpt lat="42.774207250158085" lon="10.89608231901711"><ele>4.0</ele><time>2026-04-06T10:58:53.001Z</time></trkpt><trkpt lat="42.77413746779919" lon="10.895804450149667"><ele>4.0</ele><time>2026-04-06T10:58:54.001Z</time></trkpt><trkpt lat="42.77407090205452" lon="10.89552710255709"><ele>4.0</ele><time>2026-04-06T10:58:55.001Z</time></trkpt><trkpt lat="42.77400667163609" lon="10.895277193292612"><ele>4.0</ele><time>2026-04-06T10:58:56.001Z</time></trkpt><trkpt lat="42.773948962383535" lon="10.895047432464441"><ele>4.333333333333333</ele><time>2026-04-06T10:58:57.001Z</time></trkpt><trkpt lat="42.77389186360402" lon="10.894837470974101"><ele>4.666666666666667</ele><time>2026-04-06T10:58:58.001Z</time></trkpt><trkpt lat="42.77384101874524" lon="10.89464727507715"><ele>5.0</ele><time>2026-04-06T10:58:59.001Z</time></trkpt><trkpt lat="42.7737743872074" lon="10.89446305922572"><ele>5.0</ele><time>2026-04-06T10:59:00.001Z</time></trkpt><trkpt lat="42.773690882060606" lon="10.894275350851213"><ele>5.0</ele><time>2026-04-06T10:59:01.001Z</time></trkpt><trkpt lat="42.773591678143596" lon="10.894092536939093"><ele>5.0</ele><time>2026-04-06T10:59:02.001Z</time></trkpt><trkpt lat="42.773482621152056" lon="10.893914400240327"><ele>4.75</ele><time>2026-04-06T10:59:03.001Z</time></trkpt><trkpt lat="42.7733853324922" lon="10.89374984624124"><ele>4.5</ele><time>2026-04-06T10:59:04.001Z</time></trkpt><trkpt lat="42.77329863345935" lon="10.893597982927187"><ele>4.25</ele><time>2026-04-06T10:59:05.001Z</time></trkpt><trkpt lat="42.77321539244322" lon="10.89345378535992"><ele>4.0</ele><time>2026-04-06T10:59:06.001Z</time></trkpt><trkpt lat="42.773138858688384" lon="10.893320986581545"><ele>4.0</ele><time>2026-04-06T10:59:07.001Z</time></trkpt><trkpt lat="42.77306368851101" lon="10.89319583323144"><ele>4.0</ele><time>2026-04-06T10:59:08.001Z</time></trkpt><trkpt lat="42.77299529631974" lon="10.893069896535977"><ele>4.0</ele><time>2026-04-06T10:59:09.001Z</time></trkpt><trkpt lat="42.77292597147385" lon="10.892940861195198"><ele>4.0</ele><time>2026-04-06T10:59:10.001Z</time></trkpt><trkpt lat="42.772867902621066" lon="10.892818284182423"><ele>3.9999999999999996</ele><time>2026-04-06T10:59:11.001Z</time></trkpt><trkpt lat="42.77281010419839" lon="10.89270557623567"><ele>4.0</ele><time>2026-04-06T10:59:12.001Z</time></trkpt><trkpt lat="42.77275524265168" lon="10.89260313625984"><ele>4.0</ele><time>2026-04-06T10:59:13.001Z</time></trkpt><trkpt lat="42.77272298396431" lon="10.892495242282333"><ele>4.0</ele><time>2026-04-06T10:59:14.001Z</time></trkpt><trkpt lat="42.772714102533875" lon="10.892381435149625"><ele>3.9999999999999996</ele><time>2026-04-06T10:59:15.001Z</time></trkpt><trkpt lat="42.77270419454958" lon="10.892269403205875"><ele>4.0</ele><time>2026-04-06T10:59:16.001Z</time></trkpt><trkpt lat="42.77266161321495" lon="10.892163961255692"><ele>3.8000000000000003</ele><time>2026-04-06T10:59:17.001Z</time></trkpt><trkpt lat="42.772587444842515" lon="10.892090144171982"><ele>3.6000000000000005</ele><time>2026-04-06T10:59:18.001Z</time></trkpt><trkpt lat="42.772498241731626" lon="10.89204783549575"><ele>3.4</ele><time>2026-04-06T10:59:19.001Z</time></trkpt><trkpt lat="42.77241925098548" lon="10.891970992107511"><ele>3.2</ele><time>2026-04-06T10:59:20.001Z</time></trkpt><trkpt lat="42.77234976129228" lon="10.89186447560656"><ele>3.0</ele><time>2026-04-06T10:59:21.001Z</time></trkpt><trkpt lat="42.772284477339404" lon="10.891748056544394"><ele>3.0</ele><time>2026-04-06T10:59:22.001Z</time></trkpt><trkpt lat="42.772216906370566" lon="10.891627698683443"><ele>3.0</ele><time>2026-04-06T10:59:23.001Z</time></trkpt><trkpt lat="42.772155690064736" lon="10.891511588655641"><ele>3.0</ele><time>2026-04-06T10:59:24.001Z</time></trkpt><trkpt lat="42.77209609243571" lon="10.891396211437195"><ele>3.0</ele><time>2026-04-06T10:59:25.001Z</time></trkpt><trkpt lat="42.7720313753254" lon="10.891279556762301"><ele>3.0</ele><time>2026-04-06T10:59:26.001Z</time></trkpt><trkpt lat="42.77196504595649" lon="10.891159511097783"><ele>3.0</ele><time>2026-04-06T10:59:27.001Z</time></trkpt><trkpt lat="42.771900712782795" lon="10.891042113256342"><ele>3.0</ele><time>2026-04-06T10:59:28.001Z</time></trkpt><trkpt lat="42.77183022640312" lon="10.890926401725634"><ele>3.0</ele><time>2026-04-06T10:59:29.001Z</time></trkpt><trkpt lat="42.771766166823724" lon="10.89080386892485"><ele>3.0</ele><time>2026-04-06T10:59:30.001Z</time></trkpt><trkpt lat="42.77169863667256" lon="10.890676615811849"><ele>3.0</ele><time>2026-04-06T10:59:31.001Z</time></trkpt><trkpt lat="42.771629058427386" lon="10.890548497608103"><ele>2.8</ele><time>2026-04-06T10:59:32.001Z</time></trkpt><trkpt lat="42.77155851631441" lon="10.890420571467624"><ele>2.5999999999999996</ele><time>2026-04-06T10:59:33.001Z</time></trkpt><trkpt lat="42.771487419633445" lon="10.890300075748122"><ele>2.4000000000000004</ele><time>2026-04-06T10:59:34.001Z</time></trkpt><trkpt lat="42.77142958902634" lon="10.890190901118718"><ele>2.2</ele><time>2026-04-06T10:59:35.001Z</time></trkpt><trkpt lat="42.771381356909856" lon="10.890095775584214"><ele>2.0</ele><time>2026-04-06T10:59:36.001Z</time></trkpt><trkpt lat="42.77133895183183" lon="10.890022173478641"><ele>2.0</ele><time>2026-04-06T10:59:37.001Z</time></trkpt><trkpt lat="42.7712594809891" lon="10.8898697667209"><ele>2.0</ele><time>2026-04-06T10:59:39.001Z</time></trkpt><trkpt lat="42.77120100146459" lon="10.889769653738663"><ele>2.0</ele><time>2026-04-06T10:59:40.001Z</time></trkpt><trkpt lat="42.77114125498255" lon="10.889657638732393"><ele>2.0</ele><time>2026-04-06T10:59:41.001Z</time></trkpt><trkpt lat="42.77107393188961" lon="10.889530406918267"><ele>2.0</ele><time>2026-04-06T10:59:42.001Z</time></trkpt><trkpt lat="42.7710112752318" lon="10.88941115483079"><ele>2.0</ele><time>2026-04-06T10:59:43.001Z</time></trkpt><trkpt lat="42.770938777593926" lon="10.88928118581305"><ele>2.0</ele><time>2026-04-06T10:59:44.001Z</time></trkpt><trkpt lat="42.77086309126816" lon="10.88914704200242"><ele>2.0</ele><time>2026-04-06T10:59:45.001Z</time></trkpt><trkpt lat="42.77078560626873" lon="10.889010074209631"><ele>2.0</ele><time>2026-04-06T10:59:46.001Z</time></trkpt><trkpt lat="42.77070726464065" lon="10.888870913855392"><ele>2.0</ele><time>2026-04-06T10:59:47.001Z</time></trkpt><trkpt lat="42.77064214724415" lon="10.888753579903115"><ele>2.0</ele><time>2026-04-06T10:59:48.001Z</time></trkpt><trkpt lat="42.77058619823719" lon="10.888647251798634"><ele>2.0</ele><time>2026-04-06T10:59:49.001Z</time></trkpt><trkpt lat="42.77053019418421" lon="10.888545230319618"><ele>2.0</ele><time>2026-04-06T10:59:50.001Z</time></trkpt><trkpt lat="42.770473766650085" lon="10.888442902795672"><ele>2.0</ele><time>2026-04-06T10:59:51.001Z</time></trkpt><trkpt lat="42.77042021793128" lon="10.88833931860078"><ele>1.8</ele><time>2026-04-06T10:59:52.001Z</time></trkpt><trkpt lat="42.77036203363722" lon="10.888238039383578"><ele>1.6</ele><time>2026-04-06T10:59:53.001Z</time></trkpt><trkpt lat="42.77030237357676" lon="10.888139035670637"><ele>1.4000000000000001</ele><time>2026-04-06T10:59:54.001Z</time></trkpt><trkpt lat="42.77024728829962" lon="10.888039863367634"><ele>1.2000000000000002</ele><time>2026-04-06T10:59:55.001Z</time></trkpt><trkpt lat="42.77019015835243" lon="10.887941489690567"><ele>1.0</ele><time>2026-04-06T10:59:56.001Z</time></trkpt><trkpt lat="42.770129143428946" lon="10.887841135506564"><ele>0.9999999999999999</ele><time>2026-04-06T10:59:57.001Z</time></trkpt><trkpt lat="42.770066015312025" lon="10.887736534078249"><ele>1.0</ele><time>2026-04-06T10:59:58.001Z</time></trkpt><trkpt lat="42.77000923312488" lon="10.887635438875314"><ele>1.0</ele><time>2026-04-06T10:59:59Z</time></trkpt><trkpt lat="42.76995751580185" lon="10.887541669706778"><ele>1.0</ele><time>2026-04-06T11:00:00Z</time></trkpt><trkpt lat="42.769909673597404" lon="10.887454624207422"><ele>0.9999999999999999</ele><time>2026-04-06T11:00:01Z</time></trkpt><trkpt lat="42.769867074881404" lon="10.887384384020523"><ele>1.0</ele><time>2026-04-06T11:00:02Z</time></trkpt><trkpt lat="42.76981014112064" lon="10.887276048995908"><ele>1.0</ele><time>2026-04-06T11:00:04Z</time></trkpt><trkpt lat="42.76976255034917" lon="10.887187244512148"><ele>0.9999999999999999</ele><time>2026-04-06T11:00:06Z</time></trkpt><trkpt lat="42.76971903827933" lon="10.887112134043143"><ele>1.0</ele><time>2026-04-06T11:00:08Z</time></trkpt><trkpt lat="42.76968040807751" lon="10.887041108634131"><ele>1.0</ele><time>2026-04-06T11:00:10Z</time></trkpt><trkpt lat="42.76963406356845" lon="10.886965480621264"><ele>0.9999999999999999</ele><time>2026-04-06T11:00:13Z</time></trkpt><trkpt lat="42.76959275076393" lon="10.88688847348471"><ele>1.0</ele><time>2026-04-06T11:00:15Z</time></trkpt><trkpt lat="42.769546288630856" lon="10.886801855752646"><ele>1.0</ele><time>2026-04-06T11:00:17Z</time></trkpt><trkpt lat="42.76947295754924" lon="10.886667086836372"><ele>0.9999999999999999</ele><time>2026-04-06T11:00:19Z</time></trkpt><trkpt lat="42.769426731040774" lon="10.886586435744315"><ele>1.0</ele><time>2026-04-06T11:00:20Z</time></trkpt><trkpt lat="42.769380895357365" lon="10.886504683118062"><ele>1.0</ele><time>2026-04-06T11:00:21Z</time></trkpt><trkpt lat="42.76932778135923" lon="10.886409187625105"><ele>1.0</ele><time>2026-04-06T11:00:22Z</time></trkpt><trkpt lat="42.76927869535125" lon="10.886317411343807"><ele>0.9999999999999999</ele><time>2026-04-06T11:00:23Z</time></trkpt><trkpt lat="42.769233698276444" lon="10.886213548542733"><ele>1.0</ele><time>2026-04-06T11:00:24Z</time></trkpt><trkpt lat="42.769183548950444" lon="10.88610736273005"><ele>0.8333333333333333</ele><time>2026-04-06T11:00:25Z</time></trkpt><trkpt lat="42.76914104050902" lon="10.88602143521874"><ele>0.6666666666666666</ele><time>2026-04-06T11:00:26Z</time></trkpt><trkpt lat="42.76910651157521" lon="10.885948818623534"><ele>0.5</ele><time>2026-04-06T11:00:27Z</time></trkpt><trkpt lat="42.769045714502624" lon="10.885830678166823"><ele>0.3333333333333333</ele><time>2026-04-06T11:00:29Z</time></trkpt><trkpt lat="42.76900129168762" lon="10.885740961598701"><ele>0.16666666666666666</ele><time>2026-04-06T11:00:31Z</time></trkpt><trkpt lat="42.76897349338922" lon="10.885654196358034"><ele>0.0</ele><time>2026-04-06T11:00:35Z</time></trkpt><trkpt lat="42.76895556617874" lon="10.885565460049557"><ele>0.4</ele><time>2026-04-06T11:00:37Z</time></trkpt><trkpt lat="42.768920338484925" lon="10.88543357202341"><ele>0.8</ele><time>2026-04-06T11:00:39Z</time></trkpt><trkpt lat="42.76896399185504" lon="10.885280368698838"><ele>1.2000000000000002</ele><time>2026-04-06T11:00:41Z</time></trkpt><trkpt lat="42.76902067587026" lon="10.885139405506207"><ele>1.6</ele><time>2026-04-06T11:00:43Z</time></trkpt><trkpt lat="42.768995749377964" lon="10.885049442777731"><ele>2.0</ele><time>2026-04-06T11:00:44Z</time></trkpt><trkpt lat="42.768910473468544" lon="10.88494531365905"><ele>2.1666666666666665</ele><time>2026-04-06T11:00:46Z</time></trkpt><trkpt lat="42.76881579086058" lon="10.884924160827373"><ele>2.333333333333333</ele><time>2026-04-06T11:00:48Z</time></trkpt><trkpt lat="42.7687152781288" lon="10.884976565334973"><ele>2.5</ele><time>2026-04-06T11:00:50Z</time></trkpt><trkpt lat="42.76864402148485" lon="10.884992309659308"><ele>2.6666666666666665</ele><time>2026-04-06T11:00:51Z</time></trkpt><trkpt lat="42.768563324642784" lon="10.88496314302184"><ele>2.8333333333333335</ele><time>2026-04-06T11:00:52Z</time></trkpt><trkpt lat="42.76850536278433" lon="10.884897052466256"><ele>3.0</ele><time>2026-04-06T11:00:53Z</time></trkpt><trkpt lat="42.76844036270511" lon="10.884808458740576"><ele>3.0</ele><time>2026-04-06T11:00:54Z</time></trkpt><trkpt lat="42.76836710566963" lon="10.884707823084074"><ele>3.0</ele><time>2026-04-06T11:00:55Z</time></trkpt><trkpt lat="42.76827232667002" lon="10.884595126514604"><ele>3.0</ele><time>2026-04-06T11:00:56Z</time></trkpt><trkpt lat="42.76815689633664" lon="10.884469761393037"><ele>3.0</ele><time>2026-04-06T11:00:57Z</time></trkpt><trkpt lat="42.76802016888725" lon="10.884342320480986"><ele>2.8</ele><time>2026-04-06T11:00:58Z</time></trkpt><trkpt lat="42.767904797168605" lon="10.884242784444796"><ele>2.5999999999999996</ele><time>2026-04-06T11:00:59Z</time></trkpt><trkpt lat="42.76781038333251" lon="10.884164352420376"><ele>2.4000000000000004</ele><time>2026-04-06T11:01:00Z</time></trkpt><trkpt lat="42.76772824165388" lon="10.884099259671506"><ele>2.2</ele><time>2026-04-06T11:01:01Z</time></trkpt><trkpt lat="42.76766138769143" lon="10.884034284417586"><ele>2.0</ele><time>2026-04-06T11:01:02.001Z</time></trkpt><trkpt lat="42.76759123886492" lon="10.883975873954691"><ele>2.0</ele><time>2026-04-06T11:01:03.001Z</time></trkpt><trkpt lat="42.76753214510402" lon="10.883929640720572"><ele>2.0</ele><time>2026-04-06T11:01:04.001Z</time></trkpt><trkpt lat="42.7674294317119" lon="10.88383216491771"><ele>2.0</ele><time>2026-04-06T11:01:06.001Z</time></trkpt><trkpt lat="42.76734416418124" lon="10.883760973464785"><ele>2.0</ele><time>2026-04-06T11:01:08.001Z</time></trkpt><trkpt lat="42.76723738335786" lon="10.883669228914265"><ele>2.0</ele><time>2026-04-06T11:01:10.001Z</time></trkpt><trkpt lat="42.767186339260384" lon="10.883616771994797"><ele>1.9999999999999998</ele><time>2026-04-06T11:01:11.001Z</time></trkpt><trkpt lat="42.76709421181209" lon="10.883531198631118"><ele>2.0</ele><time>2026-04-06T11:01:13.001Z</time></trkpt><trkpt lat="42.76703814309756" lon="10.88347803810336"><ele>2.0</ele><time>2026-04-06T11:01:14.001Z</time></trkpt><trkpt lat="42.76698427564029" lon="10.8834207776352"><ele>2.0</ele><time>2026-04-06T11:01:15.001Z</time></trkpt><trkpt lat="42.76692263118798" lon="10.883361280380868"><ele>1.9999999999999998</ele><time>2026-04-06T11:01:16.001Z</time></trkpt><trkpt lat="42.76686348523115" lon="10.883305370681033"><ele>2.0</ele><time>2026-04-06T11:01:17.001Z</time></trkpt><trkpt lat="42.766800723222225" lon="10.883245616680991"><ele>2.5</ele><time>2026-04-06T11:01:18.001Z</time></trkpt><trkpt lat="42.766745572879735" lon="10.883189389399012"><ele>3.0</ele><time>2026-04-06T11:01:19.001Z</time></trkpt><trkpt lat="42.766688146946386" lon="10.88313942140582"><ele>3.5</ele><time>2026-04-06T11:01:20.001Z</time></trkpt><trkpt lat="42.76663512586729" lon="10.883085006434559"><ele>4.0</ele><time>2026-04-06T11:01:21.001Z</time></trkpt><trkpt lat="42.76653293078548" lon="10.882984350896828"><ele>4.5</ele><time>2026-04-06T11:01:23.001Z</time></trkpt><trkpt lat="42.76644454681758" lon="10.882898468588413"><ele>5.0</ele><time>2026-04-06T11:01:25.001Z</time></trkpt><trkpt lat="42.766368742159855" lon="10.882822504679432"><ele>5.0</ele><time>2026-04-06T11:01:27.001Z</time></trkpt><trkpt lat="42.76629370859605" lon="10.88274314847349"><ele>5.0</ele><time>2026-04-06T11:01:29.001Z</time></trkpt><trkpt lat="42.766208832108" lon="10.88266884724319"><ele>5.0</ele><time>2026-04-06T11:01:31.001Z</time></trkpt><trkpt lat="42.76612119817195" lon="10.882592688372007"><ele>5.0</ele><time>2026-04-06T11:01:33.001Z</time></trkpt><trkpt lat="42.765993515723906" lon="10.882679292140054"><ele>5.0</ele><time>2026-04-06T11:01:35.001Z</time></trkpt><trkpt lat="42.76593802126402" lon="10.882723190947882"><ele>5.166666666666667</ele><time>2026-04-06T11:01:36.001Z</time></trkpt><trkpt lat="42.765884556453344" lon="10.882769040424087"><ele>5.333333333333334</ele><time>2026-04-06T11:01:37.001Z</time></trkpt><trkpt lat="42.765779461172386" lon="10.882854928147985"><ele>5.5</ele><time>2026-04-06T11:01:39.001Z</time></trkpt><trkpt lat="42.76572182678146" lon="10.882889756259724"><ele>5.666666666666667</ele><time>2026-04-06T11:01:40.001Z</time></trkpt><trkpt lat="42.76566256693279" lon="10.882926255829403"><ele>5.833333333333333</ele><time>2026-04-06T11:01:41.001Z</time></trkpt><trkpt lat="42.76560124913045" lon="10.882959982285696"><ele>6.0</ele><time>2026-04-06T11:01:42.001Z</time></trkpt><trkpt lat="42.76550443144773" lon="10.883040223318053"><ele>6.0</ele><time>2026-04-06T11:01:44.001Z</time></trkpt><trkpt lat="42.76541455688557" lon="10.883103781206023"><ele>6.0</ele><time>2026-04-06T11:01:46.001Z</time></trkpt><trkpt lat="42.76533634754242" lon="10.883173465906122"><ele>6.0</ele><time>2026-04-06T11:01:48.001Z</time></trkpt><trkpt lat="42.7652715102718" lon="10.883231087672215"><ele>6.0</ele><time>2026-04-06T11:01:50.001Z</time></trkpt><trkpt lat="42.76517671905126" lon="10.883301158889811"><ele>6.0</ele><time>2026-04-06T11:01:52.001Z</time></trkpt><trkpt lat="42.76508674368507" lon="10.883354502382478"><ele>5.8</ele><time>2026-04-06T11:01:54.001Z</time></trkpt><trkpt lat="42.76499564423746" lon="10.883418613885446"><ele>5.6</ele><time>2026-04-06T11:01:56.001Z</time></trkpt><trkpt lat="42.76492837520921" lon="10.883464549870544"><ele>5.4</ele><time>2026-04-06T11:01:58.001Z</time></trkpt><trkpt lat="42.76485913947621" lon="10.883519375146134"><ele>5.2</ele><time>2026-04-06T11:02:00.001Z</time></trkpt><trkpt lat="42.764768473661114" lon="10.883588944543249"><ele>5.0</ele><time>2026-04-06T11:02:02.001Z</time></trkpt><trkpt lat="42.764671994571444" lon="10.883657094198153"><ele>4.6</ele><time>2026-04-06T11:02:04.001Z</time></trkpt><trkpt lat="42.76457617840164" lon="10.883728010191001"><ele>4.2</ele><time>2026-04-06T11:02:06Z</time></trkpt><trkpt lat="42.7644852856576" lon="10.883798475507957"><ele>3.8</ele><time>2026-04-06T11:02:08Z</time></trkpt><trkpt lat="42.76439312948385" lon="10.883872544349515"><ele>3.4</ele><time>2026-04-06T11:02:10Z</time></trkpt><trkpt lat="42.7643027622956" lon="10.883938157012771"><ele>3.0</ele><time>2026-04-06T11:02:12Z</time></trkpt><trkpt lat="42.76422381038035" lon="10.883989429144538"><ele>2.8</ele><time>2026-04-06T11:02:14Z</time></trkpt><trkpt lat="42.76415637204797" lon="10.88403856162512"><ele>2.5999999999999996</ele><time>2026-04-06T11:02:16Z</time></trkpt><trkpt lat="42.764089980740664" lon="10.884086539714177"><ele>2.4000000000000004</ele><time>2026-04-06T11:02:19Z</time></trkpt><trkpt lat="42.76402671085251" lon="10.883869495923536"><ele>2.2</ele><time>2026-04-06T11:02:22Z</time></trkpt><trkpt lat="42.764031816365225" lon="10.88376881195038"><ele>2.0</ele><time>2026-04-06T11:02:24Z</time></trkpt><trkpt lat="42.76402821236263" lon="10.883672937510015"><ele>2.0</ele><time>2026-04-06T11:02:26Z</time></trkpt><trkpt lat="42.76403646618979" lon="10.883570365005058"><ele>2.0</ele><time>2026-04-06T11:02:28Z</time></trkpt><trkpt lat="42.764038442366235" lon="10.883446233398402"><ele>2.0</ele><time>2026-04-06T11:02:30Z</time></trkpt><trkpt lat="42.76405549695477" lon="10.883306926613216"><ele>2.0</ele><time>2026-04-06T11:02:32Z</time></trkpt><trkpt lat="42.76406420612303" lon="10.883164974107578"><ele>2.0</ele><time>2026-04-06T11:02:34Z</time></trkpt><trkpt lat="42.76406859651664" lon="10.883045942101418"><ele>2.6</ele><time>2026-04-06T11:02:36Z</time></trkpt><trkpt lat="42.76405180243203" lon="10.882911292640133"><ele>3.2</ele><time>2026-04-06T11:02:38Z</time></trkpt><trkpt lat="42.76393307367537" lon="10.882889426384374"><ele>3.8</ele><time>2026-04-06T11:02:40Z</time></trkpt><trkpt lat="42.76383789378321" lon="10.882871183810865"><ele>4.4</ele><time>2026-04-06T11:02:42Z</time></trkpt><trkpt lat="42.76374857580566" lon="10.882846543092265"><ele>5.0</ele><time>2026-04-06T11:02:44Z</time></trkpt><trkpt lat="42.7636523809503" lon="10.88281178883446"><ele>5.0</ele><time>2026-04-06T11:02:46Z</time></trkpt><trkpt lat="42.76356070510864" lon="10.882787464779758"><ele>5.0</ele><time>2026-04-06T11:02:48Z</time></trkpt><trkpt lat="42.76343958407928" lon="10.882763975487473"><ele>5.0</ele><time>2026-04-06T11:02:50Z</time></trkpt><trkpt lat="42.763337476893334" lon="10.88293677581378"><ele>5.0</ele><time>2026-04-06T11:02:53Z</time></trkpt><trkpt lat="42.763333163577336" lon="10.88302534235417"><ele>5.0</ele><time>2026-04-06T11:02:54Z</time></trkpt><trkpt lat="42.76333776284174" lon="10.883160899334227"><ele>4.666666666666667</ele><time>2026-04-06T11:02:56Z</time></trkpt><trkpt lat="42.763379376253276" lon="10.883264708286777"><ele>4.333333333333334</ele><time>2026-04-06T11:02:58Z</time></trkpt><trkpt lat="42.7633898740358" lon="10.883359611766952"><ele>4.0</ele><time>2026-04-06T11:03:00Z</time></trkpt><trkpt lat="42.76341909150379" lon="10.883442082709339"><ele>3.666666666666667</ele><time>2026-04-06T11:03:04Z</time></trkpt><trkpt lat="42.76345652721092" lon="10.88352945808472"><ele>3.3333333333333335</ele><time>2026-04-06T11:03:06Z</time></trkpt><trkpt lat="42.76350240950994" lon="10.883633480370204"><ele>3.0</ele><time>2026-04-06T11:03:08Z</time></trkpt><trkpt lat="42.76356868630251" lon="10.883758621305548"><ele>2.8333333333333335</ele><time>2026-04-06T11:03:10Z</time></trkpt><trkpt lat="42.763651444510806" lon="10.8839015093622"><ele>2.6666666666666665</ele><time>2026-04-06T11:03:12Z</time></trkpt><trkpt lat="42.76369372246888" lon="10.883974751481452"><ele>2.5</ele><time>2026-04-06T11:03:13Z</time></trkpt><trkpt lat="42.76375295724854" lon="10.884084342938467"><ele>2.333333333333333</ele><time>2026-04-06T11:03:15.001Z</time></trkpt><trkpt lat="42.763795767364535" lon="10.88417461515085"><ele>2.1666666666666665</ele><time>2026-04-06T11:03:17.001Z</time></trkpt><trkpt lat="42.76382323453411" lon="10.884259811028947"><ele>2.0</ele><time>2026-04-06T11:03:19.001Z</time></trkpt><trkpt lat="42.76376124282951" lon="10.884361492607695"><ele>1.8</ele><time>2026-04-06T11:03:21.001Z</time></trkpt><trkpt lat="42.76369501088101" lon="10.884403241537864"><ele>1.6</ele><time>2026-04-06T11:03:22.001Z</time></trkpt><trkpt lat="42.76360562165124" lon="10.884471396345596"><ele>1.4000000000000001</ele><time>2026-04-06T11:03:23.001Z</time></trkpt><trkpt lat="42.763490569557554" lon="10.88455893183168"><ele>1.2000000000000002</ele><time>2026-04-06T11:03:24.001Z</time></trkpt><trkpt lat="42.763383581253905" lon="10.88464016437592"><ele>1.0</ele><time>2026-04-06T11:03:25.001Z</time></trkpt><trkpt lat="42.7633045126737" lon="10.884700515460596"><ele>0.8333333333333333</ele><time>2026-04-06T11:03:26.001Z</time></trkpt><trkpt lat="42.7632482522757" lon="10.884742658544674"><ele>0.6666666666666666</ele><time>2026-04-06T11:03:27.001Z</time></trkpt><trkpt lat="42.76317431422069" lon="10.884799820224606"><ele>0.5</ele><time>2026-04-06T11:03:29.001Z</time></trkpt><trkpt lat="42.76310132902329" lon="10.884855284316888"><ele>0.3333333333333333</ele><time>2026-04-06T11:03:31.001Z</time></trkpt><trkpt lat="42.76300200413235" lon="10.884930030740428"><ele>0.16666666666666666</ele><time>2026-04-06T11:03:33.001Z</time></trkpt><trkpt lat="42.762942598944775" lon="10.884975164764407"><ele>0.0</ele><time>2026-04-06T11:03:34.001Z</time></trkpt><trkpt lat="42.76287995537059" lon="10.885023298962713"><ele>0.0</ele><time>2026-04-06T11:03:35.001Z</time></trkpt><trkpt lat="42.7628174180298" lon="10.885071341969534"><ele>0.0</ele><time>2026-04-06T11:03:36.001Z</time></trkpt><trkpt lat="42.762755969134005" lon="10.885118548802632"><ele>0.0</ele><time>2026-04-06T11:03:37.001Z</time></trkpt><trkpt lat="42.76269163994174" lon="10.885167600404927"><ele>0.0</ele><time>2026-04-06T11:03:38.001Z</time></trkpt><trkpt lat="42.76262336147" lon="10.885219635755414"><ele>0.0</ele><time>2026-04-06T11:03:39.001Z</time></trkpt><trkpt lat="42.76254392519483" lon="10.885280174518726"><ele>0.0</ele><time>2026-04-06T11:03:40.001Z</time></trkpt><trkpt lat="42.76246186821704" lon="10.885342710525132"><ele>0.3333333333333333</ele><time>2026-04-06T11:03:41.001Z</time></trkpt><trkpt lat="42.76239015587153" lon="10.885422815892493"><ele>0.6666666666666666</ele><time>2026-04-06T11:03:42.001Z</time></trkpt><trkpt lat="42.76231243187692" lon="10.885469289495308"><ele>1.0</ele><time>2026-04-06T11:03:43.001Z</time></trkpt><trkpt lat="42.76224955236783" lon="10.88552020886593"><ele>1.3333333333333333</ele><time>2026-04-06T11:03:44.001Z</time></trkpt><trkpt lat="42.7621792112685" lon="10.88556617050327"><ele>1.6666666666666665</ele><time>2026-04-06T11:03:45.001Z</time></trkpt><trkpt lat="42.762115864666185" lon="10.885628697925483"><ele>2.0</ele><time>2026-04-06T11:03:46.001Z</time></trkpt><trkpt lat="42.762026102058094" lon="10.885702246898548"><ele>2.0</ele><time>2026-04-06T11:03:48.001Z</time></trkpt><trkpt lat="42.76194857031532" lon="10.885735851972541"><ele>2.0</ele><time>2026-04-06T11:03:51.001Z</time></trkpt><trkpt lat="42.76186490709275" lon="10.885736675092534"><ele>2.0</ele><time>2026-04-06T11:03:57.001Z</time></trkpt><trkpt lat="42.76182095855989" lon="10.885618521550873"><ele>2.0</ele><time>2026-04-06T11:04:00.001Z</time></trkpt><trkpt lat="42.761778540024096" lon="10.885502088059782"><ele>2.0</ele><time>2026-04-06T11:04:02.001Z</time></trkpt><trkpt lat="42.761727070839854" lon="10.885368379631458"><ele>2.6</ele><time>2026-04-06T11:04:04.001Z</time></trkpt><trkpt lat="42.76167722078951" lon="10.885254729924544"><ele>3.2</ele><time>2026-04-06T11:04:06.001Z</time></trkpt><trkpt lat="42.761614058312816" lon="10.885173661224147"><ele>3.8</ele><time>2026-04-06T11:04:09.001Z</time></trkpt><trkpt lat="42.761447966830005" lon="10.885154281625885"><ele>4.4</ele><time>2026-04-06T11:04:13Z</time></trkpt><trkpt lat="42.76137513390369" lon="10.885203877275954"><ele>5.0</ele><time>2026-04-06T11:04:15Z</time></trkpt><trkpt lat="42.761312315661996" lon="10.885309937533243"><ele>5.0</ele><time>2026-04-06T11:04:17Z</time></trkpt><trkpt lat="42.76124572432626" lon="10.88537643304013"><ele>5.0</ele><time>2026-04-06T11:04:19Z</time></trkpt><trkpt lat="42.76118202613347" lon="10.885438131915988"><ele>5.0</ele><time>2026-04-06T11:04:21Z</time></trkpt><trkpt lat="42.76111540841208" lon="10.885523981539425"><ele>5.0</ele><time>2026-04-06T11:04:24Z</time></trkpt><trkpt lat="42.7610502247117" lon="10.885611785139293"><ele>5.0</ele><time>2026-04-06T11:04:26Z</time></trkpt><trkpt lat="42.760993645395374" lon="10.885684027756044"><ele>5.0</ele><time>2026-04-06T11:04:28Z</time></trkpt><trkpt lat="42.76093927312373" lon="10.885768434284056"><ele>5.0</ele><time>2026-04-06T11:04:30Z</time></trkpt><trkpt lat="42.7608927531003" lon="10.885851556598228"><ele>5.0</ele><time>2026-04-06T11:04:32Z</time></trkpt><trkpt lat="42.76084364896091" lon="10.885980154297194"><ele>5.0</ele><time>2026-04-06T11:04:35Z</time></trkpt><trkpt lat="42.76081324806332" lon="10.88613267320975"><ele>5.0</ele><time>2026-04-06T11:04:37Z</time></trkpt><trkpt lat="42.76080862702047" lon="10.88628158234394"><ele>5.0</ele><time>2026-04-06T11:04:39Z</time></trkpt><trkpt lat="42.7607987847498" lon="10.88644039205454"><ele>5.0</ele><time>2026-04-06T11:04:41Z</time></trkpt><trkpt lat="42.76078842412026" lon="10.886526206804243"><ele>5.0</ele><time>2026-04-06T11:04:42Z</time></trkpt><trkpt lat="42.76077795512788" lon="10.88661382783913"><ele>5.0</ele><time>2026-04-06T11:04:43Z</time></trkpt><trkpt lat="42.76076736168958" lon="10.886758011325822"><ele>5.0</ele><time>2026-04-06T11:04:45Z</time></trkpt><trkpt lat="42.760756426643745" lon="10.886876256130094"><ele>5.0</ele><time>2026-04-06T11:04:47Z</time></trkpt><trkpt lat="42.760749198939976" lon="10.886984532681021"><ele>5.0</ele><time>2026-04-06T11:04:49Z</time></trkpt><trkpt lat="42.76074029220502" lon="10.887076056818026"><ele>5.166666666666667</ele><time>2026-04-06T11:04:52Z</time></trkpt><trkpt lat="42.760861365840924" lon="10.887088905490419"><ele>5.333333333333334</ele><time>2026-04-06T11:04:54Z</time></trkpt><trkpt lat="42.76093031570034" lon="10.887071910128588"><ele>5.5</ele><time>2026-04-06T11:04:57Z</time></trkpt><trkpt lat="42.76096896373428" lon="10.886923883129782"><ele>5.666666666666667</ele><time>2026-04-06T11:07:27Z</time></trkpt><trkpt lat="42.7609636548341" lon="10.887010819823589"><ele>5.833333333333333</ele><time>2026-04-06T11:08:25Z</time></trkpt><trkpt lat="42.760964389804926" lon="10.886918304606821"><ele>6.0</ele><time>2026-04-06T11:08:53Z</time></trkpt><trkpt lat="42.760923026518014" lon="10.8868398328079"><ele>5.999999999999999</ele><time>2026-04-06T11:09:14Z</time></trkpt><trkpt lat="42.76088464534207" lon="10.886770079883584"><ele>6.0</ele><time>2026-04-06T11:09:17Z</time></trkpt><trkpt lat="42.7608154705049" lon="10.88674472589872"><ele>6.0</ele><time>2026-04-06T11:09:21Z</time></trkpt><trkpt lat="42.7607906134142" lon="10.886841623506822"><ele>6.0</ele><time>2026-04-06T11:09:27Z</time></trkpt><trkpt lat="42.760791300836246" lon="10.88693141132838"><ele>6.0</ele><time>2026-04-06T11:09:37Z</time></trkpt><trkpt lat="42.76086529177227" lon="10.886909580957386"><ele>5.999999999999999</ele><time>2026-04-06T11:09:55.001Z</time></trkpt><trkpt lat="42.76093425639029" lon="10.886902380281352"><ele>6.0</ele><time>2026-04-06T11:09:59.001Z</time></trkpt><trkpt lat="42.76087703757286" lon="10.886856796998618"><ele>6.0</ele><time>2026-04-06T11:11:43.001Z</time></trkpt><trkpt lat="42.76085287218518" lon="10.88695513741866"><ele>6.0</ele><time>2026-04-06T11:11:51.001Z</time></trkpt><trkpt lat="42.76085602722257" lon="10.886854191992061"><ele>6.0</ele><time>2026-04-06T11:12:16.001Z</time></trkpt></trkseg></trk></gpx>